<?xml version="1.0" encoding="UTF-8" standalone="no" ?>
<gpx xmlns="http://www.topografix.com/GPX/1/1" xmlns:xsi="http://www.w3.org/2001/XMLSchema-instance" xsi:schemaLocation="http://www.topografix.com/GPX/1/1 http://www.topografix.com/GPX/1/1/gpx.xsd" version="1.1" creator="VisuGPX - https://www.visugpx.com">
  <metadata>
    <name>Le ranc de banes depuis Ganges</name>
    <desc><![CDATA[Parcours de la reconnaissance de la randonnée prévue le 10 mai 2015.]]></desc>
  </metadata>
  <trk>
    <name><![CDATA[RANC AGAST:36:14]]></name>
    <trkseg>
      <trkpt lat="43.944" lon="3.71746">
        <ele>108.29</ele>
        <time>2015-02-19T09:04:27Z</time>
      </trkpt>
      <trkpt lat="43.94403" lon="3.71745">
        <ele>114.53</ele>
        <time>2015-02-19T09:04:29Z</time>
      </trkpt>
      <trkpt lat="43.94406" lon="3.71746">
        <ele>120.3</ele>
        <time>2015-02-19T09:04:32Z</time>
      </trkpt>
      <trkpt lat="43.94406" lon="3.71746">
        <ele>123.67</ele>
        <time>2015-02-19T09:04:33Z</time>
      </trkpt>
      <trkpt lat="43.94409" lon="3.71748">
        <ele>128.95</ele>
        <time>2015-02-19T09:04:36Z</time>
      </trkpt>
      <trkpt lat="43.94411" lon="3.7175">
        <ele>131.84</ele>
        <time>2015-02-19T09:04:38Z</time>
      </trkpt>
      <trkpt lat="43.94412" lon="3.71752">
        <ele>136.64</ele>
        <time>2015-02-19T09:04:40Z</time>
      </trkpt>
      <trkpt lat="43.94413" lon="3.71755">
        <ele>140.01</ele>
        <time>2015-02-19T09:04:43Z</time>
      </trkpt>
      <trkpt lat="43.94413" lon="3.71756">
        <ele>142.89</ele>
        <time>2015-02-19T09:04:44Z</time>
      </trkpt>
      <trkpt lat="43.94415" lon="3.71759">
        <ele>146.26</ele>
        <time>2015-02-19T09:04:47Z</time>
      </trkpt>
      <trkpt lat="43.94415" lon="3.71762">
        <ele>149.62</ele>
        <time>2015-02-19T09:04:49Z</time>
      </trkpt>
      <trkpt lat="43.94416" lon="3.71765">
        <ele>151.06</ele>
        <time>2015-02-19T09:04:51Z</time>
      </trkpt>
      <trkpt lat="43.94416" lon="3.71768">
        <ele>153.95</ele>
        <time>2015-02-19T09:04:53Z</time>
      </trkpt>
      <trkpt lat="43.94416" lon="3.71773">
        <ele>157.31</ele>
        <time>2015-02-19T09:04:56Z</time>
      </trkpt>
      <trkpt lat="43.94415" lon="3.71774">
        <ele>156.35</ele>
        <time>2015-02-19T09:04:57Z</time>
      </trkpt>
      <trkpt lat="43.94414" lon="3.71777">
        <ele>159.72</ele>
        <time>2015-02-19T09:04:59Z</time>
      </trkpt>
      <trkpt lat="43.94414" lon="3.71779">
        <ele>159.72</ele>
        <time>2015-02-19T09:05:00Z</time>
      </trkpt>
      <trkpt lat="43.94414" lon="3.71784">
        <ele>162.12</ele>
        <time>2015-02-19T09:05:03Z</time>
      </trkpt>
      <trkpt lat="43.94414" lon="3.7179">
        <ele>165.48</ele>
        <time>2015-02-19T09:05:07Z</time>
      </trkpt>
      <trkpt lat="43.94415" lon="3.71794">
        <ele>166.93</ele>
        <time>2015-02-19T09:05:11Z</time>
      </trkpt>
      <trkpt lat="43.94413" lon="3.71799">
        <ele>167.89</ele>
        <time>2015-02-19T09:05:15Z</time>
      </trkpt>
      <trkpt lat="43.94413" lon="3.71804">
        <ele>170.29</ele>
        <time>2015-02-19T09:05:18Z</time>
      </trkpt>
      <trkpt lat="43.94415" lon="3.71808">
        <ele>175.1</ele>
        <time>2015-02-19T09:05:21Z</time>
      </trkpt>
      <trkpt lat="43.94415" lon="3.71809">
        <ele>172.21</ele>
        <time>2015-02-19T09:05:22Z</time>
      </trkpt>
      <trkpt lat="43.94421" lon="3.71819">
        <ele>177.5</ele>
        <time>2015-02-19T09:05:29Z</time>
      </trkpt>
      <trkpt lat="43.94421" lon="3.7182">
        <ele>177.02</ele>
        <time>2015-02-19T09:05:30Z</time>
      </trkpt>
      <trkpt lat="43.94422" lon="3.71827">
        <ele>179.42</ele>
        <time>2015-02-19T09:05:36Z</time>
      </trkpt>
      <trkpt lat="43.94422" lon="3.71829">
        <ele>176.06</ele>
        <time>2015-02-19T09:05:37Z</time>
      </trkpt>
      <trkpt lat="43.94423" lon="3.7183">
        <ele>177.02</ele>
        <time>2015-02-19T09:05:38Z</time>
      </trkpt>
      <trkpt lat="43.94426" lon="3.71836">
        <ele>178.94</ele>
        <time>2015-02-19T09:05:43Z</time>
      </trkpt>
      <trkpt lat="43.94427" lon="3.71841">
        <ele>178.94</ele>
        <time>2015-02-19T09:05:46Z</time>
      </trkpt>
      <trkpt lat="43.94429" lon="3.71844">
        <ele>181.35</ele>
        <time>2015-02-19T09:05:48Z</time>
      </trkpt>
      <trkpt lat="43.94432" lon="3.71851">
        <ele>179.42</ele>
        <time>2015-02-19T09:05:53Z</time>
      </trkpt>
      <trkpt lat="43.94439" lon="3.71863">
        <ele>181.83</ele>
        <time>2015-02-19T09:06:00Z</time>
      </trkpt>
      <trkpt lat="43.9444" lon="3.71882">
        <ele>185.19</ele>
        <time>2015-02-19T09:06:13Z</time>
      </trkpt>
      <trkpt lat="43.94439" lon="3.71885">
        <ele>182.31</ele>
        <time>2015-02-19T09:06:15Z</time>
      </trkpt>
      <trkpt lat="43.94438" lon="3.71894">
        <ele>183.75</ele>
        <time>2015-02-19T09:06:21Z</time>
      </trkpt>
      <trkpt lat="43.94438" lon="3.71897">
        <ele>180.38</ele>
        <time>2015-02-19T09:06:23Z</time>
      </trkpt>
      <trkpt lat="43.94438" lon="3.71899">
        <ele>181.35</ele>
        <time>2015-02-19T09:06:24Z</time>
      </trkpt>
      <trkpt lat="43.94437" lon="3.71902">
        <ele>182.79</ele>
        <time>2015-02-19T09:06:26Z</time>
      </trkpt>
      <trkpt lat="43.94437" lon="3.71907">
        <ele>185.67</ele>
        <time>2015-02-19T09:06:30Z</time>
      </trkpt>
      <trkpt lat="43.94435" lon="3.71917">
        <ele>182.79</ele>
        <time>2015-02-19T09:06:36Z</time>
      </trkpt>
      <trkpt lat="43.94435" lon="3.71919">
        <ele>181.83</ele>
        <time>2015-02-19T09:06:38Z</time>
      </trkpt>
      <trkpt lat="43.94433" lon="3.7193">
        <ele>179.9</ele>
        <time>2015-02-19T09:06:45Z</time>
      </trkpt>
      <trkpt lat="43.94433" lon="3.71931">
        <ele>179.42</ele>
        <time>2015-02-19T09:06:46Z</time>
      </trkpt>
      <trkpt lat="43.94432" lon="3.71935">
        <ele>183.27</ele>
        <time>2015-02-19T09:06:49Z</time>
      </trkpt>
      <trkpt lat="43.94429" lon="3.71956">
        <ele>179.42</ele>
        <time>2015-02-19T09:07:03Z</time>
      </trkpt>
      <trkpt lat="43.94428" lon="3.7196">
        <ele>184.23</ele>
        <time>2015-02-19T09:07:05Z</time>
      </trkpt>
      <trkpt lat="43.94426" lon="3.71963">
        <ele>180.87</ele>
        <time>2015-02-19T09:07:07Z</time>
      </trkpt>
      <trkpt lat="43.94421" lon="3.71979">
        <ele>179.42</ele>
        <time>2015-02-19T09:07:17Z</time>
      </trkpt>
      <trkpt lat="43.94419" lon="3.72007">
        <ele>179.9</ele>
        <time>2015-02-19T09:07:34Z</time>
      </trkpt>
      <trkpt lat="43.9442" lon="3.72029">
        <ele>180.38</ele>
        <time>2015-02-19T09:07:47Z</time>
      </trkpt>
      <trkpt lat="43.94418" lon="3.72038">
        <ele>178.46</ele>
        <time>2015-02-19T09:07:53Z</time>
      </trkpt>
      <trkpt lat="43.94414" lon="3.72062">
        <ele>178.94</ele>
        <time>2015-02-19T09:08:07Z</time>
      </trkpt>
      <trkpt lat="43.9441" lon="3.72088">
        <ele>178.94</ele>
        <time>2015-02-19T09:08:21Z</time>
      </trkpt>
      <trkpt lat="43.9441" lon="3.72092">
        <ele>175.58</ele>
        <time>2015-02-19T09:08:23Z</time>
      </trkpt>
      <trkpt lat="43.94409" lon="3.721">
        <ele>178.46</ele>
        <time>2015-02-19T09:08:29Z</time>
      </trkpt>
      <trkpt lat="43.94407" lon="3.72113">
        <ele>174.62</ele>
        <time>2015-02-19T09:08:40Z</time>
      </trkpt>
      <trkpt lat="43.94407" lon="3.72116">
        <ele>177.98</ele>
        <time>2015-02-19T09:08:42Z</time>
      </trkpt>
      <trkpt lat="43.94406" lon="3.72122">
        <ele>177.98</ele>
        <time>2015-02-19T09:08:46Z</time>
      </trkpt>
      <trkpt lat="43.94407" lon="3.72124">
        <ele>175.58</ele>
        <time>2015-02-19T09:08:48Z</time>
      </trkpt>
      <trkpt lat="43.94407" lon="3.72131">
        <ele>177.5</ele>
        <time>2015-02-19T09:08:53Z</time>
      </trkpt>
      <trkpt lat="43.94407" lon="3.72134">
        <ele>175.1</ele>
        <time>2015-02-19T09:08:55Z</time>
      </trkpt>
      <trkpt lat="43.94406" lon="3.72148">
        <ele>177.98</ele>
        <time>2015-02-19T09:09:06Z</time>
      </trkpt>
      <trkpt lat="43.94405" lon="3.72149">
        <ele>177.5</ele>
        <time>2015-02-19T09:09:07Z</time>
      </trkpt>
      <trkpt lat="43.94403" lon="3.72162">
        <ele>174.14</ele>
        <time>2015-02-19T09:09:14Z</time>
      </trkpt>
      <trkpt lat="43.94403" lon="3.72165">
        <ele>176.54</ele>
        <time>2015-02-19T09:09:15Z</time>
      </trkpt>
      <trkpt lat="43.94403" lon="3.72194">
        <ele>175.58</ele>
        <time>2015-02-19T09:09:27Z</time>
      </trkpt>
      <trkpt lat="43.94405" lon="3.722">
        <ele>174.62</ele>
        <time>2015-02-19T09:09:31Z</time>
      </trkpt>
      <trkpt lat="43.94406" lon="3.72205">
        <ele>173.17</ele>
        <time>2015-02-19T09:09:34Z</time>
      </trkpt>
      <trkpt lat="43.94408" lon="3.72208">
        <ele>177.02</ele>
        <time>2015-02-19T09:09:37Z</time>
      </trkpt>
      <trkpt lat="43.94409" lon="3.72209">
        <ele>175.58</ele>
        <time>2015-02-19T09:09:38Z</time>
      </trkpt>
      <trkpt lat="43.94409" lon="3.7221">
        <ele>174.62</ele>
        <time>2015-02-19T09:09:40Z</time>
      </trkpt>
      <trkpt lat="43.9441" lon="3.7221">
        <ele>173.17</ele>
        <time>2015-02-19T09:09:42Z</time>
      </trkpt>
      <trkpt lat="43.94416" lon="3.72207">
        <ele>177.02</ele>
        <time>2015-02-19T09:09:50Z</time>
      </trkpt>
      <trkpt lat="43.94417" lon="3.72206">
        <ele>173.66</ele>
        <time>2015-02-19T09:09:51Z</time>
      </trkpt>
      <trkpt lat="43.94428" lon="3.72206">
        <ele>174.62</ele>
        <time>2015-02-19T09:10:00Z</time>
      </trkpt>
      <trkpt lat="43.94433" lon="3.72206">
        <ele>177.5</ele>
        <time>2015-02-19T09:10:04Z</time>
      </trkpt>
      <trkpt lat="43.94436" lon="3.72206">
        <ele>175.58</ele>
        <time>2015-02-19T09:10:06Z</time>
      </trkpt>
      <trkpt lat="43.94441" lon="3.72207">
        <ele>178.94</ele>
        <time>2015-02-19T09:10:10Z</time>
      </trkpt>
      <trkpt lat="43.94442" lon="3.72207">
        <ele>175.1</ele>
        <time>2015-02-19T09:10:11Z</time>
      </trkpt>
      <trkpt lat="43.94456" lon="3.72209">
        <ele>177.5</ele>
        <time>2015-02-19T09:10:22Z</time>
      </trkpt>
      <trkpt lat="43.94464" lon="3.72211">
        <ele>177.5</ele>
        <time>2015-02-19T09:10:29Z</time>
      </trkpt>
      <trkpt lat="43.9447" lon="3.72214">
        <ele>179.42</ele>
        <time>2015-02-19T09:10:34Z</time>
      </trkpt>
      <trkpt lat="43.94471" lon="3.72214">
        <ele>178.94</ele>
        <time>2015-02-19T09:10:35Z</time>
      </trkpt>
      <trkpt lat="43.94477" lon="3.72214">
        <ele>177.02</ele>
        <time>2015-02-19T09:10:40Z</time>
      </trkpt>
      <trkpt lat="43.94479" lon="3.72215">
        <ele>178.46</ele>
        <time>2015-02-19T09:10:42Z</time>
      </trkpt>
      <trkpt lat="43.94491" lon="3.72224">
        <ele>178.94</ele>
        <time>2015-02-19T09:10:54Z</time>
      </trkpt>
      <trkpt lat="43.94494" lon="3.72226">
        <ele>177.5</ele>
        <time>2015-02-19T09:10:56Z</time>
      </trkpt>
      <trkpt lat="43.94497" lon="3.72229">
        <ele>178.94</ele>
        <time>2015-02-19T09:10:59Z</time>
      </trkpt>
      <trkpt lat="43.945" lon="3.72235">
        <ele>177.98</ele>
        <time>2015-02-19T09:11:04Z</time>
      </trkpt>
      <trkpt lat="43.94502" lon="3.72243">
        <ele>179.42</ele>
        <time>2015-02-19T09:11:09Z</time>
      </trkpt>
      <trkpt lat="43.94504" lon="3.72247">
        <ele>177.98</ele>
        <time>2015-02-19T09:11:12Z</time>
      </trkpt>
      <trkpt lat="43.94505" lon="3.72251">
        <ele>181.35</ele>
        <time>2015-02-19T09:11:15Z</time>
      </trkpt>
      <trkpt lat="43.94506" lon="3.72255">
        <ele>177.5</ele>
        <time>2015-02-19T09:11:17Z</time>
      </trkpt>
      <trkpt lat="43.94506" lon="3.72257">
        <ele>177.5</ele>
        <time>2015-02-19T09:11:18Z</time>
      </trkpt>
      <trkpt lat="43.94508" lon="3.72264">
        <ele>179.42</ele>
        <time>2015-02-19T09:11:23Z</time>
      </trkpt>
      <trkpt lat="43.94513" lon="3.72285">
        <ele>177.98</ele>
        <time>2015-02-19T09:11:36Z</time>
      </trkpt>
      <trkpt lat="43.94516" lon="3.72295">
        <ele>182.31</ele>
        <time>2015-02-19T09:11:42Z</time>
      </trkpt>
      <trkpt lat="43.94516" lon="3.72298">
        <ele>178.46</ele>
        <time>2015-02-19T09:11:44Z</time>
      </trkpt>
      <trkpt lat="43.94517" lon="3.72301">
        <ele>182.31</ele>
        <time>2015-02-19T09:11:46Z</time>
      </trkpt>
      <trkpt lat="43.94518" lon="3.72303">
        <ele>181.35</ele>
        <time>2015-02-19T09:11:47Z</time>
      </trkpt>
      <trkpt lat="43.94523" lon="3.72325">
        <ele>180.38</ele>
        <time>2015-02-19T09:12:01Z</time>
      </trkpt>
      <trkpt lat="43.94525" lon="3.72338">
        <ele>182.31</ele>
        <time>2015-02-19T09:12:10Z</time>
      </trkpt>
      <trkpt lat="43.94526" lon="3.72341">
        <ele>179.42</ele>
        <time>2015-02-19T09:12:12Z</time>
      </trkpt>
      <trkpt lat="43.94526" lon="3.72343">
        <ele>182.79</ele>
        <time>2015-02-19T09:12:13Z</time>
      </trkpt>
      <trkpt lat="43.94528" lon="3.72357">
        <ele>182.31</ele>
        <time>2015-02-19T09:12:23Z</time>
      </trkpt>
      <trkpt lat="43.94528" lon="3.72363">
        <ele>181.35</ele>
        <time>2015-02-19T09:12:27Z</time>
      </trkpt>
      <trkpt lat="43.94534" lon="3.72376">
        <ele>181.83</ele>
        <time>2015-02-19T09:12:36Z</time>
      </trkpt>
      <trkpt lat="43.9454" lon="3.72397">
        <ele>184.71</ele>
        <time>2015-02-19T09:12:50Z</time>
      </trkpt>
      <trkpt lat="43.94546" lon="3.72419">
        <ele>182.31</ele>
        <time>2015-02-19T09:13:05Z</time>
      </trkpt>
      <trkpt lat="43.94548" lon="3.72422">
        <ele>186.63</ele>
        <time>2015-02-19T09:13:07Z</time>
      </trkpt>
      <trkpt lat="43.94548" lon="3.72424">
        <ele>181.83</ele>
        <time>2015-02-19T09:13:08Z</time>
      </trkpt>
      <trkpt lat="43.94549" lon="3.72425">
        <ele>185.67</ele>
        <time>2015-02-19T09:13:09Z</time>
      </trkpt>
      <trkpt lat="43.94549" lon="3.72428">
        <ele>181.83</ele>
        <time>2015-02-19T09:13:11Z</time>
      </trkpt>
      <trkpt lat="43.94551" lon="3.72437">
        <ele>185.67</ele>
        <time>2015-02-19T09:13:16Z</time>
      </trkpt>
      <trkpt lat="43.94551" lon="3.72438">
        <ele>184.23</ele>
        <time>2015-02-19T09:13:17Z</time>
      </trkpt>
      <trkpt lat="43.94552" lon="3.72447">
        <ele>183.75</ele>
        <time>2015-02-19T09:13:22Z</time>
      </trkpt>
      <trkpt lat="43.94555" lon="3.72462">
        <ele>185.19</ele>
        <time>2015-02-19T09:13:33Z</time>
      </trkpt>
      <trkpt lat="43.94557" lon="3.72471">
        <ele>184.71</ele>
        <time>2015-02-19T09:13:40Z</time>
      </trkpt>
      <trkpt lat="43.94565" lon="3.72492">
        <ele>183.27</ele>
        <time>2015-02-19T09:13:55Z</time>
      </trkpt>
      <trkpt lat="43.94565" lon="3.72493">
        <ele>183.27</ele>
        <time>2015-02-19T09:13:56Z</time>
      </trkpt>
      <trkpt lat="43.94567" lon="3.72497">
        <ele>185.19</ele>
        <time>2015-02-19T09:13:58Z</time>
      </trkpt>
      <trkpt lat="43.94575" lon="3.72513">
        <ele>187.11</ele>
        <time>2015-02-19T09:14:09Z</time>
      </trkpt>
      <trkpt lat="43.94575" lon="3.72518">
        <ele>185.67</ele>
        <time>2015-02-19T09:14:11Z</time>
      </trkpt>
      <trkpt lat="43.94581" lon="3.72527">
        <ele>183.75</ele>
        <time>2015-02-19T09:14:18Z</time>
      </trkpt>
      <trkpt lat="43.94583" lon="3.7253">
        <ele>184.23</ele>
        <time>2015-02-19T09:14:21Z</time>
      </trkpt>
      <trkpt lat="43.94589" lon="3.72536">
        <ele>187.59</ele>
        <time>2015-02-19T09:14:27Z</time>
      </trkpt>
      <trkpt lat="43.9459" lon="3.72537">
        <ele>183.75</ele>
        <time>2015-02-19T09:14:28Z</time>
      </trkpt>
      <trkpt lat="43.9459" lon="3.72538">
        <ele>184.23</ele>
        <time>2015-02-19T09:14:29Z</time>
      </trkpt>
      <trkpt lat="43.94598" lon="3.72544">
        <ele>187.59</ele>
        <time>2015-02-19T09:14:37Z</time>
      </trkpt>
      <trkpt lat="43.94602" lon="3.72545">
        <ele>186.15</ele>
        <time>2015-02-19T09:14:41Z</time>
      </trkpt>
      <trkpt lat="43.94607" lon="3.72548">
        <ele>185.19</ele>
        <time>2015-02-19T09:14:53Z</time>
      </trkpt>
      <trkpt lat="43.94613" lon="3.7255">
        <ele>187.11</ele>
        <time>2015-02-19T09:15:01Z</time>
      </trkpt>
      <trkpt lat="43.94614" lon="3.72549">
        <ele>187.11</ele>
        <time>2015-02-19T09:15:03Z</time>
      </trkpt>
      <trkpt lat="43.94618" lon="3.72547">
        <ele>189.04</ele>
        <time>2015-02-19T09:15:07Z</time>
      </trkpt>
      <trkpt lat="43.94619" lon="3.72546">
        <ele>188.56</ele>
        <time>2015-02-19T09:15:08Z</time>
      </trkpt>
      <trkpt lat="43.94625" lon="3.72542">
        <ele>189.52</ele>
        <time>2015-02-19T09:15:13Z</time>
      </trkpt>
      <trkpt lat="43.94626" lon="3.72541">
        <ele>185.19</ele>
        <time>2015-02-19T09:15:15Z</time>
      </trkpt>
      <trkpt lat="43.94627" lon="3.72541">
        <ele>187.59</ele>
        <time>2015-02-19T09:15:16Z</time>
      </trkpt>
      <trkpt lat="43.9463" lon="3.7254">
        <ele>188.08</ele>
        <time>2015-02-19T09:15:18Z</time>
      </trkpt>
      <trkpt lat="43.94632" lon="3.72539">
        <ele>189.04</ele>
        <time>2015-02-19T09:15:31Z</time>
      </trkpt>
      <trkpt lat="43.94632" lon="3.72539">
        <ele>192.88</ele>
        <time>2015-02-19T09:15:36Z</time>
      </trkpt>
      <trkpt lat="43.94632" lon="3.72539">
        <ele>192.88</ele>
        <time>2015-02-19T09:15:37Z</time>
      </trkpt>
      <trkpt lat="43.94632" lon="3.72539">
        <ele>189.52</ele>
        <time>2015-02-19T09:15:48Z</time>
      </trkpt>
      <trkpt lat="43.94632" lon="3.72539">
        <ele>193.84</ele>
        <time>2015-02-19T09:15:50Z</time>
      </trkpt>
      <trkpt lat="43.94632" lon="3.72539">
        <ele>190.48</ele>
        <time>2015-02-19T09:15:55Z</time>
      </trkpt>
      <trkpt lat="43.94632" lon="3.72539">
        <ele>194.8</ele>
        <time>2015-02-19T09:15:59Z</time>
      </trkpt>
      <trkpt lat="43.94632" lon="3.72539">
        <ele>194.8</ele>
        <time>2015-02-19T09:16:00Z</time>
      </trkpt>
      <trkpt lat="43.94631" lon="3.72537">
        <ele>190.96</ele>
        <time>2015-02-19T09:16:01Z</time>
      </trkpt>
      <trkpt lat="43.94631" lon="3.72537">
        <ele>190.96</ele>
        <time>2015-02-19T09:16:02Z</time>
      </trkpt>
      <trkpt lat="43.94631" lon="3.72537">
        <ele>193.36</ele>
        <time>2015-02-19T09:16:28Z</time>
      </trkpt>
      <trkpt lat="43.94631" lon="3.72537">
        <ele>190.48</ele>
        <time>2015-02-19T09:16:30Z</time>
      </trkpt>
      <trkpt lat="43.94631" lon="3.72537">
        <ele>190.48</ele>
        <time>2015-02-19T09:16:37Z</time>
      </trkpt>
      <trkpt lat="43.94631" lon="3.72537">
        <ele>193.36</ele>
        <time>2015-02-19T09:16:38Z</time>
      </trkpt>
      <trkpt lat="43.94631" lon="3.72537">
        <ele>191.44</ele>
        <time>2015-02-19T09:16:39Z</time>
      </trkpt>
      <trkpt lat="43.94632" lon="3.72537">
        <ele>194.8</ele>
        <time>2015-02-19T09:16:48Z</time>
      </trkpt>
      <trkpt lat="43.94632" lon="3.72537">
        <ele>191.44</ele>
        <time>2015-02-19T09:16:51Z</time>
      </trkpt>
      <trkpt lat="43.94632" lon="3.72537">
        <ele>192.88</ele>
        <time>2015-02-19T09:16:54Z</time>
      </trkpt>
      <trkpt lat="43.94632" lon="3.72537">
        <ele>190</ele>
        <time>2015-02-19T09:16:59Z</time>
      </trkpt>
      <trkpt lat="43.94632" lon="3.72537">
        <ele>193.36</ele>
        <time>2015-02-19T09:17:14Z</time>
      </trkpt>
      <trkpt lat="43.94632" lon="3.72537">
        <ele>190</ele>
        <time>2015-02-19T09:17:15Z</time>
      </trkpt>
      <trkpt lat="43.94632" lon="3.72537">
        <ele>192.88</ele>
        <time>2015-02-19T09:17:24Z</time>
      </trkpt>
      <trkpt lat="43.94632" lon="3.72537">
        <ele>188.56</ele>
        <time>2015-02-19T09:17:26Z</time>
      </trkpt>
      <trkpt lat="43.94634" lon="3.72536">
        <ele>192.4</ele>
        <time>2015-02-19T09:17:31Z</time>
      </trkpt>
      <trkpt lat="43.94634" lon="3.72536">
        <ele>192.4</ele>
        <time>2015-02-19T09:17:38Z</time>
      </trkpt>
      <trkpt lat="43.94639" lon="3.72537">
        <ele>191.92</ele>
        <time>2015-02-19T09:17:45Z</time>
      </trkpt>
      <trkpt lat="43.9464" lon="3.72537">
        <ele>191.44</ele>
        <time>2015-02-19T09:18:24Z</time>
      </trkpt>
      <trkpt lat="43.9464" lon="3.72537">
        <ele>193.36</ele>
        <time>2015-02-19T09:18:26Z</time>
      </trkpt>
      <trkpt lat="43.9464" lon="3.72537">
        <ele>190</ele>
        <time>2015-02-19T09:18:36Z</time>
      </trkpt>
      <trkpt lat="43.9464" lon="3.72537">
        <ele>190</ele>
        <time>2015-02-19T09:18:45Z</time>
      </trkpt>
      <trkpt lat="43.9464" lon="3.72537">
        <ele>191.92</ele>
        <time>2015-02-19T09:18:52Z</time>
      </trkpt>
      <trkpt lat="43.94641" lon="3.72537">
        <ele>191.44</ele>
        <time>2015-02-19T09:19:09Z</time>
      </trkpt>
      <trkpt lat="43.94641" lon="3.7254">
        <ele>192.88</ele>
        <time>2015-02-19T09:19:13Z</time>
      </trkpt>
      <trkpt lat="43.94642" lon="3.72549">
        <ele>191.44</ele>
        <time>2015-02-19T09:19:17Z</time>
      </trkpt>
      <trkpt lat="43.94646" lon="3.72577">
        <ele>190.48</ele>
        <time>2015-02-19T09:19:32Z</time>
      </trkpt>
      <trkpt lat="43.94646" lon="3.72583">
        <ele>192.4</ele>
        <time>2015-02-19T09:19:35Z</time>
      </trkpt>
      <trkpt lat="43.94644" lon="3.72599">
        <ele>190</ele>
        <time>2015-02-19T09:19:46Z</time>
      </trkpt>
      <trkpt lat="43.94643" lon="3.72608">
        <ele>193.84</ele>
        <time>2015-02-19T09:19:52Z</time>
      </trkpt>
      <trkpt lat="43.94642" lon="3.7261">
        <ele>192.88</ele>
        <time>2015-02-19T09:19:53Z</time>
      </trkpt>
      <trkpt lat="43.94642" lon="3.72624">
        <ele>191.92</ele>
        <time>2015-02-19T09:20:03Z</time>
      </trkpt>
      <trkpt lat="43.94641" lon="3.72631">
        <ele>191.44</ele>
        <time>2015-02-19T09:20:08Z</time>
      </trkpt>
      <trkpt lat="43.9464" lon="3.72635">
        <ele>194.8</ele>
        <time>2015-02-19T09:20:10Z</time>
      </trkpt>
      <trkpt lat="43.94641" lon="3.72639">
        <ele>191.44</ele>
        <time>2015-02-19T09:20:12Z</time>
      </trkpt>
      <trkpt lat="43.94642" lon="3.72646">
        <ele>192.4</ele>
        <time>2015-02-19T09:20:16Z</time>
      </trkpt>
      <trkpt lat="43.94642" lon="3.72649">
        <ele>190.48</ele>
        <time>2015-02-19T09:20:18Z</time>
      </trkpt>
      <trkpt lat="43.94642" lon="3.72654">
        <ele>193.84</ele>
        <time>2015-02-19T09:20:21Z</time>
      </trkpt>
      <trkpt lat="43.9464" lon="3.7266">
        <ele>190.48</ele>
        <time>2015-02-19T09:20:26Z</time>
      </trkpt>
      <trkpt lat="43.94638" lon="3.72678">
        <ele>193.84</ele>
        <time>2015-02-19T09:20:39Z</time>
      </trkpt>
      <trkpt lat="43.94636" lon="3.72691">
        <ele>192.88</ele>
        <time>2015-02-19T09:20:48Z</time>
      </trkpt>
      <trkpt lat="43.94636" lon="3.72699">
        <ele>192.88</ele>
        <time>2015-02-19T09:20:53Z</time>
      </trkpt>
      <trkpt lat="43.94636" lon="3.72713">
        <ele>192.88</ele>
        <time>2015-02-19T09:21:01Z</time>
      </trkpt>
      <trkpt lat="43.94634" lon="3.72728">
        <ele>192.88</ele>
        <time>2015-02-19T09:21:10Z</time>
      </trkpt>
      <trkpt lat="43.94634" lon="3.72737">
        <ele>193.36</ele>
        <time>2015-02-19T09:21:16Z</time>
      </trkpt>
      <trkpt lat="43.94633" lon="3.72757">
        <ele>193.84</ele>
        <time>2015-02-19T09:21:30Z</time>
      </trkpt>
      <trkpt lat="43.94632" lon="3.7276">
        <ele>191.44</ele>
        <time>2015-02-19T09:21:32Z</time>
      </trkpt>
      <trkpt lat="43.94632" lon="3.72762">
        <ele>192.4</ele>
        <time>2015-02-19T09:21:33Z</time>
      </trkpt>
      <trkpt lat="43.94632" lon="3.72764">
        <ele>192.4</ele>
        <time>2015-02-19T09:21:34Z</time>
      </trkpt>
      <trkpt lat="43.94632" lon="3.72768">
        <ele>193.84</ele>
        <time>2015-02-19T09:21:37Z</time>
      </trkpt>
      <trkpt lat="43.94631" lon="3.72786">
        <ele>191.92</ele>
        <time>2015-02-19T09:21:49Z</time>
      </trkpt>
      <trkpt lat="43.9463" lon="3.72812">
        <ele>192.88</ele>
        <time>2015-02-19T09:22:04Z</time>
      </trkpt>
      <trkpt lat="43.9463" lon="3.72814">
        <ele>192.88</ele>
        <time>2015-02-19T09:22:05Z</time>
      </trkpt>
      <trkpt lat="43.94628" lon="3.7284">
        <ele>192.4</ele>
        <time>2015-02-19T09:22:20Z</time>
      </trkpt>
      <trkpt lat="43.94627" lon="3.72842">
        <ele>192.4</ele>
        <time>2015-02-19T09:22:21Z</time>
      </trkpt>
      <trkpt lat="43.94627" lon="3.72844">
        <ele>195.77</ele>
        <time>2015-02-19T09:22:22Z</time>
      </trkpt>
      <trkpt lat="43.94626" lon="3.72846">
        <ele>194.32</ele>
        <time>2015-02-19T09:22:23Z</time>
      </trkpt>
      <trkpt lat="43.94626" lon="3.72861">
        <ele>191.92</ele>
        <time>2015-02-19T09:22:32Z</time>
      </trkpt>
      <trkpt lat="43.94626" lon="3.72862">
        <ele>192.4</ele>
        <time>2015-02-19T09:22:33Z</time>
      </trkpt>
      <trkpt lat="43.94625" lon="3.72865">
        <ele>192.88</ele>
        <time>2015-02-19T09:22:35Z</time>
      </trkpt>
      <trkpt lat="43.94622" lon="3.72884">
        <ele>193.84</ele>
        <time>2015-02-19T09:22:48Z</time>
      </trkpt>
      <trkpt lat="43.9462" lon="3.72896">
        <ele>193.84</ele>
        <time>2015-02-19T09:22:56Z</time>
      </trkpt>
      <trkpt lat="43.94618" lon="3.72914">
        <ele>190.48</ele>
        <time>2015-02-19T09:23:07Z</time>
      </trkpt>
      <trkpt lat="43.94618" lon="3.72917">
        <ele>194.8</ele>
        <time>2015-02-19T09:23:09Z</time>
      </trkpt>
      <trkpt lat="43.94618" lon="3.72922">
        <ele>191.44</ele>
        <time>2015-02-19T09:23:12Z</time>
      </trkpt>
      <trkpt lat="43.94618" lon="3.72923">
        <ele>192.4</ele>
        <time>2015-02-19T09:23:13Z</time>
      </trkpt>
      <trkpt lat="43.94616" lon="3.72931">
        <ele>193.36</ele>
        <time>2015-02-19T09:23:18Z</time>
      </trkpt>
      <trkpt lat="43.94616" lon="3.72934">
        <ele>192.88</ele>
        <time>2015-02-19T09:23:20Z</time>
      </trkpt>
      <trkpt lat="43.94614" lon="3.72959">
        <ele>192.88</ele>
        <time>2015-02-19T09:23:35Z</time>
      </trkpt>
      <trkpt lat="43.94613" lon="3.72965">
        <ele>193.36</ele>
        <time>2015-02-19T09:23:39Z</time>
      </trkpt>
      <trkpt lat="43.94611" lon="3.72986">
        <ele>195.77</ele>
        <time>2015-02-19T09:23:53Z</time>
      </trkpt>
      <trkpt lat="43.94611" lon="3.72989">
        <ele>192.4</ele>
        <time>2015-02-19T09:23:55Z</time>
      </trkpt>
      <trkpt lat="43.94611" lon="3.72993">
        <ele>194.8</ele>
        <time>2015-02-19T09:23:57Z</time>
      </trkpt>
      <trkpt lat="43.9461" lon="3.73003">
        <ele>194.8</ele>
        <time>2015-02-19T09:24:03Z</time>
      </trkpt>
      <trkpt lat="43.9461" lon="3.73008">
        <ele>191.92</ele>
        <time>2015-02-19T09:24:06Z</time>
      </trkpt>
      <trkpt lat="43.94609" lon="3.73015">
        <ele>191.44</ele>
        <time>2015-02-19T09:24:10Z</time>
      </trkpt>
      <trkpt lat="43.94608" lon="3.73024">
        <ele>194.8</ele>
        <time>2015-02-19T09:24:15Z</time>
      </trkpt>
      <trkpt lat="43.94608" lon="3.73029">
        <ele>192.4</ele>
        <time>2015-02-19T09:24:18Z</time>
      </trkpt>
      <trkpt lat="43.94606" lon="3.7304">
        <ele>191.92</ele>
        <time>2015-02-19T09:24:24Z</time>
      </trkpt>
      <trkpt lat="43.94606" lon="3.73045">
        <ele>195.77</ele>
        <time>2015-02-19T09:24:27Z</time>
      </trkpt>
      <trkpt lat="43.94606" lon="3.73047">
        <ele>193.84</ele>
        <time>2015-02-19T09:24:28Z</time>
      </trkpt>
      <trkpt lat="43.94605" lon="3.73051">
        <ele>195.77</ele>
        <time>2015-02-19T09:24:31Z</time>
      </trkpt>
      <trkpt lat="43.94604" lon="3.73054">
        <ele>193.84</ele>
        <time>2015-02-19T09:24:33Z</time>
      </trkpt>
      <trkpt lat="43.94601" lon="3.73074">
        <ele>195.77</ele>
        <time>2015-02-19T09:24:46Z</time>
      </trkpt>
      <trkpt lat="43.94599" lon="3.73095">
        <ele>192.4</ele>
        <time>2015-02-19T09:24:58Z</time>
      </trkpt>
      <trkpt lat="43.94598" lon="3.73101">
        <ele>196.25</ele>
        <time>2015-02-19T09:25:02Z</time>
      </trkpt>
      <trkpt lat="43.94598" lon="3.73105">
        <ele>193.36</ele>
        <time>2015-02-19T09:25:04Z</time>
      </trkpt>
      <trkpt lat="43.94597" lon="3.73116">
        <ele>195.28</ele>
        <time>2015-02-19T09:25:11Z</time>
      </trkpt>
      <trkpt lat="43.94597" lon="3.73117">
        <ele>192.88</ele>
        <time>2015-02-19T09:25:12Z</time>
      </trkpt>
      <trkpt lat="43.94597" lon="3.73128">
        <ele>192.88</ele>
        <time>2015-02-19T09:25:17Z</time>
      </trkpt>
      <trkpt lat="43.94598" lon="3.73134">
        <ele>193.36</ele>
        <time>2015-02-19T09:25:21Z</time>
      </trkpt>
      <trkpt lat="43.94597" lon="3.73144">
        <ele>192.88</ele>
        <time>2015-02-19T09:25:26Z</time>
      </trkpt>
      <trkpt lat="43.94598" lon="3.73154">
        <ele>192.4</ele>
        <time>2015-02-19T09:25:32Z</time>
      </trkpt>
      <trkpt lat="43.94598" lon="3.73157">
        <ele>194.8</ele>
        <time>2015-02-19T09:25:34Z</time>
      </trkpt>
      <trkpt lat="43.94597" lon="3.73177">
        <ele>193.36</ele>
        <time>2015-02-19T09:25:46Z</time>
      </trkpt>
      <trkpt lat="43.94596" lon="3.73184">
        <ele>195.28</ele>
        <time>2015-02-19T09:25:50Z</time>
      </trkpt>
      <trkpt lat="43.94596" lon="3.73189">
        <ele>193.84</ele>
        <time>2015-02-19T09:25:52Z</time>
      </trkpt>
      <trkpt lat="43.94596" lon="3.73198">
        <ele>193.36</ele>
        <time>2015-02-19T09:25:57Z</time>
      </trkpt>
      <trkpt lat="43.94596" lon="3.73208">
        <ele>195.28</ele>
        <time>2015-02-19T09:26:03Z</time>
      </trkpt>
      <trkpt lat="43.94596" lon="3.73222">
        <ele>191.44</ele>
        <time>2015-02-19T09:26:11Z</time>
      </trkpt>
      <trkpt lat="43.94597" lon="3.7323">
        <ele>196.25</ele>
        <time>2015-02-19T09:26:15Z</time>
      </trkpt>
      <trkpt lat="43.94597" lon="3.73232">
        <ele>195.77</ele>
        <time>2015-02-19T09:26:16Z</time>
      </trkpt>
      <trkpt lat="43.94598" lon="3.73238">
        <ele>193.84</ele>
        <time>2015-02-19T09:26:20Z</time>
      </trkpt>
      <trkpt lat="43.94599" lon="3.73251">
        <ele>197.21</ele>
        <time>2015-02-19T09:26:28Z</time>
      </trkpt>
      <trkpt lat="43.94599" lon="3.73257">
        <ele>193.36</ele>
        <time>2015-02-19T09:26:31Z</time>
      </trkpt>
      <trkpt lat="43.94599" lon="3.73258">
        <ele>193.36</ele>
        <time>2015-02-19T09:26:32Z</time>
      </trkpt>
      <trkpt lat="43.946" lon="3.73262">
        <ele>195.28</ele>
        <time>2015-02-19T09:26:35Z</time>
      </trkpt>
      <trkpt lat="43.94602" lon="3.73284">
        <ele>194.8</ele>
        <time>2015-02-19T09:26:48Z</time>
      </trkpt>
      <trkpt lat="43.94603" lon="3.73308">
        <ele>196.25</ele>
        <time>2015-02-19T09:27:02Z</time>
      </trkpt>
      <trkpt lat="43.94604" lon="3.73323">
        <ele>196.25</ele>
        <time>2015-02-19T09:27:11Z</time>
      </trkpt>
      <trkpt lat="43.94606" lon="3.73335">
        <ele>195.77</ele>
        <time>2015-02-19T09:27:18Z</time>
      </trkpt>
      <trkpt lat="43.94607" lon="3.7334">
        <ele>193.84</ele>
        <time>2015-02-19T09:27:21Z</time>
      </trkpt>
      <trkpt lat="43.94607" lon="3.73342">
        <ele>193.84</ele>
        <time>2015-02-19T09:27:22Z</time>
      </trkpt>
      <trkpt lat="43.94609" lon="3.73346">
        <ele>195.28</ele>
        <time>2015-02-19T09:27:25Z</time>
      </trkpt>
      <trkpt lat="43.94611" lon="3.73355">
        <ele>194.8</ele>
        <time>2015-02-19T09:27:31Z</time>
      </trkpt>
      <trkpt lat="43.94613" lon="3.73365">
        <ele>194.32</ele>
        <time>2015-02-19T09:27:38Z</time>
      </trkpt>
      <trkpt lat="43.94615" lon="3.73379">
        <ele>194.32</ele>
        <time>2015-02-19T09:27:48Z</time>
      </trkpt>
      <trkpt lat="43.94616" lon="3.73382">
        <ele>196.25</ele>
        <time>2015-02-19T09:27:50Z</time>
      </trkpt>
      <trkpt lat="43.94616" lon="3.73389">
        <ele>193.84</ele>
        <time>2015-02-19T09:27:55Z</time>
      </trkpt>
      <trkpt lat="43.94616" lon="3.73391">
        <ele>195.28</ele>
        <time>2015-02-19T09:27:57Z</time>
      </trkpt>
      <trkpt lat="43.94615" lon="3.73412">
        <ele>197.21</ele>
        <time>2015-02-19T09:28:11Z</time>
      </trkpt>
      <trkpt lat="43.94615" lon="3.73422">
        <ele>192.88</ele>
        <time>2015-02-19T09:28:17Z</time>
      </trkpt>
      <trkpt lat="43.94617" lon="3.73429">
        <ele>196.25</ele>
        <time>2015-02-19T09:28:21Z</time>
      </trkpt>
      <trkpt lat="43.94617" lon="3.73434">
        <ele>195.77</ele>
        <time>2015-02-19T09:28:24Z</time>
      </trkpt>
      <trkpt lat="43.9462" lon="3.73447">
        <ele>193.84</ele>
        <time>2015-02-19T09:28:33Z</time>
      </trkpt>
      <trkpt lat="43.94622" lon="3.73458">
        <ele>195.28</ele>
        <time>2015-02-19T09:28:40Z</time>
      </trkpt>
      <trkpt lat="43.94623" lon="3.73464">
        <ele>194.32</ele>
        <time>2015-02-19T09:28:44Z</time>
      </trkpt>
      <trkpt lat="43.94624" lon="3.73472">
        <ele>197.21</ele>
        <time>2015-02-19T09:28:49Z</time>
      </trkpt>
      <trkpt lat="43.94624" lon="3.73475">
        <ele>197.21</ele>
        <time>2015-02-19T09:28:50Z</time>
      </trkpt>
      <trkpt lat="43.94625" lon="3.73486">
        <ele>197.21</ele>
        <time>2015-02-19T09:28:57Z</time>
      </trkpt>
      <trkpt lat="43.94625" lon="3.73488">
        <ele>193.84</ele>
        <time>2015-02-19T09:28:58Z</time>
      </trkpt>
      <trkpt lat="43.94626" lon="3.7349">
        <ele>194.32</ele>
        <time>2015-02-19T09:28:59Z</time>
      </trkpt>
      <trkpt lat="43.94625" lon="3.73495">
        <ele>196.73</ele>
        <time>2015-02-19T09:29:02Z</time>
      </trkpt>
      <trkpt lat="43.94625" lon="3.73497">
        <ele>196.73</ele>
        <time>2015-02-19T09:29:03Z</time>
      </trkpt>
      <trkpt lat="43.94625" lon="3.73502">
        <ele>196.73</ele>
        <time>2015-02-19T09:29:06Z</time>
      </trkpt>
      <trkpt lat="43.94625" lon="3.73505">
        <ele>194.8</ele>
        <time>2015-02-19T09:29:08Z</time>
      </trkpt>
      <trkpt lat="43.94627" lon="3.73514">
        <ele>196.25</ele>
        <time>2015-02-19T09:29:14Z</time>
      </trkpt>
      <trkpt lat="43.94628" lon="3.73517">
        <ele>194.8</ele>
        <time>2015-02-19T09:29:17Z</time>
      </trkpt>
      <trkpt lat="43.94628" lon="3.7352">
        <ele>196.25</ele>
        <time>2015-02-19T09:29:19Z</time>
      </trkpt>
      <trkpt lat="43.94628" lon="3.73524">
        <ele>197.21</ele>
        <time>2015-02-19T09:29:21Z</time>
      </trkpt>
      <trkpt lat="43.94632" lon="3.73545">
        <ele>193.84</ele>
        <time>2015-02-19T09:29:34Z</time>
      </trkpt>
      <trkpt lat="43.94633" lon="3.73546">
        <ele>197.21</ele>
        <time>2015-02-19T09:29:35Z</time>
      </trkpt>
      <trkpt lat="43.94637" lon="3.73558">
        <ele>198.17</ele>
        <time>2015-02-19T09:29:42Z</time>
      </trkpt>
      <trkpt lat="43.9464" lon="3.73569">
        <ele>193.84</ele>
        <time>2015-02-19T09:29:49Z</time>
      </trkpt>
      <trkpt lat="43.94641" lon="3.73571">
        <ele>197.21</ele>
        <time>2015-02-19T09:29:50Z</time>
      </trkpt>
      <trkpt lat="43.94641" lon="3.73573">
        <ele>197.69</ele>
        <time>2015-02-19T09:29:51Z</time>
      </trkpt>
      <trkpt lat="43.94642" lon="3.73577">
        <ele>195.77</ele>
        <time>2015-02-19T09:29:54Z</time>
      </trkpt>
      <trkpt lat="43.94647" lon="3.73596">
        <ele>196.73</ele>
        <time>2015-02-19T09:30:05Z</time>
      </trkpt>
      <trkpt lat="43.94653" lon="3.73622">
        <ele>197.21</ele>
        <time>2015-02-19T09:30:21Z</time>
      </trkpt>
      <trkpt lat="43.94658" lon="3.73637">
        <ele>195.77</ele>
        <time>2015-02-19T09:30:30Z</time>
      </trkpt>
      <trkpt lat="43.94662" lon="3.73655">
        <ele>197.21</ele>
        <time>2015-02-19T09:30:40Z</time>
      </trkpt>
      <trkpt lat="43.94662" lon="3.73661">
        <ele>195.28</ele>
        <time>2015-02-19T09:30:43Z</time>
      </trkpt>
      <trkpt lat="43.94665" lon="3.73687">
        <ele>196.25</ele>
        <time>2015-02-19T09:30:57Z</time>
      </trkpt>
      <trkpt lat="43.94667" lon="3.73698">
        <ele>197.69</ele>
        <time>2015-02-19T09:31:04Z</time>
      </trkpt>
      <trkpt lat="43.94669" lon="3.73702">
        <ele>197.21</ele>
        <time>2015-02-19T09:31:15Z</time>
      </trkpt>
      <trkpt lat="43.9467" lon="3.73704">
        <ele>197.21</ele>
        <time>2015-02-19T09:31:18Z</time>
      </trkpt>
      <trkpt lat="43.94672" lon="3.73707">
        <ele>195.77</ele>
        <time>2015-02-19T09:31:21Z</time>
      </trkpt>
      <trkpt lat="43.94674" lon="3.73707">
        <ele>195.28</ele>
        <time>2015-02-19T09:31:25Z</time>
      </trkpt>
      <trkpt lat="43.94674" lon="3.73707">
        <ele>199.13</ele>
        <time>2015-02-19T09:31:26Z</time>
      </trkpt>
      <trkpt lat="43.94674" lon="3.73707">
        <ele>195.77</ele>
        <time>2015-02-19T09:31:31Z</time>
      </trkpt>
      <trkpt lat="43.94674" lon="3.73707">
        <ele>199.13</ele>
        <time>2015-02-19T09:31:37Z</time>
      </trkpt>
      <trkpt lat="43.94674" lon="3.73707">
        <ele>198.17</ele>
        <time>2015-02-19T09:31:38Z</time>
      </trkpt>
      <trkpt lat="43.94674" lon="3.73707">
        <ele>196.73</ele>
        <time>2015-02-19T09:31:40Z</time>
      </trkpt>
      <trkpt lat="43.94674" lon="3.73707">
        <ele>199.13</ele>
        <time>2015-02-19T09:31:42Z</time>
      </trkpt>
      <trkpt lat="43.94674" lon="3.73707">
        <ele>196.73</ele>
        <time>2015-02-19T09:31:44Z</time>
      </trkpt>
      <trkpt lat="43.94674" lon="3.73707">
        <ele>198.65</ele>
        <time>2015-02-19T09:31:52Z</time>
      </trkpt>
      <trkpt lat="43.94676" lon="3.73708">
        <ele>197.21</ele>
        <time>2015-02-19T09:32:15Z</time>
      </trkpt>
      <trkpt lat="43.94677" lon="3.73707">
        <ele>197.69</ele>
        <time>2015-02-19T09:32:39Z</time>
      </trkpt>
      <trkpt lat="43.94677" lon="3.73707">
        <ele>193.84</ele>
        <time>2015-02-19T09:32:41Z</time>
      </trkpt>
      <trkpt lat="43.94677" lon="3.73707">
        <ele>195.77</ele>
        <time>2015-02-19T09:32:53Z</time>
      </trkpt>
      <trkpt lat="43.94677" lon="3.73707">
        <ele>197.69</ele>
        <time>2015-02-19T09:32:58Z</time>
      </trkpt>
      <trkpt lat="43.94677" lon="3.73707">
        <ele>194.32</ele>
        <time>2015-02-19T09:33:20Z</time>
      </trkpt>
      <trkpt lat="43.94677" lon="3.73707">
        <ele>197.69</ele>
        <time>2015-02-19T09:33:26Z</time>
      </trkpt>
      <trkpt lat="43.94677" lon="3.73707">
        <ele>198.17</ele>
        <time>2015-02-19T09:33:27Z</time>
      </trkpt>
      <trkpt lat="43.94678" lon="3.73706">
        <ele>194.32</ele>
        <time>2015-02-19T09:33:42Z</time>
      </trkpt>
      <trkpt lat="43.94678" lon="3.73706">
        <ele>195.77</ele>
        <time>2015-02-19T09:33:43Z</time>
      </trkpt>
      <trkpt lat="43.94676" lon="3.73706">
        <ele>195.28</ele>
        <time>2015-02-19T09:33:54Z</time>
      </trkpt>
      <trkpt lat="43.94678" lon="3.7371">
        <ele>196.73</ele>
        <time>2015-02-19T09:34:11Z</time>
      </trkpt>
      <trkpt lat="43.94685" lon="3.73712">
        <ele>198.17</ele>
        <time>2015-02-19T09:34:21Z</time>
      </trkpt>
      <trkpt lat="43.94687" lon="3.73713">
        <ele>202.01</ele>
        <time>2015-02-19T09:34:24Z</time>
      </trkpt>
      <trkpt lat="43.9469" lon="3.73713">
        <ele>198.65</ele>
        <time>2015-02-19T09:34:30Z</time>
      </trkpt>
      <trkpt lat="43.94692" lon="3.73713">
        <ele>202.49</ele>
        <time>2015-02-19T09:34:32Z</time>
      </trkpt>
      <trkpt lat="43.94693" lon="3.73713">
        <ele>201.53</ele>
        <time>2015-02-19T09:34:33Z</time>
      </trkpt>
      <trkpt lat="43.94695" lon="3.73707">
        <ele>202.98</ele>
        <time>2015-02-19T09:34:38Z</time>
      </trkpt>
      <trkpt lat="43.94699" lon="3.73699">
        <ele>204.42</ele>
        <time>2015-02-19T09:34:49Z</time>
      </trkpt>
      <trkpt lat="43.94705" lon="3.73692">
        <ele>207.78</ele>
        <time>2015-02-19T09:34:57Z</time>
      </trkpt>
      <trkpt lat="43.94708" lon="3.73686">
        <ele>208.26</ele>
        <time>2015-02-19T09:35:05Z</time>
      </trkpt>
      <trkpt lat="43.94708" lon="3.73685">
        <ele>205.86</ele>
        <time>2015-02-19T09:35:06Z</time>
      </trkpt>
      <trkpt lat="43.94714" lon="3.73671">
        <ele>210.67</ele>
        <time>2015-02-19T09:35:17Z</time>
      </trkpt>
      <trkpt lat="43.94714" lon="3.7367">
        <ele>211.15</ele>
        <time>2015-02-19T09:35:18Z</time>
      </trkpt>
      <trkpt lat="43.94719" lon="3.73659">
        <ele>210.19</ele>
        <time>2015-02-19T09:35:31Z</time>
      </trkpt>
      <trkpt lat="43.94725" lon="3.73651">
        <ele>211.63</ele>
        <time>2015-02-19T09:35:42Z</time>
      </trkpt>
      <trkpt lat="43.94728" lon="3.73644">
        <ele>212.11</ele>
        <time>2015-02-19T09:35:47Z</time>
      </trkpt>
      <trkpt lat="43.94733" lon="3.73633">
        <ele>214.99</ele>
        <time>2015-02-19T09:35:56Z</time>
      </trkpt>
      <trkpt lat="43.94735" lon="3.73628">
        <ele>214.51</ele>
        <time>2015-02-19T09:36:01Z</time>
      </trkpt>
      <trkpt lat="43.94736" lon="3.73613">
        <ele>214.03</ele>
        <time>2015-02-19T09:36:11Z</time>
      </trkpt>
      <trkpt lat="43.94736" lon="3.73609">
        <ele>214.03</ele>
        <time>2015-02-19T09:36:13Z</time>
      </trkpt>
      <trkpt lat="43.94741" lon="3.73593">
        <ele>214.99</ele>
        <time>2015-02-19T09:36:25Z</time>
      </trkpt>
      <trkpt lat="43.94743" lon="3.73574">
        <ele>214.51</ele>
        <time>2015-02-19T09:36:38Z</time>
      </trkpt>
      <trkpt lat="43.94743" lon="3.73565">
        <ele>217.4</ele>
        <time>2015-02-19T09:36:45Z</time>
      </trkpt>
      <trkpt lat="43.94745" lon="3.7355">
        <ele>217.4</ele>
        <time>2015-02-19T09:36:56Z</time>
      </trkpt>
      <trkpt lat="43.94749" lon="3.73537">
        <ele>220.28</ele>
        <time>2015-02-19T09:37:07Z</time>
      </trkpt>
      <trkpt lat="43.94749" lon="3.73534">
        <ele>217.88</ele>
        <time>2015-02-19T09:37:09Z</time>
      </trkpt>
      <trkpt lat="43.94752" lon="3.7353">
        <ele>219.8</ele>
        <time>2015-02-19T09:37:13Z</time>
      </trkpt>
      <trkpt lat="43.94754" lon="3.73523">
        <ele>221.24</ele>
        <time>2015-02-19T09:37:18Z</time>
      </trkpt>
      <trkpt lat="43.94756" lon="3.73521">
        <ele>220.28</ele>
        <time>2015-02-19T09:37:20Z</time>
      </trkpt>
      <trkpt lat="43.94757" lon="3.7352">
        <ele>223.16</ele>
        <time>2015-02-19T09:37:22Z</time>
      </trkpt>
      <trkpt lat="43.94759" lon="3.73518">
        <ele>221.72</ele>
        <time>2015-02-19T09:37:24Z</time>
      </trkpt>
      <trkpt lat="43.9476" lon="3.73516">
        <ele>222.2</ele>
        <time>2015-02-19T09:37:28Z</time>
      </trkpt>
      <trkpt lat="43.94766" lon="3.73502">
        <ele>221.24</ele>
        <time>2015-02-19T09:37:40Z</time>
      </trkpt>
      <trkpt lat="43.94769" lon="3.73497">
        <ele>224.61</ele>
        <time>2015-02-19T09:37:45Z</time>
      </trkpt>
      <trkpt lat="43.94772" lon="3.73491">
        <ele>225.09</ele>
        <time>2015-02-19T09:37:51Z</time>
      </trkpt>
      <trkpt lat="43.94773" lon="3.73487">
        <ele>224.61</ele>
        <time>2015-02-19T09:37:55Z</time>
      </trkpt>
      <trkpt lat="43.94775" lon="3.73474">
        <ele>227.97</ele>
        <time>2015-02-19T09:38:05Z</time>
      </trkpt>
      <trkpt lat="43.94776" lon="3.73472">
        <ele>224.61</ele>
        <time>2015-02-19T09:38:07Z</time>
      </trkpt>
      <trkpt lat="43.94776" lon="3.7347">
        <ele>227.97</ele>
        <time>2015-02-19T09:38:10Z</time>
      </trkpt>
      <trkpt lat="43.94778" lon="3.73466">
        <ele>224.12</ele>
        <time>2015-02-19T09:38:14Z</time>
      </trkpt>
      <trkpt lat="43.94781" lon="3.73456">
        <ele>227.49</ele>
        <time>2015-02-19T09:38:21Z</time>
      </trkpt>
      <trkpt lat="43.94781" lon="3.73456">
        <ele>227.97</ele>
        <time>2015-02-19T09:38:22Z</time>
      </trkpt>
      <trkpt lat="43.94784" lon="3.73448">
        <ele>226.05</ele>
        <time>2015-02-19T09:38:30Z</time>
      </trkpt>
      <trkpt lat="43.94786" lon="3.73441">
        <ele>229.41</ele>
        <time>2015-02-19T09:38:35Z</time>
      </trkpt>
      <trkpt lat="43.94786" lon="3.73439">
        <ele>229.41</ele>
        <time>2015-02-19T09:38:36Z</time>
      </trkpt>
      <trkpt lat="43.94786" lon="3.73436">
        <ele>227.49</ele>
        <time>2015-02-19T09:38:38Z</time>
      </trkpt>
      <trkpt lat="43.94787" lon="3.73419">
        <ele>226.53</ele>
        <time>2015-02-19T09:38:49Z</time>
      </trkpt>
      <trkpt lat="43.94787" lon="3.73415">
        <ele>230.85</ele>
        <time>2015-02-19T09:38:52Z</time>
      </trkpt>
      <trkpt lat="43.94787" lon="3.7341">
        <ele>226.05</ele>
        <time>2015-02-19T09:38:56Z</time>
      </trkpt>
      <trkpt lat="43.94788" lon="3.73409">
        <ele>226.53</ele>
        <time>2015-02-19T09:38:57Z</time>
      </trkpt>
      <trkpt lat="43.94787" lon="3.73404">
        <ele>228.93</ele>
        <time>2015-02-19T09:39:01Z</time>
      </trkpt>
      <trkpt lat="43.94789" lon="3.73397">
        <ele>229.89</ele>
        <time>2015-02-19T09:39:06Z</time>
      </trkpt>
      <trkpt lat="43.94789" lon="3.7339">
        <ele>228.45</ele>
        <time>2015-02-19T09:39:12Z</time>
      </trkpt>
      <trkpt lat="43.94789" lon="3.73387">
        <ele>227.01</ele>
        <time>2015-02-19T09:39:16Z</time>
      </trkpt>
      <trkpt lat="43.94789" lon="3.73383">
        <ele>230.37</ele>
        <time>2015-02-19T09:39:18Z</time>
      </trkpt>
      <trkpt lat="43.94789" lon="3.73381">
        <ele>230.37</ele>
        <time>2015-02-19T09:39:19Z</time>
      </trkpt>
      <trkpt lat="43.94789" lon="3.73377">
        <ele>226.05</ele>
        <time>2015-02-19T09:39:22Z</time>
      </trkpt>
      <trkpt lat="43.9479" lon="3.73373">
        <ele>227.01</ele>
        <time>2015-02-19T09:39:24Z</time>
      </trkpt>
      <trkpt lat="43.94793" lon="3.7336">
        <ele>229.41</ele>
        <time>2015-02-19T09:39:36Z</time>
      </trkpt>
      <trkpt lat="43.94794" lon="3.73344">
        <ele>228.45</ele>
        <time>2015-02-19T09:39:46Z</time>
      </trkpt>
      <trkpt lat="43.94795" lon="3.73343">
        <ele>229.89</ele>
        <time>2015-02-19T09:39:48Z</time>
      </trkpt>
      <trkpt lat="43.94799" lon="3.73336">
        <ele>229.41</ele>
        <time>2015-02-19T09:39:55Z</time>
      </trkpt>
      <trkpt lat="43.94803" lon="3.73335">
        <ele>231.33</ele>
        <time>2015-02-19T09:39:58Z</time>
      </trkpt>
      <trkpt lat="43.94804" lon="3.73334">
        <ele>227.97</ele>
        <time>2015-02-19T09:40:00Z</time>
      </trkpt>
      <trkpt lat="43.94805" lon="3.73332">
        <ele>231.33</ele>
        <time>2015-02-19T09:40:02Z</time>
      </trkpt>
      <trkpt lat="43.94815" lon="3.73331">
        <ele>230.85</ele>
        <time>2015-02-19T09:40:13Z</time>
      </trkpt>
      <trkpt lat="43.94817" lon="3.7333">
        <ele>232.3</ele>
        <time>2015-02-19T09:40:15Z</time>
      </trkpt>
      <trkpt lat="43.94818" lon="3.7333">
        <ele>230.85</ele>
        <time>2015-02-19T09:40:20Z</time>
      </trkpt>
      <trkpt lat="43.9482" lon="3.73337">
        <ele>230.85</ele>
        <time>2015-02-19T09:40:32Z</time>
      </trkpt>
      <trkpt lat="43.94822" lon="3.73346">
        <ele>235.18</ele>
        <time>2015-02-19T09:40:43Z</time>
      </trkpt>
      <trkpt lat="43.94824" lon="3.73355">
        <ele>236.62</ele>
        <time>2015-02-19T09:40:53Z</time>
      </trkpt>
      <trkpt lat="43.94831" lon="3.73365">
        <ele>238.54</ele>
        <time>2015-02-19T09:41:03Z</time>
      </trkpt>
      <trkpt lat="43.94837" lon="3.73364">
        <ele>239.51</ele>
        <time>2015-02-19T09:41:11Z</time>
      </trkpt>
      <trkpt lat="43.94846" lon="3.73361">
        <ele>240.95</ele>
        <time>2015-02-19T09:41:22Z</time>
      </trkpt>
      <trkpt lat="43.94853" lon="3.73357">
        <ele>237.58</ele>
        <time>2015-02-19T09:41:27Z</time>
      </trkpt>
      <trkpt lat="43.94854" lon="3.73356">
        <ele>239.51</ele>
        <time>2015-02-19T09:41:28Z</time>
      </trkpt>
      <trkpt lat="43.94863" lon="3.73353">
        <ele>238.54</ele>
        <time>2015-02-19T09:41:33Z</time>
      </trkpt>
      <trkpt lat="43.94873" lon="3.73347">
        <ele>241.91</ele>
        <time>2015-02-19T09:41:39Z</time>
      </trkpt>
      <trkpt lat="43.94875" lon="3.73342">
        <ele>240.47</ele>
        <time>2015-02-19T09:41:42Z</time>
      </trkpt>
      <trkpt lat="43.94876" lon="3.73341">
        <ele>238.54</ele>
        <time>2015-02-19T09:41:44Z</time>
      </trkpt>
      <trkpt lat="43.9488" lon="3.73334">
        <ele>241.91</ele>
        <time>2015-02-19T09:41:49Z</time>
      </trkpt>
      <trkpt lat="43.94881" lon="3.73332">
        <ele>238.54</ele>
        <time>2015-02-19T09:41:51Z</time>
      </trkpt>
      <trkpt lat="43.94883" lon="3.73329">
        <ele>241.91</ele>
        <time>2015-02-19T09:41:54Z</time>
      </trkpt>
      <trkpt lat="43.94885" lon="3.73324">
        <ele>242.87</ele>
        <time>2015-02-19T09:41:58Z</time>
      </trkpt>
      <trkpt lat="43.94888" lon="3.73324">
        <ele>242.87</ele>
        <time>2015-02-19T09:42:05Z</time>
      </trkpt>
      <trkpt lat="43.94889" lon="3.73326">
        <ele>239.99</ele>
        <time>2015-02-19T09:42:07Z</time>
      </trkpt>
      <trkpt lat="43.94894" lon="3.73337">
        <ele>243.83</ele>
        <time>2015-02-19T09:42:17Z</time>
      </trkpt>
      <trkpt lat="43.94895" lon="3.73336">
        <ele>243.83</ele>
        <time>2015-02-19T09:42:18Z</time>
      </trkpt>
      <trkpt lat="43.94899" lon="3.73337">
        <ele>245.27</ele>
        <time>2015-02-19T09:42:24Z</time>
      </trkpt>
      <trkpt lat="43.949" lon="3.73337">
        <ele>247.2</ele>
        <time>2015-02-19T09:42:29Z</time>
      </trkpt>
      <trkpt lat="43.94903" lon="3.73336">
        <ele>247.68</ele>
        <time>2015-02-19T09:42:36Z</time>
      </trkpt>
      <trkpt lat="43.94908" lon="3.73333">
        <ele>247.68</ele>
        <time>2015-02-19T09:42:42Z</time>
      </trkpt>
      <trkpt lat="43.94918" lon="3.73327">
        <ele>249.12</ele>
        <time>2015-02-19T09:42:52Z</time>
      </trkpt>
      <trkpt lat="43.94921" lon="3.73326">
        <ele>246.23</ele>
        <time>2015-02-19T09:42:54Z</time>
      </trkpt>
      <trkpt lat="43.94922" lon="3.73324">
        <ele>249.12</ele>
        <time>2015-02-19T09:42:56Z</time>
      </trkpt>
      <trkpt lat="43.94925" lon="3.73322">
        <ele>247.2</ele>
        <time>2015-02-19T09:43:01Z</time>
      </trkpt>
      <trkpt lat="43.94927" lon="3.7332">
        <ele>250.56</ele>
        <time>2015-02-19T09:43:03Z</time>
      </trkpt>
      <trkpt lat="43.94928" lon="3.73319">
        <ele>251.04</ele>
        <time>2015-02-19T09:43:04Z</time>
      </trkpt>
      <trkpt lat="43.94932" lon="3.73316">
        <ele>248.16</ele>
        <time>2015-02-19T09:43:08Z</time>
      </trkpt>
      <trkpt lat="43.94933" lon="3.73313">
        <ele>249.12</ele>
        <time>2015-02-19T09:43:10Z</time>
      </trkpt>
      <trkpt lat="43.94938" lon="3.73309">
        <ele>247.2</ele>
        <time>2015-02-19T09:43:16Z</time>
      </trkpt>
      <trkpt lat="43.94939" lon="3.73309">
        <ele>251.52</ele>
        <time>2015-02-19T09:43:18Z</time>
      </trkpt>
      <trkpt lat="43.9494" lon="3.73309">
        <ele>249.6</ele>
        <time>2015-02-19T09:43:20Z</time>
      </trkpt>
      <trkpt lat="43.94953" lon="3.73309">
        <ele>251.04</ele>
        <time>2015-02-19T09:43:32Z</time>
      </trkpt>
      <trkpt lat="43.94957" lon="3.73308">
        <ele>252.96</ele>
        <time>2015-02-19T09:43:36Z</time>
      </trkpt>
      <trkpt lat="43.94959" lon="3.73304">
        <ele>251.04</ele>
        <time>2015-02-19T09:43:39Z</time>
      </trkpt>
      <trkpt lat="43.9496" lon="3.73303">
        <ele>253.93</ele>
        <time>2015-02-19T09:43:41Z</time>
      </trkpt>
      <trkpt lat="43.94963" lon="3.73301">
        <ele>252.48</ele>
        <time>2015-02-19T09:43:44Z</time>
      </trkpt>
      <trkpt lat="43.94971" lon="3.73294">
        <ele>252.48</ele>
        <time>2015-02-19T09:43:56Z</time>
      </trkpt>
      <trkpt lat="43.94978" lon="3.73287">
        <ele>253.93</ele>
        <time>2015-02-19T09:44:06Z</time>
      </trkpt>
      <trkpt lat="43.94984" lon="3.7328">
        <ele>254.41</ele>
        <time>2015-02-19T09:44:14Z</time>
      </trkpt>
      <trkpt lat="43.94985" lon="3.73278">
        <ele>253.93</ele>
        <time>2015-02-19T09:44:16Z</time>
      </trkpt>
      <trkpt lat="43.9499" lon="3.73279">
        <ele>256.33</ele>
        <time>2015-02-19T09:44:23Z</time>
      </trkpt>
      <trkpt lat="43.94991" lon="3.7328">
        <ele>252.96</ele>
        <time>2015-02-19T09:44:27Z</time>
      </trkpt>
      <trkpt lat="43.94991" lon="3.7328">
        <ele>256.33</ele>
        <time>2015-02-19T09:44:29Z</time>
      </trkpt>
      <trkpt lat="43.95001" lon="3.73283">
        <ele>253.93</ele>
        <time>2015-02-19T09:44:38Z</time>
      </trkpt>
      <trkpt lat="43.95002" lon="3.73284">
        <ele>255.85</ele>
        <time>2015-02-19T09:44:40Z</time>
      </trkpt>
      <trkpt lat="43.95004" lon="3.73283">
        <ele>259.21</ele>
        <time>2015-02-19T09:44:42Z</time>
      </trkpt>
      <trkpt lat="43.95015" lon="3.7328">
        <ele>258.73</ele>
        <time>2015-02-19T09:44:56Z</time>
      </trkpt>
      <trkpt lat="43.95022" lon="3.73277">
        <ele>259.21</ele>
        <time>2015-02-19T09:45:02Z</time>
      </trkpt>
      <trkpt lat="43.95026" lon="3.73277">
        <ele>258.73</ele>
        <time>2015-02-19T09:45:04Z</time>
      </trkpt>
      <trkpt lat="43.95036" lon="3.73274">
        <ele>262.58</ele>
        <time>2015-02-19T09:45:13Z</time>
      </trkpt>
      <trkpt lat="43.95037" lon="3.73274">
        <ele>260.17</ele>
        <time>2015-02-19T09:45:14Z</time>
      </trkpt>
      <trkpt lat="43.9504" lon="3.73273">
        <ele>261.62</ele>
        <time>2015-02-19T09:45:16Z</time>
      </trkpt>
      <trkpt lat="43.95045" lon="3.7327">
        <ele>262.58</ele>
        <time>2015-02-19T09:45:20Z</time>
      </trkpt>
      <trkpt lat="43.9505" lon="3.73268">
        <ele>258.73</ele>
        <time>2015-02-19T09:45:24Z</time>
      </trkpt>
      <trkpt lat="43.95054" lon="3.73266">
        <ele>260.65</ele>
        <time>2015-02-19T09:45:27Z</time>
      </trkpt>
      <trkpt lat="43.95059" lon="3.73266">
        <ele>260.65</ele>
        <time>2015-02-19T09:45:31Z</time>
      </trkpt>
      <trkpt lat="43.95063" lon="3.73265">
        <ele>261.14</ele>
        <time>2015-02-19T09:45:35Z</time>
      </trkpt>
      <trkpt lat="43.95078" lon="3.73266">
        <ele>260.17</ele>
        <time>2015-02-19T09:45:48Z</time>
      </trkpt>
      <trkpt lat="43.95088" lon="3.73269">
        <ele>258.25</ele>
        <time>2015-02-19T09:45:57Z</time>
      </trkpt>
      <trkpt lat="43.95093" lon="3.73269">
        <ele>260.17</ele>
        <time>2015-02-19T09:46:03Z</time>
      </trkpt>
      <trkpt lat="43.95095" lon="3.73269">
        <ele>257.29</ele>
        <time>2015-02-19T09:46:05Z</time>
      </trkpt>
      <trkpt lat="43.951" lon="3.7327">
        <ele>256.33</ele>
        <time>2015-02-19T09:46:10Z</time>
      </trkpt>
      <trkpt lat="43.95102" lon="3.7327">
        <ele>259.21</ele>
        <time>2015-02-19T09:46:11Z</time>
      </trkpt>
      <trkpt lat="43.95103" lon="3.73271">
        <ele>258.73</ele>
        <time>2015-02-19T09:46:12Z</time>
      </trkpt>
      <trkpt lat="43.95104" lon="3.73271">
        <ele>257.77</ele>
        <time>2015-02-19T09:46:13Z</time>
      </trkpt>
      <trkpt lat="43.95106" lon="3.73272">
        <ele>256.33</ele>
        <time>2015-02-19T09:46:15Z</time>
      </trkpt>
      <trkpt lat="43.95109" lon="3.73274">
        <ele>258.25</ele>
        <time>2015-02-19T09:46:18Z</time>
      </trkpt>
      <trkpt lat="43.95114" lon="3.73277">
        <ele>254.41</ele>
        <time>2015-02-19T09:46:23Z</time>
      </trkpt>
      <trkpt lat="43.95114" lon="3.73278">
        <ele>254.41</ele>
        <time>2015-02-19T09:46:24Z</time>
      </trkpt>
      <trkpt lat="43.95117" lon="3.73282">
        <ele>257.77</ele>
        <time>2015-02-19T09:46:28Z</time>
      </trkpt>
      <trkpt lat="43.95118" lon="3.73284">
        <ele>256.81</ele>
        <time>2015-02-19T09:46:30Z</time>
      </trkpt>
      <trkpt lat="43.95126" lon="3.73294">
        <ele>256.33</ele>
        <time>2015-02-19T09:46:40Z</time>
      </trkpt>
      <trkpt lat="43.95132" lon="3.73299">
        <ele>257.29</ele>
        <time>2015-02-19T09:46:46Z</time>
      </trkpt>
      <trkpt lat="43.95133" lon="3.73299">
        <ele>254.89</ele>
        <time>2015-02-19T09:46:48Z</time>
      </trkpt>
      <trkpt lat="43.95135" lon="3.733">
        <ele>251.52</ele>
        <time>2015-02-19T09:46:50Z</time>
      </trkpt>
      <trkpt lat="43.95136" lon="3.733">
        <ele>254.89</ele>
        <time>2015-02-19T09:46:51Z</time>
      </trkpt>
      <trkpt lat="43.95138" lon="3.733">
        <ele>256.33</ele>
        <time>2015-02-19T09:46:53Z</time>
      </trkpt>
      <trkpt lat="43.95143" lon="3.733">
        <ele>254.89</ele>
        <time>2015-02-19T09:46:57Z</time>
      </trkpt>
      <trkpt lat="43.95147" lon="3.73299">
        <ele>254.41</ele>
        <time>2015-02-19T09:47:00Z</time>
      </trkpt>
      <trkpt lat="43.95151" lon="3.733">
        <ele>257.29</ele>
        <time>2015-02-19T09:47:03Z</time>
      </trkpt>
      <trkpt lat="43.95152" lon="3.733">
        <ele>253.93</ele>
        <time>2015-02-19T09:47:04Z</time>
      </trkpt>
      <trkpt lat="43.95154" lon="3.733">
        <ele>252.96</ele>
        <time>2015-02-19T09:47:06Z</time>
      </trkpt>
      <trkpt lat="43.9516" lon="3.73299">
        <ele>253.44</ele>
        <time>2015-02-19T09:47:15Z</time>
      </trkpt>
      <trkpt lat="43.95164" lon="3.73299">
        <ele>256.81</ele>
        <time>2015-02-19T09:47:19Z</time>
      </trkpt>
      <trkpt lat="43.95165" lon="3.73297">
        <ele>254.89</ele>
        <time>2015-02-19T09:47:24Z</time>
      </trkpt>
      <trkpt lat="43.95165" lon="3.73295">
        <ele>257.29</ele>
        <time>2015-02-19T09:47:41Z</time>
      </trkpt>
      <trkpt lat="43.95165" lon="3.73295">
        <ele>258.25</ele>
        <time>2015-02-19T09:47:43Z</time>
      </trkpt>
      <trkpt lat="43.95165" lon="3.73295">
        <ele>254.41</ele>
        <time>2015-02-19T09:47:44Z</time>
      </trkpt>
      <trkpt lat="43.95166" lon="3.73295">
        <ele>256.33</ele>
        <time>2015-02-19T09:47:45Z</time>
      </trkpt>
      <trkpt lat="43.95172" lon="3.73295">
        <ele>253.93</ele>
        <time>2015-02-19T09:47:59Z</time>
      </trkpt>
      <trkpt lat="43.95177" lon="3.73297">
        <ele>255.85</ele>
        <time>2015-02-19T09:48:05Z</time>
      </trkpt>
      <trkpt lat="43.9518" lon="3.73297">
        <ele>254.89</ele>
        <time>2015-02-19T09:48:10Z</time>
      </trkpt>
      <trkpt lat="43.95182" lon="3.73297">
        <ele>256.33</ele>
        <time>2015-02-19T09:48:16Z</time>
      </trkpt>
      <trkpt lat="43.95182" lon="3.73297">
        <ele>252</ele>
        <time>2015-02-19T09:48:19Z</time>
      </trkpt>
      <trkpt lat="43.95182" lon="3.73297">
        <ele>256.33</ele>
        <time>2015-02-19T09:48:20Z</time>
      </trkpt>
      <trkpt lat="43.95184" lon="3.73298">
        <ele>255.37</ele>
        <time>2015-02-19T09:48:22Z</time>
      </trkpt>
      <trkpt lat="43.95191" lon="3.733">
        <ele>256.33</ele>
        <time>2015-02-19T09:48:34Z</time>
      </trkpt>
      <trkpt lat="43.95194" lon="3.73301">
        <ele>255.37</ele>
        <time>2015-02-19T09:48:45Z</time>
      </trkpt>
      <trkpt lat="43.95195" lon="3.73301">
        <ele>258.25</ele>
        <time>2015-02-19T09:48:48Z</time>
      </trkpt>
      <trkpt lat="43.95197" lon="3.73301">
        <ele>255.85</ele>
        <time>2015-02-19T09:48:50Z</time>
      </trkpt>
      <trkpt lat="43.95201" lon="3.73303">
        <ele>258.73</ele>
        <time>2015-02-19T09:48:55Z</time>
      </trkpt>
      <trkpt lat="43.95206" lon="3.73303">
        <ele>255.37</ele>
        <time>2015-02-19T09:49:01Z</time>
      </trkpt>
      <trkpt lat="43.95206" lon="3.73303">
        <ele>255.85</ele>
        <time>2015-02-19T09:49:07Z</time>
      </trkpt>
      <trkpt lat="43.95206" lon="3.73303">
        <ele>257.77</ele>
        <time>2015-02-19T09:49:09Z</time>
      </trkpt>
      <trkpt lat="43.95208" lon="3.73304">
        <ele>257.77</ele>
        <time>2015-02-19T09:49:13Z</time>
      </trkpt>
      <trkpt lat="43.95214" lon="3.73305">
        <ele>255.85</ele>
        <time>2015-02-19T09:49:22Z</time>
      </trkpt>
      <trkpt lat="43.95216" lon="3.73306">
        <ele>259.69</ele>
        <time>2015-02-19T09:49:26Z</time>
      </trkpt>
      <trkpt lat="43.95216" lon="3.73306">
        <ele>256.81</ele>
        <time>2015-02-19T09:49:28Z</time>
      </trkpt>
      <trkpt lat="43.95221" lon="3.73306">
        <ele>261.14</ele>
        <time>2015-02-19T09:49:38Z</time>
      </trkpt>
      <trkpt lat="43.95222" lon="3.73305">
        <ele>261.14</ele>
        <time>2015-02-19T09:49:39Z</time>
      </trkpt>
      <trkpt lat="43.95227" lon="3.73303">
        <ele>262.1</ele>
        <time>2015-02-19T09:49:46Z</time>
      </trkpt>
      <trkpt lat="43.95229" lon="3.73303">
        <ele>258.73</ele>
        <time>2015-02-19T09:49:48Z</time>
      </trkpt>
      <trkpt lat="43.95229" lon="3.73303">
        <ele>261.14</ele>
        <time>2015-02-19T09:49:51Z</time>
      </trkpt>
      <trkpt lat="43.95229" lon="3.73303">
        <ele>256.81</ele>
        <time>2015-02-19T09:49:55Z</time>
      </trkpt>
      <trkpt lat="43.95229" lon="3.73303">
        <ele>260.17</ele>
        <time>2015-02-19T09:49:56Z</time>
      </trkpt>
      <trkpt lat="43.95229" lon="3.73303">
        <ele>263.06</ele>
        <time>2015-02-19T09:50:02Z</time>
      </trkpt>
      <trkpt lat="43.95231" lon="3.73304">
        <ele>259.69</ele>
        <time>2015-02-19T09:50:04Z</time>
      </trkpt>
      <trkpt lat="43.95233" lon="3.73304">
        <ele>263.06</ele>
        <time>2015-02-19T09:50:07Z</time>
      </trkpt>
      <trkpt lat="43.95237" lon="3.73303">
        <ele>262.1</ele>
        <time>2015-02-19T09:50:12Z</time>
      </trkpt>
      <trkpt lat="43.95237" lon="3.73303">
        <ele>264.98</ele>
        <time>2015-02-19T09:50:17Z</time>
      </trkpt>
      <trkpt lat="43.95237" lon="3.73303">
        <ele>262.1</ele>
        <time>2015-02-19T09:50:24Z</time>
      </trkpt>
      <trkpt lat="43.95237" lon="3.73303">
        <ele>265.46</ele>
        <time>2015-02-19T09:50:26Z</time>
      </trkpt>
      <trkpt lat="43.95237" lon="3.73303">
        <ele>264.5</ele>
        <time>2015-02-19T09:50:27Z</time>
      </trkpt>
      <trkpt lat="43.95246" lon="3.73303">
        <ele>264.02</ele>
        <time>2015-02-19T09:50:38Z</time>
      </trkpt>
      <trkpt lat="43.95249" lon="3.73303">
        <ele>267.38</ele>
        <time>2015-02-19T09:50:46Z</time>
      </trkpt>
      <trkpt lat="43.95249" lon="3.73303">
        <ele>266.9</ele>
        <time>2015-02-19T09:50:47Z</time>
      </trkpt>
      <trkpt lat="43.95253" lon="3.73303">
        <ele>263.54</ele>
        <time>2015-02-19T09:50:50Z</time>
      </trkpt>
      <trkpt lat="43.95253" lon="3.73303">
        <ele>264.02</ele>
        <time>2015-02-19T09:50:51Z</time>
      </trkpt>
      <trkpt lat="43.95256" lon="3.73304">
        <ele>267.38</ele>
        <time>2015-02-19T09:50:52Z</time>
      </trkpt>
      <trkpt lat="43.95258" lon="3.73305">
        <ele>267.38</ele>
        <time>2015-02-19T09:50:53Z</time>
      </trkpt>
      <trkpt lat="43.9527" lon="3.73312">
        <ele>266.42</ele>
        <time>2015-02-19T09:51:05Z</time>
      </trkpt>
      <trkpt lat="43.95276" lon="3.73317">
        <ele>265.94</ele>
        <time>2015-02-19T09:51:17Z</time>
      </trkpt>
      <trkpt lat="43.95276" lon="3.73317">
        <ele>269.79</ele>
        <time>2015-02-19T09:51:19Z</time>
      </trkpt>
      <trkpt lat="43.95276" lon="3.73317">
        <ele>264.5</ele>
        <time>2015-02-19T09:51:21Z</time>
      </trkpt>
      <trkpt lat="43.95276" lon="3.73317">
        <ele>264.98</ele>
        <time>2015-02-19T09:51:22Z</time>
      </trkpt>
      <trkpt lat="43.95278" lon="3.73317">
        <ele>268.83</ele>
        <time>2015-02-19T09:51:23Z</time>
      </trkpt>
      <trkpt lat="43.95279" lon="3.73318">
        <ele>268.35</ele>
        <time>2015-02-19T09:51:24Z</time>
      </trkpt>
      <trkpt lat="43.95284" lon="3.73322">
        <ele>267.38</ele>
        <time>2015-02-19T09:51:29Z</time>
      </trkpt>
      <trkpt lat="43.95288" lon="3.73324">
        <ele>271.23</ele>
        <time>2015-02-19T09:51:33Z</time>
      </trkpt>
      <trkpt lat="43.9529" lon="3.73325">
        <ele>268.35</ele>
        <time>2015-02-19T09:51:35Z</time>
      </trkpt>
      <trkpt lat="43.95294" lon="3.73331">
        <ele>271.23</ele>
        <time>2015-02-19T09:51:40Z</time>
      </trkpt>
      <trkpt lat="43.953" lon="3.73338">
        <ele>271.23</ele>
        <time>2015-02-19T09:51:50Z</time>
      </trkpt>
      <trkpt lat="43.953" lon="3.73338">
        <ele>272.67</ele>
        <time>2015-02-19T09:52:00Z</time>
      </trkpt>
      <trkpt lat="43.95302" lon="3.73341">
        <ele>269.79</ele>
        <time>2015-02-19T09:52:03Z</time>
      </trkpt>
      <trkpt lat="43.95304" lon="3.73343">
        <ele>269.79</ele>
        <time>2015-02-19T09:52:04Z</time>
      </trkpt>
      <trkpt lat="43.95312" lon="3.73348">
        <ele>273.63</ele>
        <time>2015-02-19T09:52:08Z</time>
      </trkpt>
      <trkpt lat="43.95313" lon="3.73349">
        <ele>273.15</ele>
        <time>2015-02-19T09:52:09Z</time>
      </trkpt>
      <trkpt lat="43.95313" lon="3.7335">
        <ele>271.71</ele>
        <time>2015-02-19T09:52:12Z</time>
      </trkpt>
      <trkpt lat="43.95318" lon="3.73354">
        <ele>274.11</ele>
        <time>2015-02-19T09:52:18Z</time>
      </trkpt>
      <trkpt lat="43.95331" lon="3.73365">
        <ele>272.67</ele>
        <time>2015-02-19T09:52:31Z</time>
      </trkpt>
      <trkpt lat="43.95333" lon="3.73367">
        <ele>273.63</ele>
        <time>2015-02-19T09:52:38Z</time>
      </trkpt>
      <trkpt lat="43.95342" lon="3.73373">
        <ele>277</ele>
        <time>2015-02-19T09:52:47Z</time>
      </trkpt>
      <trkpt lat="43.95343" lon="3.73373">
        <ele>276.04</ele>
        <time>2015-02-19T09:52:48Z</time>
      </trkpt>
      <trkpt lat="43.95345" lon="3.73374">
        <ele>275.56</ele>
        <time>2015-02-19T09:52:50Z</time>
      </trkpt>
      <trkpt lat="43.95346" lon="3.73375">
        <ele>278.44</ele>
        <time>2015-02-19T09:52:51Z</time>
      </trkpt>
      <trkpt lat="43.95347" lon="3.73375">
        <ele>275.56</ele>
        <time>2015-02-19T09:52:52Z</time>
      </trkpt>
      <trkpt lat="43.95353" lon="3.73378">
        <ele>278.92</ele>
        <time>2015-02-19T09:52:59Z</time>
      </trkpt>
      <trkpt lat="43.95355" lon="3.7338">
        <ele>278.44</ele>
        <time>2015-02-19T09:53:03Z</time>
      </trkpt>
      <trkpt lat="43.95356" lon="3.73382">
        <ele>275.07</ele>
        <time>2015-02-19T09:53:05Z</time>
      </trkpt>
      <trkpt lat="43.95358" lon="3.73383">
        <ele>279.88</ele>
        <time>2015-02-19T09:53:08Z</time>
      </trkpt>
      <trkpt lat="43.95361" lon="3.73387">
        <ele>278.92</ele>
        <time>2015-02-19T09:53:12Z</time>
      </trkpt>
      <trkpt lat="43.95362" lon="3.73389">
        <ele>277.96</ele>
        <time>2015-02-19T09:53:14Z</time>
      </trkpt>
      <trkpt lat="43.95365" lon="3.73391">
        <ele>280.36</ele>
        <time>2015-02-19T09:53:17Z</time>
      </trkpt>
      <trkpt lat="43.95368" lon="3.73394">
        <ele>281.8</ele>
        <time>2015-02-19T09:53:21Z</time>
      </trkpt>
      <trkpt lat="43.9537" lon="3.73395">
        <ele>281.32</ele>
        <time>2015-02-19T09:53:25Z</time>
      </trkpt>
      <trkpt lat="43.95373" lon="3.73396">
        <ele>282.77</ele>
        <time>2015-02-19T09:53:28Z</time>
      </trkpt>
      <trkpt lat="43.9538" lon="3.73399">
        <ele>278.92</ele>
        <time>2015-02-19T09:53:34Z</time>
      </trkpt>
      <trkpt lat="43.95381" lon="3.73399">
        <ele>284.21</ele>
        <time>2015-02-19T09:53:36Z</time>
      </trkpt>
      <trkpt lat="43.95382" lon="3.73399">
        <ele>282.77</ele>
        <time>2015-02-19T09:53:37Z</time>
      </trkpt>
      <trkpt lat="43.95384" lon="3.73398">
        <ele>281.32</ele>
        <time>2015-02-19T09:53:39Z</time>
      </trkpt>
      <trkpt lat="43.95386" lon="3.73398">
        <ele>282.77</ele>
        <time>2015-02-19T09:53:41Z</time>
      </trkpt>
      <trkpt lat="43.95393" lon="3.73396">
        <ele>282.28</ele>
        <time>2015-02-19T09:53:50Z</time>
      </trkpt>
      <trkpt lat="43.95397" lon="3.73392">
        <ele>282.28</ele>
        <time>2015-02-19T09:54:01Z</time>
      </trkpt>
      <trkpt lat="43.95398" lon="3.7339">
        <ele>280.84</ele>
        <time>2015-02-19T09:54:02Z</time>
      </trkpt>
      <trkpt lat="43.95401" lon="3.73388">
        <ele>283.25</ele>
        <time>2015-02-19T09:54:05Z</time>
      </trkpt>
      <trkpt lat="43.95404" lon="3.73387">
        <ele>285.17</ele>
        <time>2015-02-19T09:54:07Z</time>
      </trkpt>
      <trkpt lat="43.9541" lon="3.73384">
        <ele>281.8</ele>
        <time>2015-02-19T09:54:16Z</time>
      </trkpt>
      <trkpt lat="43.9541" lon="3.73384">
        <ele>285.17</ele>
        <time>2015-02-19T09:54:20Z</time>
      </trkpt>
      <trkpt lat="43.9541" lon="3.73384">
        <ele>285.17</ele>
        <time>2015-02-19T09:54:24Z</time>
      </trkpt>
      <trkpt lat="43.9541" lon="3.73384">
        <ele>283.73</ele>
        <time>2015-02-19T09:54:30Z</time>
      </trkpt>
      <trkpt lat="43.95418" lon="3.7338">
        <ele>284.21</ele>
        <time>2015-02-19T09:54:39Z</time>
      </trkpt>
      <trkpt lat="43.95425" lon="3.73377">
        <ele>286.13</ele>
        <time>2015-02-19T09:54:49Z</time>
      </trkpt>
      <trkpt lat="43.95425" lon="3.73377">
        <ele>283.25</ele>
        <time>2015-02-19T09:54:50Z</time>
      </trkpt>
      <trkpt lat="43.95425" lon="3.73377">
        <ele>283.73</ele>
        <time>2015-02-19T09:54:51Z</time>
      </trkpt>
      <trkpt lat="43.95425" lon="3.73377">
        <ele>283.73</ele>
        <time>2015-02-19T09:55:04Z</time>
      </trkpt>
      <trkpt lat="43.95425" lon="3.73377">
        <ele>282.77</ele>
        <time>2015-02-19T09:55:08Z</time>
      </trkpt>
      <trkpt lat="43.95425" lon="3.73377">
        <ele>286.13</ele>
        <time>2015-02-19T09:55:15Z</time>
      </trkpt>
      <trkpt lat="43.95425" lon="3.73377">
        <ele>285.65</ele>
        <time>2015-02-19T09:55:16Z</time>
      </trkpt>
      <trkpt lat="43.95425" lon="3.73377">
        <ele>282.28</ele>
        <time>2015-02-19T09:55:18Z</time>
      </trkpt>
      <trkpt lat="43.95425" lon="3.73377">
        <ele>286.13</ele>
        <time>2015-02-19T09:55:19Z</time>
      </trkpt>
      <trkpt lat="43.95426" lon="3.73377">
        <ele>282.28</ele>
        <time>2015-02-19T09:55:26Z</time>
      </trkpt>
      <trkpt lat="43.95426" lon="3.73377">
        <ele>286.61</ele>
        <time>2015-02-19T09:55:28Z</time>
      </trkpt>
      <trkpt lat="43.95426" lon="3.73377">
        <ele>283.25</ele>
        <time>2015-02-19T09:55:37Z</time>
      </trkpt>
      <trkpt lat="43.95426" lon="3.73377">
        <ele>283.73</ele>
        <time>2015-02-19T09:55:38Z</time>
      </trkpt>
      <trkpt lat="43.95426" lon="3.73377">
        <ele>284.21</ele>
        <time>2015-02-19T09:55:51Z</time>
      </trkpt>
      <trkpt lat="43.95426" lon="3.73377">
        <ele>287.57</ele>
        <time>2015-02-19T09:55:59Z</time>
      </trkpt>
      <trkpt lat="43.95426" lon="3.73377">
        <ele>284.69</ele>
        <time>2015-02-19T09:56:02Z</time>
      </trkpt>
      <trkpt lat="43.95429" lon="3.73377">
        <ele>287.57</ele>
        <time>2015-02-19T09:56:28Z</time>
      </trkpt>
      <trkpt lat="43.95432" lon="3.73372">
        <ele>285.17</ele>
        <time>2015-02-19T09:56:41Z</time>
      </trkpt>
      <trkpt lat="43.95436" lon="3.73368">
        <ele>289.01</ele>
        <time>2015-02-19T09:56:47Z</time>
      </trkpt>
      <trkpt lat="43.95436" lon="3.73368">
        <ele>287.57</ele>
        <time>2015-02-19T09:56:48Z</time>
      </trkpt>
      <trkpt lat="43.95438" lon="3.73369">
        <ele>285.65</ele>
        <time>2015-02-19T09:56:50Z</time>
      </trkpt>
      <trkpt lat="43.95439" lon="3.73368">
        <ele>286.61</ele>
        <time>2015-02-19T09:56:52Z</time>
      </trkpt>
      <trkpt lat="43.95442" lon="3.73367">
        <ele>286.13</ele>
        <time>2015-02-19T09:57:00Z</time>
      </trkpt>
      <trkpt lat="43.95443" lon="3.73366">
        <ele>288.05</ele>
        <time>2015-02-19T09:57:03Z</time>
      </trkpt>
      <trkpt lat="43.95446" lon="3.73362">
        <ele>289.49</ele>
        <time>2015-02-19T09:57:07Z</time>
      </trkpt>
      <trkpt lat="43.95451" lon="3.73358">
        <ele>290.94</ele>
        <time>2015-02-19T09:57:14Z</time>
      </trkpt>
      <trkpt lat="43.95452" lon="3.73357">
        <ele>288.05</ele>
        <time>2015-02-19T09:57:16Z</time>
      </trkpt>
      <trkpt lat="43.95452" lon="3.73357">
        <ele>289.01</ele>
        <time>2015-02-19T09:57:17Z</time>
      </trkpt>
      <trkpt lat="43.95453" lon="3.73356">
        <ele>290.46</ele>
        <time>2015-02-19T09:57:19Z</time>
      </trkpt>
      <trkpt lat="43.95457" lon="3.73348">
        <ele>291.42</ele>
        <time>2015-02-19T09:57:28Z</time>
      </trkpt>
      <trkpt lat="43.95457" lon="3.73346">
        <ele>293.34</ele>
        <time>2015-02-19T09:57:30Z</time>
      </trkpt>
      <trkpt lat="43.95458" lon="3.73343">
        <ele>289.97</ele>
        <time>2015-02-19T09:57:33Z</time>
      </trkpt>
      <trkpt lat="43.95459" lon="3.73341">
        <ele>291.42</ele>
        <time>2015-02-19T09:57:37Z</time>
      </trkpt>
      <trkpt lat="43.95461" lon="3.73339">
        <ele>294.3</ele>
        <time>2015-02-19T09:57:47Z</time>
      </trkpt>
      <trkpt lat="43.95464" lon="3.73338">
        <ele>292.38</ele>
        <time>2015-02-19T09:57:55Z</time>
      </trkpt>
      <trkpt lat="43.95464" lon="3.73337">
        <ele>295.74</ele>
        <time>2015-02-19T09:57:57Z</time>
      </trkpt>
      <trkpt lat="43.95464" lon="3.73337">
        <ele>295.26</ele>
        <time>2015-02-19T09:57:58Z</time>
      </trkpt>
      <trkpt lat="43.95464" lon="3.73337">
        <ele>290.94</ele>
        <time>2015-02-19T09:58:04Z</time>
      </trkpt>
      <trkpt lat="43.95466" lon="3.73333">
        <ele>294.3</ele>
        <time>2015-02-19T09:58:10Z</time>
      </trkpt>
      <trkpt lat="43.95466" lon="3.73333">
        <ele>294.78</ele>
        <time>2015-02-19T09:58:11Z</time>
      </trkpt>
      <trkpt lat="43.95467" lon="3.73332">
        <ele>292.86</ele>
        <time>2015-02-19T09:58:13Z</time>
      </trkpt>
      <trkpt lat="43.95472" lon="3.73331">
        <ele>294.3</ele>
        <time>2015-02-19T09:58:23Z</time>
      </trkpt>
      <trkpt lat="43.95477" lon="3.73326">
        <ele>297.18</ele>
        <time>2015-02-19T09:58:34Z</time>
      </trkpt>
      <trkpt lat="43.95483" lon="3.73325">
        <ele>296.22</ele>
        <time>2015-02-19T09:58:42Z</time>
      </trkpt>
      <trkpt lat="43.95488" lon="3.73323">
        <ele>298.15</ele>
        <time>2015-02-19T09:58:47Z</time>
      </trkpt>
      <trkpt lat="43.95495" lon="3.7332">
        <ele>298.15</ele>
        <time>2015-02-19T09:59:02Z</time>
      </trkpt>
      <trkpt lat="43.95496" lon="3.73319">
        <ele>301.99</ele>
        <time>2015-02-19T09:59:03Z</time>
      </trkpt>
      <trkpt lat="43.95497" lon="3.73319">
        <ele>301.51</ele>
        <time>2015-02-19T09:59:04Z</time>
      </trkpt>
      <trkpt lat="43.95499" lon="3.73317">
        <ele>298.15</ele>
        <time>2015-02-19T09:59:06Z</time>
      </trkpt>
      <trkpt lat="43.955" lon="3.73316">
        <ele>298.15</ele>
        <time>2015-02-19T09:59:07Z</time>
      </trkpt>
      <trkpt lat="43.95505" lon="3.73314">
        <ele>298.15</ele>
        <time>2015-02-19T09:59:18Z</time>
      </trkpt>
      <trkpt lat="43.9551" lon="3.73315">
        <ele>302.47</ele>
        <time>2015-02-19T09:59:24Z</time>
      </trkpt>
      <trkpt lat="43.95511" lon="3.73315">
        <ele>302.95</ele>
        <time>2015-02-19T09:59:25Z</time>
      </trkpt>
      <trkpt lat="43.95519" lon="3.73312">
        <ele>301.03</ele>
        <time>2015-02-19T09:59:35Z</time>
      </trkpt>
      <trkpt lat="43.95525" lon="3.73309">
        <ele>301.51</ele>
        <time>2015-02-19T09:59:45Z</time>
      </trkpt>
      <trkpt lat="43.95531" lon="3.73307">
        <ele>303.91</ele>
        <time>2015-02-19T09:59:54Z</time>
      </trkpt>
      <trkpt lat="43.95532" lon="3.73306">
        <ele>300.07</ele>
        <time>2015-02-19T09:59:56Z</time>
      </trkpt>
      <trkpt lat="43.95539" lon="3.73304">
        <ele>302.95</ele>
        <time>2015-02-19T10:00:04Z</time>
      </trkpt>
      <trkpt lat="43.95543" lon="3.73303">
        <ele>304.88</ele>
        <time>2015-02-19T10:00:08Z</time>
      </trkpt>
      <trkpt lat="43.95544" lon="3.73302">
        <ele>305.84</ele>
        <time>2015-02-19T10:00:14Z</time>
      </trkpt>
      <trkpt lat="43.95547" lon="3.73301">
        <ele>305.36</ele>
        <time>2015-02-19T10:00:27Z</time>
      </trkpt>
      <trkpt lat="43.95547" lon="3.73301">
        <ele>303.91</ele>
        <time>2015-02-19T10:00:37Z</time>
      </trkpt>
      <trkpt lat="43.95548" lon="3.73301">
        <ele>305.84</ele>
        <time>2015-02-19T10:00:41Z</time>
      </trkpt>
      <trkpt lat="43.9555" lon="3.73298">
        <ele>304.88</ele>
        <time>2015-02-19T10:00:43Z</time>
      </trkpt>
      <trkpt lat="43.95557" lon="3.73294">
        <ele>308.72</ele>
        <time>2015-02-19T10:00:47Z</time>
      </trkpt>
      <trkpt lat="43.95562" lon="3.73293">
        <ele>305.36</ele>
        <time>2015-02-19T10:00:51Z</time>
      </trkpt>
      <trkpt lat="43.95564" lon="3.73293">
        <ele>305.84</ele>
        <time>2015-02-19T10:00:55Z</time>
      </trkpt>
      <trkpt lat="43.95576" lon="3.73293">
        <ele>310.16</ele>
        <time>2015-02-19T10:01:00Z</time>
      </trkpt>
      <trkpt lat="43.95578" lon="3.73293">
        <ele>309.68</ele>
        <time>2015-02-19T10:01:05Z</time>
      </trkpt>
      <trkpt lat="43.95579" lon="3.73293">
        <ele>305.84</ele>
        <time>2015-02-19T10:01:08Z</time>
      </trkpt>
      <trkpt lat="43.95582" lon="3.73293">
        <ele>308.72</ele>
        <time>2015-02-19T10:01:12Z</time>
      </trkpt>
      <trkpt lat="43.95594" lon="3.73294">
        <ele>308.72</ele>
        <time>2015-02-19T10:01:23Z</time>
      </trkpt>
      <trkpt lat="43.95597" lon="3.73295">
        <ele>308.24</ele>
        <time>2015-02-19T10:01:37Z</time>
      </trkpt>
      <trkpt lat="43.95597" lon="3.73295">
        <ele>308.24</ele>
        <time>2015-02-19T10:01:50Z</time>
      </trkpt>
      <trkpt lat="43.956" lon="3.73292">
        <ele>312.09</ele>
        <time>2015-02-19T10:01:54Z</time>
      </trkpt>
      <trkpt lat="43.956" lon="3.73292">
        <ele>308.24</ele>
        <time>2015-02-19T10:01:55Z</time>
      </trkpt>
      <trkpt lat="43.956" lon="3.73292">
        <ele>311.6</ele>
        <time>2015-02-19T10:02:00Z</time>
      </trkpt>
      <trkpt lat="43.95601" lon="3.73289">
        <ele>309.2</ele>
        <time>2015-02-19T10:02:06Z</time>
      </trkpt>
      <trkpt lat="43.95612" lon="3.73284">
        <ele>313.05</ele>
        <time>2015-02-19T10:02:16Z</time>
      </trkpt>
      <trkpt lat="43.95617" lon="3.73277">
        <ele>314.49</ele>
        <time>2015-02-19T10:02:26Z</time>
      </trkpt>
      <trkpt lat="43.95619" lon="3.73271">
        <ele>314.49</ele>
        <time>2015-02-19T10:02:36Z</time>
      </trkpt>
      <trkpt lat="43.95622" lon="3.73266">
        <ele>314.97</ele>
        <time>2015-02-19T10:02:48Z</time>
      </trkpt>
      <trkpt lat="43.95618" lon="3.73259">
        <ele>318.33</ele>
        <time>2015-02-19T10:02:57Z</time>
      </trkpt>
      <trkpt lat="43.95616" lon="3.73256">
        <ele>314.97</ele>
        <time>2015-02-19T10:03:00Z</time>
      </trkpt>
      <trkpt lat="43.95616" lon="3.73255">
        <ele>318.33</ele>
        <time>2015-02-19T10:03:03Z</time>
      </trkpt>
      <trkpt lat="43.95616" lon="3.73254">
        <ele>318.33</ele>
        <time>2015-02-19T10:03:04Z</time>
      </trkpt>
      <trkpt lat="43.95613" lon="3.73251">
        <ele>317.37</ele>
        <time>2015-02-19T10:03:11Z</time>
      </trkpt>
      <trkpt lat="43.95612" lon="3.73251">
        <ele>319.3</ele>
        <time>2015-02-19T10:03:12Z</time>
      </trkpt>
      <trkpt lat="43.95611" lon="3.73249">
        <ele>318.81</ele>
        <time>2015-02-19T10:03:14Z</time>
      </trkpt>
      <trkpt lat="43.95608" lon="3.73246">
        <ele>317.37</ele>
        <time>2015-02-19T10:03:18Z</time>
      </trkpt>
      <trkpt lat="43.95608" lon="3.73246">
        <ele>319.78</ele>
        <time>2015-02-19T10:03:20Z</time>
      </trkpt>
      <trkpt lat="43.95605" lon="3.73243">
        <ele>319.3</ele>
        <time>2015-02-19T10:03:22Z</time>
      </trkpt>
      <trkpt lat="43.95598" lon="3.73234">
        <ele>319.78</ele>
        <time>2015-02-19T10:03:34Z</time>
      </trkpt>
      <trkpt lat="43.9559" lon="3.73223">
        <ele>322.66</ele>
        <time>2015-02-19T10:03:43Z</time>
      </trkpt>
      <trkpt lat="43.95589" lon="3.73222">
        <ele>321.7</ele>
        <time>2015-02-19T10:03:44Z</time>
      </trkpt>
      <trkpt lat="43.95585" lon="3.73207">
        <ele>324.58</ele>
        <time>2015-02-19T10:03:56Z</time>
      </trkpt>
      <trkpt lat="43.95584" lon="3.73206">
        <ele>319.3</ele>
        <time>2015-02-19T10:03:57Z</time>
      </trkpt>
      <trkpt lat="43.95584" lon="3.73205">
        <ele>321.22</ele>
        <time>2015-02-19T10:03:58Z</time>
      </trkpt>
      <trkpt lat="43.95583" lon="3.73195">
        <ele>323.62</ele>
        <time>2015-02-19T10:04:07Z</time>
      </trkpt>
      <trkpt lat="43.95583" lon="3.73184">
        <ele>325.54</ele>
        <time>2015-02-19T10:04:17Z</time>
      </trkpt>
      <trkpt lat="43.95583" lon="3.73183">
        <ele>322.18</ele>
        <time>2015-02-19T10:04:18Z</time>
      </trkpt>
      <trkpt lat="43.95583" lon="3.73183">
        <ele>323.62</ele>
        <time>2015-02-19T10:04:19Z</time>
      </trkpt>
      <trkpt lat="43.95584" lon="3.73176">
        <ele>324.58</ele>
        <time>2015-02-19T10:04:26Z</time>
      </trkpt>
      <trkpt lat="43.95584" lon="3.73168">
        <ele>326.5</ele>
        <time>2015-02-19T10:04:33Z</time>
      </trkpt>
      <trkpt lat="43.95586" lon="3.73162">
        <ele>325.06</ele>
        <time>2015-02-19T10:04:42Z</time>
      </trkpt>
      <trkpt lat="43.95586" lon="3.7316">
        <ele>326.5</ele>
        <time>2015-02-19T10:04:44Z</time>
      </trkpt>
      <trkpt lat="43.95587" lon="3.73159">
        <ele>326.02</ele>
        <time>2015-02-19T10:04:46Z</time>
      </trkpt>
      <trkpt lat="43.95589" lon="3.7315">
        <ele>328.43</ele>
        <time>2015-02-19T10:04:57Z</time>
      </trkpt>
      <trkpt lat="43.95592" lon="3.73138">
        <ele>327.95</ele>
        <time>2015-02-19T10:05:10Z</time>
      </trkpt>
      <trkpt lat="43.95591" lon="3.73138">
        <ele>327.47</ele>
        <time>2015-02-19T10:05:12Z</time>
      </trkpt>
      <trkpt lat="43.95591" lon="3.73138">
        <ele>328.91</ele>
        <time>2015-02-19T10:05:15Z</time>
      </trkpt>
      <trkpt lat="43.95592" lon="3.73135">
        <ele>331.31</ele>
        <time>2015-02-19T10:05:18Z</time>
      </trkpt>
      <trkpt lat="43.95592" lon="3.73133">
        <ele>329.87</ele>
        <time>2015-02-19T10:05:20Z</time>
      </trkpt>
      <trkpt lat="43.95592" lon="3.73133">
        <ele>328.43</ele>
        <time>2015-02-19T10:05:22Z</time>
      </trkpt>
      <trkpt lat="43.95592" lon="3.73132">
        <ele>329.39</ele>
        <time>2015-02-19T10:05:24Z</time>
      </trkpt>
      <trkpt lat="43.95592" lon="3.73131">
        <ele>333.23</ele>
        <time>2015-02-19T10:05:26Z</time>
      </trkpt>
      <trkpt lat="43.95592" lon="3.73129">
        <ele>330.83</ele>
        <time>2015-02-19T10:05:27Z</time>
      </trkpt>
      <trkpt lat="43.95593" lon="3.73123">
        <ele>329.39</ele>
        <time>2015-02-19T10:05:31Z</time>
      </trkpt>
      <trkpt lat="43.95594" lon="3.73121">
        <ele>332.27</ele>
        <time>2015-02-19T10:05:33Z</time>
      </trkpt>
      <trkpt lat="43.95594" lon="3.7312">
        <ele>328.91</ele>
        <time>2015-02-19T10:05:34Z</time>
      </trkpt>
      <trkpt lat="43.95595" lon="3.73117">
        <ele>332.27</ele>
        <time>2015-02-19T10:05:40Z</time>
      </trkpt>
      <trkpt lat="43.95595" lon="3.73116">
        <ele>331.31</ele>
        <time>2015-02-19T10:05:41Z</time>
      </trkpt>
      <trkpt lat="43.95595" lon="3.73114">
        <ele>329.87</ele>
        <time>2015-02-19T10:05:43Z</time>
      </trkpt>
      <trkpt lat="43.95599" lon="3.73107">
        <ele>329.39</ele>
        <time>2015-02-19T10:05:52Z</time>
      </trkpt>
      <trkpt lat="43.956" lon="3.73104">
        <ele>333.71</ele>
        <time>2015-02-19T10:05:54Z</time>
      </trkpt>
      <trkpt lat="43.95603" lon="3.73095">
        <ele>335.16</ele>
        <time>2015-02-19T10:06:04Z</time>
      </trkpt>
      <trkpt lat="43.95603" lon="3.73095">
        <ele>331.79</ele>
        <time>2015-02-19T10:06:05Z</time>
      </trkpt>
      <trkpt lat="43.95604" lon="3.73095">
        <ele>331.79</ele>
        <time>2015-02-19T10:06:06Z</time>
      </trkpt>
      <trkpt lat="43.95605" lon="3.73094">
        <ele>333.71</ele>
        <time>2015-02-19T10:06:08Z</time>
      </trkpt>
      <trkpt lat="43.95608" lon="3.73098">
        <ele>337.08</ele>
        <time>2015-02-19T10:06:13Z</time>
      </trkpt>
      <trkpt lat="43.95607" lon="3.73102">
        <ele>336.6</ele>
        <time>2015-02-19T10:06:17Z</time>
      </trkpt>
      <trkpt lat="43.95612" lon="3.73118">
        <ele>335.16</ele>
        <time>2015-02-19T10:06:31Z</time>
      </trkpt>
      <trkpt lat="43.95613" lon="3.73121">
        <ele>338.52</ele>
        <time>2015-02-19T10:06:33Z</time>
      </trkpt>
      <trkpt lat="43.95616" lon="3.73125">
        <ele>335.16</ele>
        <time>2015-02-19T10:06:38Z</time>
      </trkpt>
      <trkpt lat="43.95617" lon="3.7313">
        <ele>337.08</ele>
        <time>2015-02-19T10:06:42Z</time>
      </trkpt>
      <trkpt lat="43.95619" lon="3.73132">
        <ele>336.12</ele>
        <time>2015-02-19T10:06:44Z</time>
      </trkpt>
      <trkpt lat="43.95621" lon="3.73133">
        <ele>339</ele>
        <time>2015-02-19T10:06:46Z</time>
      </trkpt>
      <trkpt lat="43.95625" lon="3.73142">
        <ele>336.12</ele>
        <time>2015-02-19T10:06:55Z</time>
      </trkpt>
      <trkpt lat="43.95628" lon="3.73145">
        <ele>339.48</ele>
        <time>2015-02-19T10:06:59Z</time>
      </trkpt>
      <trkpt lat="43.95632" lon="3.73149">
        <ele>337.08</ele>
        <time>2015-02-19T10:07:06Z</time>
      </trkpt>
      <trkpt lat="43.95633" lon="3.7315">
        <ele>339.48</ele>
        <time>2015-02-19T10:07:08Z</time>
      </trkpt>
      <trkpt lat="43.95634" lon="3.73151">
        <ele>338.04</ele>
        <time>2015-02-19T10:07:10Z</time>
      </trkpt>
      <trkpt lat="43.95643" lon="3.73154">
        <ele>339.48</ele>
        <time>2015-02-19T10:07:21Z</time>
      </trkpt>
      <trkpt lat="43.95646" lon="3.73151">
        <ele>342.85</ele>
        <time>2015-02-19T10:07:26Z</time>
      </trkpt>
      <trkpt lat="43.95646" lon="3.7315">
        <ele>342.37</ele>
        <time>2015-02-19T10:07:27Z</time>
      </trkpt>
      <trkpt lat="43.95648" lon="3.73147">
        <ele>342.37</ele>
        <time>2015-02-19T10:07:29Z</time>
      </trkpt>
      <trkpt lat="43.95648" lon="3.73145">
        <ele>340.92</ele>
        <time>2015-02-19T10:07:31Z</time>
      </trkpt>
      <trkpt lat="43.95648" lon="3.73144">
        <ele>344.29</ele>
        <time>2015-02-19T10:07:33Z</time>
      </trkpt>
      <trkpt lat="43.95647" lon="3.73141">
        <ele>339.96</ele>
        <time>2015-02-19T10:07:35Z</time>
      </trkpt>
      <trkpt lat="43.95647" lon="3.73139">
        <ele>343.81</ele>
        <time>2015-02-19T10:07:38Z</time>
      </trkpt>
      <trkpt lat="43.95647" lon="3.73138">
        <ele>342.85</ele>
        <time>2015-02-19T10:07:39Z</time>
      </trkpt>
      <trkpt lat="43.95647" lon="3.73125">
        <ele>345.73</ele>
        <time>2015-02-19T10:07:51Z</time>
      </trkpt>
      <trkpt lat="43.95647" lon="3.73124">
        <ele>344.77</ele>
        <time>2015-02-19T10:07:52Z</time>
      </trkpt>
      <trkpt lat="43.95648" lon="3.73118">
        <ele>343.81</ele>
        <time>2015-02-19T10:07:59Z</time>
      </trkpt>
      <trkpt lat="43.95649" lon="3.73108">
        <ele>346.21</ele>
        <time>2015-02-19T10:08:10Z</time>
      </trkpt>
      <trkpt lat="43.95651" lon="3.73101">
        <ele>346.69</ele>
        <time>2015-02-19T10:08:18Z</time>
      </trkpt>
      <trkpt lat="43.95653" lon="3.73088">
        <ele>347.65</ele>
        <time>2015-02-19T10:08:30Z</time>
      </trkpt>
      <trkpt lat="43.95653" lon="3.73086">
        <ele>347.65</ele>
        <time>2015-02-19T10:08:38Z</time>
      </trkpt>
      <trkpt lat="43.95653" lon="3.73086">
        <ele>348.62</ele>
        <time>2015-02-19T10:08:48Z</time>
      </trkpt>
      <trkpt lat="43.95653" lon="3.73086">
        <ele>345.25</ele>
        <time>2015-02-19T10:08:49Z</time>
      </trkpt>
      <trkpt lat="43.95653" lon="3.73086">
        <ele>346.21</ele>
        <time>2015-02-19T10:08:50Z</time>
      </trkpt>
      <trkpt lat="43.95653" lon="3.73086">
        <ele>346.69</ele>
        <time>2015-02-19T10:08:52Z</time>
      </trkpt>
      <trkpt lat="43.95656" lon="3.73083">
        <ele>346.69</ele>
        <time>2015-02-19T10:09:04Z</time>
      </trkpt>
      <trkpt lat="43.95657" lon="3.73073">
        <ele>346.69</ele>
        <time>2015-02-19T10:09:16Z</time>
      </trkpt>
      <trkpt lat="43.9566" lon="3.73066">
        <ele>351.02</ele>
        <time>2015-02-19T10:09:23Z</time>
      </trkpt>
      <trkpt lat="43.95661" lon="3.73065">
        <ele>349.1</ele>
        <time>2015-02-19T10:09:24Z</time>
      </trkpt>
      <trkpt lat="43.95662" lon="3.73062">
        <ele>349.58</ele>
        <time>2015-02-19T10:09:28Z</time>
      </trkpt>
      <trkpt lat="43.95669" lon="3.73052">
        <ele>348.62</ele>
        <time>2015-02-19T10:09:40Z</time>
      </trkpt>
      <trkpt lat="43.95671" lon="3.73048">
        <ele>350.54</ele>
        <time>2015-02-19T10:09:46Z</time>
      </trkpt>
      <trkpt lat="43.95673" lon="3.73043">
        <ele>351.5</ele>
        <time>2015-02-19T10:09:56Z</time>
      </trkpt>
      <trkpt lat="43.95679" lon="3.73035">
        <ele>350.54</ele>
        <time>2015-02-19T10:10:06Z</time>
      </trkpt>
      <trkpt lat="43.9568" lon="3.73034">
        <ele>353.42</ele>
        <time>2015-02-19T10:10:09Z</time>
      </trkpt>
      <trkpt lat="43.95686" lon="3.73029">
        <ele>353.42</ele>
        <time>2015-02-19T10:10:20Z</time>
      </trkpt>
      <trkpt lat="43.95688" lon="3.73027">
        <ele>355.34</ele>
        <time>2015-02-19T10:10:23Z</time>
      </trkpt>
      <trkpt lat="43.95689" lon="3.73026">
        <ele>353.42</ele>
        <time>2015-02-19T10:10:25Z</time>
      </trkpt>
      <trkpt lat="43.95692" lon="3.73024">
        <ele>355.34</ele>
        <time>2015-02-19T10:10:30Z</time>
      </trkpt>
      <trkpt lat="43.95693" lon="3.73023">
        <ele>353.9</ele>
        <time>2015-02-19T10:10:32Z</time>
      </trkpt>
      <trkpt lat="43.957" lon="3.73018">
        <ele>356.79</ele>
        <time>2015-02-19T10:10:42Z</time>
      </trkpt>
      <trkpt lat="43.95702" lon="3.73015">
        <ele>357.27</ele>
        <time>2015-02-19T10:10:48Z</time>
      </trkpt>
      <trkpt lat="43.95704" lon="3.73014">
        <ele>356.31</ele>
        <time>2015-02-19T10:10:50Z</time>
      </trkpt>
      <trkpt lat="43.95708" lon="3.73011">
        <ele>354.86</ele>
        <time>2015-02-19T10:10:56Z</time>
      </trkpt>
      <trkpt lat="43.95715" lon="3.73006">
        <ele>358.71</ele>
        <time>2015-02-19T10:11:06Z</time>
      </trkpt>
      <trkpt lat="43.95718" lon="3.73006">
        <ele>358.71</ele>
        <time>2015-02-19T10:11:10Z</time>
      </trkpt>
      <trkpt lat="43.95724" lon="3.73006">
        <ele>357.27</ele>
        <time>2015-02-19T10:11:18Z</time>
      </trkpt>
      <trkpt lat="43.95726" lon="3.73008">
        <ele>358.23</ele>
        <time>2015-02-19T10:11:22Z</time>
      </trkpt>
      <trkpt lat="43.9573" lon="3.73009">
        <ele>361.11</ele>
        <time>2015-02-19T10:11:27Z</time>
      </trkpt>
      <trkpt lat="43.95734" lon="3.73013">
        <ele>361.59</ele>
        <time>2015-02-19T10:11:36Z</time>
      </trkpt>
      <trkpt lat="43.9574" lon="3.73014">
        <ele>360.15</ele>
        <time>2015-02-19T10:11:44Z</time>
      </trkpt>
      <trkpt lat="43.95744" lon="3.73015">
        <ele>361.59</ele>
        <time>2015-02-19T10:11:50Z</time>
      </trkpt>
      <trkpt lat="43.95751" lon="3.73018">
        <ele>364</ele>
        <time>2015-02-19T10:12:01Z</time>
      </trkpt>
      <trkpt lat="43.95754" lon="3.73019">
        <ele>362.07</ele>
        <time>2015-02-19T10:12:06Z</time>
      </trkpt>
      <trkpt lat="43.9576" lon="3.73019">
        <ele>365.44</ele>
        <time>2015-02-19T10:12:13Z</time>
      </trkpt>
      <trkpt lat="43.95762" lon="3.73019">
        <ele>362.07</ele>
        <time>2015-02-19T10:12:15Z</time>
      </trkpt>
      <trkpt lat="43.95762" lon="3.73018">
        <ele>363.52</ele>
        <time>2015-02-19T10:12:16Z</time>
      </trkpt>
      <trkpt lat="43.95768" lon="3.73017">
        <ele>367.84</ele>
        <time>2015-02-19T10:12:25Z</time>
      </trkpt>
      <trkpt lat="43.95769" lon="3.73017">
        <ele>366.88</ele>
        <time>2015-02-19T10:12:26Z</time>
      </trkpt>
      <trkpt lat="43.95776" lon="3.73014">
        <ele>367.84</ele>
        <time>2015-02-19T10:12:38Z</time>
      </trkpt>
      <trkpt lat="43.95781" lon="3.73012">
        <ele>364.96</ele>
        <time>2015-02-19T10:12:43Z</time>
      </trkpt>
      <trkpt lat="43.95784" lon="3.73011">
        <ele>368.8</ele>
        <time>2015-02-19T10:12:47Z</time>
      </trkpt>
      <trkpt lat="43.95787" lon="3.7301">
        <ele>367.36</ele>
        <time>2015-02-19T10:12:51Z</time>
      </trkpt>
      <trkpt lat="43.9579" lon="3.73009">
        <ele>367.84</ele>
        <time>2015-02-19T10:12:55Z</time>
      </trkpt>
      <trkpt lat="43.95792" lon="3.73008">
        <ele>369.28</ele>
        <time>2015-02-19T10:12:59Z</time>
      </trkpt>
      <trkpt lat="43.95801" lon="3.73007">
        <ele>367.84</ele>
        <time>2015-02-19T10:13:09Z</time>
      </trkpt>
      <trkpt lat="43.95801" lon="3.73006">
        <ele>367.84</ele>
        <time>2015-02-19T10:13:10Z</time>
      </trkpt>
      <trkpt lat="43.95803" lon="3.73006">
        <ele>370.73</ele>
        <time>2015-02-19T10:13:12Z</time>
      </trkpt>
      <trkpt lat="43.9581" lon="3.73004">
        <ele>369.28</ele>
        <time>2015-02-19T10:13:20Z</time>
      </trkpt>
      <trkpt lat="43.95816" lon="3.73">
        <ele>371.69</ele>
        <time>2015-02-19T10:13:30Z</time>
      </trkpt>
      <trkpt lat="43.9582" lon="3.72999">
        <ele>373.13</ele>
        <time>2015-02-19T10:13:41Z</time>
      </trkpt>
      <trkpt lat="43.95823" lon="3.72998">
        <ele>370.24</ele>
        <time>2015-02-19T10:13:45Z</time>
      </trkpt>
      <trkpt lat="43.95825" lon="3.72996">
        <ele>373.13</ele>
        <time>2015-02-19T10:13:48Z</time>
      </trkpt>
      <trkpt lat="43.95827" lon="3.72995">
        <ele>376.49</ele>
        <time>2015-02-19T10:13:52Z</time>
      </trkpt>
      <trkpt lat="43.95828" lon="3.72994">
        <ele>376.01</ele>
        <time>2015-02-19T10:13:53Z</time>
      </trkpt>
      <trkpt lat="43.95831" lon="3.72994">
        <ele>372.65</ele>
        <time>2015-02-19T10:13:55Z</time>
      </trkpt>
      <trkpt lat="43.95831" lon="3.72993">
        <ele>372.65</ele>
        <time>2015-02-19T10:13:56Z</time>
      </trkpt>
      <trkpt lat="43.95834" lon="3.72993">
        <ele>376.97</ele>
        <time>2015-02-19T10:13:59Z</time>
      </trkpt>
      <trkpt lat="43.95834" lon="3.72993">
        <ele>373.61</ele>
        <time>2015-02-19T10:14:00Z</time>
      </trkpt>
      <trkpt lat="43.95839" lon="3.72991">
        <ele>376.49</ele>
        <time>2015-02-19T10:14:05Z</time>
      </trkpt>
      <trkpt lat="43.95843" lon="3.7299">
        <ele>377.45</ele>
        <time>2015-02-19T10:14:10Z</time>
      </trkpt>
      <trkpt lat="43.9585" lon="3.72982">
        <ele>376.97</ele>
        <time>2015-02-19T10:14:24Z</time>
      </trkpt>
      <trkpt lat="43.95852" lon="3.72981">
        <ele>380.34</ele>
        <time>2015-02-19T10:14:26Z</time>
      </trkpt>
      <trkpt lat="43.95853" lon="3.72981">
        <ele>376.97</ele>
        <time>2015-02-19T10:14:28Z</time>
      </trkpt>
      <trkpt lat="43.95856" lon="3.72978">
        <ele>380.34</ele>
        <time>2015-02-19T10:14:34Z</time>
      </trkpt>
      <trkpt lat="43.95858" lon="3.72978">
        <ele>379.38</ele>
        <time>2015-02-19T10:14:38Z</time>
      </trkpt>
      <trkpt lat="43.95859" lon="3.72977">
        <ele>382.74</ele>
        <time>2015-02-19T10:14:39Z</time>
      </trkpt>
      <trkpt lat="43.9586" lon="3.72977">
        <ele>380.82</ele>
        <time>2015-02-19T10:14:40Z</time>
      </trkpt>
      <trkpt lat="43.95863" lon="3.72975">
        <ele>378.9</ele>
        <time>2015-02-19T10:14:46Z</time>
      </trkpt>
      <trkpt lat="43.95865" lon="3.72975">
        <ele>380.82</ele>
        <time>2015-02-19T10:14:49Z</time>
      </trkpt>
      <trkpt lat="43.95869" lon="3.72976">
        <ele>384.18</ele>
        <time>2015-02-19T10:14:54Z</time>
      </trkpt>
      <trkpt lat="43.95871" lon="3.72976">
        <ele>380.82</ele>
        <time>2015-02-19T10:14:58Z</time>
      </trkpt>
      <trkpt lat="43.95875" lon="3.72979">
        <ele>384.18</ele>
        <time>2015-02-19T10:15:04Z</time>
      </trkpt>
      <trkpt lat="43.95878" lon="3.7298">
        <ele>382.26</ele>
        <time>2015-02-19T10:15:07Z</time>
      </trkpt>
      <trkpt lat="43.95883" lon="3.72985">
        <ele>383.7</ele>
        <time>2015-02-19T10:15:18Z</time>
      </trkpt>
      <trkpt lat="43.95884" lon="3.72986">
        <ele>383.22</ele>
        <time>2015-02-19T10:15:20Z</time>
      </trkpt>
      <trkpt lat="43.9589" lon="3.72992">
        <ele>385.63</ele>
        <time>2015-02-19T10:15:31Z</time>
      </trkpt>
      <trkpt lat="43.95892" lon="3.72994">
        <ele>387.07</ele>
        <time>2015-02-19T10:15:34Z</time>
      </trkpt>
      <trkpt lat="43.95895" lon="3.72996">
        <ele>387.07</ele>
        <time>2015-02-19T10:15:38Z</time>
      </trkpt>
      <trkpt lat="43.95898" lon="3.72997">
        <ele>383.7</ele>
        <time>2015-02-19T10:15:43Z</time>
      </trkpt>
      <trkpt lat="43.959" lon="3.72997">
        <ele>387.55</ele>
        <time>2015-02-19T10:15:45Z</time>
      </trkpt>
      <trkpt lat="43.959" lon="3.72997">
        <ele>387.07</ele>
        <time>2015-02-19T10:15:46Z</time>
      </trkpt>
      <trkpt lat="43.95903" lon="3.72992">
        <ele>388.51</ele>
        <time>2015-02-19T10:15:58Z</time>
      </trkpt>
      <trkpt lat="43.95905" lon="3.72987">
        <ele>387.55</ele>
        <time>2015-02-19T10:16:14Z</time>
      </trkpt>
      <trkpt lat="43.95906" lon="3.72985">
        <ele>389.47</ele>
        <time>2015-02-19T10:16:16Z</time>
      </trkpt>
      <trkpt lat="43.9591" lon="3.72979">
        <ele>389.95</ele>
        <time>2015-02-19T10:16:27Z</time>
      </trkpt>
      <trkpt lat="43.95913" lon="3.72979">
        <ele>387.07</ele>
        <time>2015-02-19T10:16:31Z</time>
      </trkpt>
      <trkpt lat="43.95913" lon="3.72979">
        <ele>390.91</ele>
        <time>2015-02-19T10:16:33Z</time>
      </trkpt>
      <trkpt lat="43.95917" lon="3.72979">
        <ele>390.91</ele>
        <time>2015-02-19T10:16:39Z</time>
      </trkpt>
      <trkpt lat="43.95921" lon="3.72981">
        <ele>391.87</ele>
        <time>2015-02-19T10:16:48Z</time>
      </trkpt>
      <trkpt lat="43.95928" lon="3.72979">
        <ele>392.36</ele>
        <time>2015-02-19T10:16:59Z</time>
      </trkpt>
      <trkpt lat="43.95932" lon="3.72975">
        <ele>392.84</ele>
        <time>2015-02-19T10:17:12Z</time>
      </trkpt>
      <trkpt lat="43.95936" lon="3.72969">
        <ele>394.76</ele>
        <time>2015-02-19T10:17:23Z</time>
      </trkpt>
      <trkpt lat="43.95937" lon="3.72968">
        <ele>392.36</ele>
        <time>2015-02-19T10:17:25Z</time>
      </trkpt>
      <trkpt lat="43.95937" lon="3.72966">
        <ele>394.76</ele>
        <time>2015-02-19T10:17:27Z</time>
      </trkpt>
      <trkpt lat="43.95937" lon="3.72965">
        <ele>393.8</ele>
        <time>2015-02-19T10:17:50Z</time>
      </trkpt>
      <trkpt lat="43.95937" lon="3.72965">
        <ele>395.24</ele>
        <time>2015-02-19T10:17:53Z</time>
      </trkpt>
      <trkpt lat="43.95937" lon="3.72965">
        <ele>393.32</ele>
        <time>2015-02-19T10:17:55Z</time>
      </trkpt>
      <trkpt lat="43.95937" lon="3.72965">
        <ele>395.24</ele>
        <time>2015-02-19T10:17:58Z</time>
      </trkpt>
      <trkpt lat="43.95934" lon="3.72971">
        <ele>393.8</ele>
        <time>2015-02-19T10:18:14Z</time>
      </trkpt>
      <trkpt lat="43.95932" lon="3.72972">
        <ele>391.87</ele>
        <time>2015-02-19T10:18:28Z</time>
      </trkpt>
      <trkpt lat="43.95932" lon="3.72972">
        <ele>394.28</ele>
        <time>2015-02-19T10:18:30Z</time>
      </trkpt>
      <trkpt lat="43.95934" lon="3.72967">
        <ele>394.28</ele>
        <time>2015-02-19T10:19:13Z</time>
      </trkpt>
      <trkpt lat="43.9594" lon="3.7296">
        <ele>394.28</ele>
        <time>2015-02-19T10:19:25Z</time>
      </trkpt>
      <trkpt lat="43.95945" lon="3.72955">
        <ele>397.64</ele>
        <time>2015-02-19T10:19:32Z</time>
      </trkpt>
      <trkpt lat="43.9595" lon="3.72946">
        <ele>398.12</ele>
        <time>2015-02-19T10:19:44Z</time>
      </trkpt>
      <trkpt lat="43.95956" lon="3.7294">
        <ele>398.12</ele>
        <time>2015-02-19T10:19:56Z</time>
      </trkpt>
      <trkpt lat="43.95958" lon="3.72941">
        <ele>401.49</ele>
        <time>2015-02-19T10:19:58Z</time>
      </trkpt>
      <trkpt lat="43.95965" lon="3.72937">
        <ele>401.49</ele>
        <time>2015-02-19T10:20:10Z</time>
      </trkpt>
      <trkpt lat="43.95967" lon="3.72935">
        <ele>402.45</ele>
        <time>2015-02-19T10:20:12Z</time>
      </trkpt>
      <trkpt lat="43.95973" lon="3.7293">
        <ele>402.45</ele>
        <time>2015-02-19T10:20:25Z</time>
      </trkpt>
      <trkpt lat="43.95978" lon="3.72927">
        <ele>405.33</ele>
        <time>2015-02-19T10:20:38Z</time>
      </trkpt>
      <trkpt lat="43.95982" lon="3.72922">
        <ele>405.33</ele>
        <time>2015-02-19T10:20:47Z</time>
      </trkpt>
      <trkpt lat="43.95984" lon="3.72912">
        <ele>407.74</ele>
        <time>2015-02-19T10:20:57Z</time>
      </trkpt>
      <trkpt lat="43.95987" lon="3.72901">
        <ele>408.22</ele>
        <time>2015-02-19T10:21:08Z</time>
      </trkpt>
      <trkpt lat="43.95992" lon="3.72895">
        <ele>411.58</ele>
        <time>2015-02-19T10:21:18Z</time>
      </trkpt>
      <trkpt lat="43.95994" lon="3.72894">
        <ele>408.7</ele>
        <time>2015-02-19T10:21:21Z</time>
      </trkpt>
      <trkpt lat="43.95996" lon="3.72894">
        <ele>412.06</ele>
        <time>2015-02-19T10:21:24Z</time>
      </trkpt>
      <trkpt lat="43.96001" lon="3.7289">
        <ele>409.66</ele>
        <time>2015-02-19T10:21:36Z</time>
      </trkpt>
      <trkpt lat="43.96002" lon="3.72888">
        <ele>413.98</ele>
        <time>2015-02-19T10:21:38Z</time>
      </trkpt>
      <trkpt lat="43.96004" lon="3.72884">
        <ele>412.06</ele>
        <time>2015-02-19T10:21:45Z</time>
      </trkpt>
      <trkpt lat="43.96005" lon="3.7288">
        <ele>415.43</ele>
        <time>2015-02-19T10:21:49Z</time>
      </trkpt>
      <trkpt lat="43.96008" lon="3.72871">
        <ele>414.47</ele>
        <time>2015-02-19T10:21:59Z</time>
      </trkpt>
      <trkpt lat="43.9601" lon="3.72861">
        <ele>417.83</ele>
        <time>2015-02-19T10:22:09Z</time>
      </trkpt>
      <trkpt lat="43.96012" lon="3.72853">
        <ele>416.87</ele>
        <time>2015-02-19T10:22:22Z</time>
      </trkpt>
      <trkpt lat="43.96011" lon="3.72847">
        <ele>419.75</ele>
        <time>2015-02-19T10:22:28Z</time>
      </trkpt>
      <trkpt lat="43.96011" lon="3.72845">
        <ele>416.39</ele>
        <time>2015-02-19T10:22:32Z</time>
      </trkpt>
      <trkpt lat="43.96011" lon="3.72843">
        <ele>420.23</ele>
        <time>2015-02-19T10:22:35Z</time>
      </trkpt>
      <trkpt lat="43.96011" lon="3.72842">
        <ele>420.23</ele>
        <time>2015-02-19T10:22:36Z</time>
      </trkpt>
      <trkpt lat="43.9601" lon="3.72838">
        <ele>421.19</ele>
        <time>2015-02-19T10:22:44Z</time>
      </trkpt>
      <trkpt lat="43.96009" lon="3.72829">
        <ele>423.12</ele>
        <time>2015-02-19T10:22:56Z</time>
      </trkpt>
      <trkpt lat="43.96009" lon="3.72828">
        <ele>422.16</ele>
        <time>2015-02-19T10:22:58Z</time>
      </trkpt>
      <trkpt lat="43.96008" lon="3.72823">
        <ele>425.04</ele>
        <time>2015-02-19T10:23:00Z</time>
      </trkpt>
      <trkpt lat="43.96008" lon="3.72822">
        <ele>420.71</ele>
        <time>2015-02-19T10:23:02Z</time>
      </trkpt>
      <trkpt lat="43.96009" lon="3.72818">
        <ele>425.04</ele>
        <time>2015-02-19T10:23:05Z</time>
      </trkpt>
      <trkpt lat="43.96009" lon="3.72817">
        <ele>421.19</ele>
        <time>2015-02-19T10:23:06Z</time>
      </trkpt>
      <trkpt lat="43.9601" lon="3.72814">
        <ele>424.08</ele>
        <time>2015-02-19T10:23:09Z</time>
      </trkpt>
      <trkpt lat="43.96014" lon="3.72805">
        <ele>425.52</ele>
        <time>2015-02-19T10:23:21Z</time>
      </trkpt>
      <trkpt lat="43.96015" lon="3.72805">
        <ele>426.48</ele>
        <time>2015-02-19T10:23:23Z</time>
      </trkpt>
      <trkpt lat="43.96016" lon="3.72796">
        <ele>427.44</ele>
        <time>2015-02-19T10:23:32Z</time>
      </trkpt>
      <trkpt lat="43.96017" lon="3.72785">
        <ele>429.37</ele>
        <time>2015-02-19T10:23:43Z</time>
      </trkpt>
      <trkpt lat="43.96016" lon="3.72784">
        <ele>427.44</ele>
        <time>2015-02-19T10:23:45Z</time>
      </trkpt>
      <trkpt lat="43.96018" lon="3.72775">
        <ele>429.85</ele>
        <time>2015-02-19T10:23:56Z</time>
      </trkpt>
      <trkpt lat="43.96021" lon="3.72765">
        <ele>432.25</ele>
        <time>2015-02-19T10:24:10Z</time>
      </trkpt>
      <trkpt lat="43.96025" lon="3.72756">
        <ele>432.73</ele>
        <time>2015-02-19T10:24:23Z</time>
      </trkpt>
      <trkpt lat="43.96027" lon="3.72754">
        <ele>434.65</ele>
        <time>2015-02-19T10:24:28Z</time>
      </trkpt>
      <trkpt lat="43.96031" lon="3.72752">
        <ele>437.06</ele>
        <time>2015-02-19T10:24:33Z</time>
      </trkpt>
      <trkpt lat="43.96033" lon="3.7275">
        <ele>433.21</ele>
        <time>2015-02-19T10:24:38Z</time>
      </trkpt>
      <trkpt lat="43.96036" lon="3.72749">
        <ele>436.58</ele>
        <time>2015-02-19T10:24:43Z</time>
      </trkpt>
      <trkpt lat="43.96037" lon="3.72748">
        <ele>436.58</ele>
        <time>2015-02-19T10:24:44Z</time>
      </trkpt>
      <trkpt lat="43.96041" lon="3.72744">
        <ele>437.54</ele>
        <time>2015-02-19T10:24:56Z</time>
      </trkpt>
      <trkpt lat="43.96043" lon="3.72737">
        <ele>438.98</ele>
        <time>2015-02-19T10:25:08Z</time>
      </trkpt>
      <trkpt lat="43.96049" lon="3.72726">
        <ele>438.5</ele>
        <time>2015-02-19T10:25:19Z</time>
      </trkpt>
      <trkpt lat="43.96051" lon="3.72725">
        <ele>441.86</ele>
        <time>2015-02-19T10:25:23Z</time>
      </trkpt>
      <trkpt lat="43.96059" lon="3.72717">
        <ele>442.34</ele>
        <time>2015-02-19T10:25:34Z</time>
      </trkpt>
      <trkpt lat="43.96062" lon="3.72707">
        <ele>444.75</ele>
        <time>2015-02-19T10:25:45Z</time>
      </trkpt>
      <trkpt lat="43.96063" lon="3.72703">
        <ele>444.27</ele>
        <time>2015-02-19T10:25:50Z</time>
      </trkpt>
      <trkpt lat="43.96064" lon="3.72702">
        <ele>446.19</ele>
        <time>2015-02-19T10:25:52Z</time>
      </trkpt>
      <trkpt lat="43.96067" lon="3.7269">
        <ele>447.15</ele>
        <time>2015-02-19T10:26:05Z</time>
      </trkpt>
      <trkpt lat="43.9607" lon="3.72686">
        <ele>447.63</ele>
        <time>2015-02-19T10:26:10Z</time>
      </trkpt>
      <trkpt lat="43.96071" lon="3.72685">
        <ele>447.63</ele>
        <time>2015-02-19T10:26:12Z</time>
      </trkpt>
      <trkpt lat="43.96076" lon="3.72681">
        <ele>449.07</ele>
        <time>2015-02-19T10:26:23Z</time>
      </trkpt>
      <trkpt lat="43.9608" lon="3.7268">
        <ele>447.63</ele>
        <time>2015-02-19T10:26:28Z</time>
      </trkpt>
      <trkpt lat="43.96081" lon="3.72679">
        <ele>449.55</ele>
        <time>2015-02-19T10:26:32Z</time>
      </trkpt>
      <trkpt lat="43.96087" lon="3.72674">
        <ele>451.96</ele>
        <time>2015-02-19T10:26:42Z</time>
      </trkpt>
      <trkpt lat="43.96094" lon="3.7267">
        <ele>453.4</ele>
        <time>2015-02-19T10:26:53Z</time>
      </trkpt>
      <trkpt lat="43.96102" lon="3.72665">
        <ele>454.84</ele>
        <time>2015-02-19T10:27:05Z</time>
      </trkpt>
      <trkpt lat="43.96106" lon="3.72661">
        <ele>454.36</ele>
        <time>2015-02-19T10:27:15Z</time>
      </trkpt>
      <trkpt lat="43.96107" lon="3.7266">
        <ele>455.8</ele>
        <time>2015-02-19T10:27:17Z</time>
      </trkpt>
      <trkpt lat="43.96114" lon="3.72656">
        <ele>458.69</ele>
        <time>2015-02-19T10:27:28Z</time>
      </trkpt>
      <trkpt lat="43.96115" lon="3.72655">
        <ele>456.76</ele>
        <time>2015-02-19T10:27:30Z</time>
      </trkpt>
      <trkpt lat="43.9612" lon="3.72651">
        <ele>460.61</ele>
        <time>2015-02-19T10:27:39Z</time>
      </trkpt>
      <trkpt lat="43.9612" lon="3.72651">
        <ele>457.72</ele>
        <time>2015-02-19T10:27:40Z</time>
      </trkpt>
      <trkpt lat="43.96124" lon="3.72649">
        <ele>458.21</ele>
        <time>2015-02-19T10:27:46Z</time>
      </trkpt>
      <trkpt lat="43.96125" lon="3.72648">
        <ele>461.57</ele>
        <time>2015-02-19T10:27:48Z</time>
      </trkpt>
      <trkpt lat="43.96125" lon="3.72648">
        <ele>461.57</ele>
        <time>2015-02-19T10:27:49Z</time>
      </trkpt>
      <trkpt lat="43.9613" lon="3.72645">
        <ele>461.57</ele>
        <time>2015-02-19T10:27:57Z</time>
      </trkpt>
      <trkpt lat="43.96138" lon="3.72643">
        <ele>462.53</ele>
        <time>2015-02-19T10:28:07Z</time>
      </trkpt>
      <trkpt lat="43.96145" lon="3.7264">
        <ele>462.53</ele>
        <time>2015-02-19T10:28:19Z</time>
      </trkpt>
      <trkpt lat="43.96152" lon="3.72638">
        <ele>463.97</ele>
        <time>2015-02-19T10:28:30Z</time>
      </trkpt>
      <trkpt lat="43.96156" lon="3.72634">
        <ele>467.34</ele>
        <time>2015-02-19T10:28:37Z</time>
      </trkpt>
      <trkpt lat="43.96156" lon="3.72629">
        <ele>469.74</ele>
        <time>2015-02-19T10:28:45Z</time>
      </trkpt>
      <trkpt lat="43.96155" lon="3.72626">
        <ele>466.38</ele>
        <time>2015-02-19T10:28:47Z</time>
      </trkpt>
      <trkpt lat="43.96154" lon="3.72623">
        <ele>469.26</ele>
        <time>2015-02-19T10:28:50Z</time>
      </trkpt>
      <trkpt lat="43.96151" lon="3.72614">
        <ele>470.22</ele>
        <time>2015-02-19T10:29:01Z</time>
      </trkpt>
      <trkpt lat="43.9615" lon="3.72612">
        <ele>469.26</ele>
        <time>2015-02-19T10:29:03Z</time>
      </trkpt>
      <trkpt lat="43.96149" lon="3.72609">
        <ele>470.7</ele>
        <time>2015-02-19T10:29:07Z</time>
      </trkpt>
      <trkpt lat="43.96141" lon="3.72599">
        <ele>472.14</ele>
        <time>2015-02-19T10:29:18Z</time>
      </trkpt>
      <trkpt lat="43.96134" lon="3.72593">
        <ele>473.11</ele>
        <time>2015-02-19T10:29:29Z</time>
      </trkpt>
      <trkpt lat="43.96126" lon="3.7258">
        <ele>474.55</ele>
        <time>2015-02-19T10:29:41Z</time>
      </trkpt>
      <trkpt lat="43.96125" lon="3.72579">
        <ele>474.55</ele>
        <time>2015-02-19T10:29:42Z</time>
      </trkpt>
      <trkpt lat="43.9612" lon="3.72571">
        <ele>475.51</ele>
        <time>2015-02-19T10:29:54Z</time>
      </trkpt>
      <trkpt lat="43.96115" lon="3.7256">
        <ele>478.39</ele>
        <time>2015-02-19T10:30:04Z</time>
      </trkpt>
      <trkpt lat="43.96115" lon="3.72559">
        <ele>477.91</ele>
        <time>2015-02-19T10:30:05Z</time>
      </trkpt>
      <trkpt lat="43.9611" lon="3.72546">
        <ele>478.39</ele>
        <time>2015-02-19T10:30:17Z</time>
      </trkpt>
      <trkpt lat="43.96109" lon="3.72544">
        <ele>481.76</ele>
        <time>2015-02-19T10:30:21Z</time>
      </trkpt>
      <trkpt lat="43.96109" lon="3.72543">
        <ele>480.32</ele>
        <time>2015-02-19T10:30:22Z</time>
      </trkpt>
      <trkpt lat="43.96108" lon="3.72538">
        <ele>479.35</ele>
        <time>2015-02-19T10:30:29Z</time>
      </trkpt>
      <trkpt lat="43.96108" lon="3.72536">
        <ele>481.28</ele>
        <time>2015-02-19T10:30:31Z</time>
      </trkpt>
      <trkpt lat="43.96106" lon="3.72527">
        <ele>484.64</ele>
        <time>2015-02-19T10:30:42Z</time>
      </trkpt>
      <trkpt lat="43.96105" lon="3.72526">
        <ele>483.68</ele>
        <time>2015-02-19T10:30:43Z</time>
      </trkpt>
      <trkpt lat="43.96105" lon="3.72525">
        <ele>481.76</ele>
        <time>2015-02-19T10:30:45Z</time>
      </trkpt>
      <trkpt lat="43.96104" lon="3.72523">
        <ele>483.2</ele>
        <time>2015-02-19T10:30:47Z</time>
      </trkpt>
      <trkpt lat="43.96104" lon="3.72521">
        <ele>486.08</ele>
        <time>2015-02-19T10:30:50Z</time>
      </trkpt>
      <trkpt lat="43.96102" lon="3.72515">
        <ele>486.08</ele>
        <time>2015-02-19T10:30:55Z</time>
      </trkpt>
      <trkpt lat="43.96096" lon="3.72503">
        <ele>484.64</ele>
        <time>2015-02-19T10:31:07Z</time>
      </trkpt>
      <trkpt lat="43.96094" lon="3.72499">
        <ele>488.49</ele>
        <time>2015-02-19T10:31:12Z</time>
      </trkpt>
      <trkpt lat="43.9609" lon="3.72491">
        <ele>487.05</ele>
        <time>2015-02-19T10:31:23Z</time>
      </trkpt>
      <trkpt lat="43.96087" lon="3.72483">
        <ele>489.45</ele>
        <time>2015-02-19T10:31:35Z</time>
      </trkpt>
      <trkpt lat="43.96084" lon="3.72477">
        <ele>493.29</ele>
        <time>2015-02-19T10:31:45Z</time>
      </trkpt>
      <trkpt lat="43.96084" lon="3.72477">
        <ele>488.97</ele>
        <time>2015-02-19T10:31:47Z</time>
      </trkpt>
      <trkpt lat="43.96083" lon="3.72476">
        <ele>493.29</ele>
        <time>2015-02-19T10:31:51Z</time>
      </trkpt>
      <trkpt lat="43.96081" lon="3.72468">
        <ele>493.29</ele>
        <time>2015-02-19T10:32:00Z</time>
      </trkpt>
      <trkpt lat="43.96078" lon="3.72463">
        <ele>494.26</ele>
        <time>2015-02-19T10:32:06Z</time>
      </trkpt>
      <trkpt lat="43.96076" lon="3.72462">
        <ele>493.29</ele>
        <time>2015-02-19T10:32:08Z</time>
      </trkpt>
      <trkpt lat="43.96071" lon="3.7245">
        <ele>496.18</ele>
        <time>2015-02-19T10:32:21Z</time>
      </trkpt>
      <trkpt lat="43.96071" lon="3.7245">
        <ele>496.18</ele>
        <time>2015-02-19T10:32:22Z</time>
      </trkpt>
      <trkpt lat="43.96076" lon="3.72447">
        <ele>497.14</ele>
        <time>2015-02-19T10:32:34Z</time>
      </trkpt>
      <trkpt lat="43.96084" lon="3.72449">
        <ele>496.18</ele>
        <time>2015-02-19T10:32:44Z</time>
      </trkpt>
      <trkpt lat="43.96092" lon="3.7245">
        <ele>498.58</ele>
        <time>2015-02-19T10:32:53Z</time>
      </trkpt>
      <trkpt lat="43.961" lon="3.72449">
        <ele>500.5</ele>
        <time>2015-02-19T10:33:03Z</time>
      </trkpt>
      <trkpt lat="43.96108" lon="3.72445">
        <ele>501.46</ele>
        <time>2015-02-19T10:33:14Z</time>
      </trkpt>
      <trkpt lat="43.96109" lon="3.72444">
        <ele>500.02</ele>
        <time>2015-02-19T10:33:16Z</time>
      </trkpt>
      <trkpt lat="43.96114" lon="3.72444">
        <ele>502.91</ele>
        <time>2015-02-19T10:33:22Z</time>
      </trkpt>
      <trkpt lat="43.96119" lon="3.72441">
        <ele>501.95</ele>
        <time>2015-02-19T10:33:34Z</time>
      </trkpt>
      <trkpt lat="43.96121" lon="3.72441">
        <ele>503.39</ele>
        <time>2015-02-19T10:33:37Z</time>
      </trkpt>
      <trkpt lat="43.96128" lon="3.72437">
        <ele>506.27</ele>
        <time>2015-02-19T10:33:49Z</time>
      </trkpt>
      <trkpt lat="43.96135" lon="3.72433">
        <ele>504.83</ele>
        <time>2015-02-19T10:34:03Z</time>
      </trkpt>
      <trkpt lat="43.96138" lon="3.72434">
        <ele>508.67</ele>
        <time>2015-02-19T10:34:07Z</time>
      </trkpt>
      <trkpt lat="43.96145" lon="3.72432">
        <ele>508.19</ele>
        <time>2015-02-19T10:34:19Z</time>
      </trkpt>
      <trkpt lat="43.96152" lon="3.72431">
        <ele>511.56</ele>
        <time>2015-02-19T10:34:31Z</time>
      </trkpt>
      <trkpt lat="43.96156" lon="3.72428">
        <ele>512.04</ele>
        <time>2015-02-19T10:34:37Z</time>
      </trkpt>
      <trkpt lat="43.96161" lon="3.7242">
        <ele>512.52</ele>
        <time>2015-02-19T10:34:49Z</time>
      </trkpt>
      <trkpt lat="43.96163" lon="3.72408">
        <ele>515.88</ele>
        <time>2015-02-19T10:35:01Z</time>
      </trkpt>
      <trkpt lat="43.96164" lon="3.72407">
        <ele>513</ele>
        <time>2015-02-19T10:35:02Z</time>
      </trkpt>
      <trkpt lat="43.96164" lon="3.72401">
        <ele>515.88</ele>
        <time>2015-02-19T10:35:09Z</time>
      </trkpt>
      <trkpt lat="43.96164" lon="3.72398">
        <ele>517.81</ele>
        <time>2015-02-19T10:35:12Z</time>
      </trkpt>
      <trkpt lat="43.96164" lon="3.72397">
        <ele>514.44</ele>
        <time>2015-02-19T10:35:13Z</time>
      </trkpt>
      <trkpt lat="43.96165" lon="3.72396">
        <ele>517.33</ele>
        <time>2015-02-19T10:35:18Z</time>
      </trkpt>
      <trkpt lat="43.96165" lon="3.72386">
        <ele>516.85</ele>
        <time>2015-02-19T10:35:27Z</time>
      </trkpt>
      <trkpt lat="43.96163" lon="3.7238">
        <ele>520.69</ele>
        <time>2015-02-19T10:35:33Z</time>
      </trkpt>
      <trkpt lat="43.96163" lon="3.72379">
        <ele>518.77</ele>
        <time>2015-02-19T10:35:34Z</time>
      </trkpt>
      <trkpt lat="43.96162" lon="3.72372">
        <ele>520.69</ele>
        <time>2015-02-19T10:35:42Z</time>
      </trkpt>
      <trkpt lat="43.96162" lon="3.7237">
        <ele>518.29</ele>
        <time>2015-02-19T10:35:44Z</time>
      </trkpt>
      <trkpt lat="43.96161" lon="3.7236">
        <ele>519.73</ele>
        <time>2015-02-19T10:35:52Z</time>
      </trkpt>
      <trkpt lat="43.96161" lon="3.72359">
        <ele>520.21</ele>
        <time>2015-02-19T10:35:53Z</time>
      </trkpt>
      <trkpt lat="43.96163" lon="3.72349">
        <ele>520.69</ele>
        <time>2015-02-19T10:36:03Z</time>
      </trkpt>
      <trkpt lat="43.96164" lon="3.72342">
        <ele>521.65</ele>
        <time>2015-02-19T10:36:10Z</time>
      </trkpt>
      <trkpt lat="43.96166" lon="3.72339">
        <ele>523.09</ele>
        <time>2015-02-19T10:36:12Z</time>
      </trkpt>
      <trkpt lat="43.96167" lon="3.72337">
        <ele>519.73</ele>
        <time>2015-02-19T10:36:16Z</time>
      </trkpt>
      <trkpt lat="43.96168" lon="3.72336">
        <ele>523.09</ele>
        <time>2015-02-19T10:36:17Z</time>
      </trkpt>
      <trkpt lat="43.9617" lon="3.72333">
        <ele>521.65</ele>
        <time>2015-02-19T10:36:21Z</time>
      </trkpt>
      <trkpt lat="43.9617" lon="3.72332">
        <ele>525.02</ele>
        <time>2015-02-19T10:36:23Z</time>
      </trkpt>
      <trkpt lat="43.9617" lon="3.72332">
        <ele>521.65</ele>
        <time>2015-02-19T10:36:26Z</time>
      </trkpt>
      <trkpt lat="43.96173" lon="3.72328">
        <ele>525.02</ele>
        <time>2015-02-19T10:36:31Z</time>
      </trkpt>
      <trkpt lat="43.96173" lon="3.72328">
        <ele>523.09</ele>
        <time>2015-02-19T10:36:34Z</time>
      </trkpt>
      <trkpt lat="43.96173" lon="3.72326">
        <ele>524.06</ele>
        <time>2015-02-19T10:36:36Z</time>
      </trkpt>
      <trkpt lat="43.96173" lon="3.72326">
        <ele>525.5</ele>
        <time>2015-02-19T10:36:51Z</time>
      </trkpt>
      <trkpt lat="43.96174" lon="3.72325">
        <ele>524.06</ele>
        <time>2015-02-19T10:37:14Z</time>
      </trkpt>
      <trkpt lat="43.96179" lon="3.72323">
        <ele>525.98</ele>
        <time>2015-02-19T10:37:21Z</time>
      </trkpt>
      <trkpt lat="43.96186" lon="3.72323">
        <ele>525.5</ele>
        <time>2015-02-19T10:37:30Z</time>
      </trkpt>
      <trkpt lat="43.96192" lon="3.72321">
        <ele>527.42</ele>
        <time>2015-02-19T10:37:42Z</time>
      </trkpt>
      <trkpt lat="43.962" lon="3.72319">
        <ele>529.34</ele>
        <time>2015-02-19T10:37:52Z</time>
      </trkpt>
      <trkpt lat="43.96206" lon="3.72316">
        <ele>530.3</ele>
        <time>2015-02-19T10:37:58Z</time>
      </trkpt>
      <trkpt lat="43.96213" lon="3.72311">
        <ele>531.27</ele>
        <time>2015-02-19T10:38:10Z</time>
      </trkpt>
      <trkpt lat="43.96217" lon="3.72308">
        <ele>530.79</ele>
        <time>2015-02-19T10:38:17Z</time>
      </trkpt>
      <trkpt lat="43.96218" lon="3.72307">
        <ele>532.23</ele>
        <time>2015-02-19T10:38:20Z</time>
      </trkpt>
      <trkpt lat="43.96225" lon="3.72307">
        <ele>533.19</ele>
        <time>2015-02-19T10:38:30Z</time>
      </trkpt>
      <trkpt lat="43.96229" lon="3.72305">
        <ele>535.11</ele>
        <time>2015-02-19T10:38:36Z</time>
      </trkpt>
      <trkpt lat="43.96237" lon="3.72304">
        <ele>534.63</ele>
        <time>2015-02-19T10:38:45Z</time>
      </trkpt>
      <trkpt lat="43.96243" lon="3.72303">
        <ele>536.55</ele>
        <time>2015-02-19T10:38:56Z</time>
      </trkpt>
      <trkpt lat="43.9625" lon="3.72304">
        <ele>537.51</ele>
        <time>2015-02-19T10:39:07Z</time>
      </trkpt>
      <trkpt lat="43.96259" lon="3.72305">
        <ele>538.96</ele>
        <time>2015-02-19T10:39:19Z</time>
      </trkpt>
      <trkpt lat="43.96268" lon="3.72304">
        <ele>540.4</ele>
        <time>2015-02-19T10:39:31Z</time>
      </trkpt>
      <trkpt lat="43.96278" lon="3.72306">
        <ele>540.88</ele>
        <time>2015-02-19T10:39:45Z</time>
      </trkpt>
      <trkpt lat="43.96283" lon="3.72308">
        <ele>541.84</ele>
        <time>2015-02-19T10:39:52Z</time>
      </trkpt>
      <trkpt lat="43.96289" lon="3.7231">
        <ele>538.96</ele>
        <time>2015-02-19T10:40:00Z</time>
      </trkpt>
      <trkpt lat="43.9629" lon="3.72309">
        <ele>542.32</ele>
        <time>2015-02-19T10:40:02Z</time>
      </trkpt>
      <trkpt lat="43.96291" lon="3.7231">
        <ele>542.32</ele>
        <time>2015-02-19T10:40:03Z</time>
      </trkpt>
      <trkpt lat="43.96303" lon="3.72307">
        <ele>542.8</ele>
        <time>2015-02-19T10:40:19Z</time>
      </trkpt>
      <trkpt lat="43.96307" lon="3.72305">
        <ele>542.32</ele>
        <time>2015-02-19T10:40:25Z</time>
      </trkpt>
      <trkpt lat="43.9631" lon="3.72302">
        <ele>545.2</ele>
        <time>2015-02-19T10:40:30Z</time>
      </trkpt>
      <trkpt lat="43.96317" lon="3.72296">
        <ele>544.72</ele>
        <time>2015-02-19T10:40:43Z</time>
      </trkpt>
      <trkpt lat="43.96322" lon="3.72293">
        <ele>546.17</ele>
        <time>2015-02-19T10:40:49Z</time>
      </trkpt>
      <trkpt lat="43.96327" lon="3.7229">
        <ele>546.17</ele>
        <time>2015-02-19T10:40:56Z</time>
      </trkpt>
      <trkpt lat="43.96336" lon="3.7229">
        <ele>547.13</ele>
        <time>2015-02-19T10:41:06Z</time>
      </trkpt>
      <trkpt lat="43.9634" lon="3.7229">
        <ele>547.61</ele>
        <time>2015-02-19T10:41:11Z</time>
      </trkpt>
      <trkpt lat="43.96348" lon="3.7229">
        <ele>548.09</ele>
        <time>2015-02-19T10:41:19Z</time>
      </trkpt>
      <trkpt lat="43.96351" lon="3.7229">
        <ele>546.65</ele>
        <time>2015-02-19T10:41:21Z</time>
      </trkpt>
      <trkpt lat="43.9636" lon="3.7229">
        <ele>547.13</ele>
        <time>2015-02-19T10:41:31Z</time>
      </trkpt>
      <trkpt lat="43.96363" lon="3.7229">
        <ele>548.57</ele>
        <time>2015-02-19T10:41:35Z</time>
      </trkpt>
      <trkpt lat="43.96371" lon="3.72289">
        <ele>549.05</ele>
        <time>2015-02-19T10:41:45Z</time>
      </trkpt>
      <trkpt lat="43.96374" lon="3.72288">
        <ele>549.05</ele>
        <time>2015-02-19T10:41:49Z</time>
      </trkpt>
      <trkpt lat="43.96376" lon="3.72287">
        <ele>550.97</ele>
        <time>2015-02-19T10:42:05Z</time>
      </trkpt>
      <trkpt lat="43.96376" lon="3.72287">
        <ele>550.97</ele>
        <time>2015-02-19T10:42:16Z</time>
      </trkpt>
      <trkpt lat="43.96376" lon="3.72287">
        <ele>547.13</ele>
        <time>2015-02-19T10:42:21Z</time>
      </trkpt>
      <trkpt lat="43.96376" lon="3.72287">
        <ele>550.49</ele>
        <time>2015-02-19T10:42:23Z</time>
      </trkpt>
      <trkpt lat="43.96376" lon="3.72287">
        <ele>550.97</ele>
        <time>2015-02-19T10:42:47Z</time>
      </trkpt>
      <trkpt lat="43.96376" lon="3.72287">
        <ele>549.53</ele>
        <time>2015-02-19T10:42:49Z</time>
      </trkpt>
      <trkpt lat="43.96376" lon="3.72287">
        <ele>551.45</ele>
        <time>2015-02-19T10:42:59Z</time>
      </trkpt>
      <trkpt lat="43.96376" lon="3.72287">
        <ele>547.61</ele>
        <time>2015-02-19T10:43:01Z</time>
      </trkpt>
      <trkpt lat="43.96376" lon="3.72287">
        <ele>547.61</ele>
        <time>2015-02-19T10:43:02Z</time>
      </trkpt>
      <trkpt lat="43.96376" lon="3.72287">
        <ele>550.97</ele>
        <time>2015-02-19T10:43:08Z</time>
      </trkpt>
      <trkpt lat="43.96376" lon="3.72287">
        <ele>551.45</ele>
        <time>2015-02-19T10:43:30Z</time>
      </trkpt>
      <trkpt lat="43.96376" lon="3.72287">
        <ele>548.57</ele>
        <time>2015-02-19T10:43:31Z</time>
      </trkpt>
      <trkpt lat="43.96376" lon="3.72287">
        <ele>550.49</ele>
        <time>2015-02-19T10:43:32Z</time>
      </trkpt>
      <trkpt lat="43.96377" lon="3.72287">
        <ele>550.97</ele>
        <time>2015-02-19T10:43:37Z</time>
      </trkpt>
      <trkpt lat="43.96377" lon="3.72287">
        <ele>549.53</ele>
        <time>2015-02-19T10:43:40Z</time>
      </trkpt>
      <trkpt lat="43.96377" lon="3.72287">
        <ele>550.49</ele>
        <time>2015-02-19T10:43:42Z</time>
      </trkpt>
      <trkpt lat="43.96377" lon="3.72287">
        <ele>549.53</ele>
        <time>2015-02-19T10:43:44Z</time>
      </trkpt>
      <trkpt lat="43.96377" lon="3.72287">
        <ele>550.97</ele>
        <time>2015-02-19T10:43:46Z</time>
      </trkpt>
      <trkpt lat="43.96379" lon="3.72287">
        <ele>549.05</ele>
        <time>2015-02-19T10:44:00Z</time>
      </trkpt>
      <trkpt lat="43.96385" lon="3.72286">
        <ele>550.49</ele>
        <time>2015-02-19T10:44:08Z</time>
      </trkpt>
      <trkpt lat="43.96392" lon="3.72287">
        <ele>551.45</ele>
        <time>2015-02-19T10:44:17Z</time>
      </trkpt>
      <trkpt lat="43.964" lon="3.72285">
        <ele>552.41</ele>
        <time>2015-02-19T10:44:26Z</time>
      </trkpt>
      <trkpt lat="43.96403" lon="3.72285">
        <ele>552.41</ele>
        <time>2015-02-19T10:44:30Z</time>
      </trkpt>
      <trkpt lat="43.96404" lon="3.72284">
        <ele>551.45</ele>
        <time>2015-02-19T10:44:32Z</time>
      </trkpt>
      <trkpt lat="43.96407" lon="3.72283">
        <ele>553.86</ele>
        <time>2015-02-19T10:44:34Z</time>
      </trkpt>
      <trkpt lat="43.96416" lon="3.7228">
        <ele>552.9</ele>
        <time>2015-02-19T10:44:46Z</time>
      </trkpt>
      <trkpt lat="43.96426" lon="3.72278">
        <ele>551.45</ele>
        <time>2015-02-19T10:44:56Z</time>
      </trkpt>
      <trkpt lat="43.96431" lon="3.72277">
        <ele>551.45</ele>
        <time>2015-02-19T10:45:00Z</time>
      </trkpt>
      <trkpt lat="43.96434" lon="3.72278">
        <ele>554.82</ele>
        <time>2015-02-19T10:45:03Z</time>
      </trkpt>
      <trkpt lat="43.96434" lon="3.72278">
        <ele>550.97</ele>
        <time>2015-02-19T10:45:25Z</time>
      </trkpt>
      <trkpt lat="43.96435" lon="3.72279">
        <ele>551.93</ele>
        <time>2015-02-19T10:45:26Z</time>
      </trkpt>
      <trkpt lat="43.96436" lon="3.72279">
        <ele>553.38</ele>
        <time>2015-02-19T10:45:28Z</time>
      </trkpt>
      <trkpt lat="43.96443" lon="3.72282">
        <ele>552.9</ele>
        <time>2015-02-19T10:45:39Z</time>
      </trkpt>
      <trkpt lat="43.96449" lon="3.72284">
        <ele>551.45</ele>
        <time>2015-02-19T10:45:46Z</time>
      </trkpt>
      <trkpt lat="43.96454" lon="3.72289">
        <ele>551.45</ele>
        <time>2015-02-19T10:45:56Z</time>
      </trkpt>
      <trkpt lat="43.96461" lon="3.72298">
        <ele>549.53</ele>
        <time>2015-02-19T10:46:09Z</time>
      </trkpt>
      <trkpt lat="43.96469" lon="3.72309">
        <ele>550.01</ele>
        <time>2015-02-19T10:46:22Z</time>
      </trkpt>
      <trkpt lat="43.96478" lon="3.72318">
        <ele>547.13</ele>
        <time>2015-02-19T10:46:34Z</time>
      </trkpt>
      <trkpt lat="43.96479" lon="3.72319">
        <ele>550.97</ele>
        <time>2015-02-19T10:46:35Z</time>
      </trkpt>
      <trkpt lat="43.96479" lon="3.72319">
        <ele>549.53</ele>
        <time>2015-02-19T10:46:36Z</time>
      </trkpt>
      <trkpt lat="43.96486" lon="3.72327">
        <ele>549.05</ele>
        <time>2015-02-19T10:46:48Z</time>
      </trkpt>
      <trkpt lat="43.96488" lon="3.72332">
        <ele>550.49</ele>
        <time>2015-02-19T10:46:53Z</time>
      </trkpt>
      <trkpt lat="43.96491" lon="3.72336">
        <ele>550.01</ele>
        <time>2015-02-19T10:46:58Z</time>
      </trkpt>
      <trkpt lat="43.96494" lon="3.72339">
        <ele>550.49</ele>
        <time>2015-02-19T10:47:02Z</time>
      </trkpt>
      <trkpt lat="43.96499" lon="3.72345">
        <ele>549.05</ele>
        <time>2015-02-19T10:47:10Z</time>
      </trkpt>
      <trkpt lat="43.96502" lon="3.7235">
        <ele>548.09</ele>
        <time>2015-02-19T10:47:15Z</time>
      </trkpt>
      <trkpt lat="43.96503" lon="3.72351">
        <ele>549.53</ele>
        <time>2015-02-19T10:47:17Z</time>
      </trkpt>
      <trkpt lat="43.96505" lon="3.72355">
        <ele>550.49</ele>
        <time>2015-02-19T10:47:22Z</time>
      </trkpt>
      <trkpt lat="43.9651" lon="3.72362">
        <ele>551.45</ele>
        <time>2015-02-19T10:47:30Z</time>
      </trkpt>
      <trkpt lat="43.96511" lon="3.72362">
        <ele>548.57</ele>
        <time>2015-02-19T10:47:31Z</time>
      </trkpt>
      <trkpt lat="43.96512" lon="3.72363">
        <ele>548.57</ele>
        <time>2015-02-19T10:47:32Z</time>
      </trkpt>
      <trkpt lat="43.96513" lon="3.72364">
        <ele>552.41</ele>
        <time>2015-02-19T10:47:34Z</time>
      </trkpt>
      <trkpt lat="43.96515" lon="3.72368">
        <ele>552.9</ele>
        <time>2015-02-19T10:47:37Z</time>
      </trkpt>
      <trkpt lat="43.96516" lon="3.72369">
        <ele>550.97</ele>
        <time>2015-02-19T10:47:38Z</time>
      </trkpt>
      <trkpt lat="43.96522" lon="3.72376">
        <ele>551.45</ele>
        <time>2015-02-19T10:47:49Z</time>
      </trkpt>
      <trkpt lat="43.96525" lon="3.7238">
        <ele>551.93</ele>
        <time>2015-02-19T10:47:55Z</time>
      </trkpt>
      <trkpt lat="43.96529" lon="3.72387">
        <ele>549.05</ele>
        <time>2015-02-19T10:48:06Z</time>
      </trkpt>
      <trkpt lat="43.96534" lon="3.72394">
        <ele>550.01</ele>
        <time>2015-02-19T10:48:16Z</time>
      </trkpt>
      <trkpt lat="43.96537" lon="3.72398">
        <ele>550.01</ele>
        <time>2015-02-19T10:48:20Z</time>
      </trkpt>
      <trkpt lat="43.96541" lon="3.72404">
        <ele>549.05</ele>
        <time>2015-02-19T10:48:28Z</time>
      </trkpt>
      <trkpt lat="43.96544" lon="3.72408">
        <ele>550.97</ele>
        <time>2015-02-19T10:48:32Z</time>
      </trkpt>
      <trkpt lat="43.96548" lon="3.72415">
        <ele>550.01</ele>
        <time>2015-02-19T10:48:40Z</time>
      </trkpt>
      <trkpt lat="43.96556" lon="3.72427">
        <ele>548.57</ele>
        <time>2015-02-19T10:48:53Z</time>
      </trkpt>
      <trkpt lat="43.96557" lon="3.72427">
        <ele>551.93</ele>
        <time>2015-02-19T10:48:54Z</time>
      </trkpt>
      <trkpt lat="43.96557" lon="3.72428">
        <ele>548.57</ele>
        <time>2015-02-19T10:48:56Z</time>
      </trkpt>
      <trkpt lat="43.9656" lon="3.72431">
        <ele>550.49</ele>
        <time>2015-02-19T10:48:59Z</time>
      </trkpt>
      <trkpt lat="43.96561" lon="3.72433">
        <ele>551.93</ele>
        <time>2015-02-19T10:49:01Z</time>
      </trkpt>
      <trkpt lat="43.96562" lon="3.72434">
        <ele>550.01</ele>
        <time>2015-02-19T10:49:02Z</time>
      </trkpt>
      <trkpt lat="43.96565" lon="3.72438">
        <ele>550.01</ele>
        <time>2015-02-19T10:49:07Z</time>
      </trkpt>
      <trkpt lat="43.96571" lon="3.72446">
        <ele>551.93</ele>
        <time>2015-02-19T10:49:17Z</time>
      </trkpt>
      <trkpt lat="43.96572" lon="3.72447">
        <ele>548.57</ele>
        <time>2015-02-19T10:49:18Z</time>
      </trkpt>
      <trkpt lat="43.96572" lon="3.72447">
        <ele>550.01</ele>
        <time>2015-02-19T10:49:19Z</time>
      </trkpt>
      <trkpt lat="43.96579" lon="3.72453">
        <ele>550.97</ele>
        <time>2015-02-19T10:49:29Z</time>
      </trkpt>
      <trkpt lat="43.96583" lon="3.72463">
        <ele>550.01</ele>
        <time>2015-02-19T10:49:40Z</time>
      </trkpt>
      <trkpt lat="43.96587" lon="3.72472">
        <ele>549.05</ele>
        <time>2015-02-19T10:49:48Z</time>
      </trkpt>
      <trkpt lat="43.96588" lon="3.72473">
        <ele>552.41</ele>
        <time>2015-02-19T10:49:49Z</time>
      </trkpt>
      <trkpt lat="43.96593" lon="3.72482">
        <ele>550.49</ele>
        <time>2015-02-19T10:50:00Z</time>
      </trkpt>
      <trkpt lat="43.96594" lon="3.72485">
        <ele>552.9</ele>
        <time>2015-02-19T10:50:02Z</time>
      </trkpt>
      <trkpt lat="43.96597" lon="3.72489">
        <ele>550.49</ele>
        <time>2015-02-19T10:50:06Z</time>
      </trkpt>
      <trkpt lat="43.96605" lon="3.72497">
        <ele>553.86</ele>
        <time>2015-02-19T10:50:16Z</time>
      </trkpt>
      <trkpt lat="43.96609" lon="3.72501">
        <ele>552.9</ele>
        <time>2015-02-19T10:50:21Z</time>
      </trkpt>
      <trkpt lat="43.9662" lon="3.72509">
        <ele>551.93</ele>
        <time>2015-02-19T10:50:34Z</time>
      </trkpt>
      <trkpt lat="43.96628" lon="3.72512">
        <ele>551.93</ele>
        <time>2015-02-19T10:50:42Z</time>
      </trkpt>
      <trkpt lat="43.96637" lon="3.7252">
        <ele>552.41</ele>
        <time>2015-02-19T10:50:52Z</time>
      </trkpt>
      <trkpt lat="43.9664" lon="3.72527">
        <ele>555.78</ele>
        <time>2015-02-19T10:51:00Z</time>
      </trkpt>
      <trkpt lat="43.96641" lon="3.72529">
        <ele>552.9</ele>
        <time>2015-02-19T10:51:02Z</time>
      </trkpt>
      <trkpt lat="43.96642" lon="3.72531">
        <ele>555.78</ele>
        <time>2015-02-19T10:51:04Z</time>
      </trkpt>
      <trkpt lat="43.96645" lon="3.72535">
        <ele>556.74</ele>
        <time>2015-02-19T10:51:10Z</time>
      </trkpt>
      <trkpt lat="43.96653" lon="3.72543">
        <ele>552.9</ele>
        <time>2015-02-19T10:51:19Z</time>
      </trkpt>
      <trkpt lat="43.96655" lon="3.72546">
        <ele>556.26</ele>
        <time>2015-02-19T10:51:22Z</time>
      </trkpt>
      <trkpt lat="43.96664" lon="3.72559">
        <ele>553.38</ele>
        <time>2015-02-19T10:51:33Z</time>
      </trkpt>
      <trkpt lat="43.9667" lon="3.72569">
        <ele>555.3</ele>
        <time>2015-02-19T10:51:42Z</time>
      </trkpt>
      <trkpt lat="43.96674" lon="3.72577">
        <ele>554.34</ele>
        <time>2015-02-19T10:51:53Z</time>
      </trkpt>
      <trkpt lat="43.96674" lon="3.7258">
        <ele>556.26</ele>
        <time>2015-02-19T10:51:56Z</time>
      </trkpt>
      <trkpt lat="43.96671" lon="3.7259">
        <ele>556.74</ele>
        <time>2015-02-19T10:52:03Z</time>
      </trkpt>
      <trkpt lat="43.9667" lon="3.72594">
        <ele>558.66</ele>
        <time>2015-02-19T10:52:05Z</time>
      </trkpt>
      <trkpt lat="43.9667" lon="3.726">
        <ele>554.82</ele>
        <time>2015-02-19T10:52:08Z</time>
      </trkpt>
      <trkpt lat="43.9667" lon="3.72613">
        <ele>554.34</ele>
        <time>2015-02-19T10:52:18Z</time>
      </trkpt>
      <trkpt lat="43.96671" lon="3.72614">
        <ele>554.82</ele>
        <time>2015-02-19T10:52:19Z</time>
      </trkpt>
      <trkpt lat="43.96673" lon="3.72624">
        <ele>555.78</ele>
        <time>2015-02-19T10:52:30Z</time>
      </trkpt>
      <trkpt lat="43.96672" lon="3.72635">
        <ele>556.26</ele>
        <time>2015-02-19T10:52:40Z</time>
      </trkpt>
      <trkpt lat="43.96669" lon="3.72644">
        <ele>557.7</ele>
        <time>2015-02-19T10:52:51Z</time>
      </trkpt>
      <trkpt lat="43.96663" lon="3.72653">
        <ele>560.11</ele>
        <time>2015-02-19T10:53:01Z</time>
      </trkpt>
      <trkpt lat="43.96659" lon="3.7266">
        <ele>557.7</ele>
        <time>2015-02-19T10:53:08Z</time>
      </trkpt>
      <trkpt lat="43.96654" lon="3.72666">
        <ele>561.07</ele>
        <time>2015-02-19T10:53:13Z</time>
      </trkpt>
      <trkpt lat="43.96654" lon="3.72667">
        <ele>560.11</ele>
        <time>2015-02-19T10:53:14Z</time>
      </trkpt>
      <trkpt lat="43.96653" lon="3.72671">
        <ele>558.66</ele>
        <time>2015-02-19T10:53:16Z</time>
      </trkpt>
      <trkpt lat="43.96652" lon="3.72677">
        <ele>560.11</ele>
        <time>2015-02-19T10:53:20Z</time>
      </trkpt>
      <trkpt lat="43.96645" lon="3.72692">
        <ele>561.07</ele>
        <time>2015-02-19T10:53:31Z</time>
      </trkpt>
      <trkpt lat="43.96644" lon="3.72696">
        <ele>561.07</ele>
        <time>2015-02-19T10:53:34Z</time>
      </trkpt>
      <trkpt lat="43.96647" lon="3.72714">
        <ele>560.59</ele>
        <time>2015-02-19T10:53:47Z</time>
      </trkpt>
      <trkpt lat="43.96648" lon="3.7272">
        <ele>562.03</ele>
        <time>2015-02-19T10:53:52Z</time>
      </trkpt>
      <trkpt lat="43.96648" lon="3.72721">
        <ele>561.07</ele>
        <time>2015-02-19T10:53:54Z</time>
      </trkpt>
      <trkpt lat="43.96649" lon="3.72726">
        <ele>562.99</ele>
        <time>2015-02-19T10:53:57Z</time>
      </trkpt>
      <trkpt lat="43.96657" lon="3.72733">
        <ele>562.03</ele>
        <time>2015-02-19T10:54:09Z</time>
      </trkpt>
      <trkpt lat="43.96659" lon="3.72735">
        <ele>561.55</ele>
        <time>2015-02-19T10:54:11Z</time>
      </trkpt>
      <trkpt lat="43.9667" lon="3.72747">
        <ele>563.47</ele>
        <time>2015-02-19T10:54:24Z</time>
      </trkpt>
      <trkpt lat="43.96672" lon="3.72749">
        <ele>562.51</ele>
        <time>2015-02-19T10:54:27Z</time>
      </trkpt>
      <trkpt lat="43.96682" lon="3.72756">
        <ele>564.91</ele>
        <time>2015-02-19T10:54:37Z</time>
      </trkpt>
      <trkpt lat="43.96692" lon="3.72763">
        <ele>564.91</ele>
        <time>2015-02-19T10:54:50Z</time>
      </trkpt>
      <trkpt lat="43.96694" lon="3.72764">
        <ele>564.43</ele>
        <time>2015-02-19T10:54:53Z</time>
      </trkpt>
      <trkpt lat="43.96703" lon="3.72773">
        <ele>564.91</ele>
        <time>2015-02-19T10:55:05Z</time>
      </trkpt>
      <trkpt lat="43.96705" lon="3.72776">
        <ele>566.83</ele>
        <time>2015-02-19T10:55:08Z</time>
      </trkpt>
      <trkpt lat="43.96706" lon="3.72777">
        <ele>565.87</ele>
        <time>2015-02-19T10:55:10Z</time>
      </trkpt>
      <trkpt lat="43.9671" lon="3.72782">
        <ele>567.32</ele>
        <time>2015-02-19T10:55:16Z</time>
      </trkpt>
      <trkpt lat="43.96719" lon="3.72785">
        <ele>569.24</ele>
        <time>2015-02-19T10:55:27Z</time>
      </trkpt>
      <trkpt lat="43.96728" lon="3.72791">
        <ele>568.76</ele>
        <time>2015-02-19T10:55:39Z</time>
      </trkpt>
      <trkpt lat="43.96737" lon="3.72795">
        <ele>570.2</ele>
        <time>2015-02-19T10:55:50Z</time>
      </trkpt>
      <trkpt lat="43.96742" lon="3.72798">
        <ele>572.6</ele>
        <time>2015-02-19T10:55:57Z</time>
      </trkpt>
      <trkpt lat="43.96744" lon="3.728">
        <ele>570.2</ele>
        <time>2015-02-19T10:55:59Z</time>
      </trkpt>
      <trkpt lat="43.9675" lon="3.72802">
        <ele>574.04</ele>
        <time>2015-02-19T10:56:10Z</time>
      </trkpt>
      <trkpt lat="43.9675" lon="3.72802">
        <ele>569.72</ele>
        <time>2015-02-19T10:56:11Z</time>
      </trkpt>
      <trkpt lat="43.96757" lon="3.72808">
        <ele>573.08</ele>
        <time>2015-02-19T10:56:24Z</time>
      </trkpt>
      <trkpt lat="43.96759" lon="3.7281">
        <ele>570.2</ele>
        <time>2015-02-19T10:56:27Z</time>
      </trkpt>
      <trkpt lat="43.96762" lon="3.72812">
        <ele>570.2</ele>
        <time>2015-02-19T10:56:31Z</time>
      </trkpt>
      <trkpt lat="43.96763" lon="3.72812">
        <ele>573.56</ele>
        <time>2015-02-19T10:56:32Z</time>
      </trkpt>
      <trkpt lat="43.96764" lon="3.72813">
        <ele>571.64</ele>
        <time>2015-02-19T10:56:33Z</time>
      </trkpt>
      <trkpt lat="43.9677" lon="3.72816">
        <ele>575.49</ele>
        <time>2015-02-19T10:56:43Z</time>
      </trkpt>
      <trkpt lat="43.96771" lon="3.72818">
        <ele>570.2</ele>
        <time>2015-02-19T10:56:45Z</time>
      </trkpt>
      <trkpt lat="43.96772" lon="3.72818">
        <ele>573.56</ele>
        <time>2015-02-19T10:56:46Z</time>
      </trkpt>
      <trkpt lat="43.96779" lon="3.72824">
        <ele>572.12</ele>
        <time>2015-02-19T10:56:57Z</time>
      </trkpt>
      <trkpt lat="43.9678" lon="3.72825">
        <ele>574.53</ele>
        <time>2015-02-19T10:56:59Z</time>
      </trkpt>
      <trkpt lat="43.96782" lon="3.72827">
        <ele>575.49</ele>
        <time>2015-02-19T10:57:02Z</time>
      </trkpt>
      <trkpt lat="43.96783" lon="3.72831">
        <ele>574.04</ele>
        <time>2015-02-19T10:57:05Z</time>
      </trkpt>
      <trkpt lat="43.96788" lon="3.72837">
        <ele>574.53</ele>
        <time>2015-02-19T10:57:15Z</time>
      </trkpt>
      <trkpt lat="43.96792" lon="3.72841">
        <ele>574.53</ele>
        <time>2015-02-19T10:57:19Z</time>
      </trkpt>
      <trkpt lat="43.96802" lon="3.72848">
        <ele>575.97</ele>
        <time>2015-02-19T10:57:30Z</time>
      </trkpt>
      <trkpt lat="43.96805" lon="3.7285">
        <ele>574.53</ele>
        <time>2015-02-19T10:57:33Z</time>
      </trkpt>
      <trkpt lat="43.96807" lon="3.72851">
        <ele>575.49</ele>
        <time>2015-02-19T10:57:35Z</time>
      </trkpt>
      <trkpt lat="43.9681" lon="3.72854">
        <ele>577.41</ele>
        <time>2015-02-19T10:57:39Z</time>
      </trkpt>
      <trkpt lat="43.96814" lon="3.72857">
        <ele>575.97</ele>
        <time>2015-02-19T10:57:46Z</time>
      </trkpt>
      <trkpt lat="43.96818" lon="3.7286">
        <ele>579.81</ele>
        <time>2015-02-19T10:57:52Z</time>
      </trkpt>
      <trkpt lat="43.96819" lon="3.72861">
        <ele>576.45</ele>
        <time>2015-02-19T10:57:54Z</time>
      </trkpt>
      <trkpt lat="43.96821" lon="3.72863">
        <ele>578.37</ele>
        <time>2015-02-19T10:57:56Z</time>
      </trkpt>
      <trkpt lat="43.96822" lon="3.72864">
        <ele>577.89</ele>
        <time>2015-02-19T10:57:58Z</time>
      </trkpt>
      <trkpt lat="43.96827" lon="3.72868">
        <ele>579.33</ele>
        <time>2015-02-19T10:58:03Z</time>
      </trkpt>
      <trkpt lat="43.96835" lon="3.72875">
        <ele>578.85</ele>
        <time>2015-02-19T10:58:13Z</time>
      </trkpt>
      <trkpt lat="43.96836" lon="3.72876">
        <ele>578.85</ele>
        <time>2015-02-19T10:58:14Z</time>
      </trkpt>
      <trkpt lat="43.96838" lon="3.72877">
        <ele>576.93</ele>
        <time>2015-02-19T10:58:16Z</time>
      </trkpt>
      <trkpt lat="43.96846" lon="3.72881">
        <ele>576.93</ele>
        <time>2015-02-19T10:58:25Z</time>
      </trkpt>
      <trkpt lat="43.96849" lon="3.72882">
        <ele>580.77</ele>
        <time>2015-02-19T10:58:28Z</time>
      </trkpt>
      <trkpt lat="43.96849" lon="3.72883">
        <ele>580.77</ele>
        <time>2015-02-19T10:58:29Z</time>
      </trkpt>
      <trkpt lat="43.9686" lon="3.72888">
        <ele>577.89</ele>
        <time>2015-02-19T10:58:41Z</time>
      </trkpt>
      <trkpt lat="43.96865" lon="3.7289">
        <ele>580.29</ele>
        <time>2015-02-19T10:58:47Z</time>
      </trkpt>
      <trkpt lat="43.96871" lon="3.72894">
        <ele>580.77</ele>
        <time>2015-02-19T10:58:56Z</time>
      </trkpt>
      <trkpt lat="43.96878" lon="3.72897">
        <ele>584.14</ele>
        <time>2015-02-19T10:59:05Z</time>
      </trkpt>
      <trkpt lat="43.96881" lon="3.72898">
        <ele>581.25</ele>
        <time>2015-02-19T10:59:09Z</time>
      </trkpt>
      <trkpt lat="43.96888" lon="3.729">
        <ele>584.62</ele>
        <time>2015-02-19T10:59:18Z</time>
      </trkpt>
      <trkpt lat="43.96888" lon="3.729">
        <ele>580.77</ele>
        <time>2015-02-19T10:59:20Z</time>
      </trkpt>
      <trkpt lat="43.96889" lon="3.72901">
        <ele>581.25</ele>
        <time>2015-02-19T10:59:21Z</time>
      </trkpt>
      <trkpt lat="43.96891" lon="3.72904">
        <ele>584.14</ele>
        <time>2015-02-19T10:59:24Z</time>
      </trkpt>
      <trkpt lat="43.96894" lon="3.72906">
        <ele>585.1</ele>
        <time>2015-02-19T10:59:28Z</time>
      </trkpt>
      <trkpt lat="43.96904" lon="3.72908">
        <ele>584.62</ele>
        <time>2015-02-19T10:59:40Z</time>
      </trkpt>
      <trkpt lat="43.96911" lon="3.72911">
        <ele>582.7</ele>
        <time>2015-02-19T10:59:49Z</time>
      </trkpt>
      <trkpt lat="43.96913" lon="3.72912">
        <ele>584.62</ele>
        <time>2015-02-19T10:59:51Z</time>
      </trkpt>
      <trkpt lat="43.9692" lon="3.72914">
        <ele>585.58</ele>
        <time>2015-02-19T11:00:03Z</time>
      </trkpt>
      <trkpt lat="43.96923" lon="3.72914">
        <ele>584.14</ele>
        <time>2015-02-19T11:00:06Z</time>
      </trkpt>
      <trkpt lat="43.96929" lon="3.72921">
        <ele>588.46</ele>
        <time>2015-02-19T11:00:16Z</time>
      </trkpt>
      <trkpt lat="43.9693" lon="3.72921">
        <ele>587.98</ele>
        <time>2015-02-19T11:00:17Z</time>
      </trkpt>
      <trkpt lat="43.96932" lon="3.72922">
        <ele>585.58</ele>
        <time>2015-02-19T11:00:20Z</time>
      </trkpt>
      <trkpt lat="43.96934" lon="3.72922">
        <ele>587.98</ele>
        <time>2015-02-19T11:00:22Z</time>
      </trkpt>
      <trkpt lat="43.9694" lon="3.72927">
        <ele>585.58</ele>
        <time>2015-02-19T11:00:31Z</time>
      </trkpt>
      <trkpt lat="43.96942" lon="3.72928">
        <ele>588.95</ele>
        <time>2015-02-19T11:00:35Z</time>
      </trkpt>
      <trkpt lat="43.96943" lon="3.72929">
        <ele>588.95</ele>
        <time>2015-02-19T11:00:36Z</time>
      </trkpt>
      <trkpt lat="43.96944" lon="3.7293">
        <ele>586.54</ele>
        <time>2015-02-19T11:00:38Z</time>
      </trkpt>
      <trkpt lat="43.96945" lon="3.72931">
        <ele>589.91</ele>
        <time>2015-02-19T11:00:40Z</time>
      </trkpt>
      <trkpt lat="43.96947" lon="3.72933">
        <ele>587.98</ele>
        <time>2015-02-19T11:00:42Z</time>
      </trkpt>
      <trkpt lat="43.9695" lon="3.72935">
        <ele>586.06</ele>
        <time>2015-02-19T11:00:47Z</time>
      </trkpt>
      <trkpt lat="43.9695" lon="3.72936">
        <ele>586.06</ele>
        <time>2015-02-19T11:00:48Z</time>
      </trkpt>
      <trkpt lat="43.96951" lon="3.72937">
        <ele>589.43</ele>
        <time>2015-02-19T11:00:49Z</time>
      </trkpt>
      <trkpt lat="43.96952" lon="3.72937">
        <ele>588.95</ele>
        <time>2015-02-19T11:00:50Z</time>
      </trkpt>
      <trkpt lat="43.96953" lon="3.7294">
        <ele>588.46</ele>
        <time>2015-02-19T11:00:53Z</time>
      </trkpt>
      <trkpt lat="43.96955" lon="3.72943">
        <ele>587.02</ele>
        <time>2015-02-19T11:00:58Z</time>
      </trkpt>
      <trkpt lat="43.96959" lon="3.72945">
        <ele>588.46</ele>
        <time>2015-02-19T11:01:02Z</time>
      </trkpt>
      <trkpt lat="43.96961" lon="3.72947">
        <ele>587.5</ele>
        <time>2015-02-19T11:01:04Z</time>
      </trkpt>
      <trkpt lat="43.9697" lon="3.7295">
        <ele>589.43</ele>
        <time>2015-02-19T11:01:13Z</time>
      </trkpt>
      <trkpt lat="43.96974" lon="3.72951">
        <ele>590.39</ele>
        <time>2015-02-19T11:01:18Z</time>
      </trkpt>
      <trkpt lat="43.96974" lon="3.72951">
        <ele>589.91</ele>
        <time>2015-02-19T11:01:19Z</time>
      </trkpt>
      <trkpt lat="43.9698" lon="3.72956">
        <ele>590.39</ele>
        <time>2015-02-19T11:01:27Z</time>
      </trkpt>
      <trkpt lat="43.96985" lon="3.72964">
        <ele>590.39</ele>
        <time>2015-02-19T11:01:35Z</time>
      </trkpt>
      <trkpt lat="43.96994" lon="3.7297">
        <ele>587.5</ele>
        <time>2015-02-19T11:01:45Z</time>
      </trkpt>
      <trkpt lat="43.96995" lon="3.72971">
        <ele>590.39</ele>
        <time>2015-02-19T11:01:46Z</time>
      </trkpt>
      <trkpt lat="43.96998" lon="3.72973">
        <ele>587.5</ele>
        <time>2015-02-19T11:01:50Z</time>
      </trkpt>
      <trkpt lat="43.96999" lon="3.72974">
        <ele>586.06</ele>
        <time>2015-02-19T11:01:52Z</time>
      </trkpt>
      <trkpt lat="43.97004" lon="3.72981">
        <ele>590.87</ele>
        <time>2015-02-19T11:01:59Z</time>
      </trkpt>
      <trkpt lat="43.97005" lon="3.72982">
        <ele>591.35</ele>
        <time>2015-02-19T11:02:02Z</time>
      </trkpt>
      <trkpt lat="43.97014" lon="3.72991">
        <ele>591.35</ele>
        <time>2015-02-19T11:02:14Z</time>
      </trkpt>
      <trkpt lat="43.97021" lon="3.72999">
        <ele>592.31</ele>
        <time>2015-02-19T11:02:25Z</time>
      </trkpt>
      <trkpt lat="43.97021" lon="3.72999">
        <ele>589.91</ele>
        <time>2015-02-19T11:02:29Z</time>
      </trkpt>
      <trkpt lat="43.97022" lon="3.73">
        <ele>591.35</ele>
        <time>2015-02-19T11:02:39Z</time>
      </trkpt>
      <trkpt lat="43.97022" lon="3.73">
        <ele>589.43</ele>
        <time>2015-02-19T11:02:42Z</time>
      </trkpt>
      <trkpt lat="43.97022" lon="3.73">
        <ele>592.79</ele>
        <time>2015-02-19T11:02:47Z</time>
      </trkpt>
      <trkpt lat="43.97022" lon="3.73">
        <ele>589.91</ele>
        <time>2015-02-19T11:02:51Z</time>
      </trkpt>
      <trkpt lat="43.97022" lon="3.73">
        <ele>591.83</ele>
        <time>2015-02-19T11:02:59Z</time>
      </trkpt>
      <trkpt lat="43.97022" lon="3.73">
        <ele>588.46</ele>
        <time>2015-02-19T11:03:05Z</time>
      </trkpt>
      <trkpt lat="43.97022" lon="3.73">
        <ele>591.83</ele>
        <time>2015-02-19T11:03:08Z</time>
      </trkpt>
      <trkpt lat="43.9703" lon="3.73011">
        <ele>591.83</ele>
        <time>2015-02-19T11:03:25Z</time>
      </trkpt>
      <trkpt lat="43.97034" lon="3.73015">
        <ele>588.95</ele>
        <time>2015-02-19T11:03:31Z</time>
      </trkpt>
      <trkpt lat="43.97034" lon="3.73015">
        <ele>591.83</ele>
        <time>2015-02-19T11:03:32Z</time>
      </trkpt>
      <trkpt lat="43.97035" lon="3.73016">
        <ele>593.27</ele>
        <time>2015-02-19T11:03:34Z</time>
      </trkpt>
      <trkpt lat="43.97036" lon="3.73018">
        <ele>591.35</ele>
        <time>2015-02-19T11:03:36Z</time>
      </trkpt>
      <trkpt lat="43.97037" lon="3.73019">
        <ele>592.79</ele>
        <time>2015-02-19T11:03:45Z</time>
      </trkpt>
      <trkpt lat="43.97037" lon="3.73019">
        <ele>591.83</ele>
        <time>2015-02-19T11:03:47Z</time>
      </trkpt>
      <trkpt lat="43.97037" lon="3.73019">
        <ele>591.83</ele>
        <time>2015-02-19T11:03:52Z</time>
      </trkpt>
      <trkpt lat="43.97037" lon="3.73019">
        <ele>591.83</ele>
        <time>2015-02-19T11:03:58Z</time>
      </trkpt>
      <trkpt lat="43.97038" lon="3.7302">
        <ele>593.27</ele>
        <time>2015-02-19T11:04:00Z</time>
      </trkpt>
      <trkpt lat="43.97039" lon="3.73021">
        <ele>591.35</ele>
        <time>2015-02-19T11:04:02Z</time>
      </trkpt>
      <trkpt lat="43.97042" lon="3.73024">
        <ele>594.71</ele>
        <time>2015-02-19T11:04:08Z</time>
      </trkpt>
      <trkpt lat="43.97042" lon="3.73027">
        <ele>592.31</ele>
        <time>2015-02-19T11:04:10Z</time>
      </trkpt>
      <trkpt lat="43.97044" lon="3.73032">
        <ele>595.67</ele>
        <time>2015-02-19T11:04:15Z</time>
      </trkpt>
      <trkpt lat="43.9705" lon="3.73037">
        <ele>597.12</ele>
        <time>2015-02-19T11:04:22Z</time>
      </trkpt>
      <trkpt lat="43.9705" lon="3.73038">
        <ele>593.75</ele>
        <time>2015-02-19T11:04:24Z</time>
      </trkpt>
      <trkpt lat="43.97051" lon="3.73039">
        <ele>595.19</ele>
        <time>2015-02-19T11:04:25Z</time>
      </trkpt>
      <trkpt lat="43.97052" lon="3.7304">
        <ele>599.04</ele>
        <time>2015-02-19T11:04:27Z</time>
      </trkpt>
      <trkpt lat="43.97052" lon="3.73041">
        <ele>598.08</ele>
        <time>2015-02-19T11:04:28Z</time>
      </trkpt>
      <trkpt lat="43.97056" lon="3.73044">
        <ele>594.23</ele>
        <time>2015-02-19T11:04:36Z</time>
      </trkpt>
      <trkpt lat="43.97057" lon="3.73046">
        <ele>598.08</ele>
        <time>2015-02-19T11:04:38Z</time>
      </trkpt>
      <trkpt lat="43.97057" lon="3.73047">
        <ele>598.08</ele>
        <time>2015-02-19T11:04:39Z</time>
      </trkpt>
      <trkpt lat="43.9706" lon="3.7305">
        <ele>596.64</ele>
        <time>2015-02-19T11:04:42Z</time>
      </trkpt>
      <trkpt lat="43.97069" lon="3.73058">
        <ele>595.67</ele>
        <time>2015-02-19T11:04:53Z</time>
      </trkpt>
      <trkpt lat="43.9707" lon="3.7306">
        <ele>599.52</ele>
        <time>2015-02-19T11:04:55Z</time>
      </trkpt>
      <trkpt lat="43.97071" lon="3.73061">
        <ele>600</ele>
        <time>2015-02-19T11:04:56Z</time>
      </trkpt>
      <trkpt lat="43.97075" lon="3.73062">
        <ele>597.12</ele>
        <time>2015-02-19T11:05:00Z</time>
      </trkpt>
      <trkpt lat="43.97076" lon="3.73063">
        <ele>600.96</ele>
        <time>2015-02-19T11:05:01Z</time>
      </trkpt>
      <trkpt lat="43.97078" lon="3.73064">
        <ele>596.64</ele>
        <time>2015-02-19T11:05:03Z</time>
      </trkpt>
      <trkpt lat="43.9708" lon="3.73068">
        <ele>600.48</ele>
        <time>2015-02-19T11:05:07Z</time>
      </trkpt>
      <trkpt lat="43.9708" lon="3.73069">
        <ele>600</ele>
        <time>2015-02-19T11:05:08Z</time>
      </trkpt>
      <trkpt lat="43.97083" lon="3.73076">
        <ele>597.12</ele>
        <time>2015-02-19T11:05:14Z</time>
      </trkpt>
      <trkpt lat="43.97085" lon="3.73078">
        <ele>599.04</ele>
        <time>2015-02-19T11:05:16Z</time>
      </trkpt>
      <trkpt lat="43.97087" lon="3.73083">
        <ele>600</ele>
        <time>2015-02-19T11:05:21Z</time>
      </trkpt>
      <trkpt lat="43.97091" lon="3.73085">
        <ele>600.96</ele>
        <time>2015-02-19T11:05:25Z</time>
      </trkpt>
      <trkpt lat="43.97095" lon="3.7309">
        <ele>602.4</ele>
        <time>2015-02-19T11:05:32Z</time>
      </trkpt>
      <trkpt lat="43.97095" lon="3.7309">
        <ele>599.52</ele>
        <time>2015-02-19T11:05:33Z</time>
      </trkpt>
      <trkpt lat="43.97096" lon="3.73092">
        <ele>602.4</ele>
        <time>2015-02-19T11:05:35Z</time>
      </trkpt>
      <trkpt lat="43.97103" lon="3.73102">
        <ele>603.36</ele>
        <time>2015-02-19T11:05:48Z</time>
      </trkpt>
      <trkpt lat="43.97109" lon="3.73109">
        <ele>602.4</ele>
        <time>2015-02-19T11:05:56Z</time>
      </trkpt>
      <trkpt lat="43.97113" lon="3.73117">
        <ele>605.29</ele>
        <time>2015-02-19T11:06:09Z</time>
      </trkpt>
      <trkpt lat="43.97122" lon="3.73125">
        <ele>605.77</ele>
        <time>2015-02-19T11:06:22Z</time>
      </trkpt>
      <trkpt lat="43.97126" lon="3.73131">
        <ele>607.21</ele>
        <time>2015-02-19T11:06:30Z</time>
      </trkpt>
      <trkpt lat="43.9714" lon="3.73142">
        <ele>606.25</ele>
        <time>2015-02-19T11:06:46Z</time>
      </trkpt>
      <trkpt lat="43.97144" lon="3.73145">
        <ele>609.13</ele>
        <time>2015-02-19T11:06:54Z</time>
      </trkpt>
      <trkpt lat="43.97144" lon="3.73146">
        <ele>608.65</ele>
        <time>2015-02-19T11:06:55Z</time>
      </trkpt>
      <trkpt lat="43.97145" lon="3.73147">
        <ele>612.02</ele>
        <time>2015-02-19T11:06:57Z</time>
      </trkpt>
      <trkpt lat="43.97147" lon="3.73149">
        <ele>607.69</ele>
        <time>2015-02-19T11:06:59Z</time>
      </trkpt>
      <trkpt lat="43.97147" lon="3.73149">
        <ele>608.65</ele>
        <time>2015-02-19T11:07:00Z</time>
      </trkpt>
      <trkpt lat="43.97151" lon="3.73153">
        <ele>610.09</ele>
        <time>2015-02-19T11:07:05Z</time>
      </trkpt>
      <trkpt lat="43.97158" lon="3.73156">
        <ele>608.65</ele>
        <time>2015-02-19T11:07:12Z</time>
      </trkpt>
      <trkpt lat="43.97159" lon="3.73157">
        <ele>612.02</ele>
        <time>2015-02-19T11:07:14Z</time>
      </trkpt>
      <trkpt lat="43.9716" lon="3.73157">
        <ele>611.54</ele>
        <time>2015-02-19T11:07:15Z</time>
      </trkpt>
      <trkpt lat="43.97161" lon="3.73158">
        <ele>608.65</ele>
        <time>2015-02-19T11:07:17Z</time>
      </trkpt>
      <trkpt lat="43.97166" lon="3.73161">
        <ele>610.09</ele>
        <time>2015-02-19T11:07:25Z</time>
      </trkpt>
      <trkpt lat="43.97173" lon="3.7316">
        <ele>606.73</ele>
        <time>2015-02-19T11:07:36Z</time>
      </trkpt>
      <trkpt lat="43.97174" lon="3.7316">
        <ele>606.73</ele>
        <time>2015-02-19T11:07:37Z</time>
      </trkpt>
      <trkpt lat="43.97178" lon="3.7316">
        <ele>606.25</ele>
        <time>2015-02-19T11:07:42Z</time>
      </trkpt>
      <trkpt lat="43.97189" lon="3.73162">
        <ele>608.17</ele>
        <time>2015-02-19T11:07:53Z</time>
      </trkpt>
      <trkpt lat="43.97195" lon="3.73153">
        <ele>606.25</ele>
        <time>2015-02-19T11:08:04Z</time>
      </trkpt>
      <trkpt lat="43.97199" lon="3.73151">
        <ele>608.65</ele>
        <time>2015-02-19T11:08:11Z</time>
      </trkpt>
      <trkpt lat="43.97201" lon="3.73153">
        <ele>612.02</ele>
        <time>2015-02-19T11:08:19Z</time>
      </trkpt>
      <trkpt lat="43.97201" lon="3.73153">
        <ele>608.65</ele>
        <time>2015-02-19T11:08:20Z</time>
      </trkpt>
      <trkpt lat="43.97201" lon="3.73154">
        <ele>610.09</ele>
        <time>2015-02-19T11:08:21Z</time>
      </trkpt>
      <trkpt lat="43.97203" lon="3.73157">
        <ele>611.54</ele>
        <time>2015-02-19T11:08:27Z</time>
      </trkpt>
      <trkpt lat="43.97204" lon="3.73157">
        <ele>608.17</ele>
        <time>2015-02-19T11:08:28Z</time>
      </trkpt>
      <trkpt lat="43.97204" lon="3.73158">
        <ele>611.54</ele>
        <time>2015-02-19T11:08:29Z</time>
      </trkpt>
      <trkpt lat="43.97208" lon="3.73161">
        <ele>612.02</ele>
        <time>2015-02-19T11:08:45Z</time>
      </trkpt>
      <trkpt lat="43.97209" lon="3.73162">
        <ele>614.42</ele>
        <time>2015-02-19T11:08:47Z</time>
      </trkpt>
      <trkpt lat="43.9721" lon="3.73169">
        <ele>615.86</ele>
        <time>2015-02-19T11:08:57Z</time>
      </trkpt>
      <trkpt lat="43.97211" lon="3.73172">
        <ele>613.46</ele>
        <time>2015-02-19T11:09:02Z</time>
      </trkpt>
      <trkpt lat="43.97209" lon="3.73178">
        <ele>616.82</ele>
        <time>2015-02-19T11:09:09Z</time>
      </trkpt>
      <trkpt lat="43.9721" lon="3.73187">
        <ele>615.38</ele>
        <time>2015-02-19T11:09:20Z</time>
      </trkpt>
      <trkpt lat="43.97209" lon="3.73187">
        <ele>620.19</ele>
        <time>2015-02-19T11:09:22Z</time>
      </trkpt>
      <trkpt lat="43.9721" lon="3.73188">
        <ele>618.26</ele>
        <time>2015-02-19T11:09:23Z</time>
      </trkpt>
      <trkpt lat="43.97211" lon="3.7319">
        <ele>615.38</ele>
        <time>2015-02-19T11:09:27Z</time>
      </trkpt>
      <trkpt lat="43.97212" lon="3.73192">
        <ele>618.26</ele>
        <time>2015-02-19T11:09:31Z</time>
      </trkpt>
      <trkpt lat="43.97212" lon="3.73196">
        <ele>618.26</ele>
        <time>2015-02-19T11:09:36Z</time>
      </trkpt>
      <trkpt lat="43.97213" lon="3.732">
        <ele>622.59</ele>
        <time>2015-02-19T11:09:42Z</time>
      </trkpt>
      <trkpt lat="43.97213" lon="3.73201">
        <ele>621.63</ele>
        <time>2015-02-19T11:09:43Z</time>
      </trkpt>
      <trkpt lat="43.97214" lon="3.73207">
        <ele>621.15</ele>
        <time>2015-02-19T11:09:53Z</time>
      </trkpt>
      <trkpt lat="43.97214" lon="3.73207">
        <ele>622.59</ele>
        <time>2015-02-19T11:09:55Z</time>
      </trkpt>
      <trkpt lat="43.97214" lon="3.73208">
        <ele>625.96</ele>
        <time>2015-02-19T11:09:57Z</time>
      </trkpt>
      <trkpt lat="43.97215" lon="3.73211">
        <ele>622.11</ele>
        <time>2015-02-19T11:10:01Z</time>
      </trkpt>
      <trkpt lat="43.97216" lon="3.73211">
        <ele>622.59</ele>
        <time>2015-02-19T11:10:02Z</time>
      </trkpt>
      <trkpt lat="43.97216" lon="3.73214">
        <ele>625.96</ele>
        <time>2015-02-19T11:10:06Z</time>
      </trkpt>
      <trkpt lat="43.97215" lon="3.73216">
        <ele>622.11</ele>
        <time>2015-02-19T11:10:08Z</time>
      </trkpt>
      <trkpt lat="43.97215" lon="3.73216">
        <ele>626.44</ele>
        <time>2015-02-19T11:10:09Z</time>
      </trkpt>
      <trkpt lat="43.97216" lon="3.73217">
        <ele>623.07</ele>
        <time>2015-02-19T11:10:11Z</time>
      </trkpt>
      <trkpt lat="43.97217" lon="3.7322">
        <ele>626.92</ele>
        <time>2015-02-19T11:10:17Z</time>
      </trkpt>
      <trkpt lat="43.97217" lon="3.73221">
        <ele>626.92</ele>
        <time>2015-02-19T11:10:18Z</time>
      </trkpt>
      <trkpt lat="43.97219" lon="3.73225">
        <ele>625.47</ele>
        <time>2015-02-19T11:10:28Z</time>
      </trkpt>
      <trkpt lat="43.9722" lon="3.73231">
        <ele>628.84</ele>
        <time>2015-02-19T11:10:35Z</time>
      </trkpt>
      <trkpt lat="43.9722" lon="3.73231">
        <ele>628.84</ele>
        <time>2015-02-19T11:10:36Z</time>
      </trkpt>
      <trkpt lat="43.97221" lon="3.73237">
        <ele>625.47</ele>
        <time>2015-02-19T11:10:44Z</time>
      </trkpt>
      <trkpt lat="43.97221" lon="3.73237">
        <ele>629.32</ele>
        <time>2015-02-19T11:10:45Z</time>
      </trkpt>
      <trkpt lat="43.97221" lon="3.73238">
        <ele>630.76</ele>
        <time>2015-02-19T11:10:47Z</time>
      </trkpt>
      <trkpt lat="43.9722" lon="3.73239">
        <ele>628.84</ele>
        <time>2015-02-19T11:10:49Z</time>
      </trkpt>
      <trkpt lat="43.97222" lon="3.73246">
        <ele>631.24</ele>
        <time>2015-02-19T11:11:00Z</time>
      </trkpt>
      <trkpt lat="43.97222" lon="3.73247">
        <ele>631.24</ele>
        <time>2015-02-19T11:11:01Z</time>
      </trkpt>
      <trkpt lat="43.97223" lon="3.73256">
        <ele>633.17</ele>
        <time>2015-02-19T11:11:13Z</time>
      </trkpt>
      <trkpt lat="43.97223" lon="3.73257">
        <ele>632.68</ele>
        <time>2015-02-19T11:11:14Z</time>
      </trkpt>
      <trkpt lat="43.97224" lon="3.73259">
        <ele>631.72</ele>
        <time>2015-02-19T11:11:16Z</time>
      </trkpt>
      <trkpt lat="43.97227" lon="3.73264">
        <ele>634.61</ele>
        <time>2015-02-19T11:11:24Z</time>
      </trkpt>
      <trkpt lat="43.97228" lon="3.73265">
        <ele>631.24</ele>
        <time>2015-02-19T11:11:26Z</time>
      </trkpt>
      <trkpt lat="43.97231" lon="3.7327">
        <ele>632.2</ele>
        <time>2015-02-19T11:11:33Z</time>
      </trkpt>
      <trkpt lat="43.97232" lon="3.73271">
        <ele>634.13</ele>
        <time>2015-02-19T11:11:35Z</time>
      </trkpt>
      <trkpt lat="43.97232" lon="3.73276">
        <ele>635.09</ele>
        <time>2015-02-19T11:11:40Z</time>
      </trkpt>
      <trkpt lat="43.97233" lon="3.73279">
        <ele>633.65</ele>
        <time>2015-02-19T11:11:42Z</time>
      </trkpt>
      <trkpt lat="43.97233" lon="3.73283">
        <ele>633.65</ele>
        <time>2015-02-19T11:11:47Z</time>
      </trkpt>
      <trkpt lat="43.97233" lon="3.73285">
        <ele>631.24</ele>
        <time>2015-02-19T11:11:49Z</time>
      </trkpt>
      <trkpt lat="43.97233" lon="3.73288">
        <ele>634.61</ele>
        <time>2015-02-19T11:11:52Z</time>
      </trkpt>
      <trkpt lat="43.97234" lon="3.73292">
        <ele>631.72</ele>
        <time>2015-02-19T11:11:57Z</time>
      </trkpt>
      <trkpt lat="43.97235" lon="3.73293">
        <ele>633.17</ele>
        <time>2015-02-19T11:12:03Z</time>
      </trkpt>
      <trkpt lat="43.97235" lon="3.73293">
        <ele>634.13</ele>
        <time>2015-02-19T11:12:12Z</time>
      </trkpt>
      <trkpt lat="43.97235" lon="3.73293">
        <ele>633.17</ele>
        <time>2015-02-19T11:12:21Z</time>
      </trkpt>
      <trkpt lat="43.97235" lon="3.73293">
        <ele>635.09</ele>
        <time>2015-02-19T11:12:23Z</time>
      </trkpt>
      <trkpt lat="43.97235" lon="3.73293">
        <ele>631.24</ele>
        <time>2015-02-19T11:12:37Z</time>
      </trkpt>
      <trkpt lat="43.97235" lon="3.73293">
        <ele>635.09</ele>
        <time>2015-02-19T11:12:40Z</time>
      </trkpt>
      <trkpt lat="43.97235" lon="3.73293">
        <ele>631.72</ele>
        <time>2015-02-19T11:12:42Z</time>
      </trkpt>
      <trkpt lat="43.97235" lon="3.73293">
        <ele>635.09</ele>
        <time>2015-02-19T11:12:43Z</time>
      </trkpt>
      <trkpt lat="43.97235" lon="3.73293">
        <ele>635.09</ele>
        <time>2015-02-19T11:12:44Z</time>
      </trkpt>
      <trkpt lat="43.97235" lon="3.73293">
        <ele>631.24</ele>
        <time>2015-02-19T11:12:55Z</time>
      </trkpt>
      <trkpt lat="43.97235" lon="3.73293">
        <ele>634.13</ele>
        <time>2015-02-19T11:12:58Z</time>
      </trkpt>
      <trkpt lat="43.97235" lon="3.73293">
        <ele>632.2</ele>
        <time>2015-02-19T11:13:01Z</time>
      </trkpt>
      <trkpt lat="43.97235" lon="3.73293">
        <ele>635.57</ele>
        <time>2015-02-19T11:13:18Z</time>
      </trkpt>
      <trkpt lat="43.97235" lon="3.73293">
        <ele>632.2</ele>
        <time>2015-02-19T11:13:20Z</time>
      </trkpt>
      <trkpt lat="43.97235" lon="3.73293">
        <ele>633.17</ele>
        <time>2015-02-19T11:13:21Z</time>
      </trkpt>
      <trkpt lat="43.97235" lon="3.73293">
        <ele>631.24</ele>
        <time>2015-02-19T11:13:28Z</time>
      </trkpt>
      <trkpt lat="43.97235" lon="3.73293">
        <ele>634.61</ele>
        <time>2015-02-19T11:13:29Z</time>
      </trkpt>
      <trkpt lat="43.97235" lon="3.73293">
        <ele>633.17</ele>
        <time>2015-02-19T11:13:30Z</time>
      </trkpt>
      <trkpt lat="43.97235" lon="3.73293">
        <ele>631.72</ele>
        <time>2015-02-19T11:13:32Z</time>
      </trkpt>
      <trkpt lat="43.97235" lon="3.73293">
        <ele>635.09</ele>
        <time>2015-02-19T11:13:34Z</time>
      </trkpt>
      <trkpt lat="43.97235" lon="3.73293">
        <ele>633.65</ele>
        <time>2015-02-19T11:13:38Z</time>
      </trkpt>
      <trkpt lat="43.97235" lon="3.73293">
        <ele>631.24</ele>
        <time>2015-02-19T11:13:41Z</time>
      </trkpt>
      <trkpt lat="43.97235" lon="3.73293">
        <ele>634.61</ele>
        <time>2015-02-19T11:13:44Z</time>
      </trkpt>
      <trkpt lat="43.97235" lon="3.73293">
        <ele>631.72</ele>
        <time>2015-02-19T11:13:46Z</time>
      </trkpt>
      <trkpt lat="43.97235" lon="3.73293">
        <ele>631.72</ele>
        <time>2015-02-19T11:13:47Z</time>
      </trkpt>
      <trkpt lat="43.97235" lon="3.73293">
        <ele>635.09</ele>
        <time>2015-02-19T11:13:48Z</time>
      </trkpt>
      <trkpt lat="43.97235" lon="3.73293">
        <ele>633.17</ele>
        <time>2015-02-19T11:13:51Z</time>
      </trkpt>
      <trkpt lat="43.97235" lon="3.73293">
        <ele>634.13</ele>
        <time>2015-02-19T11:13:57Z</time>
      </trkpt>
      <trkpt lat="43.97235" lon="3.73293">
        <ele>632.68</ele>
        <time>2015-02-19T11:14:08Z</time>
      </trkpt>
      <trkpt lat="43.97235" lon="3.73293">
        <ele>634.61</ele>
        <time>2015-02-19T11:14:17Z</time>
      </trkpt>
      <trkpt lat="43.97235" lon="3.73293">
        <ele>630.28</ele>
        <time>2015-02-19T11:14:22Z</time>
      </trkpt>
      <trkpt lat="43.97235" lon="3.73293">
        <ele>629.8</ele>
        <time>2015-02-19T11:14:23Z</time>
      </trkpt>
      <trkpt lat="43.97235" lon="3.73293">
        <ele>630.28</ele>
        <time>2015-02-19T11:14:28Z</time>
      </trkpt>
      <trkpt lat="43.97235" lon="3.73293">
        <ele>635.09</ele>
        <time>2015-02-19T11:14:30Z</time>
      </trkpt>
      <trkpt lat="43.97235" lon="3.73293">
        <ele>634.61</ele>
        <time>2015-02-19T11:14:34Z</time>
      </trkpt>
      <trkpt lat="43.97235" lon="3.73293">
        <ele>631.24</ele>
        <time>2015-02-19T11:14:38Z</time>
      </trkpt>
      <trkpt lat="43.97235" lon="3.73293">
        <ele>636.05</ele>
        <time>2015-02-19T11:14:40Z</time>
      </trkpt>
      <trkpt lat="43.97235" lon="3.73293">
        <ele>632.68</ele>
        <time>2015-02-19T11:14:42Z</time>
      </trkpt>
      <trkpt lat="43.97235" lon="3.73293">
        <ele>634.13</ele>
        <time>2015-02-19T11:14:58Z</time>
      </trkpt>
      <trkpt lat="43.97235" lon="3.73293">
        <ele>630.76</ele>
        <time>2015-02-19T11:15:00Z</time>
      </trkpt>
      <trkpt lat="43.97235" lon="3.73293">
        <ele>634.61</ele>
        <time>2015-02-19T11:15:01Z</time>
      </trkpt>
      <trkpt lat="43.97235" lon="3.73293">
        <ele>631.72</ele>
        <time>2015-02-19T11:15:41Z</time>
      </trkpt>
      <trkpt lat="43.97235" lon="3.73293">
        <ele>635.57</ele>
        <time>2015-02-19T11:15:44Z</time>
      </trkpt>
      <trkpt lat="43.97235" lon="3.73293">
        <ele>635.57</ele>
        <time>2015-02-19T11:15:45Z</time>
      </trkpt>
      <trkpt lat="43.97235" lon="3.73293">
        <ele>634.61</ele>
        <time>2015-02-19T11:15:58Z</time>
      </trkpt>
      <trkpt lat="43.97235" lon="3.73293">
        <ele>631.24</ele>
        <time>2015-02-19T11:15:59Z</time>
      </trkpt>
      <trkpt lat="43.97235" lon="3.73293">
        <ele>634.13</ele>
        <time>2015-02-19T11:16:01Z</time>
      </trkpt>
      <trkpt lat="43.97235" lon="3.73293">
        <ele>631.24</ele>
        <time>2015-02-19T11:16:05Z</time>
      </trkpt>
      <trkpt lat="43.97235" lon="3.73293">
        <ele>634.61</ele>
        <time>2015-02-19T11:16:10Z</time>
      </trkpt>
      <trkpt lat="43.97235" lon="3.73293">
        <ele>635.57</ele>
        <time>2015-02-19T11:16:15Z</time>
      </trkpt>
      <trkpt lat="43.97235" lon="3.73293">
        <ele>632.2</ele>
        <time>2015-02-19T11:16:16Z</time>
      </trkpt>
      <trkpt lat="43.97235" lon="3.73293">
        <ele>631.72</ele>
        <time>2015-02-19T11:16:17Z</time>
      </trkpt>
      <trkpt lat="43.97235" lon="3.73293">
        <ele>634.13</ele>
        <time>2015-02-19T11:16:30Z</time>
      </trkpt>
      <trkpt lat="43.97235" lon="3.73293">
        <ele>632.2</ele>
        <time>2015-02-19T11:16:35Z</time>
      </trkpt>
      <trkpt lat="43.97235" lon="3.73293">
        <ele>633.17</ele>
        <time>2015-02-19T11:16:37Z</time>
      </trkpt>
      <trkpt lat="43.97235" lon="3.73293">
        <ele>636.53</ele>
        <time>2015-02-19T11:16:45Z</time>
      </trkpt>
      <trkpt lat="43.97235" lon="3.73293">
        <ele>631.72</ele>
        <time>2015-02-19T11:16:46Z</time>
      </trkpt>
      <trkpt lat="43.97235" lon="3.73293">
        <ele>632.2</ele>
        <time>2015-02-19T11:16:47Z</time>
      </trkpt>
      <trkpt lat="43.97235" lon="3.73293">
        <ele>635.57</ele>
        <time>2015-02-19T11:16:56Z</time>
      </trkpt>
      <trkpt lat="43.97235" lon="3.73294">
        <ele>631.72</ele>
        <time>2015-02-19T11:17:01Z</time>
      </trkpt>
      <trkpt lat="43.97235" lon="3.73294">
        <ele>635.09</ele>
        <time>2015-02-19T11:17:03Z</time>
      </trkpt>
      <trkpt lat="43.97235" lon="3.73294">
        <ele>634.13</ele>
        <time>2015-02-19T11:17:04Z</time>
      </trkpt>
      <trkpt lat="43.97234" lon="3.73298">
        <ele>630.76</ele>
        <time>2015-02-19T11:17:23Z</time>
      </trkpt>
      <trkpt lat="43.97233" lon="3.73299">
        <ele>632.2</ele>
        <time>2015-02-19T11:17:24Z</time>
      </trkpt>
      <trkpt lat="43.97234" lon="3.73302">
        <ele>634.61</ele>
        <time>2015-02-19T11:17:26Z</time>
      </trkpt>
      <trkpt lat="43.97234" lon="3.73304">
        <ele>630.76</ele>
        <time>2015-02-19T11:17:28Z</time>
      </trkpt>
      <trkpt lat="43.97234" lon="3.73306">
        <ele>634.13</ele>
        <time>2015-02-19T11:17:30Z</time>
      </trkpt>
      <trkpt lat="43.97234" lon="3.73307">
        <ele>634.13</ele>
        <time>2015-02-19T11:17:31Z</time>
      </trkpt>
      <trkpt lat="43.97235" lon="3.73314">
        <ele>631.24</ele>
        <time>2015-02-19T11:17:39Z</time>
      </trkpt>
      <trkpt lat="43.97235" lon="3.73314">
        <ele>630.28</ele>
        <time>2015-02-19T11:17:41Z</time>
      </trkpt>
      <trkpt lat="43.97235" lon="3.73322">
        <ele>631.72</ele>
        <time>2015-02-19T11:17:50Z</time>
      </trkpt>
      <trkpt lat="43.97235" lon="3.73326">
        <ele>628.36</ele>
        <time>2015-02-19T11:17:58Z</time>
      </trkpt>
      <trkpt lat="43.97236" lon="3.73329">
        <ele>628.36</ele>
        <time>2015-02-19T11:18:04Z</time>
      </trkpt>
      <trkpt lat="43.97237" lon="3.7333">
        <ele>627.88</ele>
        <time>2015-02-19T11:18:05Z</time>
      </trkpt>
      <trkpt lat="43.97239" lon="3.73332">
        <ele>627.88</ele>
        <time>2015-02-19T11:18:07Z</time>
      </trkpt>
      <trkpt lat="43.97241" lon="3.73339">
        <ele>627.4</ele>
        <time>2015-02-19T11:18:18Z</time>
      </trkpt>
      <trkpt lat="43.97244" lon="3.73344">
        <ele>627.88</ele>
        <time>2015-02-19T11:18:29Z</time>
      </trkpt>
      <trkpt lat="43.97245" lon="3.73347">
        <ele>629.8</ele>
        <time>2015-02-19T11:18:31Z</time>
      </trkpt>
      <trkpt lat="43.97247" lon="3.73349">
        <ele>626.92</ele>
        <time>2015-02-19T11:18:35Z</time>
      </trkpt>
      <trkpt lat="43.97252" lon="3.73351">
        <ele>628.36</ele>
        <time>2015-02-19T11:18:41Z</time>
      </trkpt>
      <trkpt lat="43.97255" lon="3.73354">
        <ele>630.28</ele>
        <time>2015-02-19T11:18:49Z</time>
      </trkpt>
      <trkpt lat="43.97258" lon="3.73357">
        <ele>628.36</ele>
        <time>2015-02-19T11:18:52Z</time>
      </trkpt>
      <trkpt lat="43.9726" lon="3.73367">
        <ele>628.36</ele>
        <time>2015-02-19T11:19:04Z</time>
      </trkpt>
      <trkpt lat="43.97259" lon="3.73372">
        <ele>625.96</ele>
        <time>2015-02-19T11:19:12Z</time>
      </trkpt>
      <trkpt lat="43.97261" lon="3.73375">
        <ele>625.47</ele>
        <time>2015-02-19T11:19:16Z</time>
      </trkpt>
      <trkpt lat="43.97264" lon="3.73383">
        <ele>626.44</ele>
        <time>2015-02-19T11:19:27Z</time>
      </trkpt>
      <trkpt lat="43.97264" lon="3.73383">
        <ele>623.07</ele>
        <time>2015-02-19T11:19:29Z</time>
      </trkpt>
      <trkpt lat="43.97264" lon="3.73384">
        <ele>624.03</ele>
        <time>2015-02-19T11:19:30Z</time>
      </trkpt>
      <trkpt lat="43.97264" lon="3.73384">
        <ele>626.44</ele>
        <time>2015-02-19T11:19:32Z</time>
      </trkpt>
      <trkpt lat="43.97264" lon="3.73384">
        <ele>622.11</ele>
        <time>2015-02-19T11:19:33Z</time>
      </trkpt>
      <trkpt lat="43.97264" lon="3.73384">
        <ele>622.11</ele>
        <time>2015-02-19T11:19:34Z</time>
      </trkpt>
      <trkpt lat="43.97264" lon="3.73384">
        <ele>624.51</ele>
        <time>2015-02-19T11:19:37Z</time>
      </trkpt>
      <trkpt lat="43.97265" lon="3.73387">
        <ele>621.15</ele>
        <time>2015-02-19T11:19:46Z</time>
      </trkpt>
      <trkpt lat="43.97266" lon="3.73388">
        <ele>622.11</ele>
        <time>2015-02-19T11:19:47Z</time>
      </trkpt>
      <trkpt lat="43.97268" lon="3.73395">
        <ele>622.59</ele>
        <time>2015-02-19T11:19:57Z</time>
      </trkpt>
      <trkpt lat="43.97269" lon="3.73398">
        <ele>621.15</ele>
        <time>2015-02-19T11:20:00Z</time>
      </trkpt>
      <trkpt lat="43.9727" lon="3.73403">
        <ele>619.71</ele>
        <time>2015-02-19T11:20:10Z</time>
      </trkpt>
      <trkpt lat="43.97272" lon="3.73408">
        <ele>621.63</ele>
        <time>2015-02-19T11:20:15Z</time>
      </trkpt>
      <trkpt lat="43.97273" lon="3.73414">
        <ele>619.23</ele>
        <time>2015-02-19T11:20:18Z</time>
      </trkpt>
      <trkpt lat="43.97273" lon="3.73424">
        <ele>615.38</ele>
        <time>2015-02-19T11:20:30Z</time>
      </trkpt>
      <trkpt lat="43.97273" lon="3.73424">
        <ele>619.71</ele>
        <time>2015-02-19T11:20:32Z</time>
      </trkpt>
      <trkpt lat="43.97274" lon="3.73428">
        <ele>614.9</ele>
        <time>2015-02-19T11:20:40Z</time>
      </trkpt>
      <trkpt lat="43.97274" lon="3.7343">
        <ele>614.9</ele>
        <time>2015-02-19T11:20:41Z</time>
      </trkpt>
      <trkpt lat="43.97275" lon="3.73434">
        <ele>615.86</ele>
        <time>2015-02-19T11:20:44Z</time>
      </trkpt>
      <trkpt lat="43.97278" lon="3.73439">
        <ele>613.94</ele>
        <time>2015-02-19T11:20:50Z</time>
      </trkpt>
      <trkpt lat="43.97279" lon="3.7344">
        <ele>617.3</ele>
        <time>2015-02-19T11:20:51Z</time>
      </trkpt>
      <trkpt lat="43.97279" lon="3.73441">
        <ele>617.3</ele>
        <time>2015-02-19T11:20:52Z</time>
      </trkpt>
      <trkpt lat="43.97281" lon="3.73444">
        <ele>614.42</ele>
        <time>2015-02-19T11:20:56Z</time>
      </trkpt>
      <trkpt lat="43.97281" lon="3.73446">
        <ele>616.34</ele>
        <time>2015-02-19T11:20:58Z</time>
      </trkpt>
      <trkpt lat="43.97281" lon="3.73448">
        <ele>612.5</ele>
        <time>2015-02-19T11:21:00Z</time>
      </trkpt>
      <trkpt lat="43.97281" lon="3.73454">
        <ele>613.46</ele>
        <time>2015-02-19T11:21:07Z</time>
      </trkpt>
      <trkpt lat="43.9728" lon="3.73464">
        <ele>612.5</ele>
        <time>2015-02-19T11:21:14Z</time>
      </trkpt>
      <trkpt lat="43.9728" lon="3.73469">
        <ele>611.06</ele>
        <time>2015-02-19T11:21:19Z</time>
      </trkpt>
      <trkpt lat="43.97281" lon="3.73475">
        <ele>611.06</ele>
        <time>2015-02-19T11:21:23Z</time>
      </trkpt>
      <trkpt lat="43.97282" lon="3.73484">
        <ele>608.17</ele>
        <time>2015-02-19T11:21:28Z</time>
      </trkpt>
      <trkpt lat="43.97282" lon="3.73488">
        <ele>610.57</ele>
        <time>2015-02-19T11:21:31Z</time>
      </trkpt>
      <trkpt lat="43.97283" lon="3.73489">
        <ele>608.17</ele>
        <time>2015-02-19T11:21:32Z</time>
      </trkpt>
      <trkpt lat="43.97285" lon="3.73491">
        <ele>612.02</ele>
        <time>2015-02-19T11:21:34Z</time>
      </trkpt>
      <trkpt lat="43.97289" lon="3.73494">
        <ele>611.54</ele>
        <time>2015-02-19T11:21:40Z</time>
      </trkpt>
      <trkpt lat="43.97289" lon="3.73497">
        <ele>611.06</ele>
        <time>2015-02-19T11:21:42Z</time>
      </trkpt>
      <trkpt lat="43.97293" lon="3.73504">
        <ele>612.02</ele>
        <time>2015-02-19T11:21:50Z</time>
      </trkpt>
      <trkpt lat="43.97294" lon="3.73505">
        <ele>611.06</ele>
        <time>2015-02-19T11:21:53Z</time>
      </trkpt>
      <trkpt lat="43.97296" lon="3.73507">
        <ele>609.61</ele>
        <time>2015-02-19T11:21:55Z</time>
      </trkpt>
      <trkpt lat="43.97297" lon="3.73513">
        <ele>610.57</ele>
        <time>2015-02-19T11:21:59Z</time>
      </trkpt>
      <trkpt lat="43.97299" lon="3.73514">
        <ele>609.13</ele>
        <time>2015-02-19T11:22:01Z</time>
      </trkpt>
      <trkpt lat="43.97301" lon="3.73516">
        <ele>612.5</ele>
        <time>2015-02-19T11:22:04Z</time>
      </trkpt>
      <trkpt lat="43.973" lon="3.73522">
        <ele>608.65</ele>
        <time>2015-02-19T11:22:09Z</time>
      </trkpt>
      <trkpt lat="43.973" lon="3.73523">
        <ele>612.02</ele>
        <time>2015-02-19T11:22:11Z</time>
      </trkpt>
      <trkpt lat="43.973" lon="3.73523">
        <ele>608.65</ele>
        <time>2015-02-19T11:22:17Z</time>
      </trkpt>
      <trkpt lat="43.973" lon="3.73523">
        <ele>612.02</ele>
        <time>2015-02-19T11:22:22Z</time>
      </trkpt>
      <trkpt lat="43.973" lon="3.73523">
        <ele>612.02</ele>
        <time>2015-02-19T11:22:28Z</time>
      </trkpt>
      <trkpt lat="43.973" lon="3.73523">
        <ele>608.65</ele>
        <time>2015-02-19T11:22:30Z</time>
      </trkpt>
      <trkpt lat="43.973" lon="3.73523">
        <ele>612.02</ele>
        <time>2015-02-19T11:22:37Z</time>
      </trkpt>
      <trkpt lat="43.973" lon="3.73523">
        <ele>612.02</ele>
        <time>2015-02-19T11:22:38Z</time>
      </trkpt>
      <trkpt lat="43.973" lon="3.73524">
        <ele>608.65</ele>
        <time>2015-02-19T11:22:42Z</time>
      </trkpt>
      <trkpt lat="43.973" lon="3.73524">
        <ele>609.13</ele>
        <time>2015-02-19T11:22:43Z</time>
      </trkpt>
      <trkpt lat="43.973" lon="3.73524">
        <ele>612.5</ele>
        <time>2015-02-19T11:22:45Z</time>
      </trkpt>
      <trkpt lat="43.97301" lon="3.73525">
        <ele>608.65</ele>
        <time>2015-02-19T11:22:47Z</time>
      </trkpt>
      <trkpt lat="43.97301" lon="3.73526">
        <ele>610.09</ele>
        <time>2015-02-19T11:22:48Z</time>
      </trkpt>
      <trkpt lat="43.97301" lon="3.73526">
        <ele>606.73</ele>
        <time>2015-02-19T11:22:49Z</time>
      </trkpt>
      <trkpt lat="43.97301" lon="3.73526">
        <ele>608.65</ele>
        <time>2015-02-19T11:22:52Z</time>
      </trkpt>
      <trkpt lat="43.97301" lon="3.73526">
        <ele>611.54</ele>
        <time>2015-02-19T11:22:54Z</time>
      </trkpt>
      <trkpt lat="43.97301" lon="3.73527">
        <ele>607.69</ele>
        <time>2015-02-19T11:22:56Z</time>
      </trkpt>
      <trkpt lat="43.97303" lon="3.73529">
        <ele>606.73</ele>
        <time>2015-02-19T11:23:05Z</time>
      </trkpt>
      <trkpt lat="43.97303" lon="3.7353">
        <ele>609.61</ele>
        <time>2015-02-19T11:23:10Z</time>
      </trkpt>
      <trkpt lat="43.97303" lon="3.7353">
        <ele>609.61</ele>
        <time>2015-02-19T11:23:11Z</time>
      </trkpt>
      <trkpt lat="43.97303" lon="3.7353">
        <ele>607.69</ele>
        <time>2015-02-19T11:23:13Z</time>
      </trkpt>
      <trkpt lat="43.97303" lon="3.7353">
        <ele>605.77</ele>
        <time>2015-02-19T11:23:18Z</time>
      </trkpt>
      <trkpt lat="43.97303" lon="3.73531">
        <ele>609.13</ele>
        <time>2015-02-19T11:23:24Z</time>
      </trkpt>
      <trkpt lat="43.97303" lon="3.73531">
        <ele>605.29</ele>
        <time>2015-02-19T11:23:25Z</time>
      </trkpt>
      <trkpt lat="43.97304" lon="3.73533">
        <ele>609.13</ele>
        <time>2015-02-19T11:23:27Z</time>
      </trkpt>
      <trkpt lat="43.97304" lon="3.73533">
        <ele>608.17</ele>
        <time>2015-02-19T11:23:28Z</time>
      </trkpt>
      <trkpt lat="43.97305" lon="3.73535">
        <ele>605.29</ele>
        <time>2015-02-19T11:23:30Z</time>
      </trkpt>
      <trkpt lat="43.97306" lon="3.73537">
        <ele>605.77</ele>
        <time>2015-02-19T11:23:40Z</time>
      </trkpt>
      <trkpt lat="43.97307" lon="3.73538">
        <ele>604.33</ele>
        <time>2015-02-19T11:24:12Z</time>
      </trkpt>
      <trkpt lat="43.97308" lon="3.73538">
        <ele>603.85</ele>
        <time>2015-02-19T11:24:19Z</time>
      </trkpt>
      <trkpt lat="43.97308" lon="3.73538">
        <ele>605.29</ele>
        <time>2015-02-19T11:24:21Z</time>
      </trkpt>
      <trkpt lat="43.97308" lon="3.73538">
        <ele>602.88</ele>
        <time>2015-02-19T11:24:26Z</time>
      </trkpt>
      <trkpt lat="43.97309" lon="3.7354">
        <ele>599.52</ele>
        <time>2015-02-19T11:24:36Z</time>
      </trkpt>
      <trkpt lat="43.9731" lon="3.7354">
        <ele>602.4</ele>
        <time>2015-02-19T11:24:37Z</time>
      </trkpt>
      <trkpt lat="43.97312" lon="3.73539">
        <ele>606.25</ele>
        <time>2015-02-19T11:24:39Z</time>
      </trkpt>
      <trkpt lat="43.97312" lon="3.73539">
        <ele>605.29</ele>
        <time>2015-02-19T11:24:40Z</time>
      </trkpt>
      <trkpt lat="43.97312" lon="3.73539">
        <ele>601.92</ele>
        <time>2015-02-19T11:24:41Z</time>
      </trkpt>
      <trkpt lat="43.97313" lon="3.7354">
        <ele>605.29</ele>
        <time>2015-02-19T11:24:44Z</time>
      </trkpt>
      <trkpt lat="43.97315" lon="3.73539">
        <ele>601.44</ele>
        <time>2015-02-19T11:24:47Z</time>
      </trkpt>
      <trkpt lat="43.97317" lon="3.73538">
        <ele>602.88</ele>
        <time>2015-02-19T11:24:51Z</time>
      </trkpt>
      <trkpt lat="43.97319" lon="3.73538">
        <ele>599.52</ele>
        <time>2015-02-19T11:24:56Z</time>
      </trkpt>
      <trkpt lat="43.97319" lon="3.73538">
        <ele>602.4</ele>
        <time>2015-02-19T11:24:57Z</time>
      </trkpt>
      <trkpt lat="43.97319" lon="3.73538">
        <ele>599.04</ele>
        <time>2015-02-19T11:25:00Z</time>
      </trkpt>
      <trkpt lat="43.97321" lon="3.73539">
        <ele>601.92</ele>
        <time>2015-02-19T11:25:02Z</time>
      </trkpt>
      <trkpt lat="43.97324" lon="3.73539">
        <ele>597.6</ele>
        <time>2015-02-19T11:25:06Z</time>
      </trkpt>
      <trkpt lat="43.97324" lon="3.73539">
        <ele>599.52</ele>
        <time>2015-02-19T11:25:07Z</time>
      </trkpt>
      <trkpt lat="43.97325" lon="3.7354">
        <ele>598.56</ele>
        <time>2015-02-19T11:25:15Z</time>
      </trkpt>
      <trkpt lat="43.97328" lon="3.73542">
        <ele>597.12</ele>
        <time>2015-02-19T11:25:23Z</time>
      </trkpt>
      <trkpt lat="43.97332" lon="3.73545">
        <ele>595.19</ele>
        <time>2015-02-19T11:25:40Z</time>
      </trkpt>
      <trkpt lat="43.97334" lon="3.73547">
        <ele>594.23</ele>
        <time>2015-02-19T11:25:50Z</time>
      </trkpt>
      <trkpt lat="43.97337" lon="3.7355">
        <ele>594.23</ele>
        <time>2015-02-19T11:26:00Z</time>
      </trkpt>
      <trkpt lat="43.9734" lon="3.73551">
        <ele>591.35</ele>
        <time>2015-02-19T11:26:05Z</time>
      </trkpt>
      <trkpt lat="43.9734" lon="3.73552">
        <ele>594.71</ele>
        <time>2015-02-19T11:26:06Z</time>
      </trkpt>
      <trkpt lat="43.9734" lon="3.73553">
        <ele>593.27</ele>
        <time>2015-02-19T11:26:07Z</time>
      </trkpt>
      <trkpt lat="43.97341" lon="3.73553">
        <ele>592.31</ele>
        <time>2015-02-19T11:26:09Z</time>
      </trkpt>
      <trkpt lat="43.97344" lon="3.73557">
        <ele>588.95</ele>
        <time>2015-02-19T11:26:16Z</time>
      </trkpt>
      <trkpt lat="43.97344" lon="3.73557">
        <ele>592.79</ele>
        <time>2015-02-19T11:26:18Z</time>
      </trkpt>
      <trkpt lat="43.97344" lon="3.73557">
        <ele>590.87</ele>
        <time>2015-02-19T11:26:19Z</time>
      </trkpt>
      <trkpt lat="43.97347" lon="3.73558">
        <ele>587.02</ele>
        <time>2015-02-19T11:26:27Z</time>
      </trkpt>
      <trkpt lat="43.97348" lon="3.73558">
        <ele>587.98</ele>
        <time>2015-02-19T11:26:28Z</time>
      </trkpt>
      <trkpt lat="43.97349" lon="3.73558">
        <ele>590.87</ele>
        <time>2015-02-19T11:26:29Z</time>
      </trkpt>
      <trkpt lat="43.97349" lon="3.73558">
        <ele>589.91</ele>
        <time>2015-02-19T11:26:30Z</time>
      </trkpt>
      <trkpt lat="43.9735" lon="3.73559">
        <ele>588.95</ele>
        <time>2015-02-19T11:26:32Z</time>
      </trkpt>
      <trkpt lat="43.97352" lon="3.7356">
        <ele>587.02</ele>
        <time>2015-02-19T11:26:44Z</time>
      </trkpt>
      <trkpt lat="43.97352" lon="3.7356">
        <ele>588.46</ele>
        <time>2015-02-19T11:27:00Z</time>
      </trkpt>
      <trkpt lat="43.97352" lon="3.73561">
        <ele>584.14</ele>
        <time>2015-02-19T11:27:06Z</time>
      </trkpt>
      <trkpt lat="43.97352" lon="3.73561">
        <ele>584.62</ele>
        <time>2015-02-19T11:27:07Z</time>
      </trkpt>
      <trkpt lat="43.97352" lon="3.73561">
        <ele>587.02</ele>
        <time>2015-02-19T11:27:09Z</time>
      </trkpt>
      <trkpt lat="43.97352" lon="3.73561">
        <ele>585.1</ele>
        <time>2015-02-19T11:27:11Z</time>
      </trkpt>
      <trkpt lat="43.97352" lon="3.73561">
        <ele>587.98</ele>
        <time>2015-02-19T11:27:14Z</time>
      </trkpt>
      <trkpt lat="43.97352" lon="3.73561">
        <ele>585.1</ele>
        <time>2015-02-19T11:27:15Z</time>
      </trkpt>
      <trkpt lat="43.97352" lon="3.73561">
        <ele>584.14</ele>
        <time>2015-02-19T11:27:17Z</time>
      </trkpt>
      <trkpt lat="43.97352" lon="3.73561">
        <ele>587.5</ele>
        <time>2015-02-19T11:27:18Z</time>
      </trkpt>
      <trkpt lat="43.97352" lon="3.73561">
        <ele>583.66</ele>
        <time>2015-02-19T11:27:20Z</time>
      </trkpt>
      <trkpt lat="43.97352" lon="3.73561">
        <ele>583.66</ele>
        <time>2015-02-19T11:27:21Z</time>
      </trkpt>
      <trkpt lat="43.97352" lon="3.73561">
        <ele>586.54</ele>
        <time>2015-02-19T11:27:23Z</time>
      </trkpt>
      <trkpt lat="43.97352" lon="3.73561">
        <ele>583.66</ele>
        <time>2015-02-19T11:27:25Z</time>
      </trkpt>
      <trkpt lat="43.97352" lon="3.73561">
        <ele>584.62</ele>
        <time>2015-02-19T11:27:26Z</time>
      </trkpt>
      <trkpt lat="43.97354" lon="3.73561">
        <ele>581.73</ele>
        <time>2015-02-19T11:27:37Z</time>
      </trkpt>
      <trkpt lat="43.97357" lon="3.73564">
        <ele>579.33</ele>
        <time>2015-02-19T11:27:48Z</time>
      </trkpt>
      <trkpt lat="43.9736" lon="3.73567">
        <ele>580.29</ele>
        <time>2015-02-19T11:28:01Z</time>
      </trkpt>
      <trkpt lat="43.9736" lon="3.73567">
        <ele>576.93</ele>
        <time>2015-02-19T11:28:06Z</time>
      </trkpt>
      <trkpt lat="43.9736" lon="3.73567">
        <ele>578.85</ele>
        <time>2015-02-19T11:28:19Z</time>
      </trkpt>
      <trkpt lat="43.9736" lon="3.73567">
        <ele>575.01</ele>
        <time>2015-02-19T11:28:24Z</time>
      </trkpt>
      <trkpt lat="43.9736" lon="3.73567">
        <ele>578.37</ele>
        <time>2015-02-19T11:28:28Z</time>
      </trkpt>
      <trkpt lat="43.97363" lon="3.73569">
        <ele>574.04</ele>
        <time>2015-02-19T11:28:32Z</time>
      </trkpt>
      <trkpt lat="43.97363" lon="3.73569">
        <ele>575.01</ele>
        <time>2015-02-19T11:28:33Z</time>
      </trkpt>
      <trkpt lat="43.97363" lon="3.73569">
        <ele>575.49</ele>
        <time>2015-02-19T11:28:37Z</time>
      </trkpt>
      <trkpt lat="43.97363" lon="3.73569">
        <ele>579.33</ele>
        <time>2015-02-19T11:28:40Z</time>
      </trkpt>
      <trkpt lat="43.97363" lon="3.73569">
        <ele>575.97</ele>
        <time>2015-02-19T11:28:46Z</time>
      </trkpt>
      <trkpt lat="43.97363" lon="3.73569">
        <ele>575.01</ele>
        <time>2015-02-19T11:29:03Z</time>
      </trkpt>
      <trkpt lat="43.97364" lon="3.7357">
        <ele>575.49</ele>
        <time>2015-02-19T11:29:14Z</time>
      </trkpt>
      <trkpt lat="43.97364" lon="3.7357">
        <ele>576.45</ele>
        <time>2015-02-19T11:29:18Z</time>
      </trkpt>
      <trkpt lat="43.97364" lon="3.7357">
        <ele>573.08</ele>
        <time>2015-02-19T11:29:20Z</time>
      </trkpt>
      <trkpt lat="43.97364" lon="3.7357">
        <ele>576.45</ele>
        <time>2015-02-19T11:29:23Z</time>
      </trkpt>
      <trkpt lat="43.97364" lon="3.7357">
        <ele>573.08</ele>
        <time>2015-02-19T11:29:24Z</time>
      </trkpt>
      <trkpt lat="43.97364" lon="3.7357">
        <ele>572.6</ele>
        <time>2015-02-19T11:29:34Z</time>
      </trkpt>
      <trkpt lat="43.97364" lon="3.7357">
        <ele>574.04</ele>
        <time>2015-02-19T11:29:40Z</time>
      </trkpt>
      <trkpt lat="43.97364" lon="3.7357">
        <ele>572.12</ele>
        <time>2015-02-19T11:29:44Z</time>
      </trkpt>
      <trkpt lat="43.97367" lon="3.73572">
        <ele>575.01</ele>
        <time>2015-02-19T11:29:51Z</time>
      </trkpt>
      <trkpt lat="43.97367" lon="3.73572">
        <ele>570.68</ele>
        <time>2015-02-19T11:29:54Z</time>
      </trkpt>
      <trkpt lat="43.97367" lon="3.73572">
        <ele>574.04</ele>
        <time>2015-02-19T11:29:56Z</time>
      </trkpt>
      <trkpt lat="43.97368" lon="3.73577">
        <ele>570.68</ele>
        <time>2015-02-19T11:30:20Z</time>
      </trkpt>
      <trkpt lat="43.97368" lon="3.73577">
        <ele>573.56</ele>
        <time>2015-02-19T11:30:24Z</time>
      </trkpt>
      <trkpt lat="43.97368" lon="3.73577">
        <ele>569.72</ele>
        <time>2015-02-19T11:30:29Z</time>
      </trkpt>
      <trkpt lat="43.97368" lon="3.73577">
        <ele>573.08</ele>
        <time>2015-02-19T11:30:30Z</time>
      </trkpt>
      <trkpt lat="43.97368" lon="3.73577">
        <ele>573.08</ele>
        <time>2015-02-19T11:30:31Z</time>
      </trkpt>
      <trkpt lat="43.97368" lon="3.73577">
        <ele>571.16</ele>
        <time>2015-02-19T11:30:34Z</time>
      </trkpt>
      <trkpt lat="43.97368" lon="3.73577">
        <ele>571.64</ele>
        <time>2015-02-19T11:30:39Z</time>
      </trkpt>
      <trkpt lat="43.97368" lon="3.73577">
        <ele>570.2</ele>
        <time>2015-02-19T11:30:42Z</time>
      </trkpt>
      <trkpt lat="43.97369" lon="3.73582">
        <ele>568.76</ele>
        <time>2015-02-19T11:30:58Z</time>
      </trkpt>
      <trkpt lat="43.9737" lon="3.73587">
        <ele>568.76</ele>
        <time>2015-02-19T11:31:00Z</time>
      </trkpt>
      <trkpt lat="43.97376" lon="3.73597">
        <ele>567.32</ele>
        <time>2015-02-19T11:31:05Z</time>
      </trkpt>
      <trkpt lat="43.97381" lon="3.736">
        <ele>567.32</ele>
        <time>2015-02-19T11:31:09Z</time>
      </trkpt>
      <trkpt lat="43.97382" lon="3.736">
        <ele>564.91</ele>
        <time>2015-02-19T11:31:20Z</time>
      </trkpt>
      <trkpt lat="43.97393" lon="3.73604">
        <ele>564.91</ele>
        <time>2015-02-19T11:31:29Z</time>
      </trkpt>
      <trkpt lat="43.97404" lon="3.73608">
        <ele>561.07</ele>
        <time>2015-02-19T11:31:38Z</time>
      </trkpt>
      <trkpt lat="43.97404" lon="3.73608">
        <ele>562.99</ele>
        <time>2015-02-19T11:31:39Z</time>
      </trkpt>
      <trkpt lat="43.97407" lon="3.73609">
        <ele>561.55</ele>
        <time>2015-02-19T11:31:43Z</time>
      </trkpt>
      <trkpt lat="43.97414" lon="3.7361">
        <ele>561.55</ele>
        <time>2015-02-19T11:31:57Z</time>
      </trkpt>
      <trkpt lat="43.97414" lon="3.7361">
        <ele>558.66</ele>
        <time>2015-02-19T11:31:58Z</time>
      </trkpt>
      <trkpt lat="43.97414" lon="3.7361">
        <ele>559.62</ele>
        <time>2015-02-19T11:31:59Z</time>
      </trkpt>
      <trkpt lat="43.97417" lon="3.73613">
        <ele>558.18</ele>
        <time>2015-02-19T11:32:10Z</time>
      </trkpt>
      <trkpt lat="43.9742" lon="3.73615">
        <ele>557.22</ele>
        <time>2015-02-19T11:32:14Z</time>
      </trkpt>
      <trkpt lat="43.97421" lon="3.73616">
        <ele>558.18</ele>
        <time>2015-02-19T11:32:15Z</time>
      </trkpt>
      <trkpt lat="43.9742" lon="3.73619">
        <ele>556.74</ele>
        <time>2015-02-19T11:32:22Z</time>
      </trkpt>
      <trkpt lat="43.9742" lon="3.73619">
        <ele>558.18</ele>
        <time>2015-02-19T11:32:24Z</time>
      </trkpt>
      <trkpt lat="43.9742" lon="3.73619">
        <ele>554.82</ele>
        <time>2015-02-19T11:32:25Z</time>
      </trkpt>
      <trkpt lat="43.9742" lon="3.73619">
        <ele>555.78</ele>
        <time>2015-02-19T11:32:26Z</time>
      </trkpt>
      <trkpt lat="43.9742" lon="3.73619">
        <ele>555.3</ele>
        <time>2015-02-19T11:32:29Z</time>
      </trkpt>
      <trkpt lat="43.97427" lon="3.73625">
        <ele>550.97</ele>
        <time>2015-02-19T11:32:37Z</time>
      </trkpt>
      <trkpt lat="43.9743" lon="3.73627">
        <ele>550.49</ele>
        <time>2015-02-19T11:32:46Z</time>
      </trkpt>
      <trkpt lat="43.97431" lon="3.73629">
        <ele>552.41</ele>
        <time>2015-02-19T11:32:47Z</time>
      </trkpt>
      <trkpt lat="43.97438" lon="3.73638">
        <ele>549.53</ele>
        <time>2015-02-19T11:32:58Z</time>
      </trkpt>
      <trkpt lat="43.97447" lon="3.73644">
        <ele>546.17</ele>
        <time>2015-02-19T11:33:08Z</time>
      </trkpt>
      <trkpt lat="43.97449" lon="3.73647">
        <ele>546.65</ele>
        <time>2015-02-19T11:33:12Z</time>
      </trkpt>
      <trkpt lat="43.97456" lon="3.73651">
        <ele>546.17</ele>
        <time>2015-02-19T11:33:23Z</time>
      </trkpt>
      <trkpt lat="43.97458" lon="3.73655">
        <ele>544.24</ele>
        <time>2015-02-19T11:33:27Z</time>
      </trkpt>
      <trkpt lat="43.9746" lon="3.73656">
        <ele>543.76</ele>
        <time>2015-02-19T11:33:29Z</time>
      </trkpt>
      <trkpt lat="43.97462" lon="3.73659">
        <ele>541.36</ele>
        <time>2015-02-19T11:33:32Z</time>
      </trkpt>
      <trkpt lat="43.97464" lon="3.7366">
        <ele>543.28</ele>
        <time>2015-02-19T11:33:34Z</time>
      </trkpt>
      <trkpt lat="43.97465" lon="3.73663">
        <ele>540.88</ele>
        <time>2015-02-19T11:33:37Z</time>
      </trkpt>
      <trkpt lat="43.97469" lon="3.7367">
        <ele>540.88</ele>
        <time>2015-02-19T11:33:45Z</time>
      </trkpt>
      <trkpt lat="43.9747" lon="3.73672">
        <ele>540.4</ele>
        <time>2015-02-19T11:33:47Z</time>
      </trkpt>
      <trkpt lat="43.97471" lon="3.73676">
        <ele>536.07</ele>
        <time>2015-02-19T11:33:50Z</time>
      </trkpt>
      <trkpt lat="43.97472" lon="3.73679">
        <ele>539.44</ele>
        <time>2015-02-19T11:33:53Z</time>
      </trkpt>
      <trkpt lat="43.97474" lon="3.73681">
        <ele>537.51</ele>
        <time>2015-02-19T11:33:55Z</time>
      </trkpt>
      <trkpt lat="43.97475" lon="3.73684">
        <ele>536.07</ele>
        <time>2015-02-19T11:33:58Z</time>
      </trkpt>
      <trkpt lat="43.97476" lon="3.73686">
        <ele>537.99</ele>
        <time>2015-02-19T11:34:00Z</time>
      </trkpt>
      <trkpt lat="43.97479" lon="3.7369">
        <ele>536.55</ele>
        <time>2015-02-19T11:34:04Z</time>
      </trkpt>
      <trkpt lat="43.97484" lon="3.73696">
        <ele>533.67</ele>
        <time>2015-02-19T11:34:16Z</time>
      </trkpt>
      <trkpt lat="43.97488" lon="3.73705">
        <ele>532.23</ele>
        <time>2015-02-19T11:34:27Z</time>
      </trkpt>
      <trkpt lat="43.9749" lon="3.73711">
        <ele>529.82</ele>
        <time>2015-02-19T11:34:35Z</time>
      </trkpt>
      <trkpt lat="43.97495" lon="3.73719">
        <ele>529.82</ele>
        <time>2015-02-19T11:34:47Z</time>
      </trkpt>
      <trkpt lat="43.97497" lon="3.73726">
        <ele>526.46</ele>
        <time>2015-02-19T11:34:56Z</time>
      </trkpt>
      <trkpt lat="43.97498" lon="3.73727">
        <ele>528.38</ele>
        <time>2015-02-19T11:34:58Z</time>
      </trkpt>
      <trkpt lat="43.97501" lon="3.7373">
        <ele>525.02</ele>
        <time>2015-02-19T11:35:03Z</time>
      </trkpt>
      <trkpt lat="43.97502" lon="3.73733">
        <ele>529.34</ele>
        <time>2015-02-19T11:35:06Z</time>
      </trkpt>
      <trkpt lat="43.97503" lon="3.73734">
        <ele>525.02</ele>
        <time>2015-02-19T11:35:08Z</time>
      </trkpt>
      <trkpt lat="43.97505" lon="3.73737">
        <ele>528.38</ele>
        <time>2015-02-19T11:35:14Z</time>
      </trkpt>
      <trkpt lat="43.97506" lon="3.73738">
        <ele>525.5</ele>
        <time>2015-02-19T11:35:15Z</time>
      </trkpt>
      <trkpt lat="43.97507" lon="3.73738">
        <ele>524.54</ele>
        <time>2015-02-19T11:35:17Z</time>
      </trkpt>
      <trkpt lat="43.97512" lon="3.73741">
        <ele>523.09</ele>
        <time>2015-02-19T11:35:24Z</time>
      </trkpt>
      <trkpt lat="43.9752" lon="3.73746">
        <ele>521.65</ele>
        <time>2015-02-19T11:35:35Z</time>
      </trkpt>
      <trkpt lat="43.97527" lon="3.73747">
        <ele>520.69</ele>
        <time>2015-02-19T11:35:47Z</time>
      </trkpt>
      <trkpt lat="43.97531" lon="3.73749">
        <ele>522.13</ele>
        <time>2015-02-19T11:35:58Z</time>
      </trkpt>
      <trkpt lat="43.97525" lon="3.73747">
        <ele>522.13</ele>
        <time>2015-02-19T11:36:04Z</time>
      </trkpt>
      <trkpt lat="43.9752" lon="3.73756">
        <ele>520.21</ele>
        <time>2015-02-19T11:36:15Z</time>
      </trkpt>
      <trkpt lat="43.9752" lon="3.73757">
        <ele>519.25</ele>
        <time>2015-02-19T11:36:17Z</time>
      </trkpt>
      <trkpt lat="43.9752" lon="3.73757">
        <ele>520.69</ele>
        <time>2015-02-19T11:36:19Z</time>
      </trkpt>
      <trkpt lat="43.97521" lon="3.7376">
        <ele>518.77</ele>
        <time>2015-02-19T11:36:25Z</time>
      </trkpt>
      <trkpt lat="43.97527" lon="3.73769">
        <ele>518.29</ele>
        <time>2015-02-19T11:36:39Z</time>
      </trkpt>
      <trkpt lat="43.97529" lon="3.73773">
        <ele>516.37</ele>
        <time>2015-02-19T11:36:44Z</time>
      </trkpt>
      <trkpt lat="43.9753" lon="3.73775">
        <ele>517.81</ele>
        <time>2015-02-19T11:36:46Z</time>
      </trkpt>
      <trkpt lat="43.9753" lon="3.73781">
        <ele>515.88</ele>
        <time>2015-02-19T11:36:50Z</time>
      </trkpt>
      <trkpt lat="43.97533" lon="3.73784">
        <ele>514.92</ele>
        <time>2015-02-19T11:36:54Z</time>
      </trkpt>
      <trkpt lat="43.97535" lon="3.73796">
        <ele>516.37</ele>
        <time>2015-02-19T11:37:05Z</time>
      </trkpt>
      <trkpt lat="43.97535" lon="3.73802">
        <ele>515.88</ele>
        <time>2015-02-19T11:37:11Z</time>
      </trkpt>
      <trkpt lat="43.97536" lon="3.7381">
        <ele>513.96</ele>
        <time>2015-02-19T11:37:26Z</time>
      </trkpt>
      <trkpt lat="43.97536" lon="3.7381">
        <ele>516.85</ele>
        <time>2015-02-19T11:37:58Z</time>
      </trkpt>
      <trkpt lat="43.97537" lon="3.7381">
        <ele>513.48</ele>
        <time>2015-02-19T11:38:00Z</time>
      </trkpt>
      <trkpt lat="43.97537" lon="3.7381">
        <ele>514.44</ele>
        <time>2015-02-19T11:38:01Z</time>
      </trkpt>
      <trkpt lat="43.97536" lon="3.73811">
        <ele>513.48</ele>
        <time>2015-02-19T11:38:10Z</time>
      </trkpt>
      <trkpt lat="43.97536" lon="3.73812">
        <ele>513</ele>
        <time>2015-02-19T11:38:26Z</time>
      </trkpt>
      <trkpt lat="43.97536" lon="3.73812">
        <ele>514.44</ele>
        <time>2015-02-19T11:38:28Z</time>
      </trkpt>
      <trkpt lat="43.97542" lon="3.73806">
        <ele>513</ele>
        <time>2015-02-19T11:38:50Z</time>
      </trkpt>
      <trkpt lat="43.97546" lon="3.73808">
        <ele>513</ele>
        <time>2015-02-19T11:38:56Z</time>
      </trkpt>
      <trkpt lat="43.97549" lon="3.73808">
        <ele>515.88</ele>
        <time>2015-02-19T11:38:58Z</time>
      </trkpt>
      <trkpt lat="43.97551" lon="3.73807">
        <ele>512.52</ele>
        <time>2015-02-19T11:39:00Z</time>
      </trkpt>
      <trkpt lat="43.97551" lon="3.73807">
        <ele>513.48</ele>
        <time>2015-02-19T11:39:01Z</time>
      </trkpt>
      <trkpt lat="43.97553" lon="3.73806">
        <ele>515.4</ele>
        <time>2015-02-19T11:39:05Z</time>
      </trkpt>
      <trkpt lat="43.97555" lon="3.73805">
        <ele>512.52</ele>
        <time>2015-02-19T11:39:14Z</time>
      </trkpt>
      <trkpt lat="43.97555" lon="3.73805">
        <ele>512.04</ele>
        <time>2015-02-19T11:39:15Z</time>
      </trkpt>
      <trkpt lat="43.97555" lon="3.73805">
        <ele>515.88</ele>
        <time>2015-02-19T11:39:18Z</time>
      </trkpt>
      <trkpt lat="43.97555" lon="3.73805">
        <ele>513.96</ele>
        <time>2015-02-19T11:39:19Z</time>
      </trkpt>
      <trkpt lat="43.97555" lon="3.73805">
        <ele>513</ele>
        <time>2015-02-19T11:39:25Z</time>
      </trkpt>
      <trkpt lat="43.97554" lon="3.73806">
        <ele>513.48</ele>
        <time>2015-02-19T11:39:41Z</time>
      </trkpt>
      <trkpt lat="43.97552" lon="3.73807">
        <ele>514.92</ele>
        <time>2015-02-19T11:39:59Z</time>
      </trkpt>
      <trkpt lat="43.97552" lon="3.73806">
        <ele>511.56</ele>
        <time>2015-02-19T11:40:11Z</time>
      </trkpt>
      <trkpt lat="43.97552" lon="3.73808">
        <ele>514.44</ele>
        <time>2015-02-19T11:40:14Z</time>
      </trkpt>
      <trkpt lat="43.97553" lon="3.73808">
        <ele>513</ele>
        <time>2015-02-19T11:40:31Z</time>
      </trkpt>
      <trkpt lat="43.97554" lon="3.73806">
        <ele>513</ele>
        <time>2015-02-19T11:40:48Z</time>
      </trkpt>
      <trkpt lat="43.97557" lon="3.73803">
        <ele>514.44</ele>
        <time>2015-02-19T11:41:06Z</time>
      </trkpt>
      <trkpt lat="43.97559" lon="3.73803">
        <ele>512.52</ele>
        <time>2015-02-19T11:41:17Z</time>
      </trkpt>
      <trkpt lat="43.9756" lon="3.73802">
        <ele>512.04</ele>
        <time>2015-02-19T11:41:30Z</time>
      </trkpt>
      <trkpt lat="43.97561" lon="3.73801">
        <ele>513.48</ele>
        <time>2015-02-19T11:41:44Z</time>
      </trkpt>
      <trkpt lat="43.9756" lon="3.73802">
        <ele>513.96</ele>
        <time>2015-02-19T11:42:00Z</time>
      </trkpt>
      <trkpt lat="43.9756" lon="3.73802">
        <ele>511.56</ele>
        <time>2015-02-19T11:42:03Z</time>
      </trkpt>
      <trkpt lat="43.9756" lon="3.73802">
        <ele>514.92</ele>
        <time>2015-02-19T11:42:05Z</time>
      </trkpt>
      <trkpt lat="43.9756" lon="3.73802">
        <ele>511.56</ele>
        <time>2015-02-19T11:42:07Z</time>
      </trkpt>
      <trkpt lat="43.9756" lon="3.73802">
        <ele>511.56</ele>
        <time>2015-02-19T11:42:08Z</time>
      </trkpt>
      <trkpt lat="43.9756" lon="3.738">
        <ele>512.04</ele>
        <time>2015-02-19T11:42:14Z</time>
      </trkpt>
      <trkpt lat="43.9756" lon="3.738">
        <ele>510.6</ele>
        <time>2015-02-19T11:42:21Z</time>
      </trkpt>
      <trkpt lat="43.9756" lon="3.738">
        <ele>513.48</ele>
        <time>2015-02-19T11:42:27Z</time>
      </trkpt>
      <trkpt lat="43.9756" lon="3.738">
        <ele>511.08</ele>
        <time>2015-02-19T11:42:50Z</time>
      </trkpt>
      <trkpt lat="43.97561" lon="3.738">
        <ele>512.52</ele>
        <time>2015-02-19T11:42:53Z</time>
      </trkpt>
      <trkpt lat="43.97561" lon="3.738">
        <ele>513</ele>
        <time>2015-02-19T11:43:15Z</time>
      </trkpt>
      <trkpt lat="43.97561" lon="3.738">
        <ele>511.56</ele>
        <time>2015-02-19T11:43:17Z</time>
      </trkpt>
      <trkpt lat="43.97561" lon="3.738">
        <ele>515.4</ele>
        <time>2015-02-19T11:43:25Z</time>
      </trkpt>
      <trkpt lat="43.97561" lon="3.738">
        <ele>512.04</ele>
        <time>2015-02-19T11:43:27Z</time>
      </trkpt>
      <trkpt lat="43.97561" lon="3.738">
        <ele>512.04</ele>
        <time>2015-02-19T11:43:28Z</time>
      </trkpt>
      <trkpt lat="43.97561" lon="3.738">
        <ele>515.4</ele>
        <time>2015-02-19T11:44:03Z</time>
      </trkpt>
      <trkpt lat="43.97561" lon="3.738">
        <ele>511.08</ele>
        <time>2015-02-19T11:44:05Z</time>
      </trkpt>
      <trkpt lat="43.97561" lon="3.738">
        <ele>512.04</ele>
        <time>2015-02-19T11:44:06Z</time>
      </trkpt>
      <trkpt lat="43.97561" lon="3.738">
        <ele>511.56</ele>
        <time>2015-02-19T11:44:10Z</time>
      </trkpt>
      <trkpt lat="43.97561" lon="3.738">
        <ele>512.04</ele>
        <time>2015-02-19T11:44:12Z</time>
      </trkpt>
      <trkpt lat="43.97561" lon="3.738">
        <ele>513</ele>
        <time>2015-02-19T11:44:24Z</time>
      </trkpt>
      <trkpt lat="43.97561" lon="3.738">
        <ele>510.6</ele>
        <time>2015-02-19T11:44:43Z</time>
      </trkpt>
      <trkpt lat="43.97561" lon="3.738">
        <ele>512.04</ele>
        <time>2015-02-19T11:44:45Z</time>
      </trkpt>
      <trkpt lat="43.97561" lon="3.738">
        <ele>511.56</ele>
        <time>2015-02-19T11:45:10Z</time>
      </trkpt>
      <trkpt lat="43.97561" lon="3.738">
        <ele>512.52</ele>
        <time>2015-02-19T11:45:12Z</time>
      </trkpt>
      <trkpt lat="43.97561" lon="3.738">
        <ele>513.96</ele>
        <time>2015-02-19T11:45:30Z</time>
      </trkpt>
      <trkpt lat="43.97561" lon="3.738">
        <ele>510.6</ele>
        <time>2015-02-19T11:45:33Z</time>
      </trkpt>
      <trkpt lat="43.97561" lon="3.738">
        <ele>511.56</ele>
        <time>2015-02-19T11:45:40Z</time>
      </trkpt>
      <trkpt lat="43.97561" lon="3.738">
        <ele>513</ele>
        <time>2015-02-19T11:45:43Z</time>
      </trkpt>
      <trkpt lat="43.97561" lon="3.738">
        <ele>513</ele>
        <time>2015-02-19T11:45:49Z</time>
      </trkpt>
      <trkpt lat="43.97561" lon="3.738">
        <ele>509.64</ele>
        <time>2015-02-19T11:45:51Z</time>
      </trkpt>
      <trkpt lat="43.97561" lon="3.738">
        <ele>513</ele>
        <time>2015-02-19T11:45:54Z</time>
      </trkpt>
      <trkpt lat="43.97561" lon="3.738">
        <ele>514.44</ele>
        <time>2015-02-19T11:45:56Z</time>
      </trkpt>
      <trkpt lat="43.97561" lon="3.738">
        <ele>510.6</ele>
        <time>2015-02-19T11:46:01Z</time>
      </trkpt>
      <trkpt lat="43.97561" lon="3.738">
        <ele>511.08</ele>
        <time>2015-02-19T11:46:02Z</time>
      </trkpt>
      <trkpt lat="43.97561" lon="3.738">
        <ele>511.56</ele>
        <time>2015-02-19T11:46:32Z</time>
      </trkpt>
      <trkpt lat="43.97561" lon="3.738">
        <ele>513</ele>
        <time>2015-02-19T11:46:34Z</time>
      </trkpt>
      <trkpt lat="43.97561" lon="3.738">
        <ele>512.52</ele>
        <time>2015-02-19T11:46:36Z</time>
      </trkpt>
      <trkpt lat="43.97561" lon="3.738">
        <ele>510.6</ele>
        <time>2015-02-19T11:46:39Z</time>
      </trkpt>
      <trkpt lat="43.97561" lon="3.738">
        <ele>513.96</ele>
        <time>2015-02-19T11:46:42Z</time>
      </trkpt>
      <trkpt lat="43.97561" lon="3.738">
        <ele>513</ele>
        <time>2015-02-19T11:46:43Z</time>
      </trkpt>
      <trkpt lat="43.97561" lon="3.738">
        <ele>512.04</ele>
        <time>2015-02-19T11:46:45Z</time>
      </trkpt>
      <trkpt lat="43.97561" lon="3.738">
        <ele>513.48</ele>
        <time>2015-02-19T11:46:47Z</time>
      </trkpt>
      <trkpt lat="43.97561" lon="3.738">
        <ele>510.6</ele>
        <time>2015-02-19T11:46:53Z</time>
      </trkpt>
      <trkpt lat="43.97561" lon="3.738">
        <ele>512.52</ele>
        <time>2015-02-19T11:46:56Z</time>
      </trkpt>
      <trkpt lat="43.97561" lon="3.738">
        <ele>512.52</ele>
        <time>2015-02-19T11:47:02Z</time>
      </trkpt>
      <trkpt lat="43.97561" lon="3.738">
        <ele>511.08</ele>
        <time>2015-02-19T11:47:17Z</time>
      </trkpt>
      <trkpt lat="43.97561" lon="3.738">
        <ele>514.44</ele>
        <time>2015-02-19T11:47:20Z</time>
      </trkpt>
      <trkpt lat="43.97561" lon="3.738">
        <ele>511.56</ele>
        <time>2015-02-19T11:47:22Z</time>
      </trkpt>
      <trkpt lat="43.97561" lon="3.738">
        <ele>513.48</ele>
        <time>2015-02-19T11:47:24Z</time>
      </trkpt>
      <trkpt lat="43.97561" lon="3.738">
        <ele>512.52</ele>
        <time>2015-02-19T11:47:26Z</time>
      </trkpt>
      <trkpt lat="43.97561" lon="3.738">
        <ele>513.96</ele>
        <time>2015-02-19T11:47:46Z</time>
      </trkpt>
      <trkpt lat="43.97561" lon="3.738">
        <ele>510.6</ele>
        <time>2015-02-19T11:47:55Z</time>
      </trkpt>
      <trkpt lat="43.97561" lon="3.738">
        <ele>512.52</ele>
        <time>2015-02-19T11:48:06Z</time>
      </trkpt>
      <trkpt lat="43.97561" lon="3.73798">
        <ele>512.04</ele>
        <time>2015-02-19T11:49:04Z</time>
      </trkpt>
      <trkpt lat="43.97561" lon="3.73798">
        <ele>512.04</ele>
        <time>2015-02-19T11:49:29Z</time>
      </trkpt>
      <trkpt lat="43.97561" lon="3.73799">
        <ele>512.52</ele>
        <time>2015-02-19T11:50:00Z</time>
      </trkpt>
      <trkpt lat="43.97561" lon="3.73799">
        <ele>513</ele>
        <time>2015-02-19T11:50:11Z</time>
      </trkpt>
      <trkpt lat="43.97561" lon="3.73799">
        <ele>512.04</ele>
        <time>2015-02-19T11:50:13Z</time>
      </trkpt>
      <trkpt lat="43.97561" lon="3.73799">
        <ele>514.92</ele>
        <time>2015-02-19T11:50:17Z</time>
      </trkpt>
      <trkpt lat="43.97561" lon="3.73799">
        <ele>511.56</ele>
        <time>2015-02-19T11:50:21Z</time>
      </trkpt>
      <trkpt lat="43.97561" lon="3.73799">
        <ele>512.04</ele>
        <time>2015-02-19T11:50:33Z</time>
      </trkpt>
      <trkpt lat="43.97561" lon="3.73799">
        <ele>513.48</ele>
        <time>2015-02-19T11:50:37Z</time>
      </trkpt>
      <trkpt lat="43.97561" lon="3.73798">
        <ele>513</ele>
        <time>2015-02-19T11:51:19Z</time>
      </trkpt>
      <trkpt lat="43.97561" lon="3.73799">
        <ele>512.04</ele>
        <time>2015-02-19T11:52:27Z</time>
      </trkpt>
      <trkpt lat="43.97561" lon="3.73798">
        <ele>515.88</ele>
        <time>2015-02-19T11:53:30Z</time>
      </trkpt>
      <trkpt lat="43.97561" lon="3.73798">
        <ele>512.04</ele>
        <time>2015-02-19T11:53:33Z</time>
      </trkpt>
      <trkpt lat="43.97561" lon="3.73798">
        <ele>512.52</ele>
        <time>2015-02-19T11:53:37Z</time>
      </trkpt>
      <trkpt lat="43.97561" lon="3.73798">
        <ele>514.44</ele>
        <time>2015-02-19T11:53:41Z</time>
      </trkpt>
      <trkpt lat="43.97561" lon="3.73798">
        <ele>511.56</ele>
        <time>2015-02-19T11:53:49Z</time>
      </trkpt>
      <trkpt lat="43.97561" lon="3.73798">
        <ele>513.96</ele>
        <time>2015-02-19T11:53:54Z</time>
      </trkpt>
      <trkpt lat="43.97561" lon="3.738">
        <ele>513</ele>
        <time>2015-02-19T11:54:23Z</time>
      </trkpt>
      <trkpt lat="43.97561" lon="3.738">
        <ele>514.92</ele>
        <time>2015-02-19T11:54:29Z</time>
      </trkpt>
      <trkpt lat="43.97561" lon="3.738">
        <ele>513.96</ele>
        <time>2015-02-19T11:54:38Z</time>
      </trkpt>
      <trkpt lat="43.97562" lon="3.738">
        <ele>514.44</ele>
        <time>2015-02-19T11:55:02Z</time>
      </trkpt>
      <trkpt lat="43.97562" lon="3.738">
        <ele>514.92</ele>
        <time>2015-02-19T11:55:23Z</time>
      </trkpt>
      <trkpt lat="43.97562" lon="3.73799">
        <ele>512.04</ele>
        <time>2015-02-19T11:55:44Z</time>
      </trkpt>
      <trkpt lat="43.97562" lon="3.73799">
        <ele>515.88</ele>
        <time>2015-02-19T11:55:47Z</time>
      </trkpt>
      <trkpt lat="43.97562" lon="3.73799">
        <ele>512.52</ele>
        <time>2015-02-19T11:55:52Z</time>
      </trkpt>
      <trkpt lat="43.97562" lon="3.73799">
        <ele>515.88</ele>
        <time>2015-02-19T11:56:12Z</time>
      </trkpt>
      <trkpt lat="43.97562" lon="3.73799">
        <ele>513</ele>
        <time>2015-02-19T11:56:29Z</time>
      </trkpt>
      <trkpt lat="43.97562" lon="3.73799">
        <ele>516.37</ele>
        <time>2015-02-19T11:56:31Z</time>
      </trkpt>
      <trkpt lat="43.97562" lon="3.73799">
        <ele>514.92</ele>
        <time>2015-02-19T11:56:32Z</time>
      </trkpt>
      <trkpt lat="43.97562" lon="3.73799">
        <ele>514.92</ele>
        <time>2015-02-19T11:57:05Z</time>
      </trkpt>
      <trkpt lat="43.97562" lon="3.73799">
        <ele>514.92</ele>
        <time>2015-02-19T11:57:34Z</time>
      </trkpt>
      <trkpt lat="43.97562" lon="3.73799">
        <ele>513.96</ele>
        <time>2015-02-19T11:57:55Z</time>
      </trkpt>
      <trkpt lat="43.97562" lon="3.73799">
        <ele>513.96</ele>
        <time>2015-02-19T11:59:51Z</time>
      </trkpt>
      <trkpt lat="43.97562" lon="3.73799">
        <ele>514.44</ele>
        <time>2015-02-19T11:59:59Z</time>
      </trkpt>
      <trkpt lat="43.97562" lon="3.73798">
        <ele>514.44</ele>
        <time>2015-02-19T12:00:35Z</time>
      </trkpt>
      <trkpt lat="43.97562" lon="3.73798">
        <ele>514.44</ele>
        <time>2015-02-19T12:00:39Z</time>
      </trkpt>
      <trkpt lat="43.97562" lon="3.73798">
        <ele>515.4</ele>
        <time>2015-02-19T12:00:47Z</time>
      </trkpt>
      <trkpt lat="43.97562" lon="3.73798">
        <ele>515.4</ele>
        <time>2015-02-19T12:01:00Z</time>
      </trkpt>
      <trkpt lat="43.97562" lon="3.73799">
        <ele>514.92</ele>
        <time>2015-02-19T12:01:20Z</time>
      </trkpt>
      <trkpt lat="43.97562" lon="3.73799">
        <ele>514.44</ele>
        <time>2015-02-19T12:01:34Z</time>
      </trkpt>
      <trkpt lat="43.97562" lon="3.73799">
        <ele>515.4</ele>
        <time>2015-02-19T12:01:36Z</time>
      </trkpt>
      <trkpt lat="43.97562" lon="3.73799">
        <ele>515.88</ele>
        <time>2015-02-19T12:01:43Z</time>
      </trkpt>
      <trkpt lat="43.97561" lon="3.73798">
        <ele>513.96</ele>
        <time>2015-02-19T12:04:02Z</time>
      </trkpt>
      <trkpt lat="43.97561" lon="3.73798">
        <ele>515.4</ele>
        <time>2015-02-19T12:04:17Z</time>
      </trkpt>
      <trkpt lat="43.97561" lon="3.73798">
        <ele>514.44</ele>
        <time>2015-02-19T12:04:37Z</time>
      </trkpt>
      <trkpt lat="43.97561" lon="3.73798">
        <ele>515.88</ele>
        <time>2015-02-19T12:04:39Z</time>
      </trkpt>
      <trkpt lat="43.97561" lon="3.73798">
        <ele>514.44</ele>
        <time>2015-02-19T12:04:41Z</time>
      </trkpt>
      <trkpt lat="43.97561" lon="3.73798">
        <ele>514.92</ele>
        <time>2015-02-19T12:04:56Z</time>
      </trkpt>
      <trkpt lat="43.97561" lon="3.73798">
        <ele>513.96</ele>
        <time>2015-02-19T12:05:18Z</time>
      </trkpt>
      <trkpt lat="43.97561" lon="3.73798">
        <ele>513.96</ele>
        <time>2015-02-19T12:06:04Z</time>
      </trkpt>
      <trkpt lat="43.97561" lon="3.73798">
        <ele>514.92</ele>
        <time>2015-02-19T12:06:41Z</time>
      </trkpt>
      <trkpt lat="43.97561" lon="3.73798">
        <ele>513.96</ele>
        <time>2015-02-19T12:06:50Z</time>
      </trkpt>
      <trkpt lat="43.97561" lon="3.73798">
        <ele>514.44</ele>
        <time>2015-02-19T12:07:31Z</time>
      </trkpt>
      <trkpt lat="43.97561" lon="3.73798">
        <ele>516.37</ele>
        <time>2015-02-19T12:07:58Z</time>
      </trkpt>
      <trkpt lat="43.97561" lon="3.73798">
        <ele>514.44</ele>
        <time>2015-02-19T12:08:00Z</time>
      </trkpt>
      <trkpt lat="43.97562" lon="3.73798">
        <ele>515.4</ele>
        <time>2015-02-19T12:08:38Z</time>
      </trkpt>
      <trkpt lat="43.97561" lon="3.73799">
        <ele>513.96</ele>
        <time>2015-02-19T12:08:59Z</time>
      </trkpt>
      <trkpt lat="43.97561" lon="3.73799">
        <ele>515.88</ele>
        <time>2015-02-19T12:09:01Z</time>
      </trkpt>
      <trkpt lat="43.97561" lon="3.738">
        <ele>513.96</ele>
        <time>2015-02-19T12:09:37Z</time>
      </trkpt>
      <trkpt lat="43.97561" lon="3.738">
        <ele>515.88</ele>
        <time>2015-02-19T12:09:43Z</time>
      </trkpt>
      <trkpt lat="43.97561" lon="3.738">
        <ele>514.44</ele>
        <time>2015-02-19T12:09:53Z</time>
      </trkpt>
      <trkpt lat="43.97562" lon="3.738">
        <ele>513.96</ele>
        <time>2015-02-19T12:11:30Z</time>
      </trkpt>
      <trkpt lat="43.97561" lon="3.73802">
        <ele>517.33</ele>
        <time>2015-02-19T12:11:39Z</time>
      </trkpt>
      <trkpt lat="43.97561" lon="3.73803">
        <ele>515.88</ele>
        <time>2015-02-19T12:11:41Z</time>
      </trkpt>
      <trkpt lat="43.97561" lon="3.73803">
        <ele>516.37</ele>
        <time>2015-02-19T12:11:53Z</time>
      </trkpt>
      <trkpt lat="43.97561" lon="3.73803">
        <ele>514.92</ele>
        <time>2015-02-19T12:11:55Z</time>
      </trkpt>
      <trkpt lat="43.97561" lon="3.73803">
        <ele>514.44</ele>
        <time>2015-02-19T12:12:19Z</time>
      </trkpt>
      <trkpt lat="43.97561" lon="3.73803">
        <ele>515.88</ele>
        <time>2015-02-19T12:12:23Z</time>
      </trkpt>
      <trkpt lat="43.97561" lon="3.73803">
        <ele>515.4</ele>
        <time>2015-02-19T12:12:40Z</time>
      </trkpt>
      <trkpt lat="43.97561" lon="3.73804">
        <ele>513.96</ele>
        <time>2015-02-19T12:13:12Z</time>
      </trkpt>
      <trkpt lat="43.97561" lon="3.73804">
        <ele>513.48</ele>
        <time>2015-02-19T12:14:21Z</time>
      </trkpt>
      <trkpt lat="43.97561" lon="3.73804">
        <ele>516.85</ele>
        <time>2015-02-19T12:14:24Z</time>
      </trkpt>
      <trkpt lat="43.9756" lon="3.73804">
        <ele>512.52</ele>
        <time>2015-02-19T12:14:33Z</time>
      </trkpt>
      <trkpt lat="43.9756" lon="3.73804">
        <ele>515.4</ele>
        <time>2015-02-19T12:14:38Z</time>
      </trkpt>
      <trkpt lat="43.9756" lon="3.73804">
        <ele>515.88</ele>
        <time>2015-02-19T12:15:04Z</time>
      </trkpt>
      <trkpt lat="43.97561" lon="3.73804">
        <ele>514.44</ele>
        <time>2015-02-19T12:15:17Z</time>
      </trkpt>
      <trkpt lat="43.97561" lon="3.73804">
        <ele>513.48</ele>
        <time>2015-02-19T12:15:44Z</time>
      </trkpt>
      <trkpt lat="43.97561" lon="3.73804">
        <ele>514.44</ele>
        <time>2015-02-19T12:15:45Z</time>
      </trkpt>
      <trkpt lat="43.97561" lon="3.73803">
        <ele>513.96</ele>
        <time>2015-02-19T12:17:48Z</time>
      </trkpt>
      <trkpt lat="43.97561" lon="3.73802">
        <ele>514.44</ele>
        <time>2015-02-19T12:18:33Z</time>
      </trkpt>
      <trkpt lat="43.97561" lon="3.73802">
        <ele>513.96</ele>
        <time>2015-02-19T12:19:09Z</time>
      </trkpt>
      <trkpt lat="43.97561" lon="3.73802">
        <ele>514.92</ele>
        <time>2015-02-19T12:19:17Z</time>
      </trkpt>
      <trkpt lat="43.97561" lon="3.73802">
        <ele>513.96</ele>
        <time>2015-02-19T12:20:03Z</time>
      </trkpt>
      <trkpt lat="43.97562" lon="3.73801">
        <ele>514.92</ele>
        <time>2015-02-19T12:20:25Z</time>
      </trkpt>
      <trkpt lat="43.97562" lon="3.73801">
        <ele>512.52</ele>
        <time>2015-02-19T12:20:41Z</time>
      </trkpt>
      <trkpt lat="43.97562" lon="3.73801">
        <ele>513.48</ele>
        <time>2015-02-19T12:20:43Z</time>
      </trkpt>
      <trkpt lat="43.97561" lon="3.73801">
        <ele>513.96</ele>
        <time>2015-02-19T12:21:22Z</time>
      </trkpt>
      <trkpt lat="43.97561" lon="3.73801">
        <ele>514.44</ele>
        <time>2015-02-19T12:21:30Z</time>
      </trkpt>
      <trkpt lat="43.97561" lon="3.73801">
        <ele>514.44</ele>
        <time>2015-02-19T12:21:38Z</time>
      </trkpt>
      <trkpt lat="43.97562" lon="3.73798">
        <ele>513.48</ele>
        <time>2015-02-19T12:22:00Z</time>
      </trkpt>
      <trkpt lat="43.97566" lon="3.73796">
        <ele>513.48</ele>
        <time>2015-02-19T12:22:13Z</time>
      </trkpt>
      <trkpt lat="43.97565" lon="3.738">
        <ele>512.52</ele>
        <time>2015-02-19T12:22:22Z</time>
      </trkpt>
      <trkpt lat="43.97565" lon="3.73802">
        <ele>510.6</ele>
        <time>2015-02-19T12:22:37Z</time>
      </trkpt>
      <trkpt lat="43.97567" lon="3.73809">
        <ele>511.08</ele>
        <time>2015-02-19T12:22:51Z</time>
      </trkpt>
      <trkpt lat="43.97569" lon="3.73816">
        <ele>508.67</ele>
        <time>2015-02-19T12:23:02Z</time>
      </trkpt>
      <trkpt lat="43.97571" lon="3.73815">
        <ele>507.71</ele>
        <time>2015-02-19T12:23:14Z</time>
      </trkpt>
      <trkpt lat="43.97573" lon="3.73805">
        <ele>505.79</ele>
        <time>2015-02-19T12:23:27Z</time>
      </trkpt>
      <trkpt lat="43.97574" lon="3.73801">
        <ele>505.79</ele>
        <time>2015-02-19T12:23:32Z</time>
      </trkpt>
      <trkpt lat="43.97577" lon="3.73792">
        <ele>505.31</ele>
        <time>2015-02-19T12:23:47Z</time>
      </trkpt>
      <trkpt lat="43.97578" lon="3.73787">
        <ele>502.43</ele>
        <time>2015-02-19T12:23:55Z</time>
      </trkpt>
      <trkpt lat="43.9758" lon="3.7378">
        <ele>502.91</ele>
        <time>2015-02-19T12:24:07Z</time>
      </trkpt>
      <trkpt lat="43.97581" lon="3.73777">
        <ele>500.98</ele>
        <time>2015-02-19T12:24:14Z</time>
      </trkpt>
      <trkpt lat="43.97583" lon="3.73775">
        <ele>501.46</ele>
        <time>2015-02-19T12:24:35Z</time>
      </trkpt>
      <trkpt lat="43.97583" lon="3.73775">
        <ele>500.02</ele>
        <time>2015-02-19T12:24:39Z</time>
      </trkpt>
      <trkpt lat="43.97583" lon="3.73775">
        <ele>498.1</ele>
        <time>2015-02-19T12:24:49Z</time>
      </trkpt>
      <trkpt lat="43.97584" lon="3.73777">
        <ele>499.54</ele>
        <time>2015-02-19T12:24:51Z</time>
      </trkpt>
      <trkpt lat="43.97583" lon="3.73781">
        <ele>499.54</ele>
        <time>2015-02-19T12:24:56Z</time>
      </trkpt>
      <trkpt lat="43.97583" lon="3.73797">
        <ele>500.98</ele>
        <time>2015-02-19T12:25:11Z</time>
      </trkpt>
      <trkpt lat="43.97583" lon="3.73799">
        <ele>500.98</ele>
        <time>2015-02-19T12:25:16Z</time>
      </trkpt>
      <trkpt lat="43.97583" lon="3.73799">
        <ele>499.54</ele>
        <time>2015-02-19T12:25:18Z</time>
      </trkpt>
      <trkpt lat="43.97583" lon="3.73807">
        <ele>498.58</ele>
        <time>2015-02-19T12:25:31Z</time>
      </trkpt>
      <trkpt lat="43.97584" lon="3.73809">
        <ele>495.7</ele>
        <time>2015-02-19T12:25:35Z</time>
      </trkpt>
      <trkpt lat="43.97584" lon="3.7381">
        <ele>497.62</ele>
        <time>2015-02-19T12:25:37Z</time>
      </trkpt>
      <trkpt lat="43.97585" lon="3.73817">
        <ele>494.26</ele>
        <time>2015-02-19T12:25:47Z</time>
      </trkpt>
      <trkpt lat="43.97585" lon="3.73823">
        <ele>494.74</ele>
        <time>2015-02-19T12:25:56Z</time>
      </trkpt>
      <trkpt lat="43.97585" lon="3.73825">
        <ele>496.18</ele>
        <time>2015-02-19T12:25:58Z</time>
      </trkpt>
      <trkpt lat="43.97588" lon="3.73832">
        <ele>492.81</ele>
        <time>2015-02-19T12:26:09Z</time>
      </trkpt>
      <trkpt lat="43.97588" lon="3.73836">
        <ele>492.81</ele>
        <time>2015-02-19T12:26:14Z</time>
      </trkpt>
      <trkpt lat="43.97588" lon="3.73843">
        <ele>493.29</ele>
        <time>2015-02-19T12:26:30Z</time>
      </trkpt>
      <trkpt lat="43.97589" lon="3.73857">
        <ele>491.85</ele>
        <time>2015-02-19T12:26:43Z</time>
      </trkpt>
      <trkpt lat="43.97588" lon="3.7386">
        <ele>491.37</ele>
        <time>2015-02-19T12:26:45Z</time>
      </trkpt>
      <trkpt lat="43.97587" lon="3.73861">
        <ele>494.26</ele>
        <time>2015-02-19T12:26:47Z</time>
      </trkpt>
      <trkpt lat="43.97587" lon="3.73878">
        <ele>489.93</ele>
        <time>2015-02-19T12:27:01Z</time>
      </trkpt>
      <trkpt lat="43.97587" lon="3.73885">
        <ele>488.97</ele>
        <time>2015-02-19T12:27:10Z</time>
      </trkpt>
      <trkpt lat="43.97587" lon="3.73899">
        <ele>488.49</ele>
        <time>2015-02-19T12:27:23Z</time>
      </trkpt>
      <trkpt lat="43.97588" lon="3.73903">
        <ele>485.6</ele>
        <time>2015-02-19T12:27:29Z</time>
      </trkpt>
      <trkpt lat="43.97586" lon="3.73912">
        <ele>484.64</ele>
        <time>2015-02-19T12:27:42Z</time>
      </trkpt>
      <trkpt lat="43.97586" lon="3.73919">
        <ele>483.2</ele>
        <time>2015-02-19T12:27:47Z</time>
      </trkpt>
      <trkpt lat="43.97587" lon="3.73925">
        <ele>482.72</ele>
        <time>2015-02-19T12:27:52Z</time>
      </trkpt>
      <trkpt lat="43.97588" lon="3.73934">
        <ele>482.72</ele>
        <time>2015-02-19T12:28:01Z</time>
      </trkpt>
      <trkpt lat="43.97588" lon="3.7394">
        <ele>481.76</ele>
        <time>2015-02-19T12:28:05Z</time>
      </trkpt>
      <trkpt lat="43.97588" lon="3.73941">
        <ele>485.12</ele>
        <time>2015-02-19T12:28:06Z</time>
      </trkpt>
      <trkpt lat="43.97589" lon="3.73958">
        <ele>482.24</ele>
        <time>2015-02-19T12:28:20Z</time>
      </trkpt>
      <trkpt lat="43.9759" lon="3.73963">
        <ele>480.32</ele>
        <time>2015-02-19T12:28:25Z</time>
      </trkpt>
      <trkpt lat="43.97589" lon="3.73972">
        <ele>478.39</ele>
        <time>2015-02-19T12:28:33Z</time>
      </trkpt>
      <trkpt lat="43.97587" lon="3.73985">
        <ele>479.35</ele>
        <time>2015-02-19T12:28:47Z</time>
      </trkpt>
      <trkpt lat="43.97588" lon="3.73994">
        <ele>476.47</ele>
        <time>2015-02-19T12:28:58Z</time>
      </trkpt>
      <trkpt lat="43.97586" lon="3.74008">
        <ele>477.43</ele>
        <time>2015-02-19T12:29:09Z</time>
      </trkpt>
      <trkpt lat="43.97586" lon="3.74011">
        <ele>476.47</ele>
        <time>2015-02-19T12:29:11Z</time>
      </trkpt>
      <trkpt lat="43.97585" lon="3.74014">
        <ele>475.03</ele>
        <time>2015-02-19T12:29:14Z</time>
      </trkpt>
      <trkpt lat="43.97584" lon="3.74023">
        <ele>471.66</ele>
        <time>2015-02-19T12:29:21Z</time>
      </trkpt>
      <trkpt lat="43.97584" lon="3.74024">
        <ele>472.14</ele>
        <time>2015-02-19T12:29:22Z</time>
      </trkpt>
      <trkpt lat="43.97585" lon="3.74038">
        <ele>470.7</ele>
        <time>2015-02-19T12:29:35Z</time>
      </trkpt>
      <trkpt lat="43.97584" lon="3.74049">
        <ele>469.74</ele>
        <time>2015-02-19T12:29:45Z</time>
      </trkpt>
      <trkpt lat="43.97584" lon="3.74058">
        <ele>468.3</ele>
        <time>2015-02-19T12:29:59Z</time>
      </trkpt>
      <trkpt lat="43.97584" lon="3.74059">
        <ele>467.82</ele>
        <time>2015-02-19T12:30:00Z</time>
      </trkpt>
      <trkpt lat="43.97584" lon="3.74064">
        <ele>468.78</ele>
        <time>2015-02-19T12:30:03Z</time>
      </trkpt>
      <trkpt lat="43.97584" lon="3.74068">
        <ele>466.38</ele>
        <time>2015-02-19T12:30:05Z</time>
      </trkpt>
      <trkpt lat="43.97585" lon="3.7408">
        <ele>467.82</ele>
        <time>2015-02-19T12:30:12Z</time>
      </trkpt>
      <trkpt lat="43.97586" lon="3.74101">
        <ele>463.97</ele>
        <time>2015-02-19T12:30:24Z</time>
      </trkpt>
      <trkpt lat="43.97586" lon="3.74103">
        <ele>467.34</ele>
        <time>2015-02-19T12:30:26Z</time>
      </trkpt>
      <trkpt lat="43.97585" lon="3.74103">
        <ele>467.34</ele>
        <time>2015-02-19T12:30:27Z</time>
      </trkpt>
      <trkpt lat="43.97585" lon="3.74105">
        <ele>463.97</ele>
        <time>2015-02-19T12:30:30Z</time>
      </trkpt>
      <trkpt lat="43.97584" lon="3.74115">
        <ele>463.97</ele>
        <time>2015-02-19T12:30:42Z</time>
      </trkpt>
      <trkpt lat="43.97588" lon="3.74126">
        <ele>462.05</ele>
        <time>2015-02-19T12:30:55Z</time>
      </trkpt>
      <trkpt lat="43.97588" lon="3.74127">
        <ele>460.61</ele>
        <time>2015-02-19T12:30:57Z</time>
      </trkpt>
      <trkpt lat="43.9759" lon="3.74131">
        <ele>463.97</ele>
        <time>2015-02-19T12:31:03Z</time>
      </trkpt>
      <trkpt lat="43.9759" lon="3.74133">
        <ele>460.13</ele>
        <time>2015-02-19T12:31:04Z</time>
      </trkpt>
      <trkpt lat="43.9759" lon="3.74134">
        <ele>460.13</ele>
        <time>2015-02-19T12:31:05Z</time>
      </trkpt>
      <trkpt lat="43.97591" lon="3.74135">
        <ele>462.05</ele>
        <time>2015-02-19T12:31:07Z</time>
      </trkpt>
      <trkpt lat="43.97592" lon="3.74145">
        <ele>458.69</ele>
        <time>2015-02-19T12:31:16Z</time>
      </trkpt>
      <trkpt lat="43.97591" lon="3.74146">
        <ele>458.69</ele>
        <time>2015-02-19T12:31:22Z</time>
      </trkpt>
      <trkpt lat="43.9759" lon="3.74152">
        <ele>459.17</ele>
        <time>2015-02-19T12:31:37Z</time>
      </trkpt>
      <trkpt lat="43.97589" lon="3.74156">
        <ele>456.76</ele>
        <time>2015-02-19T12:31:40Z</time>
      </trkpt>
      <trkpt lat="43.97589" lon="3.74159">
        <ele>460.13</ele>
        <time>2015-02-19T12:31:42Z</time>
      </trkpt>
      <trkpt lat="43.97589" lon="3.74161">
        <ele>456.28</ele>
        <time>2015-02-19T12:31:45Z</time>
      </trkpt>
      <trkpt lat="43.97589" lon="3.74161">
        <ele>459.65</ele>
        <time>2015-02-19T12:31:46Z</time>
      </trkpt>
      <trkpt lat="43.97589" lon="3.74161">
        <ele>457.24</ele>
        <time>2015-02-19T12:31:49Z</time>
      </trkpt>
      <trkpt lat="43.97589" lon="3.74164">
        <ele>456.76</ele>
        <time>2015-02-19T12:32:02Z</time>
      </trkpt>
      <trkpt lat="43.9759" lon="3.74171">
        <ele>456.76</ele>
        <time>2015-02-19T12:32:11Z</time>
      </trkpt>
      <trkpt lat="43.97593" lon="3.74179">
        <ele>456.28</ele>
        <time>2015-02-19T12:32:16Z</time>
      </trkpt>
      <trkpt lat="43.97595" lon="3.74197">
        <ele>452.92</ele>
        <time>2015-02-19T12:32:27Z</time>
      </trkpt>
      <trkpt lat="43.97593" lon="3.74202">
        <ele>454.84</ele>
        <time>2015-02-19T12:32:32Z</time>
      </trkpt>
      <trkpt lat="43.97593" lon="3.74208">
        <ele>452.92</ele>
        <time>2015-02-19T12:32:37Z</time>
      </trkpt>
      <trkpt lat="43.97592" lon="3.74212">
        <ele>455.32</ele>
        <time>2015-02-19T12:32:40Z</time>
      </trkpt>
      <trkpt lat="43.97591" lon="3.74216">
        <ele>452.92</ele>
        <time>2015-02-19T12:32:43Z</time>
      </trkpt>
      <trkpt lat="43.97591" lon="3.74217">
        <ele>453.4</ele>
        <time>2015-02-19T12:32:44Z</time>
      </trkpt>
      <trkpt lat="43.97591" lon="3.74221">
        <ele>454.84</ele>
        <time>2015-02-19T12:32:47Z</time>
      </trkpt>
      <trkpt lat="43.97591" lon="3.74227">
        <ele>452.92</ele>
        <time>2015-02-19T12:32:50Z</time>
      </trkpt>
      <trkpt lat="43.97593" lon="3.74249">
        <ele>453.4</ele>
        <time>2015-02-19T12:33:03Z</time>
      </trkpt>
      <trkpt lat="43.97593" lon="3.74254">
        <ele>452.92</ele>
        <time>2015-02-19T12:33:07Z</time>
      </trkpt>
      <trkpt lat="43.97592" lon="3.74257">
        <ele>450.52</ele>
        <time>2015-02-19T12:33:09Z</time>
      </trkpt>
      <trkpt lat="43.97592" lon="3.74259">
        <ele>451.48</ele>
        <time>2015-02-19T12:33:10Z</time>
      </trkpt>
      <trkpt lat="43.97592" lon="3.74261">
        <ele>451.48</ele>
        <time>2015-02-19T12:33:12Z</time>
      </trkpt>
      <trkpt lat="43.97591" lon="3.74268">
        <ele>452.44</ele>
        <time>2015-02-19T12:33:17Z</time>
      </trkpt>
      <trkpt lat="43.97591" lon="3.74271">
        <ele>449.55</ele>
        <time>2015-02-19T12:33:19Z</time>
      </trkpt>
      <trkpt lat="43.97592" lon="3.74279">
        <ele>449.55</ele>
        <time>2015-02-19T12:33:25Z</time>
      </trkpt>
      <trkpt lat="43.9759" lon="3.74293">
        <ele>452.44</ele>
        <time>2015-02-19T12:33:35Z</time>
      </trkpt>
      <trkpt lat="43.9759" lon="3.74295">
        <ele>449.55</ele>
        <time>2015-02-19T12:33:36Z</time>
      </trkpt>
      <trkpt lat="43.9759" lon="3.74297">
        <ele>449.55</ele>
        <time>2015-02-19T12:33:37Z</time>
      </trkpt>
      <trkpt lat="43.97591" lon="3.74301">
        <ele>448.11</ele>
        <time>2015-02-19T12:33:40Z</time>
      </trkpt>
      <trkpt lat="43.97594" lon="3.74312">
        <ele>447.63</ele>
        <time>2015-02-19T12:33:49Z</time>
      </trkpt>
      <trkpt lat="43.97595" lon="3.74328">
        <ele>445.71</ele>
        <time>2015-02-19T12:34:01Z</time>
      </trkpt>
      <trkpt lat="43.97595" lon="3.74331">
        <ele>449.07</ele>
        <time>2015-02-19T12:34:06Z</time>
      </trkpt>
      <trkpt lat="43.97595" lon="3.74332">
        <ele>448.11</ele>
        <time>2015-02-19T12:34:07Z</time>
      </trkpt>
      <trkpt lat="43.97595" lon="3.74338">
        <ele>444.27</ele>
        <time>2015-02-19T12:34:11Z</time>
      </trkpt>
      <trkpt lat="43.97593" lon="3.74345">
        <ele>444.27</ele>
        <time>2015-02-19T12:34:17Z</time>
      </trkpt>
      <trkpt lat="43.97595" lon="3.74349">
        <ele>445.71</ele>
        <time>2015-02-19T12:34:22Z</time>
      </trkpt>
      <trkpt lat="43.97595" lon="3.74357">
        <ele>442.34</ele>
        <time>2015-02-19T12:34:30Z</time>
      </trkpt>
      <trkpt lat="43.97597" lon="3.74362">
        <ele>443.79</ele>
        <time>2015-02-19T12:34:37Z</time>
      </trkpt>
      <trkpt lat="43.97598" lon="3.74365">
        <ele>442.34</ele>
        <time>2015-02-19T12:34:42Z</time>
      </trkpt>
      <trkpt lat="43.97599" lon="3.74366">
        <ele>441.86</ele>
        <time>2015-02-19T12:34:43Z</time>
      </trkpt>
      <trkpt lat="43.97602" lon="3.74374">
        <ele>439.46</ele>
        <time>2015-02-19T12:34:49Z</time>
      </trkpt>
      <trkpt lat="43.97603" lon="3.74375">
        <ele>442.82</ele>
        <time>2015-02-19T12:34:50Z</time>
      </trkpt>
      <trkpt lat="43.97603" lon="3.74377">
        <ele>441.38</ele>
        <time>2015-02-19T12:34:51Z</time>
      </trkpt>
      <trkpt lat="43.97604" lon="3.74379">
        <ele>439.46</ele>
        <time>2015-02-19T12:34:53Z</time>
      </trkpt>
      <trkpt lat="43.97605" lon="3.74382">
        <ele>441.38</ele>
        <time>2015-02-19T12:34:55Z</time>
      </trkpt>
      <trkpt lat="43.97605" lon="3.74384">
        <ele>439.94</ele>
        <time>2015-02-19T12:34:57Z</time>
      </trkpt>
      <trkpt lat="43.97606" lon="3.74388">
        <ele>441.38</ele>
        <time>2015-02-19T12:35:00Z</time>
      </trkpt>
      <trkpt lat="43.97607" lon="3.7439">
        <ele>438.02</ele>
        <time>2015-02-19T12:35:01Z</time>
      </trkpt>
      <trkpt lat="43.97607" lon="3.74391">
        <ele>439.94</ele>
        <time>2015-02-19T12:35:02Z</time>
      </trkpt>
      <trkpt lat="43.97607" lon="3.74397">
        <ele>438.5</ele>
        <time>2015-02-19T12:35:06Z</time>
      </trkpt>
      <trkpt lat="43.97609" lon="3.74405">
        <ele>436.1</ele>
        <time>2015-02-19T12:35:19Z</time>
      </trkpt>
      <trkpt lat="43.97609" lon="3.74406">
        <ele>436.1</ele>
        <time>2015-02-19T12:35:20Z</time>
      </trkpt>
      <trkpt lat="43.9761" lon="3.74403">
        <ele>439.46</ele>
        <time>2015-02-19T12:35:23Z</time>
      </trkpt>
      <trkpt lat="43.97612" lon="3.74399">
        <ele>436.1</ele>
        <time>2015-02-19T12:35:29Z</time>
      </trkpt>
      <trkpt lat="43.97617" lon="3.74389">
        <ele>432.73</ele>
        <time>2015-02-19T12:35:41Z</time>
      </trkpt>
      <trkpt lat="43.97617" lon="3.74388">
        <ele>432.73</ele>
        <time>2015-02-19T12:35:42Z</time>
      </trkpt>
      <trkpt lat="43.97619" lon="3.74378">
        <ele>431.29</ele>
        <time>2015-02-19T12:35:54Z</time>
      </trkpt>
      <trkpt lat="43.9762" lon="3.74375">
        <ele>434.65</ele>
        <time>2015-02-19T12:35:59Z</time>
      </trkpt>
      <trkpt lat="43.9762" lon="3.74375">
        <ele>430.81</ele>
        <time>2015-02-19T12:36:00Z</time>
      </trkpt>
      <trkpt lat="43.9762" lon="3.74375">
        <ele>429.37</ele>
        <time>2015-02-19T12:36:02Z</time>
      </trkpt>
      <trkpt lat="43.9762" lon="3.74374">
        <ele>431.29</ele>
        <time>2015-02-19T12:36:05Z</time>
      </trkpt>
      <trkpt lat="43.9762" lon="3.74374">
        <ele>429.85</ele>
        <time>2015-02-19T12:36:07Z</time>
      </trkpt>
      <trkpt lat="43.9762" lon="3.74374">
        <ele>430.81</ele>
        <time>2015-02-19T12:36:09Z</time>
      </trkpt>
      <trkpt lat="43.97621" lon="3.74371">
        <ele>427.44</ele>
        <time>2015-02-19T12:36:15Z</time>
      </trkpt>
      <trkpt lat="43.97621" lon="3.7437">
        <ele>430.81</ele>
        <time>2015-02-19T12:36:17Z</time>
      </trkpt>
      <trkpt lat="43.97622" lon="3.74368">
        <ele>428.4</ele>
        <time>2015-02-19T12:36:20Z</time>
      </trkpt>
      <trkpt lat="43.97624" lon="3.74364">
        <ele>426.48</ele>
        <time>2015-02-19T12:36:27Z</time>
      </trkpt>
      <trkpt lat="43.97626" lon="3.74359">
        <ele>423.12</ele>
        <time>2015-02-19T12:36:35Z</time>
      </trkpt>
      <trkpt lat="43.97627" lon="3.74357">
        <ele>426.48</ele>
        <time>2015-02-19T12:36:37Z</time>
      </trkpt>
      <trkpt lat="43.9763" lon="3.74348">
        <ele>426</ele>
        <time>2015-02-19T12:36:46Z</time>
      </trkpt>
      <trkpt lat="43.97631" lon="3.74346">
        <ele>427.44</ele>
        <time>2015-02-19T12:36:48Z</time>
      </trkpt>
      <trkpt lat="43.97631" lon="3.74344">
        <ele>424.08</ele>
        <time>2015-02-19T12:36:50Z</time>
      </trkpt>
      <trkpt lat="43.97631" lon="3.74343">
        <ele>424.56</ele>
        <time>2015-02-19T12:36:51Z</time>
      </trkpt>
      <trkpt lat="43.97633" lon="3.74339">
        <ele>427.92</ele>
        <time>2015-02-19T12:36:55Z</time>
      </trkpt>
      <trkpt lat="43.97635" lon="3.74331">
        <ele>424.56</ele>
        <time>2015-02-19T12:37:01Z</time>
      </trkpt>
      <trkpt lat="43.97637" lon="3.74323">
        <ele>427.44</ele>
        <time>2015-02-19T12:37:14Z</time>
      </trkpt>
      <trkpt lat="43.97637" lon="3.74323">
        <ele>424.08</ele>
        <time>2015-02-19T12:37:19Z</time>
      </trkpt>
      <trkpt lat="43.97639" lon="3.74315">
        <ele>424.08</ele>
        <time>2015-02-19T12:37:29Z</time>
      </trkpt>
      <trkpt lat="43.9764" lon="3.74311">
        <ele>420.71</ele>
        <time>2015-02-19T12:37:32Z</time>
      </trkpt>
      <trkpt lat="43.97641" lon="3.74308">
        <ele>419.75</ele>
        <time>2015-02-19T12:37:34Z</time>
      </trkpt>
      <trkpt lat="43.97643" lon="3.74303">
        <ele>419.27</ele>
        <time>2015-02-19T12:37:39Z</time>
      </trkpt>
      <trkpt lat="43.97644" lon="3.743">
        <ele>419.75</ele>
        <time>2015-02-19T12:37:41Z</time>
      </trkpt>
      <trkpt lat="43.97645" lon="3.74295">
        <ele>419.75</ele>
        <time>2015-02-19T12:37:45Z</time>
      </trkpt>
      <trkpt lat="43.97645" lon="3.74289">
        <ele>419.75</ele>
        <time>2015-02-19T12:37:49Z</time>
      </trkpt>
      <trkpt lat="43.97646" lon="3.74287">
        <ele>416.87</ele>
        <time>2015-02-19T12:37:51Z</time>
      </trkpt>
      <trkpt lat="43.97647" lon="3.74285">
        <ele>418.31</ele>
        <time>2015-02-19T12:37:52Z</time>
      </trkpt>
      <trkpt lat="43.9765" lon="3.74271">
        <ele>417.35</ele>
        <time>2015-02-19T12:38:02Z</time>
      </trkpt>
      <trkpt lat="43.97652" lon="3.74257">
        <ele>418.31</ele>
        <time>2015-02-19T12:38:12Z</time>
      </trkpt>
      <trkpt lat="43.97653" lon="3.74253">
        <ele>413.98</ele>
        <time>2015-02-19T12:38:15Z</time>
      </trkpt>
      <trkpt lat="43.97653" lon="3.74252">
        <ele>414.95</ele>
        <time>2015-02-19T12:38:16Z</time>
      </trkpt>
      <trkpt lat="43.97653" lon="3.7425">
        <ele>416.39</ele>
        <time>2015-02-19T12:38:18Z</time>
      </trkpt>
      <trkpt lat="43.97654" lon="3.74244">
        <ele>414.47</ele>
        <time>2015-02-19T12:38:23Z</time>
      </trkpt>
      <trkpt lat="43.97655" lon="3.74237">
        <ele>413.5</ele>
        <time>2015-02-19T12:38:29Z</time>
      </trkpt>
      <trkpt lat="43.97658" lon="3.74223">
        <ele>411.1</ele>
        <time>2015-02-19T12:38:42Z</time>
      </trkpt>
      <trkpt lat="43.97658" lon="3.74222">
        <ele>412.06</ele>
        <time>2015-02-19T12:38:43Z</time>
      </trkpt>
      <trkpt lat="43.9766" lon="3.74219">
        <ele>413.02</ele>
        <time>2015-02-19T12:38:45Z</time>
      </trkpt>
      <trkpt lat="43.9766" lon="3.74217">
        <ele>409.66</ele>
        <time>2015-02-19T12:38:47Z</time>
      </trkpt>
      <trkpt lat="43.97661" lon="3.74215">
        <ele>410.14</ele>
        <time>2015-02-19T12:38:48Z</time>
      </trkpt>
      <trkpt lat="43.97661" lon="3.74213">
        <ele>411.58</ele>
        <time>2015-02-19T12:38:50Z</time>
      </trkpt>
      <trkpt lat="43.97662" lon="3.74211">
        <ele>412.54</ele>
        <time>2015-02-19T12:38:52Z</time>
      </trkpt>
      <trkpt lat="43.97662" lon="3.74207">
        <ele>409.66</ele>
        <time>2015-02-19T12:38:55Z</time>
      </trkpt>
      <trkpt lat="43.97662" lon="3.74206">
        <ele>410.62</ele>
        <time>2015-02-19T12:38:56Z</time>
      </trkpt>
      <trkpt lat="43.97663" lon="3.74205">
        <ele>410.62</ele>
        <time>2015-02-19T12:38:57Z</time>
      </trkpt>
      <trkpt lat="43.97663" lon="3.74199">
        <ele>413.5</ele>
        <time>2015-02-19T12:39:01Z</time>
      </trkpt>
      <trkpt lat="43.97664" lon="3.74198">
        <ele>410.14</ele>
        <time>2015-02-19T12:39:02Z</time>
      </trkpt>
      <trkpt lat="43.97664" lon="3.74194">
        <ele>411.58</ele>
        <time>2015-02-19T12:39:05Z</time>
      </trkpt>
      <trkpt lat="43.97665" lon="3.74188">
        <ele>407.74</ele>
        <time>2015-02-19T12:39:10Z</time>
      </trkpt>
      <trkpt lat="43.97665" lon="3.74187">
        <ele>408.7</ele>
        <time>2015-02-19T12:39:11Z</time>
      </trkpt>
      <trkpt lat="43.97665" lon="3.74185">
        <ele>410.62</ele>
        <time>2015-02-19T12:39:13Z</time>
      </trkpt>
      <trkpt lat="43.97666" lon="3.74182">
        <ele>408.22</ele>
        <time>2015-02-19T12:39:16Z</time>
      </trkpt>
      <trkpt lat="43.97667" lon="3.74179">
        <ele>409.66</ele>
        <time>2015-02-19T12:39:19Z</time>
      </trkpt>
      <trkpt lat="43.97667" lon="3.74177">
        <ele>406.29</ele>
        <time>2015-02-19T12:39:21Z</time>
      </trkpt>
      <trkpt lat="43.97667" lon="3.74166">
        <ele>407.74</ele>
        <time>2015-02-19T12:39:31Z</time>
      </trkpt>
      <trkpt lat="43.97666" lon="3.74162">
        <ele>404.37</ele>
        <time>2015-02-19T12:39:35Z</time>
      </trkpt>
      <trkpt lat="43.97666" lon="3.7416">
        <ele>404.37</ele>
        <time>2015-02-19T12:39:36Z</time>
      </trkpt>
      <trkpt lat="43.97665" lon="3.74157">
        <ele>405.81</ele>
        <time>2015-02-19T12:39:39Z</time>
      </trkpt>
      <trkpt lat="43.97666" lon="3.74152">
        <ele>402.93</ele>
        <time>2015-02-19T12:39:43Z</time>
      </trkpt>
      <trkpt lat="43.97666" lon="3.74146">
        <ele>406.29</ele>
        <time>2015-02-19T12:39:48Z</time>
      </trkpt>
      <trkpt lat="43.97668" lon="3.7414">
        <ele>404.37</ele>
        <time>2015-02-19T12:39:53Z</time>
      </trkpt>
      <trkpt lat="43.97669" lon="3.74136">
        <ele>405.33</ele>
        <time>2015-02-19T12:39:56Z</time>
      </trkpt>
      <trkpt lat="43.97671" lon="3.74131">
        <ele>402.45</ele>
        <time>2015-02-19T12:40:00Z</time>
      </trkpt>
      <trkpt lat="43.97671" lon="3.7413">
        <ele>405.33</ele>
        <time>2015-02-19T12:40:01Z</time>
      </trkpt>
      <trkpt lat="43.97673" lon="3.74122">
        <ele>403.41</ele>
        <time>2015-02-19T12:40:08Z</time>
      </trkpt>
      <trkpt lat="43.97674" lon="3.74116">
        <ele>403.41</ele>
        <time>2015-02-19T12:40:12Z</time>
      </trkpt>
      <trkpt lat="43.97674" lon="3.74113">
        <ele>403.89</ele>
        <time>2015-02-19T12:40:14Z</time>
      </trkpt>
      <trkpt lat="43.97673" lon="3.74108">
        <ele>404.37</ele>
        <time>2015-02-19T12:40:18Z</time>
      </trkpt>
      <trkpt lat="43.97674" lon="3.74105">
        <ele>403.89</ele>
        <time>2015-02-19T12:40:20Z</time>
      </trkpt>
      <trkpt lat="43.97673" lon="3.741">
        <ele>403.41</ele>
        <time>2015-02-19T12:40:24Z</time>
      </trkpt>
      <trkpt lat="43.97676" lon="3.74096">
        <ele>404.85</ele>
        <time>2015-02-19T12:40:27Z</time>
      </trkpt>
      <trkpt lat="43.97678" lon="3.7409">
        <ele>402.45</ele>
        <time>2015-02-19T12:40:32Z</time>
      </trkpt>
      <trkpt lat="43.97681" lon="3.74078">
        <ele>405.33</ele>
        <time>2015-02-19T12:40:43Z</time>
      </trkpt>
      <trkpt lat="43.97683" lon="3.74075">
        <ele>401.01</ele>
        <time>2015-02-19T12:40:46Z</time>
      </trkpt>
      <trkpt lat="43.97684" lon="3.74075">
        <ele>401.01</ele>
        <time>2015-02-19T12:40:47Z</time>
      </trkpt>
      <trkpt lat="43.97686" lon="3.74072">
        <ele>400.53</ele>
        <time>2015-02-19T12:40:51Z</time>
      </trkpt>
      <trkpt lat="43.97692" lon="3.74062">
        <ele>401.97</ele>
        <time>2015-02-19T12:40:59Z</time>
      </trkpt>
      <trkpt lat="43.97693" lon="3.74059">
        <ele>402.93</ele>
        <time>2015-02-19T12:41:01Z</time>
      </trkpt>
      <trkpt lat="43.97694" lon="3.74056">
        <ele>400.53</ele>
        <time>2015-02-19T12:41:03Z</time>
      </trkpt>
      <trkpt lat="43.977" lon="3.74043">
        <ele>402.93</ele>
        <time>2015-02-19T12:41:13Z</time>
      </trkpt>
      <trkpt lat="43.97701" lon="3.74041">
        <ele>400.05</ele>
        <time>2015-02-19T12:41:15Z</time>
      </trkpt>
      <trkpt lat="43.97701" lon="3.7404">
        <ele>401.01</ele>
        <time>2015-02-19T12:41:16Z</time>
      </trkpt>
      <trkpt lat="43.97703" lon="3.74024">
        <ele>402.93</ele>
        <time>2015-02-19T12:41:28Z</time>
      </trkpt>
      <trkpt lat="43.97705" lon="3.74016">
        <ele>399.57</ele>
        <time>2015-02-19T12:41:34Z</time>
      </trkpt>
      <trkpt lat="43.97706" lon="3.74008">
        <ele>404.37</ele>
        <time>2015-02-19T12:41:39Z</time>
      </trkpt>
      <trkpt lat="43.97706" lon="3.74006">
        <ele>403.89</ele>
        <time>2015-02-19T12:41:40Z</time>
      </trkpt>
      <trkpt lat="43.97707" lon="3.74003">
        <ele>400.53</ele>
        <time>2015-02-19T12:41:42Z</time>
      </trkpt>
      <trkpt lat="43.97707" lon="3.74002">
        <ele>400.53</ele>
        <time>2015-02-19T12:41:43Z</time>
      </trkpt>
      <trkpt lat="43.97708" lon="3.73998">
        <ele>399.57</ele>
        <time>2015-02-19T12:41:46Z</time>
      </trkpt>
      <trkpt lat="43.97709" lon="3.7399">
        <ele>399.08</ele>
        <time>2015-02-19T12:41:51Z</time>
      </trkpt>
      <trkpt lat="43.97709" lon="3.73984">
        <ele>402.45</ele>
        <time>2015-02-19T12:41:55Z</time>
      </trkpt>
      <trkpt lat="43.97709" lon="3.73982">
        <ele>402.45</ele>
        <time>2015-02-19T12:41:56Z</time>
      </trkpt>
      <trkpt lat="43.97709" lon="3.73979">
        <ele>398.12</ele>
        <time>2015-02-19T12:41:58Z</time>
      </trkpt>
      <trkpt lat="43.9771" lon="3.73975">
        <ele>399.08</ele>
        <time>2015-02-19T12:42:01Z</time>
      </trkpt>
      <trkpt lat="43.97711" lon="3.73966">
        <ele>397.16</ele>
        <time>2015-02-19T12:42:08Z</time>
      </trkpt>
      <trkpt lat="43.97711" lon="3.73965">
        <ele>397.16</ele>
        <time>2015-02-19T12:42:09Z</time>
      </trkpt>
      <trkpt lat="43.97713" lon="3.7396">
        <ele>400.53</ele>
        <time>2015-02-19T12:42:12Z</time>
      </trkpt>
      <trkpt lat="43.97713" lon="3.73959">
        <ele>400.53</ele>
        <time>2015-02-19T12:42:13Z</time>
      </trkpt>
      <trkpt lat="43.97715" lon="3.73955">
        <ele>400.05</ele>
        <time>2015-02-19T12:42:16Z</time>
      </trkpt>
      <trkpt lat="43.97716" lon="3.73949">
        <ele>397.64</ele>
        <time>2015-02-19T12:42:20Z</time>
      </trkpt>
      <trkpt lat="43.97721" lon="3.73933">
        <ele>400.05</ele>
        <time>2015-02-19T12:42:31Z</time>
      </trkpt>
      <trkpt lat="43.97722" lon="3.73924">
        <ele>397.64</ele>
        <time>2015-02-19T12:42:38Z</time>
      </trkpt>
      <trkpt lat="43.97722" lon="3.73921">
        <ele>399.57</ele>
        <time>2015-02-19T12:42:40Z</time>
      </trkpt>
      <trkpt lat="43.97723" lon="3.73919">
        <ele>395.72</ele>
        <time>2015-02-19T12:42:42Z</time>
      </trkpt>
      <trkpt lat="43.97726" lon="3.73909">
        <ele>397.64</ele>
        <time>2015-02-19T12:42:50Z</time>
      </trkpt>
      <trkpt lat="43.97726" lon="3.73906">
        <ele>400.05</ele>
        <time>2015-02-19T12:42:52Z</time>
      </trkpt>
      <trkpt lat="43.97733" lon="3.73889">
        <ele>397.16</ele>
        <time>2015-02-19T12:43:05Z</time>
      </trkpt>
      <trkpt lat="43.97737" lon="3.73882">
        <ele>401.97</ele>
        <time>2015-02-19T12:43:12Z</time>
      </trkpt>
      <trkpt lat="43.97738" lon="3.73879">
        <ele>397.16</ele>
        <time>2015-02-19T12:43:15Z</time>
      </trkpt>
      <trkpt lat="43.97739" lon="3.73871">
        <ele>400.05</ele>
        <time>2015-02-19T12:43:21Z</time>
      </trkpt>
      <trkpt lat="43.9774" lon="3.73864">
        <ele>396.68</ele>
        <time>2015-02-19T12:43:28Z</time>
      </trkpt>
      <trkpt lat="43.97743" lon="3.7386">
        <ele>400.05</ele>
        <time>2015-02-19T12:43:33Z</time>
      </trkpt>
      <trkpt lat="43.97744" lon="3.73858">
        <ele>396.2</ele>
        <time>2015-02-19T12:43:35Z</time>
      </trkpt>
      <trkpt lat="43.97745" lon="3.73856">
        <ele>396.68</ele>
        <time>2015-02-19T12:43:37Z</time>
      </trkpt>
      <trkpt lat="43.97747" lon="3.73854">
        <ele>400.53</ele>
        <time>2015-02-19T12:43:39Z</time>
      </trkpt>
      <trkpt lat="43.97747" lon="3.7385">
        <ele>397.64</ele>
        <time>2015-02-19T12:43:42Z</time>
      </trkpt>
      <trkpt lat="43.97747" lon="3.73847">
        <ele>400.05</ele>
        <time>2015-02-19T12:43:44Z</time>
      </trkpt>
      <trkpt lat="43.97747" lon="3.73845">
        <ele>396.68</ele>
        <time>2015-02-19T12:43:46Z</time>
      </trkpt>
      <trkpt lat="43.97748" lon="3.73841">
        <ele>399.57</ele>
        <time>2015-02-19T12:43:49Z</time>
      </trkpt>
      <trkpt lat="43.9775" lon="3.73833">
        <ele>399.08</ele>
        <time>2015-02-19T12:43:55Z</time>
      </trkpt>
      <trkpt lat="43.97752" lon="3.73827">
        <ele>395.72</ele>
        <time>2015-02-19T12:44:01Z</time>
      </trkpt>
      <trkpt lat="43.97752" lon="3.73826">
        <ele>397.16</ele>
        <time>2015-02-19T12:44:02Z</time>
      </trkpt>
      <trkpt lat="43.97752" lon="3.73822">
        <ele>398.6</ele>
        <time>2015-02-19T12:44:05Z</time>
      </trkpt>
      <trkpt lat="43.97752" lon="3.73817">
        <ele>398.12</ele>
        <time>2015-02-19T12:44:10Z</time>
      </trkpt>
      <trkpt lat="43.97752" lon="3.73815">
        <ele>397.16</ele>
        <time>2015-02-19T12:44:12Z</time>
      </trkpt>
      <trkpt lat="43.97753" lon="3.73811">
        <ele>395.72</ele>
        <time>2015-02-19T12:44:15Z</time>
      </trkpt>
      <trkpt lat="43.97753" lon="3.73805">
        <ele>396.2</ele>
        <time>2015-02-19T12:44:22Z</time>
      </trkpt>
      <trkpt lat="43.97753" lon="3.73803">
        <ele>394.76</ele>
        <time>2015-02-19T12:44:25Z</time>
      </trkpt>
      <trkpt lat="43.97755" lon="3.73795">
        <ele>393.32</ele>
        <time>2015-02-19T12:44:37Z</time>
      </trkpt>
      <trkpt lat="43.97756" lon="3.73792">
        <ele>391.87</ele>
        <time>2015-02-19T12:44:43Z</time>
      </trkpt>
      <trkpt lat="43.97755" lon="3.73791">
        <ele>390.91</ele>
        <time>2015-02-19T12:44:45Z</time>
      </trkpt>
      <trkpt lat="43.97756" lon="3.73787">
        <ele>391.87</ele>
        <time>2015-02-19T12:44:49Z</time>
      </trkpt>
      <trkpt lat="43.97755" lon="3.73782">
        <ele>387.07</ele>
        <time>2015-02-19T12:44:54Z</time>
      </trkpt>
      <trkpt lat="43.97754" lon="3.73771">
        <ele>388.99</ele>
        <time>2015-02-19T12:45:03Z</time>
      </trkpt>
      <trkpt lat="43.97754" lon="3.73769">
        <ele>385.15</ele>
        <time>2015-02-19T12:45:04Z</time>
      </trkpt>
      <trkpt lat="43.97754" lon="3.73768">
        <ele>388.51</ele>
        <time>2015-02-19T12:45:05Z</time>
      </trkpt>
      <trkpt lat="43.97751" lon="3.73759">
        <ele>382.74</ele>
        <time>2015-02-19T12:45:14Z</time>
      </trkpt>
      <trkpt lat="43.97751" lon="3.73757">
        <ele>384.18</ele>
        <time>2015-02-19T12:45:15Z</time>
      </trkpt>
      <trkpt lat="43.97751" lon="3.73752">
        <ele>386.59</ele>
        <time>2015-02-19T12:45:18Z</time>
      </trkpt>
      <trkpt lat="43.97752" lon="3.73745">
        <ele>384.18</ele>
        <time>2015-02-19T12:45:24Z</time>
      </trkpt>
      <trkpt lat="43.97752" lon="3.73742">
        <ele>386.59</ele>
        <time>2015-02-19T12:45:27Z</time>
      </trkpt>
      <trkpt lat="43.97754" lon="3.73729">
        <ele>384.66</ele>
        <time>2015-02-19T12:45:37Z</time>
      </trkpt>
      <trkpt lat="43.97753" lon="3.73724">
        <ele>383.22</ele>
        <time>2015-02-19T12:45:41Z</time>
      </trkpt>
      <trkpt lat="43.97753" lon="3.7372">
        <ele>381.78</ele>
        <time>2015-02-19T12:45:44Z</time>
      </trkpt>
      <trkpt lat="43.97753" lon="3.73719">
        <ele>384.66</ele>
        <time>2015-02-19T12:45:48Z</time>
      </trkpt>
      <trkpt lat="43.97754" lon="3.73714">
        <ele>381.3</ele>
        <time>2015-02-19T12:45:51Z</time>
      </trkpt>
      <trkpt lat="43.97755" lon="3.73705">
        <ele>384.66</ele>
        <time>2015-02-19T12:45:59Z</time>
      </trkpt>
      <trkpt lat="43.97755" lon="3.73705">
        <ele>380.34</ele>
        <time>2015-02-19T12:46:00Z</time>
      </trkpt>
      <trkpt lat="43.97754" lon="3.73695">
        <ele>380.82</ele>
        <time>2015-02-19T12:46:08Z</time>
      </trkpt>
      <trkpt lat="43.97754" lon="3.73692">
        <ele>379.38</ele>
        <time>2015-02-19T12:46:12Z</time>
      </trkpt>
      <trkpt lat="43.97752" lon="3.73683">
        <ele>378.9</ele>
        <time>2015-02-19T12:46:16Z</time>
      </trkpt>
      <trkpt lat="43.9775" lon="3.73674">
        <ele>379.38</ele>
        <time>2015-02-19T12:46:29Z</time>
      </trkpt>
      <trkpt lat="43.9775" lon="3.7367">
        <ele>376.49</ele>
        <time>2015-02-19T12:46:34Z</time>
      </trkpt>
      <trkpt lat="43.97749" lon="3.73668">
        <ele>376.97</ele>
        <time>2015-02-19T12:46:35Z</time>
      </trkpt>
      <trkpt lat="43.97747" lon="3.73662">
        <ele>378.9</ele>
        <time>2015-02-19T12:46:38Z</time>
      </trkpt>
      <trkpt lat="43.97747" lon="3.73659">
        <ele>376.49</ele>
        <time>2015-02-19T12:46:42Z</time>
      </trkpt>
      <trkpt lat="43.97747" lon="3.73653">
        <ele>378.9</ele>
        <time>2015-02-19T12:46:50Z</time>
      </trkpt>
      <trkpt lat="43.97747" lon="3.73648">
        <ele>375.05</ele>
        <time>2015-02-19T12:46:53Z</time>
      </trkpt>
      <trkpt lat="43.97747" lon="3.73647">
        <ele>378.9</ele>
        <time>2015-02-19T12:46:55Z</time>
      </trkpt>
      <trkpt lat="43.97747" lon="3.73647">
        <ele>381.3</ele>
        <time>2015-02-19T12:46:57Z</time>
      </trkpt>
      <trkpt lat="43.97747" lon="3.73645">
        <ele>377.94</ele>
        <time>2015-02-19T12:46:59Z</time>
      </trkpt>
      <trkpt lat="43.97747" lon="3.73645">
        <ele>378.42</ele>
        <time>2015-02-19T12:47:00Z</time>
      </trkpt>
      <trkpt lat="43.97747" lon="3.73638">
        <ele>378.42</ele>
        <time>2015-02-19T12:47:04Z</time>
      </trkpt>
      <trkpt lat="43.97748" lon="3.73626">
        <ele>381.78</ele>
        <time>2015-02-19T12:47:14Z</time>
      </trkpt>
      <trkpt lat="43.97748" lon="3.73626">
        <ele>382.26</ele>
        <time>2015-02-19T12:47:15Z</time>
      </trkpt>
      <trkpt lat="43.97751" lon="3.73613">
        <ele>379.38</ele>
        <time>2015-02-19T12:47:24Z</time>
      </trkpt>
      <trkpt lat="43.97751" lon="3.73612">
        <ele>382.26</ele>
        <time>2015-02-19T12:47:25Z</time>
      </trkpt>
      <trkpt lat="43.97752" lon="3.7361">
        <ele>378.9</ele>
        <time>2015-02-19T12:47:27Z</time>
      </trkpt>
      <trkpt lat="43.97752" lon="3.73609">
        <ele>378.9</ele>
        <time>2015-02-19T12:47:28Z</time>
      </trkpt>
      <trkpt lat="43.97753" lon="3.73607">
        <ele>383.22</ele>
        <time>2015-02-19T12:47:31Z</time>
      </trkpt>
      <trkpt lat="43.97758" lon="3.73601">
        <ele>383.22</ele>
        <time>2015-02-19T12:47:42Z</time>
      </trkpt>
      <trkpt lat="43.97765" lon="3.73594">
        <ele>380.82</ele>
        <time>2015-02-19T12:47:53Z</time>
      </trkpt>
      <trkpt lat="43.97769" lon="3.73592">
        <ele>385.15</ele>
        <time>2015-02-19T12:47:59Z</time>
      </trkpt>
      <trkpt lat="43.9777" lon="3.73592">
        <ele>383.7</ele>
        <time>2015-02-19T12:48:02Z</time>
      </trkpt>
      <trkpt lat="43.97781" lon="3.73585">
        <ele>384.18</ele>
        <time>2015-02-19T12:48:14Z</time>
      </trkpt>
      <trkpt lat="43.97788" lon="3.73579">
        <ele>388.51</ele>
        <time>2015-02-19T12:48:26Z</time>
      </trkpt>
      <trkpt lat="43.97794" lon="3.73568">
        <ele>389.47</ele>
        <time>2015-02-19T12:48:37Z</time>
      </trkpt>
      <trkpt lat="43.97796" lon="3.73564">
        <ele>387.07</ele>
        <time>2015-02-19T12:48:40Z</time>
      </trkpt>
      <trkpt lat="43.97797" lon="3.73561">
        <ele>388.51</ele>
        <time>2015-02-19T12:48:43Z</time>
      </trkpt>
      <trkpt lat="43.97798" lon="3.7355">
        <ele>389.47</ele>
        <time>2015-02-19T12:48:52Z</time>
      </trkpt>
      <trkpt lat="43.97799" lon="3.73547">
        <ele>391.39</ele>
        <time>2015-02-19T12:48:54Z</time>
      </trkpt>
      <trkpt lat="43.97797" lon="3.73542">
        <ele>388.51</ele>
        <time>2015-02-19T12:48:59Z</time>
      </trkpt>
      <trkpt lat="43.97797" lon="3.7354">
        <ele>388.99</ele>
        <time>2015-02-19T12:49:00Z</time>
      </trkpt>
      <trkpt lat="43.97797" lon="3.73538">
        <ele>390.43</ele>
        <time>2015-02-19T12:49:03Z</time>
      </trkpt>
      <trkpt lat="43.97795" lon="3.73534">
        <ele>388.99</ele>
        <time>2015-02-19T12:49:07Z</time>
      </trkpt>
      <trkpt lat="43.97794" lon="3.73532">
        <ele>392.84</ele>
        <time>2015-02-19T12:49:10Z</time>
      </trkpt>
      <trkpt lat="43.97794" lon="3.7353">
        <ele>390.43</ele>
        <time>2015-02-19T12:49:12Z</time>
      </trkpt>
      <trkpt lat="43.97797" lon="3.73519">
        <ele>389.95</ele>
        <time>2015-02-19T12:49:22Z</time>
      </trkpt>
      <trkpt lat="43.97799" lon="3.73506">
        <ele>388.51</ele>
        <time>2015-02-19T12:49:31Z</time>
      </trkpt>
      <trkpt lat="43.97799" lon="3.73502">
        <ele>390.43</ele>
        <time>2015-02-19T12:49:34Z</time>
      </trkpt>
      <trkpt lat="43.97799" lon="3.73493">
        <ele>389.47</ele>
        <time>2015-02-19T12:49:40Z</time>
      </trkpt>
      <trkpt lat="43.97798" lon="3.73491">
        <ele>390.91</ele>
        <time>2015-02-19T12:49:41Z</time>
      </trkpt>
      <trkpt lat="43.97798" lon="3.73488">
        <ele>388.03</ele>
        <time>2015-02-19T12:49:43Z</time>
      </trkpt>
      <trkpt lat="43.97797" lon="3.73486">
        <ele>390.91</ele>
        <time>2015-02-19T12:49:44Z</time>
      </trkpt>
      <trkpt lat="43.97797" lon="3.73485">
        <ele>390.91</ele>
        <time>2015-02-19T12:49:45Z</time>
      </trkpt>
      <trkpt lat="43.97797" lon="3.73476">
        <ele>387.55</ele>
        <time>2015-02-19T12:49:51Z</time>
      </trkpt>
      <trkpt lat="43.97797" lon="3.73475">
        <ele>387.55</ele>
        <time>2015-02-19T12:49:52Z</time>
      </trkpt>
      <trkpt lat="43.97797" lon="3.73474">
        <ele>391.39</ele>
        <time>2015-02-19T12:49:53Z</time>
      </trkpt>
      <trkpt lat="43.97797" lon="3.73471">
        <ele>387.55</ele>
        <time>2015-02-19T12:49:55Z</time>
      </trkpt>
      <trkpt lat="43.97798" lon="3.7347">
        <ele>387.07</ele>
        <time>2015-02-19T12:49:56Z</time>
      </trkpt>
      <trkpt lat="43.978" lon="3.73464">
        <ele>388.51</ele>
        <time>2015-02-19T12:50:00Z</time>
      </trkpt>
      <trkpt lat="43.978" lon="3.73463">
        <ele>389.95</ele>
        <time>2015-02-19T12:50:01Z</time>
      </trkpt>
      <trkpt lat="43.97799" lon="3.73456">
        <ele>390.43</ele>
        <time>2015-02-19T12:50:07Z</time>
      </trkpt>
      <trkpt lat="43.97799" lon="3.73454">
        <ele>388.03</ele>
        <time>2015-02-19T12:50:08Z</time>
      </trkpt>
      <trkpt lat="43.97799" lon="3.73449">
        <ele>387.55</ele>
        <time>2015-02-19T12:50:12Z</time>
      </trkpt>
      <trkpt lat="43.97799" lon="3.73444">
        <ele>386.11</ele>
        <time>2015-02-19T12:50:20Z</time>
      </trkpt>
      <trkpt lat="43.97801" lon="3.73441">
        <ele>387.07</ele>
        <time>2015-02-19T12:50:25Z</time>
      </trkpt>
      <trkpt lat="43.97805" lon="3.7344">
        <ele>386.11</ele>
        <time>2015-02-19T12:50:28Z</time>
      </trkpt>
      <trkpt lat="43.97807" lon="3.73433">
        <ele>387.07</ele>
        <time>2015-02-19T12:50:37Z</time>
      </trkpt>
      <trkpt lat="43.97807" lon="3.73432">
        <ele>390.91</ele>
        <time>2015-02-19T12:50:38Z</time>
      </trkpt>
      <trkpt lat="43.97808" lon="3.73431">
        <ele>388.03</ele>
        <time>2015-02-19T12:50:39Z</time>
      </trkpt>
      <trkpt lat="43.97812" lon="3.73424">
        <ele>391.39</ele>
        <time>2015-02-19T12:50:44Z</time>
      </trkpt>
      <trkpt lat="43.97815" lon="3.73421">
        <ele>387.55</ele>
        <time>2015-02-19T12:50:46Z</time>
      </trkpt>
      <trkpt lat="43.97815" lon="3.7342">
        <ele>388.51</ele>
        <time>2015-02-19T12:50:47Z</time>
      </trkpt>
      <trkpt lat="43.97816" lon="3.73413">
        <ele>386.59</ele>
        <time>2015-02-19T12:50:53Z</time>
      </trkpt>
      <trkpt lat="43.97816" lon="3.7341">
        <ele>389.95</ele>
        <time>2015-02-19T12:50:55Z</time>
      </trkpt>
      <trkpt lat="43.97817" lon="3.73404">
        <ele>386.59</ele>
        <time>2015-02-19T12:51:00Z</time>
      </trkpt>
      <trkpt lat="43.97817" lon="3.73404">
        <ele>387.07</ele>
        <time>2015-02-19T12:51:01Z</time>
      </trkpt>
      <trkpt lat="43.97819" lon="3.73392">
        <ele>388.03</ele>
        <time>2015-02-19T12:51:11Z</time>
      </trkpt>
      <trkpt lat="43.9782" lon="3.7339">
        <ele>384.66</ele>
        <time>2015-02-19T12:51:13Z</time>
      </trkpt>
      <trkpt lat="43.97822" lon="3.73383">
        <ele>388.99</ele>
        <time>2015-02-19T12:51:17Z</time>
      </trkpt>
      <trkpt lat="43.97822" lon="3.73382">
        <ele>388.99</ele>
        <time>2015-02-19T12:51:18Z</time>
      </trkpt>
      <trkpt lat="43.97822" lon="3.73372">
        <ele>387.07</ele>
        <time>2015-02-19T12:51:27Z</time>
      </trkpt>
      <trkpt lat="43.97821" lon="3.73367">
        <ele>385.15</ele>
        <time>2015-02-19T12:51:31Z</time>
      </trkpt>
      <trkpt lat="43.97821" lon="3.73364">
        <ele>387.07</ele>
        <time>2015-02-19T12:51:33Z</time>
      </trkpt>
      <trkpt lat="43.9782" lon="3.73356">
        <ele>383.7</ele>
        <time>2015-02-19T12:51:38Z</time>
      </trkpt>
      <trkpt lat="43.97819" lon="3.73354">
        <ele>387.07</ele>
        <time>2015-02-19T12:51:39Z</time>
      </trkpt>
      <trkpt lat="43.97819" lon="3.73352">
        <ele>382.74</ele>
        <time>2015-02-19T12:51:42Z</time>
      </trkpt>
      <trkpt lat="43.97818" lon="3.7335">
        <ele>386.59</ele>
        <time>2015-02-19T12:51:43Z</time>
      </trkpt>
      <trkpt lat="43.97818" lon="3.73346">
        <ele>386.59</ele>
        <time>2015-02-19T12:51:46Z</time>
      </trkpt>
      <trkpt lat="43.97817" lon="3.73341">
        <ele>381.78</ele>
        <time>2015-02-19T12:51:49Z</time>
      </trkpt>
      <trkpt lat="43.97817" lon="3.7334">
        <ele>381.78</ele>
        <time>2015-02-19T12:51:50Z</time>
      </trkpt>
      <trkpt lat="43.97818" lon="3.73338">
        <ele>383.7</ele>
        <time>2015-02-19T12:51:52Z</time>
      </trkpt>
      <trkpt lat="43.97819" lon="3.73333">
        <ele>387.07</ele>
        <time>2015-02-19T12:51:56Z</time>
      </trkpt>
      <trkpt lat="43.97819" lon="3.73332">
        <ele>386.59</ele>
        <time>2015-02-19T12:51:57Z</time>
      </trkpt>
      <trkpt lat="43.97821" lon="3.73328">
        <ele>383.22</ele>
        <time>2015-02-19T12:52:01Z</time>
      </trkpt>
      <trkpt lat="43.97823" lon="3.73327">
        <ele>383.22</ele>
        <time>2015-02-19T12:52:02Z</time>
      </trkpt>
      <trkpt lat="43.97826" lon="3.73325">
        <ele>381.78</ele>
        <time>2015-02-19T12:52:04Z</time>
      </trkpt>
      <trkpt lat="43.97835" lon="3.73318">
        <ele>383.22</ele>
        <time>2015-02-19T12:52:14Z</time>
      </trkpt>
      <trkpt lat="43.97837" lon="3.73315">
        <ele>384.66</ele>
        <time>2015-02-19T12:52:18Z</time>
      </trkpt>
      <trkpt lat="43.97839" lon="3.73309">
        <ele>384.66</ele>
        <time>2015-02-19T12:52:22Z</time>
      </trkpt>
      <trkpt lat="43.97839" lon="3.73307">
        <ele>385.15</ele>
        <time>2015-02-19T12:52:24Z</time>
      </trkpt>
      <trkpt lat="43.9784" lon="3.73302">
        <ele>389.95</ele>
        <time>2015-02-19T12:52:31Z</time>
      </trkpt>
      <trkpt lat="43.97841" lon="3.73302">
        <ele>388.03</ele>
        <time>2015-02-19T12:52:32Z</time>
      </trkpt>
      <trkpt lat="43.97841" lon="3.73301">
        <ele>384.18</ele>
        <time>2015-02-19T12:52:33Z</time>
      </trkpt>
      <trkpt lat="43.97841" lon="3.73301">
        <ele>384.18</ele>
        <time>2015-02-19T12:52:34Z</time>
      </trkpt>
      <trkpt lat="43.97841" lon="3.73301">
        <ele>387.07</ele>
        <time>2015-02-19T12:52:37Z</time>
      </trkpt>
      <trkpt lat="43.97841" lon="3.73301">
        <ele>389.95</ele>
        <time>2015-02-19T12:52:39Z</time>
      </trkpt>
      <trkpt lat="43.97841" lon="3.73301">
        <ele>388.99</ele>
        <time>2015-02-19T12:52:40Z</time>
      </trkpt>
      <trkpt lat="43.97842" lon="3.733">
        <ele>386.11</ele>
        <time>2015-02-19T12:52:43Z</time>
      </trkpt>
      <trkpt lat="43.97845" lon="3.73296">
        <ele>387.07</ele>
        <time>2015-02-19T12:52:48Z</time>
      </trkpt>
      <trkpt lat="43.97845" lon="3.73296">
        <ele>386.59</ele>
        <time>2015-02-19T12:52:49Z</time>
      </trkpt>
      <trkpt lat="43.97848" lon="3.73294">
        <ele>388.03</ele>
        <time>2015-02-19T12:52:52Z</time>
      </trkpt>
      <trkpt lat="43.97849" lon="3.73293">
        <ele>386.11</ele>
        <time>2015-02-19T12:52:54Z</time>
      </trkpt>
      <trkpt lat="43.97849" lon="3.73293">
        <ele>389.47</ele>
        <time>2015-02-19T12:52:56Z</time>
      </trkpt>
      <trkpt lat="43.97857" lon="3.73284">
        <ele>390.43</ele>
        <time>2015-02-19T12:53:06Z</time>
      </trkpt>
      <trkpt lat="43.97858" lon="3.73282">
        <ele>390.43</ele>
        <time>2015-02-19T12:53:07Z</time>
      </trkpt>
      <trkpt lat="43.97865" lon="3.73277">
        <ele>391.39</ele>
        <time>2015-02-19T12:53:16Z</time>
      </trkpt>
      <trkpt lat="43.97875" lon="3.7327">
        <ele>395.24</ele>
        <time>2015-02-19T12:53:26Z</time>
      </trkpt>
      <trkpt lat="43.97875" lon="3.73268">
        <ele>395.24</ele>
        <time>2015-02-19T12:53:27Z</time>
      </trkpt>
      <trkpt lat="43.97876" lon="3.73267">
        <ele>391.39</ele>
        <time>2015-02-19T12:53:29Z</time>
      </trkpt>
      <trkpt lat="43.97876" lon="3.73267">
        <ele>395.24</ele>
        <time>2015-02-19T12:53:30Z</time>
      </trkpt>
      <trkpt lat="43.97881" lon="3.73263">
        <ele>393.8</ele>
        <time>2015-02-19T12:53:34Z</time>
      </trkpt>
      <trkpt lat="43.97885" lon="3.73257">
        <ele>390.43</ele>
        <time>2015-02-19T12:53:39Z</time>
      </trkpt>
      <trkpt lat="43.97885" lon="3.73256">
        <ele>390.91</ele>
        <time>2015-02-19T12:53:40Z</time>
      </trkpt>
      <trkpt lat="43.97886" lon="3.73255">
        <ele>394.28</ele>
        <time>2015-02-19T12:53:41Z</time>
      </trkpt>
      <trkpt lat="43.97886" lon="3.73255">
        <ele>390.43</ele>
        <time>2015-02-19T12:53:42Z</time>
      </trkpt>
      <trkpt lat="43.97887" lon="3.73253">
        <ele>393.32</ele>
        <time>2015-02-19T12:53:43Z</time>
      </trkpt>
      <trkpt lat="43.97887" lon="3.73252">
        <ele>396.68</ele>
        <time>2015-02-19T12:53:44Z</time>
      </trkpt>
      <trkpt lat="43.97887" lon="3.7325">
        <ele>394.76</ele>
        <time>2015-02-19T12:53:45Z</time>
      </trkpt>
      <trkpt lat="43.97888" lon="3.73247">
        <ele>391.39</ele>
        <time>2015-02-19T12:53:47Z</time>
      </trkpt>
      <trkpt lat="43.97889" lon="3.73246">
        <ele>395.24</ele>
        <time>2015-02-19T12:53:48Z</time>
      </trkpt>
      <trkpt lat="43.9789" lon="3.73245">
        <ele>393.8</ele>
        <time>2015-02-19T12:53:49Z</time>
      </trkpt>
      <trkpt lat="43.97891" lon="3.73239">
        <ele>394.28</ele>
        <time>2015-02-19T12:53:53Z</time>
      </trkpt>
      <trkpt lat="43.97892" lon="3.73237">
        <ele>391.87</ele>
        <time>2015-02-19T12:53:55Z</time>
      </trkpt>
      <trkpt lat="43.97893" lon="3.7323">
        <ele>391.39</ele>
        <time>2015-02-19T12:54:01Z</time>
      </trkpt>
      <trkpt lat="43.9789" lon="3.73226">
        <ele>392.36</ele>
        <time>2015-02-19T12:54:05Z</time>
      </trkpt>
      <trkpt lat="43.97884" lon="3.73214">
        <ele>392.36</ele>
        <time>2015-02-19T12:54:16Z</time>
      </trkpt>
      <trkpt lat="43.97883" lon="3.73211">
        <ele>397.16</ele>
        <time>2015-02-19T12:54:19Z</time>
      </trkpt>
      <trkpt lat="43.97883" lon="3.73209">
        <ele>393.32</ele>
        <time>2015-02-19T12:54:21Z</time>
      </trkpt>
      <trkpt lat="43.97882" lon="3.73208">
        <ele>393.32</ele>
        <time>2015-02-19T12:54:22Z</time>
      </trkpt>
      <trkpt lat="43.97879" lon="3.73204">
        <ele>391.39</ele>
        <time>2015-02-19T12:54:27Z</time>
      </trkpt>
      <trkpt lat="43.97872" lon="3.73199">
        <ele>391.39</ele>
        <time>2015-02-19T12:54:36Z</time>
      </trkpt>
      <trkpt lat="43.97865" lon="3.73193">
        <ele>392.36</ele>
        <time>2015-02-19T12:54:45Z</time>
      </trkpt>
      <trkpt lat="43.97864" lon="3.73183">
        <ele>391.39</ele>
        <time>2015-02-19T12:54:55Z</time>
      </trkpt>
      <trkpt lat="43.97864" lon="3.73181">
        <ele>392.36</ele>
        <time>2015-02-19T12:54:59Z</time>
      </trkpt>
      <trkpt lat="43.97863" lon="3.73179">
        <ele>390.43</ele>
        <time>2015-02-19T12:55:01Z</time>
      </trkpt>
      <trkpt lat="43.97859" lon="3.73172">
        <ele>389.95</ele>
        <time>2015-02-19T12:55:08Z</time>
      </trkpt>
      <trkpt lat="43.97857" lon="3.73167">
        <ele>390.91</ele>
        <time>2015-02-19T12:55:16Z</time>
      </trkpt>
      <trkpt lat="43.97857" lon="3.73167">
        <ele>387.55</ele>
        <time>2015-02-19T12:55:17Z</time>
      </trkpt>
      <trkpt lat="43.97857" lon="3.73167">
        <ele>387.55</ele>
        <time>2015-02-19T12:55:18Z</time>
      </trkpt>
      <trkpt lat="43.97856" lon="3.7316">
        <ele>388.03</ele>
        <time>2015-02-19T12:55:30Z</time>
      </trkpt>
      <trkpt lat="43.97854" lon="3.73149">
        <ele>385.15</ele>
        <time>2015-02-19T12:55:38Z</time>
      </trkpt>
      <trkpt lat="43.97853" lon="3.73147">
        <ele>385.63</ele>
        <time>2015-02-19T12:55:39Z</time>
      </trkpt>
      <trkpt lat="43.97852" lon="3.73139">
        <ele>384.18</ele>
        <time>2015-02-19T12:55:49Z</time>
      </trkpt>
      <trkpt lat="43.97852" lon="3.73139">
        <ele>384.66</ele>
        <time>2015-02-19T12:55:50Z</time>
      </trkpt>
      <trkpt lat="43.97854" lon="3.73133">
        <ele>382.74</ele>
        <time>2015-02-19T12:55:57Z</time>
      </trkpt>
      <trkpt lat="43.97856" lon="3.73129">
        <ele>382.26</ele>
        <time>2015-02-19T12:56:01Z</time>
      </trkpt>
      <trkpt lat="43.97854" lon="3.73126">
        <ele>383.7</ele>
        <time>2015-02-19T12:56:03Z</time>
      </trkpt>
      <trkpt lat="43.97849" lon="3.73114">
        <ele>385.15</ele>
        <time>2015-02-19T12:56:08Z</time>
      </trkpt>
      <trkpt lat="43.97847" lon="3.73111">
        <ele>384.18</ele>
        <time>2015-02-19T12:56:10Z</time>
      </trkpt>
      <trkpt lat="43.97847" lon="3.7311">
        <ele>384.66</ele>
        <time>2015-02-19T12:56:11Z</time>
      </trkpt>
      <trkpt lat="43.97847" lon="3.73107">
        <ele>382.74</ele>
        <time>2015-02-19T12:56:13Z</time>
      </trkpt>
      <trkpt lat="43.97847" lon="3.73103">
        <ele>382.26</ele>
        <time>2015-02-19T12:56:15Z</time>
      </trkpt>
      <trkpt lat="43.97846" lon="3.73101">
        <ele>382.26</ele>
        <time>2015-02-19T12:56:16Z</time>
      </trkpt>
      <trkpt lat="43.97841" lon="3.73095">
        <ele>384.66</ele>
        <time>2015-02-19T12:56:22Z</time>
      </trkpt>
      <trkpt lat="43.97841" lon="3.73094">
        <ele>380.82</ele>
        <time>2015-02-19T12:56:27Z</time>
      </trkpt>
      <trkpt lat="43.9784" lon="3.73093">
        <ele>382.74</ele>
        <time>2015-02-19T12:56:28Z</time>
      </trkpt>
      <trkpt lat="43.97841" lon="3.73088">
        <ele>380.82</ele>
        <time>2015-02-19T12:56:31Z</time>
      </trkpt>
      <trkpt lat="43.97843" lon="3.73085">
        <ele>378.9</ele>
        <time>2015-02-19T12:56:40Z</time>
      </trkpt>
      <trkpt lat="43.97844" lon="3.73084">
        <ele>382.26</ele>
        <time>2015-02-19T12:56:41Z</time>
      </trkpt>
      <trkpt lat="43.97845" lon="3.73083">
        <ele>381.3</ele>
        <time>2015-02-19T12:56:42Z</time>
      </trkpt>
      <trkpt lat="43.97847" lon="3.73083">
        <ele>377.45</ele>
        <time>2015-02-19T12:56:48Z</time>
      </trkpt>
      <trkpt lat="43.97847" lon="3.73083">
        <ele>380.82</ele>
        <time>2015-02-19T12:56:51Z</time>
      </trkpt>
      <trkpt lat="43.97847" lon="3.73083">
        <ele>375.53</ele>
        <time>2015-02-19T12:56:52Z</time>
      </trkpt>
      <trkpt lat="43.97848" lon="3.73082">
        <ele>379.86</ele>
        <time>2015-02-19T12:56:55Z</time>
      </trkpt>
      <trkpt lat="43.97848" lon="3.73082">
        <ele>376.97</ele>
        <time>2015-02-19T12:56:57Z</time>
      </trkpt>
      <trkpt lat="43.97848" lon="3.73082">
        <ele>376.97</ele>
        <time>2015-02-19T12:57:06Z</time>
      </trkpt>
      <trkpt lat="43.97849" lon="3.73082">
        <ele>373.13</ele>
        <time>2015-02-19T12:57:09Z</time>
      </trkpt>
      <trkpt lat="43.97851" lon="3.7308">
        <ele>376.49</ele>
        <time>2015-02-19T12:57:13Z</time>
      </trkpt>
      <trkpt lat="43.97852" lon="3.73078">
        <ele>373.13</ele>
        <time>2015-02-19T12:57:17Z</time>
      </trkpt>
      <trkpt lat="43.97853" lon="3.73075">
        <ele>375.53</ele>
        <time>2015-02-19T12:57:21Z</time>
      </trkpt>
      <trkpt lat="43.97854" lon="3.73075">
        <ele>371.69</ele>
        <time>2015-02-19T12:57:25Z</time>
      </trkpt>
      <trkpt lat="43.97854" lon="3.73075">
        <ele>372.65</ele>
        <time>2015-02-19T12:57:26Z</time>
      </trkpt>
      <trkpt lat="43.97855" lon="3.73072">
        <ele>369.28</ele>
        <time>2015-02-19T12:57:32Z</time>
      </trkpt>
      <trkpt lat="43.97856" lon="3.73072">
        <ele>373.13</ele>
        <time>2015-02-19T12:57:33Z</time>
      </trkpt>
      <trkpt lat="43.97858" lon="3.73071">
        <ele>369.76</ele>
        <time>2015-02-19T12:57:37Z</time>
      </trkpt>
      <trkpt lat="43.97864" lon="3.73069">
        <ele>366.4</ele>
        <time>2015-02-19T12:57:48Z</time>
      </trkpt>
      <trkpt lat="43.97868" lon="3.7306">
        <ele>366.4</ele>
        <time>2015-02-19T12:57:58Z</time>
      </trkpt>
      <trkpt lat="43.97869" lon="3.73049">
        <ele>365.92</ele>
        <time>2015-02-19T12:58:09Z</time>
      </trkpt>
      <trkpt lat="43.97869" lon="3.73049">
        <ele>362.07</ele>
        <time>2015-02-19T12:58:10Z</time>
      </trkpt>
      <trkpt lat="43.97869" lon="3.73049">
        <ele>364.96</ele>
        <time>2015-02-19T12:58:12Z</time>
      </trkpt>
      <trkpt lat="43.9787" lon="3.73048">
        <ele>364</ele>
        <time>2015-02-19T12:58:13Z</time>
      </trkpt>
      <trkpt lat="43.97874" lon="3.73048">
        <ele>359.19</ele>
        <time>2015-02-19T12:58:17Z</time>
      </trkpt>
      <trkpt lat="43.97875" lon="3.73047">
        <ele>362.07</ele>
        <time>2015-02-19T12:58:18Z</time>
      </trkpt>
      <trkpt lat="43.9788" lon="3.73043">
        <ele>359.67</ele>
        <time>2015-02-19T12:58:23Z</time>
      </trkpt>
      <trkpt lat="43.97881" lon="3.73041">
        <ele>359.19</ele>
        <time>2015-02-19T12:58:25Z</time>
      </trkpt>
      <trkpt lat="43.97882" lon="3.73041">
        <ele>360.63</ele>
        <time>2015-02-19T12:58:27Z</time>
      </trkpt>
      <trkpt lat="43.97885" lon="3.73042">
        <ele>358.23</ele>
        <time>2015-02-19T12:58:31Z</time>
      </trkpt>
      <trkpt lat="43.9789" lon="3.73042">
        <ele>354.86</ele>
        <time>2015-02-19T12:58:38Z</time>
      </trkpt>
      <trkpt lat="43.97891" lon="3.7304">
        <ele>357.75</ele>
        <time>2015-02-19T12:58:40Z</time>
      </trkpt>
      <trkpt lat="43.97892" lon="3.73039">
        <ele>355.34</ele>
        <time>2015-02-19T12:58:43Z</time>
      </trkpt>
      <trkpt lat="43.97893" lon="3.73039">
        <ele>354.86</ele>
        <time>2015-02-19T12:58:44Z</time>
      </trkpt>
      <trkpt lat="43.97897" lon="3.73031">
        <ele>354.86</ele>
        <time>2015-02-19T12:58:55Z</time>
      </trkpt>
      <trkpt lat="43.97897" lon="3.73031">
        <ele>354.86</ele>
        <time>2015-02-19T12:58:56Z</time>
      </trkpt>
      <trkpt lat="43.97897" lon="3.73031">
        <ele>357.75</ele>
        <time>2015-02-19T12:58:58Z</time>
      </trkpt>
      <trkpt lat="43.97897" lon="3.73031">
        <ele>354.86</ele>
        <time>2015-02-19T12:59:01Z</time>
      </trkpt>
      <trkpt lat="43.979" lon="3.73026">
        <ele>354.86</ele>
        <time>2015-02-19T12:59:06Z</time>
      </trkpt>
      <trkpt lat="43.97906" lon="3.73018">
        <ele>354.86</ele>
        <time>2015-02-19T12:59:12Z</time>
      </trkpt>
      <trkpt lat="43.97907" lon="3.73016">
        <ele>357.75</ele>
        <time>2015-02-19T12:59:13Z</time>
      </trkpt>
      <trkpt lat="43.97912" lon="3.72998">
        <ele>356.31</ele>
        <time>2015-02-19T12:59:26Z</time>
      </trkpt>
      <trkpt lat="43.97912" lon="3.72996">
        <ele>356.31</ele>
        <time>2015-02-19T12:59:28Z</time>
      </trkpt>
      <trkpt lat="43.97912" lon="3.72993">
        <ele>354.86</ele>
        <time>2015-02-19T12:59:30Z</time>
      </trkpt>
      <trkpt lat="43.97914" lon="3.72986">
        <ele>353.42</ele>
        <time>2015-02-19T12:59:34Z</time>
      </trkpt>
      <trkpt lat="43.97918" lon="3.72979">
        <ele>355.34</ele>
        <time>2015-02-19T12:59:38Z</time>
      </trkpt>
      <trkpt lat="43.97919" lon="3.72977">
        <ele>353.9</ele>
        <time>2015-02-19T12:59:40Z</time>
      </trkpt>
      <trkpt lat="43.97921" lon="3.72974">
        <ele>353.9</ele>
        <time>2015-02-19T12:59:44Z</time>
      </trkpt>
      <trkpt lat="43.97923" lon="3.72969">
        <ele>355.34</ele>
        <time>2015-02-19T12:59:47Z</time>
      </trkpt>
      <trkpt lat="43.97926" lon="3.72962">
        <ele>356.31</ele>
        <time>2015-02-19T12:59:53Z</time>
      </trkpt>
      <trkpt lat="43.97927" lon="3.72961">
        <ele>352.46</ele>
        <time>2015-02-19T12:59:54Z</time>
      </trkpt>
      <trkpt lat="43.97928" lon="3.72956">
        <ele>351.5</ele>
        <time>2015-02-19T13:00:05Z</time>
      </trkpt>
      <trkpt lat="43.97928" lon="3.72956">
        <ele>351.02</ele>
        <time>2015-02-19T13:00:18Z</time>
      </trkpt>
      <trkpt lat="43.97928" lon="3.72956">
        <ele>355.34</ele>
        <time>2015-02-19T13:00:23Z</time>
      </trkpt>
      <trkpt lat="43.97928" lon="3.72956">
        <ele>350.54</ele>
        <time>2015-02-19T13:00:25Z</time>
      </trkpt>
      <trkpt lat="43.97928" lon="3.72956">
        <ele>350.54</ele>
        <time>2015-02-19T13:00:26Z</time>
      </trkpt>
      <trkpt lat="43.97928" lon="3.72956">
        <ele>352.46</ele>
        <time>2015-02-19T13:00:32Z</time>
      </trkpt>
      <trkpt lat="43.97928" lon="3.72956">
        <ele>350.54</ele>
        <time>2015-02-19T13:00:35Z</time>
      </trkpt>
      <trkpt lat="43.97928" lon="3.72956">
        <ele>353.9</ele>
        <time>2015-02-19T13:00:37Z</time>
      </trkpt>
      <trkpt lat="43.97928" lon="3.72956">
        <ele>350.06</ele>
        <time>2015-02-19T13:00:48Z</time>
      </trkpt>
      <trkpt lat="43.97928" lon="3.72956">
        <ele>354.38</ele>
        <time>2015-02-19T13:00:50Z</time>
      </trkpt>
      <trkpt lat="43.97928" lon="3.72956">
        <ele>352.46</ele>
        <time>2015-02-19T13:00:51Z</time>
      </trkpt>
      <trkpt lat="43.97931" lon="3.72954">
        <ele>349.58</ele>
        <time>2015-02-19T13:01:19Z</time>
      </trkpt>
      <trkpt lat="43.97931" lon="3.72953">
        <ele>353.9</ele>
        <time>2015-02-19T13:01:30Z</time>
      </trkpt>
      <trkpt lat="43.97931" lon="3.72953">
        <ele>351.5</ele>
        <time>2015-02-19T13:01:31Z</time>
      </trkpt>
      <trkpt lat="43.97931" lon="3.72953">
        <ele>348.13</ele>
        <time>2015-02-19T13:01:36Z</time>
      </trkpt>
      <trkpt lat="43.97931" lon="3.72953">
        <ele>351.5</ele>
        <time>2015-02-19T13:01:39Z</time>
      </trkpt>
      <trkpt lat="43.97931" lon="3.72953">
        <ele>351.5</ele>
        <time>2015-02-19T13:01:40Z</time>
      </trkpt>
      <trkpt lat="43.97931" lon="3.72953">
        <ele>351.02</ele>
        <time>2015-02-19T13:01:45Z</time>
      </trkpt>
      <trkpt lat="43.97931" lon="3.72953">
        <ele>351.02</ele>
        <time>2015-02-19T13:01:49Z</time>
      </trkpt>
      <trkpt lat="43.97931" lon="3.72953">
        <ele>350.54</ele>
        <time>2015-02-19T13:01:56Z</time>
      </trkpt>
      <trkpt lat="43.97931" lon="3.72953">
        <ele>351.5</ele>
        <time>2015-02-19T13:01:58Z</time>
      </trkpt>
      <trkpt lat="43.97931" lon="3.72953">
        <ele>352.46</ele>
        <time>2015-02-19T13:02:07Z</time>
      </trkpt>
      <trkpt lat="43.97931" lon="3.72953">
        <ele>350.06</ele>
        <time>2015-02-19T13:02:14Z</time>
      </trkpt>
      <trkpt lat="43.97931" lon="3.72953">
        <ele>353.42</ele>
        <time>2015-02-19T13:02:23Z</time>
      </trkpt>
      <trkpt lat="43.97931" lon="3.72953">
        <ele>351.5</ele>
        <time>2015-02-19T13:02:26Z</time>
      </trkpt>
      <trkpt lat="43.97931" lon="3.72953">
        <ele>347.65</ele>
        <time>2015-02-19T13:02:31Z</time>
      </trkpt>
      <trkpt lat="43.97931" lon="3.72953">
        <ele>349.1</ele>
        <time>2015-02-19T13:02:32Z</time>
      </trkpt>
      <trkpt lat="43.97931" lon="3.72953">
        <ele>352.94</ele>
        <time>2015-02-19T13:02:33Z</time>
      </trkpt>
      <trkpt lat="43.97931" lon="3.72953">
        <ele>350.54</ele>
        <time>2015-02-19T13:02:37Z</time>
      </trkpt>
      <trkpt lat="43.97931" lon="3.72953">
        <ele>347.65</ele>
        <time>2015-02-19T13:02:46Z</time>
      </trkpt>
      <trkpt lat="43.97931" lon="3.72953">
        <ele>347.65</ele>
        <time>2015-02-19T13:02:47Z</time>
      </trkpt>
      <trkpt lat="43.97931" lon="3.72953">
        <ele>352.46</ele>
        <time>2015-02-19T13:02:49Z</time>
      </trkpt>
      <trkpt lat="43.97931" lon="3.72952">
        <ele>351.02</ele>
        <time>2015-02-19T13:02:50Z</time>
      </trkpt>
      <trkpt lat="43.97933" lon="3.72944">
        <ele>352.94</ele>
        <time>2015-02-19T13:03:14Z</time>
      </trkpt>
      <trkpt lat="43.97933" lon="3.72943">
        <ele>352.94</ele>
        <time>2015-02-19T13:03:15Z</time>
      </trkpt>
      <trkpt lat="43.97933" lon="3.72943">
        <ele>348.62</ele>
        <time>2015-02-19T13:03:16Z</time>
      </trkpt>
      <trkpt lat="43.97933" lon="3.72933">
        <ele>351.5</ele>
        <time>2015-02-19T13:03:25Z</time>
      </trkpt>
      <trkpt lat="43.97933" lon="3.72931">
        <ele>348.62</ele>
        <time>2015-02-19T13:03:28Z</time>
      </trkpt>
      <trkpt lat="43.97931" lon="3.72918">
        <ele>345.25</ele>
        <time>2015-02-19T13:03:38Z</time>
      </trkpt>
      <trkpt lat="43.97931" lon="3.72915">
        <ele>349.58</ele>
        <time>2015-02-19T13:03:40Z</time>
      </trkpt>
      <trkpt lat="43.97931" lon="3.7291">
        <ele>346.21</ele>
        <time>2015-02-19T13:03:44Z</time>
      </trkpt>
      <trkpt lat="43.97932" lon="3.72909">
        <ele>345.73</ele>
        <time>2015-02-19T13:03:45Z</time>
      </trkpt>
      <trkpt lat="43.97932" lon="3.72903">
        <ele>344.77</ele>
        <time>2015-02-19T13:03:56Z</time>
      </trkpt>
      <trkpt lat="43.97931" lon="3.72891">
        <ele>344.77</ele>
        <time>2015-02-19T13:04:07Z</time>
      </trkpt>
      <trkpt lat="43.97932" lon="3.72882">
        <ele>341.89</ele>
        <time>2015-02-19T13:04:14Z</time>
      </trkpt>
      <trkpt lat="43.97932" lon="3.7288">
        <ele>346.69</ele>
        <time>2015-02-19T13:04:17Z</time>
      </trkpt>
      <trkpt lat="43.97932" lon="3.72876">
        <ele>340.92</ele>
        <time>2015-02-19T13:04:20Z</time>
      </trkpt>
      <trkpt lat="43.97933" lon="3.72876">
        <ele>341.41</ele>
        <time>2015-02-19T13:04:21Z</time>
      </trkpt>
      <trkpt lat="43.97933" lon="3.72876">
        <ele>343.33</ele>
        <time>2015-02-19T13:04:23Z</time>
      </trkpt>
      <trkpt lat="43.97933" lon="3.72873">
        <ele>344.77</ele>
        <time>2015-02-19T13:04:27Z</time>
      </trkpt>
      <trkpt lat="43.97934" lon="3.72871">
        <ele>343.33</ele>
        <time>2015-02-19T13:04:29Z</time>
      </trkpt>
      <trkpt lat="43.97935" lon="3.72869">
        <ele>344.29</ele>
        <time>2015-02-19T13:04:31Z</time>
      </trkpt>
      <trkpt lat="43.97935" lon="3.72864">
        <ele>345.73</ele>
        <time>2015-02-19T13:04:34Z</time>
      </trkpt>
      <trkpt lat="43.97934" lon="3.72863">
        <ele>342.85</ele>
        <time>2015-02-19T13:04:35Z</time>
      </trkpt>
      <trkpt lat="43.97934" lon="3.7286">
        <ele>341.41</ele>
        <time>2015-02-19T13:04:37Z</time>
      </trkpt>
      <trkpt lat="43.97934" lon="3.72856">
        <ele>343.33</ele>
        <time>2015-02-19T13:04:40Z</time>
      </trkpt>
      <trkpt lat="43.97934" lon="3.72853">
        <ele>340.92</ele>
        <time>2015-02-19T13:04:42Z</time>
      </trkpt>
      <trkpt lat="43.97934" lon="3.7285">
        <ele>342.85</ele>
        <time>2015-02-19T13:04:44Z</time>
      </trkpt>
      <trkpt lat="43.97933" lon="3.72846">
        <ele>339.96</ele>
        <time>2015-02-19T13:04:47Z</time>
      </trkpt>
      <trkpt lat="43.97933" lon="3.72843">
        <ele>343.33</ele>
        <time>2015-02-19T13:04:49Z</time>
      </trkpt>
      <trkpt lat="43.97934" lon="3.72841">
        <ele>341.41</ele>
        <time>2015-02-19T13:04:50Z</time>
      </trkpt>
      <trkpt lat="43.97936" lon="3.72835">
        <ele>341.41</ele>
        <time>2015-02-19T13:04:56Z</time>
      </trkpt>
      <trkpt lat="43.97937" lon="3.72834">
        <ele>338.04</ele>
        <time>2015-02-19T13:04:57Z</time>
      </trkpt>
      <trkpt lat="43.97937" lon="3.72833">
        <ele>339.48</ele>
        <time>2015-02-19T13:04:58Z</time>
      </trkpt>
      <trkpt lat="43.97939" lon="3.72828">
        <ele>340.92</ele>
        <time>2015-02-19T13:05:02Z</time>
      </trkpt>
      <trkpt lat="43.9794" lon="3.72823">
        <ele>337.56</ele>
        <time>2015-02-19T13:05:07Z</time>
      </trkpt>
      <trkpt lat="43.9794" lon="3.72822">
        <ele>337.08</ele>
        <time>2015-02-19T13:05:09Z</time>
      </trkpt>
      <trkpt lat="43.97949" lon="3.72814">
        <ele>335.64</ele>
        <time>2015-02-19T13:05:17Z</time>
      </trkpt>
      <trkpt lat="43.9795" lon="3.72812">
        <ele>332.27</ele>
        <time>2015-02-19T13:05:19Z</time>
      </trkpt>
      <trkpt lat="43.9795" lon="3.72811">
        <ele>335.64</ele>
        <time>2015-02-19T13:05:20Z</time>
      </trkpt>
      <trkpt lat="43.97952" lon="3.72807">
        <ele>330.83</ele>
        <time>2015-02-19T13:05:25Z</time>
      </trkpt>
      <trkpt lat="43.97956" lon="3.72802">
        <ele>333.23</ele>
        <time>2015-02-19T13:05:28Z</time>
      </trkpt>
      <trkpt lat="43.97961" lon="3.72796">
        <ele>335.16</ele>
        <time>2015-02-19T13:05:33Z</time>
      </trkpt>
      <trkpt lat="43.97969" lon="3.72783">
        <ele>329.87</ele>
        <time>2015-02-19T13:05:45Z</time>
      </trkpt>
      <trkpt lat="43.9797" lon="3.72772">
        <ele>334.2</ele>
        <time>2015-02-19T13:05:53Z</time>
      </trkpt>
      <trkpt lat="43.9797" lon="3.72769">
        <ele>328.91</ele>
        <time>2015-02-19T13:05:55Z</time>
      </trkpt>
      <trkpt lat="43.9797" lon="3.72767">
        <ele>331.79</ele>
        <time>2015-02-19T13:05:57Z</time>
      </trkpt>
      <trkpt lat="43.97971" lon="3.72763">
        <ele>331.31</ele>
        <time>2015-02-19T13:06:00Z</time>
      </trkpt>
      <trkpt lat="43.97971" lon="3.72759">
        <ele>327.95</ele>
        <time>2015-02-19T13:06:03Z</time>
      </trkpt>
      <trkpt lat="43.97972" lon="3.72754">
        <ele>330.35</ele>
        <time>2015-02-19T13:06:07Z</time>
      </trkpt>
      <trkpt lat="43.97974" lon="3.72748">
        <ele>328.91</ele>
        <time>2015-02-19T13:06:11Z</time>
      </trkpt>
      <trkpt lat="43.97975" lon="3.72742">
        <ele>327.47</ele>
        <time>2015-02-19T13:06:14Z</time>
      </trkpt>
      <trkpt lat="43.97979" lon="3.72737">
        <ele>325.54</ele>
        <time>2015-02-19T13:06:18Z</time>
      </trkpt>
      <trkpt lat="43.97979" lon="3.72735">
        <ele>326.5</ele>
        <time>2015-02-19T13:06:19Z</time>
      </trkpt>
      <trkpt lat="43.97979" lon="3.7273">
        <ele>324.58</ele>
        <time>2015-02-19T13:06:22Z</time>
      </trkpt>
      <trkpt lat="43.97979" lon="3.72728">
        <ele>327.95</ele>
        <time>2015-02-19T13:06:23Z</time>
      </trkpt>
      <trkpt lat="43.97978" lon="3.72723">
        <ele>325.06</ele>
        <time>2015-02-19T13:06:26Z</time>
      </trkpt>
      <trkpt lat="43.97979" lon="3.72722">
        <ele>325.06</ele>
        <time>2015-02-19T13:06:27Z</time>
      </trkpt>
      <trkpt lat="43.97979" lon="3.72719">
        <ele>326.99</ele>
        <time>2015-02-19T13:06:29Z</time>
      </trkpt>
      <trkpt lat="43.9798" lon="3.72718">
        <ele>326.5</ele>
        <time>2015-02-19T13:06:30Z</time>
      </trkpt>
      <trkpt lat="43.9798" lon="3.72715">
        <ele>325.54</ele>
        <time>2015-02-19T13:06:32Z</time>
      </trkpt>
      <trkpt lat="43.97979" lon="3.72706">
        <ele>323.14</ele>
        <time>2015-02-19T13:06:38Z</time>
      </trkpt>
      <trkpt lat="43.97979" lon="3.72704">
        <ele>323.62</ele>
        <time>2015-02-19T13:06:46Z</time>
      </trkpt>
      <trkpt lat="43.97982" lon="3.7269">
        <ele>322.18</ele>
        <time>2015-02-19T13:06:55Z</time>
      </trkpt>
      <trkpt lat="43.97987" lon="3.72676">
        <ele>322.18</ele>
        <time>2015-02-19T13:07:06Z</time>
      </trkpt>
      <trkpt lat="43.97987" lon="3.72673">
        <ele>322.18</ele>
        <time>2015-02-19T13:07:08Z</time>
      </trkpt>
      <trkpt lat="43.9799" lon="3.72665">
        <ele>319.3</ele>
        <time>2015-02-19T13:07:14Z</time>
      </trkpt>
      <trkpt lat="43.9799" lon="3.72659">
        <ele>322.66</ele>
        <time>2015-02-19T13:07:20Z</time>
      </trkpt>
      <trkpt lat="43.9799" lon="3.72659">
        <ele>319.3</ele>
        <time>2015-02-19T13:07:21Z</time>
      </trkpt>
      <trkpt lat="43.97992" lon="3.72649">
        <ele>315.45</ele>
        <time>2015-02-19T13:07:30Z</time>
      </trkpt>
      <trkpt lat="43.97992" lon="3.72648">
        <ele>319.3</ele>
        <time>2015-02-19T13:07:31Z</time>
      </trkpt>
      <trkpt lat="43.97992" lon="3.72643">
        <ele>314.49</ele>
        <time>2015-02-19T13:07:35Z</time>
      </trkpt>
      <trkpt lat="43.97992" lon="3.72642">
        <ele>314.49</ele>
        <time>2015-02-19T13:07:36Z</time>
      </trkpt>
      <trkpt lat="43.97992" lon="3.72637">
        <ele>317.85</ele>
        <time>2015-02-19T13:07:39Z</time>
      </trkpt>
      <trkpt lat="43.97991" lon="3.72633">
        <ele>313.53</ele>
        <time>2015-02-19T13:07:42Z</time>
      </trkpt>
      <trkpt lat="43.9799" lon="3.7263">
        <ele>314.49</ele>
        <time>2015-02-19T13:07:44Z</time>
      </trkpt>
      <trkpt lat="43.9799" lon="3.7262">
        <ele>312.09</ele>
        <time>2015-02-19T13:07:50Z</time>
      </trkpt>
      <trkpt lat="43.9799" lon="3.72617">
        <ele>315.93</ele>
        <time>2015-02-19T13:07:52Z</time>
      </trkpt>
      <trkpt lat="43.9799" lon="3.72616">
        <ele>312.57</ele>
        <time>2015-02-19T13:07:53Z</time>
      </trkpt>
      <trkpt lat="43.97988" lon="3.72609">
        <ele>316.41</ele>
        <time>2015-02-19T13:07:58Z</time>
      </trkpt>
      <trkpt lat="43.97988" lon="3.72608">
        <ele>312.57</ele>
        <time>2015-02-19T13:07:59Z</time>
      </trkpt>
      <trkpt lat="43.9799" lon="3.72599">
        <ele>309.68</ele>
        <time>2015-02-19T13:08:07Z</time>
      </trkpt>
      <trkpt lat="43.97992" lon="3.72591">
        <ele>313.05</ele>
        <time>2015-02-19T13:08:13Z</time>
      </trkpt>
      <trkpt lat="43.97992" lon="3.7259">
        <ele>313.05</ele>
        <time>2015-02-19T13:08:14Z</time>
      </trkpt>
      <trkpt lat="43.97992" lon="3.7259">
        <ele>309.2</ele>
        <time>2015-02-19T13:08:16Z</time>
      </trkpt>
      <trkpt lat="43.97992" lon="3.7259">
        <ele>309.2</ele>
        <time>2015-02-19T13:08:17Z</time>
      </trkpt>
      <trkpt lat="43.97991" lon="3.72591">
        <ele>311.6</ele>
        <time>2015-02-19T13:08:19Z</time>
      </trkpt>
      <trkpt lat="43.97988" lon="3.72592">
        <ele>313.53</ele>
        <time>2015-02-19T13:08:28Z</time>
      </trkpt>
      <trkpt lat="43.97988" lon="3.72592">
        <ele>308.72</ele>
        <time>2015-02-19T13:08:33Z</time>
      </trkpt>
      <trkpt lat="43.97988" lon="3.72592">
        <ele>312.57</ele>
        <time>2015-02-19T13:08:39Z</time>
      </trkpt>
      <trkpt lat="43.97988" lon="3.72592">
        <ele>310.64</ele>
        <time>2015-02-19T13:08:46Z</time>
      </trkpt>
      <trkpt lat="43.97988" lon="3.72592">
        <ele>314.49</ele>
        <time>2015-02-19T13:08:47Z</time>
      </trkpt>
      <trkpt lat="43.97988" lon="3.72592">
        <ele>312.57</ele>
        <time>2015-02-19T13:08:48Z</time>
      </trkpt>
      <trkpt lat="43.97988" lon="3.72592">
        <ele>309.68</ele>
        <time>2015-02-19T13:08:52Z</time>
      </trkpt>
      <trkpt lat="43.9799" lon="3.72585">
        <ele>308.72</ele>
        <time>2015-02-19T13:09:01Z</time>
      </trkpt>
      <trkpt lat="43.97991" lon="3.72582">
        <ele>307.28</ele>
        <time>2015-02-19T13:09:06Z</time>
      </trkpt>
      <trkpt lat="43.97999" lon="3.72567">
        <ele>306.8</ele>
        <time>2015-02-19T13:09:17Z</time>
      </trkpt>
      <trkpt lat="43.97998" lon="3.72565">
        <ele>305.36</ele>
        <time>2015-02-19T13:09:19Z</time>
      </trkpt>
      <trkpt lat="43.97998" lon="3.72564">
        <ele>307.76</ele>
        <time>2015-02-19T13:09:21Z</time>
      </trkpt>
      <trkpt lat="43.98" lon="3.72559">
        <ele>306.8</ele>
        <time>2015-02-19T13:09:24Z</time>
      </trkpt>
      <trkpt lat="43.9801" lon="3.72547">
        <ele>305.36</ele>
        <time>2015-02-19T13:09:32Z</time>
      </trkpt>
      <trkpt lat="43.98013" lon="3.72546">
        <ele>307.28</ele>
        <time>2015-02-19T13:09:33Z</time>
      </trkpt>
      <trkpt lat="43.98017" lon="3.7254">
        <ele>307.76</ele>
        <time>2015-02-19T13:09:36Z</time>
      </trkpt>
      <trkpt lat="43.98024" lon="3.72537">
        <ele>302.95</ele>
        <time>2015-02-19T13:09:38Z</time>
      </trkpt>
      <trkpt lat="43.98029" lon="3.72535">
        <ele>306.8</ele>
        <time>2015-02-19T13:09:40Z</time>
      </trkpt>
      <trkpt lat="43.9803" lon="3.72534">
        <ele>302.47</ele>
        <time>2015-02-19T13:09:41Z</time>
      </trkpt>
      <trkpt lat="43.98033" lon="3.72532">
        <ele>305.36</ele>
        <time>2015-02-19T13:09:43Z</time>
      </trkpt>
      <trkpt lat="43.98034" lon="3.72531">
        <ele>300.07</ele>
        <time>2015-02-19T13:09:45Z</time>
      </trkpt>
      <trkpt lat="43.98043" lon="3.72522">
        <ele>302.47</ele>
        <time>2015-02-19T13:09:53Z</time>
      </trkpt>
      <trkpt lat="43.98044" lon="3.7252">
        <ele>300.07</ele>
        <time>2015-02-19T13:09:55Z</time>
      </trkpt>
      <trkpt lat="43.98046" lon="3.72513">
        <ele>298.63</ele>
        <time>2015-02-19T13:09:58Z</time>
      </trkpt>
      <trkpt lat="43.98048" lon="3.72509">
        <ele>301.03</ele>
        <time>2015-02-19T13:10:01Z</time>
      </trkpt>
      <trkpt lat="43.9805" lon="3.72506">
        <ele>299.59</ele>
        <time>2015-02-19T13:10:03Z</time>
      </trkpt>
      <trkpt lat="43.98052" lon="3.725">
        <ele>296.7</ele>
        <time>2015-02-19T13:10:07Z</time>
      </trkpt>
      <trkpt lat="43.98053" lon="3.72499">
        <ele>297.18</ele>
        <time>2015-02-19T13:10:08Z</time>
      </trkpt>
      <trkpt lat="43.98054" lon="3.72495">
        <ele>298.15</ele>
        <time>2015-02-19T13:10:10Z</time>
      </trkpt>
      <trkpt lat="43.98055" lon="3.72494">
        <ele>301.03</ele>
        <time>2015-02-19T13:10:11Z</time>
      </trkpt>
      <trkpt lat="43.98055" lon="3.72492">
        <ele>295.26</ele>
        <time>2015-02-19T13:10:12Z</time>
      </trkpt>
      <trkpt lat="43.98056" lon="3.7249">
        <ele>295.74</ele>
        <time>2015-02-19T13:10:13Z</time>
      </trkpt>
      <trkpt lat="43.98057" lon="3.72488">
        <ele>299.11</ele>
        <time>2015-02-19T13:10:14Z</time>
      </trkpt>
      <trkpt lat="43.98057" lon="3.72486">
        <ele>299.59</ele>
        <time>2015-02-19T13:10:15Z</time>
      </trkpt>
      <trkpt lat="43.98058" lon="3.72482">
        <ele>294.78</ele>
        <time>2015-02-19T13:10:17Z</time>
      </trkpt>
      <trkpt lat="43.98058" lon="3.7248">
        <ele>297.18</ele>
        <time>2015-02-19T13:10:18Z</time>
      </trkpt>
      <trkpt lat="43.98058" lon="3.72479">
        <ele>293.34</ele>
        <time>2015-02-19T13:10:19Z</time>
      </trkpt>
      <trkpt lat="43.98061" lon="3.72463">
        <ele>291.42</ele>
        <time>2015-02-19T13:10:28Z</time>
      </trkpt>
      <trkpt lat="43.98061" lon="3.7246">
        <ele>291.42</ele>
        <time>2015-02-19T13:10:30Z</time>
      </trkpt>
      <trkpt lat="43.98057" lon="3.72449">
        <ele>291.42</ele>
        <time>2015-02-19T13:10:36Z</time>
      </trkpt>
      <trkpt lat="43.98053" lon="3.72439">
        <ele>287.57</ele>
        <time>2015-02-19T13:10:42Z</time>
      </trkpt>
      <trkpt lat="43.98051" lon="3.72436">
        <ele>290.94</ele>
        <time>2015-02-19T13:10:44Z</time>
      </trkpt>
      <trkpt lat="43.9805" lon="3.72432">
        <ele>289.49</ele>
        <time>2015-02-19T13:10:46Z</time>
      </trkpt>
      <trkpt lat="43.98046" lon="3.72426">
        <ele>286.13</ele>
        <time>2015-02-19T13:10:51Z</time>
      </trkpt>
      <trkpt lat="43.98042" lon="3.72418">
        <ele>284.21</ele>
        <time>2015-02-19T13:11:00Z</time>
      </trkpt>
      <trkpt lat="43.98042" lon="3.72417">
        <ele>284.69</ele>
        <time>2015-02-19T13:11:01Z</time>
      </trkpt>
      <trkpt lat="43.98039" lon="3.72408">
        <ele>281.8</ele>
        <time>2015-02-19T13:11:11Z</time>
      </trkpt>
      <trkpt lat="43.98039" lon="3.72403">
        <ele>279.88</ele>
        <time>2015-02-19T13:11:14Z</time>
      </trkpt>
      <trkpt lat="43.98039" lon="3.72401">
        <ele>283.25</ele>
        <time>2015-02-19T13:11:15Z</time>
      </trkpt>
      <trkpt lat="43.98039" lon="3.72401">
        <ele>283.25</ele>
        <time>2015-02-19T13:11:16Z</time>
      </trkpt>
      <trkpt lat="43.98038" lon="3.72399">
        <ele>279.88</ele>
        <time>2015-02-19T13:11:17Z</time>
      </trkpt>
      <trkpt lat="43.98035" lon="3.72387">
        <ele>281.8</ele>
        <time>2015-02-19T13:11:24Z</time>
      </trkpt>
      <trkpt lat="43.98033" lon="3.72376">
        <ele>277.96</ele>
        <time>2015-02-19T13:11:33Z</time>
      </trkpt>
      <trkpt lat="43.98032" lon="3.72362">
        <ele>274.59</ele>
        <time>2015-02-19T13:11:44Z</time>
      </trkpt>
      <trkpt lat="43.98032" lon="3.72361">
        <ele>275.07</ele>
        <time>2015-02-19T13:11:45Z</time>
      </trkpt>
      <trkpt lat="43.98032" lon="3.72355">
        <ele>274.59</ele>
        <time>2015-02-19T13:11:59Z</time>
      </trkpt>
      <trkpt lat="43.98031" lon="3.72352">
        <ele>275.56</ele>
        <time>2015-02-19T13:12:01Z</time>
      </trkpt>
      <trkpt lat="43.98031" lon="3.72351">
        <ele>274.11</ele>
        <time>2015-02-19T13:12:03Z</time>
      </trkpt>
      <trkpt lat="43.9803" lon="3.72348">
        <ele>271.71</ele>
        <time>2015-02-19T13:12:13Z</time>
      </trkpt>
      <trkpt lat="43.98029" lon="3.72346">
        <ele>277</ele>
        <time>2015-02-19T13:12:15Z</time>
      </trkpt>
      <trkpt lat="43.9803" lon="3.72344">
        <ele>275.07</ele>
        <time>2015-02-19T13:12:16Z</time>
      </trkpt>
      <trkpt lat="43.9803" lon="3.72343">
        <ele>270.75</ele>
        <time>2015-02-19T13:12:19Z</time>
      </trkpt>
      <trkpt lat="43.98029" lon="3.7234">
        <ele>275.07</ele>
        <time>2015-02-19T13:12:21Z</time>
      </trkpt>
      <trkpt lat="43.98029" lon="3.7234">
        <ele>271.71</ele>
        <time>2015-02-19T13:12:22Z</time>
      </trkpt>
      <trkpt lat="43.98031" lon="3.72327">
        <ele>271.23</ele>
        <time>2015-02-19T13:12:31Z</time>
      </trkpt>
      <trkpt lat="43.98035" lon="3.72316">
        <ele>268.83</ele>
        <time>2015-02-19T13:12:42Z</time>
      </trkpt>
      <trkpt lat="43.9804" lon="3.72307">
        <ele>265.46</ele>
        <time>2015-02-19T13:12:54Z</time>
      </trkpt>
      <trkpt lat="43.98043" lon="3.72299">
        <ele>261.62</ele>
        <time>2015-02-19T13:13:01Z</time>
      </trkpt>
      <trkpt lat="43.98043" lon="3.72298">
        <ele>267.38</ele>
        <time>2015-02-19T13:13:02Z</time>
      </trkpt>
      <trkpt lat="43.98043" lon="3.72298">
        <ele>265.46</ele>
        <time>2015-02-19T13:13:03Z</time>
      </trkpt>
      <trkpt lat="43.98045" lon="3.72297">
        <ele>264.5</ele>
        <time>2015-02-19T13:13:05Z</time>
      </trkpt>
      <trkpt lat="43.98047" lon="3.72292">
        <ele>260.65</ele>
        <time>2015-02-19T13:13:10Z</time>
      </trkpt>
      <trkpt lat="43.98047" lon="3.72292">
        <ele>265.46</ele>
        <time>2015-02-19T13:13:11Z</time>
      </trkpt>
      <trkpt lat="43.98049" lon="3.72288">
        <ele>261.62</ele>
        <time>2015-02-19T13:13:13Z</time>
      </trkpt>
      <trkpt lat="43.9805" lon="3.72286">
        <ele>260.17</ele>
        <time>2015-02-19T13:13:15Z</time>
      </trkpt>
      <trkpt lat="43.98051" lon="3.72284">
        <ele>263.54</ele>
        <time>2015-02-19T13:13:16Z</time>
      </trkpt>
      <trkpt lat="43.98053" lon="3.72283">
        <ele>263.06</ele>
        <time>2015-02-19T13:13:17Z</time>
      </trkpt>
      <trkpt lat="43.98055" lon="3.7228">
        <ele>260.65</ele>
        <time>2015-02-19T13:13:19Z</time>
      </trkpt>
      <trkpt lat="43.98058" lon="3.72273">
        <ele>264.5</ele>
        <time>2015-02-19T13:13:23Z</time>
      </trkpt>
      <trkpt lat="43.98059" lon="3.72272">
        <ele>263.06</ele>
        <time>2015-02-19T13:13:24Z</time>
      </trkpt>
      <trkpt lat="43.98061" lon="3.72265">
        <ele>264.02</ele>
        <time>2015-02-19T13:13:29Z</time>
      </trkpt>
      <trkpt lat="43.98064" lon="3.72254">
        <ele>260.65</ele>
        <time>2015-02-19T13:13:37Z</time>
      </trkpt>
      <trkpt lat="43.98065" lon="3.72252">
        <ele>262.1</ele>
        <time>2015-02-19T13:13:38Z</time>
      </trkpt>
      <trkpt lat="43.98065" lon="3.72251">
        <ele>261.14</ele>
        <time>2015-02-19T13:13:39Z</time>
      </trkpt>
      <trkpt lat="43.98066" lon="3.72249">
        <ele>260.65</ele>
        <time>2015-02-19T13:13:41Z</time>
      </trkpt>
      <trkpt lat="43.98068" lon="3.72241">
        <ele>257.77</ele>
        <time>2015-02-19T13:13:47Z</time>
      </trkpt>
      <trkpt lat="43.98068" lon="3.72239">
        <ele>261.62</ele>
        <time>2015-02-19T13:13:48Z</time>
      </trkpt>
      <trkpt lat="43.98071" lon="3.72234">
        <ele>258.73</ele>
        <time>2015-02-19T13:13:51Z</time>
      </trkpt>
      <trkpt lat="43.98075" lon="3.72229">
        <ele>261.14</ele>
        <time>2015-02-19T13:13:55Z</time>
      </trkpt>
      <trkpt lat="43.98078" lon="3.72222">
        <ele>257.29</ele>
        <time>2015-02-19T13:14:00Z</time>
      </trkpt>
      <trkpt lat="43.98079" lon="3.7221">
        <ele>255.37</ele>
        <time>2015-02-19T13:14:12Z</time>
      </trkpt>
      <trkpt lat="43.98082" lon="3.72207">
        <ele>257.77</ele>
        <time>2015-02-19T13:14:15Z</time>
      </trkpt>
      <trkpt lat="43.98082" lon="3.72205">
        <ele>252.96</ele>
        <time>2015-02-19T13:14:16Z</time>
      </trkpt>
      <trkpt lat="43.98082" lon="3.72204">
        <ele>254.89</ele>
        <time>2015-02-19T13:14:17Z</time>
      </trkpt>
      <trkpt lat="43.98083" lon="3.72199">
        <ele>252</ele>
        <time>2015-02-19T13:14:20Z</time>
      </trkpt>
      <trkpt lat="43.98083" lon="3.7219">
        <ele>250.56</ele>
        <time>2015-02-19T13:14:29Z</time>
      </trkpt>
      <trkpt lat="43.98083" lon="3.72187">
        <ele>252.96</ele>
        <time>2015-02-19T13:14:31Z</time>
      </trkpt>
      <trkpt lat="43.98082" lon="3.72177">
        <ele>249.6</ele>
        <time>2015-02-19T13:14:43Z</time>
      </trkpt>
      <trkpt lat="43.98081" lon="3.72163">
        <ele>248.16</ele>
        <time>2015-02-19T13:14:54Z</time>
      </trkpt>
      <trkpt lat="43.98084" lon="3.7216">
        <ele>244.79</ele>
        <time>2015-02-19T13:14:58Z</time>
      </trkpt>
      <trkpt lat="43.98085" lon="3.72155">
        <ele>247.2</ele>
        <time>2015-02-19T13:15:03Z</time>
      </trkpt>
      <trkpt lat="43.98085" lon="3.72152">
        <ele>246.72</ele>
        <time>2015-02-19T13:15:08Z</time>
      </trkpt>
      <trkpt lat="43.98085" lon="3.72151">
        <ele>250.08</ele>
        <time>2015-02-19T13:15:09Z</time>
      </trkpt>
      <trkpt lat="43.98085" lon="3.72149">
        <ele>245.27</ele>
        <time>2015-02-19T13:15:10Z</time>
      </trkpt>
      <trkpt lat="43.98086" lon="3.72143">
        <ele>244.79</ele>
        <time>2015-02-19T13:15:15Z</time>
      </trkpt>
      <trkpt lat="43.98087" lon="3.72137">
        <ele>242.87</ele>
        <time>2015-02-19T13:15:21Z</time>
      </trkpt>
      <trkpt lat="43.98088" lon="3.72134">
        <ele>247.2</ele>
        <time>2015-02-19T13:15:23Z</time>
      </trkpt>
      <trkpt lat="43.98089" lon="3.72133">
        <ele>246.23</ele>
        <time>2015-02-19T13:15:24Z</time>
      </trkpt>
      <trkpt lat="43.98089" lon="3.72132">
        <ele>242.87</ele>
        <time>2015-02-19T13:15:25Z</time>
      </trkpt>
      <trkpt lat="43.98092" lon="3.72128">
        <ele>246.23</ele>
        <time>2015-02-19T13:15:28Z</time>
      </trkpt>
      <trkpt lat="43.98092" lon="3.72127">
        <ele>241.43</ele>
        <time>2015-02-19T13:15:29Z</time>
      </trkpt>
      <trkpt lat="43.98093" lon="3.72125">
        <ele>242.87</ele>
        <time>2015-02-19T13:15:31Z</time>
      </trkpt>
      <trkpt lat="43.98093" lon="3.72122">
        <ele>242.87</ele>
        <time>2015-02-19T13:15:33Z</time>
      </trkpt>
      <trkpt lat="43.98093" lon="3.72119">
        <ele>243.83</ele>
        <time>2015-02-19T13:15:35Z</time>
      </trkpt>
      <trkpt lat="43.98092" lon="3.72117">
        <ele>240.95</ele>
        <time>2015-02-19T13:15:38Z</time>
      </trkpt>
      <trkpt lat="43.9809" lon="3.72108">
        <ele>241.43</ele>
        <time>2015-02-19T13:15:49Z</time>
      </trkpt>
      <trkpt lat="43.98089" lon="3.72103">
        <ele>240.47</ele>
        <time>2015-02-19T13:15:55Z</time>
      </trkpt>
      <trkpt lat="43.98084" lon="3.72092">
        <ele>239.02</ele>
        <time>2015-02-19T13:16:04Z</time>
      </trkpt>
      <trkpt lat="43.98081" lon="3.72085">
        <ele>239.02</ele>
        <time>2015-02-19T13:16:14Z</time>
      </trkpt>
      <trkpt lat="43.98081" lon="3.72082">
        <ele>236.14</ele>
        <time>2015-02-19T13:16:22Z</time>
      </trkpt>
      <trkpt lat="43.98085" lon="3.72079">
        <ele>232.3</ele>
        <time>2015-02-19T13:16:41Z</time>
      </trkpt>
      <trkpt lat="43.98085" lon="3.72079">
        <ele>238.06</ele>
        <time>2015-02-19T13:16:42Z</time>
      </trkpt>
      <trkpt lat="43.98085" lon="3.72079">
        <ele>233.74</ele>
        <time>2015-02-19T13:16:51Z</time>
      </trkpt>
      <trkpt lat="43.98086" lon="3.72078">
        <ele>234.7</ele>
        <time>2015-02-19T13:16:52Z</time>
      </trkpt>
      <trkpt lat="43.98088" lon="3.72076">
        <ele>238.54</ele>
        <time>2015-02-19T13:16:58Z</time>
      </trkpt>
      <trkpt lat="43.98088" lon="3.72076">
        <ele>232.78</ele>
        <time>2015-02-19T13:16:59Z</time>
      </trkpt>
      <trkpt lat="43.98089" lon="3.72075">
        <ele>237.1</ele>
        <time>2015-02-19T13:17:00Z</time>
      </trkpt>
      <trkpt lat="43.9809" lon="3.72073">
        <ele>233.74</ele>
        <time>2015-02-19T13:17:03Z</time>
      </trkpt>
      <trkpt lat="43.98092" lon="3.7207">
        <ele>231.81</ele>
        <time>2015-02-19T13:17:18Z</time>
      </trkpt>
      <trkpt lat="43.98092" lon="3.7207">
        <ele>236.14</ele>
        <time>2015-02-19T13:17:25Z</time>
      </trkpt>
      <trkpt lat="43.98092" lon="3.7207">
        <ele>232.78</ele>
        <time>2015-02-19T13:17:26Z</time>
      </trkpt>
      <trkpt lat="43.98092" lon="3.7207">
        <ele>232.3</ele>
        <time>2015-02-19T13:17:28Z</time>
      </trkpt>
      <trkpt lat="43.98093" lon="3.7207">
        <ele>229.41</ele>
        <time>2015-02-19T13:17:33Z</time>
      </trkpt>
      <trkpt lat="43.98093" lon="3.72069">
        <ele>230.85</ele>
        <time>2015-02-19T13:17:35Z</time>
      </trkpt>
      <trkpt lat="43.98096" lon="3.72067">
        <ele>232.78</ele>
        <time>2015-02-19T13:17:45Z</time>
      </trkpt>
      <trkpt lat="43.98096" lon="3.72067">
        <ele>229.41</ele>
        <time>2015-02-19T13:17:47Z</time>
      </trkpt>
      <trkpt lat="43.98099" lon="3.72057">
        <ele>228.93</ele>
        <time>2015-02-19T13:17:57Z</time>
      </trkpt>
      <trkpt lat="43.981" lon="3.72053">
        <ele>228.93</ele>
        <time>2015-02-19T13:18:03Z</time>
      </trkpt>
      <trkpt lat="43.981" lon="3.72053">
        <ele>226.53</ele>
        <time>2015-02-19T13:18:10Z</time>
      </trkpt>
      <trkpt lat="43.981" lon="3.7205">
        <ele>227.97</ele>
        <time>2015-02-19T13:18:19Z</time>
      </trkpt>
      <trkpt lat="43.98099" lon="3.72048">
        <ele>227.49</ele>
        <time>2015-02-19T13:18:40Z</time>
      </trkpt>
      <trkpt lat="43.981" lon="3.72048">
        <ele>229.41</ele>
        <time>2015-02-19T13:18:42Z</time>
      </trkpt>
      <trkpt lat="43.981" lon="3.72048">
        <ele>226.05</ele>
        <time>2015-02-19T13:18:44Z</time>
      </trkpt>
      <trkpt lat="43.98101" lon="3.72048">
        <ele>225.09</ele>
        <time>2015-02-19T13:18:56Z</time>
      </trkpt>
      <trkpt lat="43.98103" lon="3.72049">
        <ele>222.2</ele>
        <time>2015-02-19T13:19:03Z</time>
      </trkpt>
      <trkpt lat="43.98108" lon="3.72045">
        <ele>222.68</ele>
        <time>2015-02-19T13:19:16Z</time>
      </trkpt>
      <trkpt lat="43.98109" lon="3.7204">
        <ele>222.68</ele>
        <time>2015-02-19T13:19:22Z</time>
      </trkpt>
      <trkpt lat="43.98108" lon="3.72038">
        <ele>219.32</ele>
        <time>2015-02-19T13:19:25Z</time>
      </trkpt>
      <trkpt lat="43.98108" lon="3.72037">
        <ele>221.24</ele>
        <time>2015-02-19T13:19:27Z</time>
      </trkpt>
      <trkpt lat="43.98106" lon="3.72034">
        <ele>217.88</ele>
        <time>2015-02-19T13:19:34Z</time>
      </trkpt>
      <trkpt lat="43.98105" lon="3.72032">
        <ele>221.24</ele>
        <time>2015-02-19T13:19:38Z</time>
      </trkpt>
      <trkpt lat="43.98101" lon="3.72028">
        <ele>215.95</ele>
        <time>2015-02-19T13:19:47Z</time>
      </trkpt>
      <trkpt lat="43.98101" lon="3.72027">
        <ele>219.8</ele>
        <time>2015-02-19T13:19:48Z</time>
      </trkpt>
      <trkpt lat="43.98101" lon="3.72027">
        <ele>216.43</ele>
        <time>2015-02-19T13:19:49Z</time>
      </trkpt>
      <trkpt lat="43.98101" lon="3.72026">
        <ele>219.32</ele>
        <time>2015-02-19T13:19:50Z</time>
      </trkpt>
      <trkpt lat="43.98101" lon="3.72027">
        <ele>215.95</ele>
        <time>2015-02-19T13:19:55Z</time>
      </trkpt>
      <trkpt lat="43.98101" lon="3.72027">
        <ele>216.43</ele>
        <time>2015-02-19T13:19:57Z</time>
      </trkpt>
      <trkpt lat="43.98103" lon="3.72026">
        <ele>219.32</ele>
        <time>2015-02-19T13:20:02Z</time>
      </trkpt>
      <trkpt lat="43.98103" lon="3.72026">
        <ele>220.28</ele>
        <time>2015-02-19T13:20:04Z</time>
      </trkpt>
      <trkpt lat="43.98106" lon="3.72025">
        <ele>216.43</ele>
        <time>2015-02-19T13:20:11Z</time>
      </trkpt>
      <trkpt lat="43.98106" lon="3.72025">
        <ele>215.47</ele>
        <time>2015-02-19T13:20:13Z</time>
      </trkpt>
      <trkpt lat="43.98106" lon="3.72025">
        <ele>217.4</ele>
        <time>2015-02-19T13:20:15Z</time>
      </trkpt>
      <trkpt lat="43.98106" lon="3.72025">
        <ele>215.95</ele>
        <time>2015-02-19T13:20:18Z</time>
      </trkpt>
      <trkpt lat="43.98111" lon="3.72022">
        <ele>215.47</ele>
        <time>2015-02-19T13:20:32Z</time>
      </trkpt>
      <trkpt lat="43.98111" lon="3.7202">
        <ele>213.55</ele>
        <time>2015-02-19T13:20:34Z</time>
      </trkpt>
      <trkpt lat="43.98112" lon="3.72019">
        <ele>216.91</ele>
        <time>2015-02-19T13:20:38Z</time>
      </trkpt>
      <trkpt lat="43.98112" lon="3.72019">
        <ele>213.55</ele>
        <time>2015-02-19T13:20:39Z</time>
      </trkpt>
      <trkpt lat="43.98115" lon="3.72016">
        <ele>214.51</ele>
        <time>2015-02-19T13:20:55Z</time>
      </trkpt>
      <trkpt lat="43.98116" lon="3.72014">
        <ele>211.15</ele>
        <time>2015-02-19T13:20:57Z</time>
      </trkpt>
      <trkpt lat="43.98117" lon="3.7201">
        <ele>206.82</ele>
        <time>2015-02-19T13:21:14Z</time>
      </trkpt>
      <trkpt lat="43.98117" lon="3.7201">
        <ele>211.15</ele>
        <time>2015-02-19T13:21:15Z</time>
      </trkpt>
      <trkpt lat="43.98121" lon="3.72006">
        <ele>207.78</ele>
        <time>2015-02-19T13:21:23Z</time>
      </trkpt>
      <trkpt lat="43.98123" lon="3.72005">
        <ele>211.15</ele>
        <time>2015-02-19T13:21:24Z</time>
      </trkpt>
      <trkpt lat="43.98124" lon="3.72005">
        <ele>210.19</ele>
        <time>2015-02-19T13:21:25Z</time>
      </trkpt>
      <trkpt lat="43.98132" lon="3.72001">
        <ele>206.82</ele>
        <time>2015-02-19T13:21:31Z</time>
      </trkpt>
      <trkpt lat="43.98137" lon="3.71993">
        <ele>206.82</ele>
        <time>2015-02-19T13:21:40Z</time>
      </trkpt>
      <trkpt lat="43.98147" lon="3.71988">
        <ele>206.82</ele>
        <time>2015-02-19T13:21:53Z</time>
      </trkpt>
      <trkpt lat="43.98148" lon="3.71987">
        <ele>207.3</ele>
        <time>2015-02-19T13:21:55Z</time>
      </trkpt>
      <trkpt lat="43.9815" lon="3.71984">
        <ele>205.38</ele>
        <time>2015-02-19T13:22:01Z</time>
      </trkpt>
      <trkpt lat="43.98152" lon="3.71981">
        <ele>204.42</ele>
        <time>2015-02-19T13:22:03Z</time>
      </trkpt>
      <trkpt lat="43.98154" lon="3.71979">
        <ele>208.74</ele>
        <time>2015-02-19T13:22:06Z</time>
      </trkpt>
      <trkpt lat="43.98155" lon="3.71979">
        <ele>207.78</ele>
        <time>2015-02-19T13:22:07Z</time>
      </trkpt>
      <trkpt lat="43.98156" lon="3.71978">
        <ele>205.86</ele>
        <time>2015-02-19T13:22:09Z</time>
      </trkpt>
      <trkpt lat="43.98166" lon="3.7197">
        <ele>206.34</ele>
        <time>2015-02-19T13:22:22Z</time>
      </trkpt>
      <trkpt lat="43.98167" lon="3.71968">
        <ele>204.9</ele>
        <time>2015-02-19T13:22:24Z</time>
      </trkpt>
      <trkpt lat="43.98167" lon="3.71968">
        <ele>208.26</ele>
        <time>2015-02-19T13:22:27Z</time>
      </trkpt>
      <trkpt lat="43.98167" lon="3.71968">
        <ele>207.3</ele>
        <time>2015-02-19T13:22:28Z</time>
      </trkpt>
      <trkpt lat="43.98167" lon="3.71968">
        <ele>206.34</ele>
        <time>2015-02-19T13:22:31Z</time>
      </trkpt>
      <trkpt lat="43.98168" lon="3.71965">
        <ele>203.46</ele>
        <time>2015-02-19T13:22:34Z</time>
      </trkpt>
      <trkpt lat="43.98168" lon="3.71963">
        <ele>206.82</ele>
        <time>2015-02-19T13:22:36Z</time>
      </trkpt>
      <trkpt lat="43.98168" lon="3.71962">
        <ele>205.38</ele>
        <time>2015-02-19T13:22:37Z</time>
      </trkpt>
      <trkpt lat="43.98168" lon="3.7196">
        <ele>203.94</ele>
        <time>2015-02-19T13:22:40Z</time>
      </trkpt>
      <trkpt lat="43.98166" lon="3.71957">
        <ele>206.34</ele>
        <time>2015-02-19T13:22:43Z</time>
      </trkpt>
      <trkpt lat="43.98164" lon="3.71957">
        <ele>203.94</ele>
        <time>2015-02-19T13:22:46Z</time>
      </trkpt>
      <trkpt lat="43.98165" lon="3.71957">
        <ele>207.78</ele>
        <time>2015-02-19T13:22:51Z</time>
      </trkpt>
      <trkpt lat="43.98165" lon="3.71957">
        <ele>206.82</ele>
        <time>2015-02-19T13:22:52Z</time>
      </trkpt>
      <trkpt lat="43.98165" lon="3.71957">
        <ele>202.98</ele>
        <time>2015-02-19T13:23:00Z</time>
      </trkpt>
      <trkpt lat="43.98165" lon="3.71957">
        <ele>204.42</ele>
        <time>2015-02-19T13:23:01Z</time>
      </trkpt>
      <trkpt lat="43.98159" lon="3.71955">
        <ele>206.82</ele>
        <time>2015-02-19T13:23:12Z</time>
      </trkpt>
      <trkpt lat="43.9816" lon="3.71955">
        <ele>202.49</ele>
        <time>2015-02-19T13:23:26Z</time>
      </trkpt>
      <trkpt lat="43.9816" lon="3.71955">
        <ele>205.86</ele>
        <time>2015-02-19T13:23:27Z</time>
      </trkpt>
      <trkpt lat="43.9816" lon="3.71955">
        <ele>209.7</ele>
        <time>2015-02-19T13:23:28Z</time>
      </trkpt>
      <trkpt lat="43.9816" lon="3.71955">
        <ele>206.82</ele>
        <time>2015-02-19T13:23:29Z</time>
      </trkpt>
      <trkpt lat="43.9816" lon="3.71955">
        <ele>203.46</ele>
        <time>2015-02-19T13:23:34Z</time>
      </trkpt>
      <trkpt lat="43.9816" lon="3.71955">
        <ele>206.82</ele>
        <time>2015-02-19T13:23:35Z</time>
      </trkpt>
      <trkpt lat="43.9816" lon="3.71955">
        <ele>206.34</ele>
        <time>2015-02-19T13:23:43Z</time>
      </trkpt>
      <trkpt lat="43.9816" lon="3.71956">
        <ele>205.38</ele>
        <time>2015-02-19T13:23:50Z</time>
      </trkpt>
      <trkpt lat="43.9816" lon="3.71956">
        <ele>208.74</ele>
        <time>2015-02-19T13:23:56Z</time>
      </trkpt>
      <trkpt lat="43.98154" lon="3.71958">
        <ele>205.38</ele>
        <time>2015-02-19T13:24:04Z</time>
      </trkpt>
      <trkpt lat="43.98143" lon="3.71955">
        <ele>206.82</ele>
        <time>2015-02-19T13:24:14Z</time>
      </trkpt>
      <trkpt lat="43.98141" lon="3.71955">
        <ele>209.7</ele>
        <time>2015-02-19T13:24:20Z</time>
      </trkpt>
      <trkpt lat="43.9814" lon="3.71955">
        <ele>209.7</ele>
        <time>2015-02-19T13:24:21Z</time>
      </trkpt>
      <trkpt lat="43.98137" lon="3.71955">
        <ele>205.86</ele>
        <time>2015-02-19T13:24:24Z</time>
      </trkpt>
      <trkpt lat="43.98135" lon="3.71954">
        <ele>209.7</ele>
        <time>2015-02-19T13:24:27Z</time>
      </trkpt>
      <trkpt lat="43.98133" lon="3.71953">
        <ele>207.3</ele>
        <time>2015-02-19T13:24:29Z</time>
      </trkpt>
      <trkpt lat="43.9813" lon="3.71953">
        <ele>210.67</ele>
        <time>2015-02-19T13:24:32Z</time>
      </trkpt>
      <trkpt lat="43.98128" lon="3.71952">
        <ele>206.82</ele>
        <time>2015-02-19T13:24:34Z</time>
      </trkpt>
      <trkpt lat="43.98119" lon="3.71949">
        <ele>211.63</ele>
        <time>2015-02-19T13:24:42Z</time>
      </trkpt>
      <trkpt lat="43.98118" lon="3.71948">
        <ele>211.15</ele>
        <time>2015-02-19T13:24:43Z</time>
      </trkpt>
      <trkpt lat="43.98115" lon="3.71947">
        <ele>207.78</ele>
        <time>2015-02-19T13:24:46Z</time>
      </trkpt>
      <trkpt lat="43.98112" lon="3.71946">
        <ele>211.15</ele>
        <time>2015-02-19T13:24:49Z</time>
      </trkpt>
      <trkpt lat="43.98111" lon="3.71945">
        <ele>211.15</ele>
        <time>2015-02-19T13:24:50Z</time>
      </trkpt>
      <trkpt lat="43.9811" lon="3.71945">
        <ele>207.78</ele>
        <time>2015-02-19T13:24:51Z</time>
      </trkpt>
      <trkpt lat="43.98105" lon="3.71943">
        <ele>211.63</ele>
        <time>2015-02-19T13:24:56Z</time>
      </trkpt>
      <trkpt lat="43.98104" lon="3.71941">
        <ele>208.26</ele>
        <time>2015-02-19T13:24:58Z</time>
      </trkpt>
      <trkpt lat="43.98102" lon="3.7194">
        <ele>209.7</ele>
        <time>2015-02-19T13:25:01Z</time>
      </trkpt>
      <trkpt lat="43.98102" lon="3.7194">
        <ele>208.74</ele>
        <time>2015-02-19T13:25:02Z</time>
      </trkpt>
      <trkpt lat="43.98095" lon="3.71936">
        <ele>209.7</ele>
        <time>2015-02-19T13:25:08Z</time>
      </trkpt>
      <trkpt lat="43.98092" lon="3.71935">
        <ele>211.63</ele>
        <time>2015-02-19T13:25:11Z</time>
      </trkpt>
      <trkpt lat="43.98079" lon="3.71927">
        <ele>211.63</ele>
        <time>2015-02-19T13:25:27Z</time>
      </trkpt>
      <trkpt lat="43.98074" lon="3.71917">
        <ele>213.07</ele>
        <time>2015-02-19T13:25:38Z</time>
      </trkpt>
      <trkpt lat="43.98072" lon="3.71915">
        <ele>214.51</ele>
        <time>2015-02-19T13:25:42Z</time>
      </trkpt>
      <trkpt lat="43.98065" lon="3.71909">
        <ele>215.47</ele>
        <time>2015-02-19T13:25:49Z</time>
      </trkpt>
      <trkpt lat="43.98065" lon="3.71909">
        <ele>214.99</ele>
        <time>2015-02-19T13:25:50Z</time>
      </trkpt>
      <trkpt lat="43.98063" lon="3.71907">
        <ele>213.07</ele>
        <time>2015-02-19T13:25:52Z</time>
      </trkpt>
      <trkpt lat="43.9805" lon="3.719">
        <ele>213.07</ele>
        <time>2015-02-19T13:26:04Z</time>
      </trkpt>
      <trkpt lat="43.98044" lon="3.71896">
        <ele>211.63</ele>
        <time>2015-02-19T13:26:10Z</time>
      </trkpt>
      <trkpt lat="43.98041" lon="3.71892">
        <ele>214.51</ele>
        <time>2015-02-19T13:26:14Z</time>
      </trkpt>
      <trkpt lat="43.98037" lon="3.71891">
        <ele>213.55</ele>
        <time>2015-02-19T13:26:18Z</time>
      </trkpt>
      <trkpt lat="43.98028" lon="3.71885">
        <ele>211.63</ele>
        <time>2015-02-19T13:26:28Z</time>
      </trkpt>
      <trkpt lat="43.98022" lon="3.71878">
        <ele>212.59</ele>
        <time>2015-02-19T13:26:34Z</time>
      </trkpt>
      <trkpt lat="43.98012" lon="3.71869">
        <ele>212.59</ele>
        <time>2015-02-19T13:26:46Z</time>
      </trkpt>
      <trkpt lat="43.9801" lon="3.71868">
        <ele>214.51</ele>
        <time>2015-02-19T13:26:48Z</time>
      </trkpt>
      <trkpt lat="43.98008" lon="3.71866">
        <ele>213.07</ele>
        <time>2015-02-19T13:26:50Z</time>
      </trkpt>
      <trkpt lat="43.98007" lon="3.71866">
        <ele>215.95</ele>
        <time>2015-02-19T13:26:51Z</time>
      </trkpt>
      <trkpt lat="43.98007" lon="3.71865">
        <ele>214.51</ele>
        <time>2015-02-19T13:26:52Z</time>
      </trkpt>
      <trkpt lat="43.97995" lon="3.71858">
        <ele>214.03</ele>
        <time>2015-02-19T13:27:04Z</time>
      </trkpt>
      <trkpt lat="43.97995" lon="3.71858">
        <ele>215.47</ele>
        <time>2015-02-19T13:27:09Z</time>
      </trkpt>
      <trkpt lat="43.97995" lon="3.71858">
        <ele>213.07</ele>
        <time>2015-02-19T13:27:11Z</time>
      </trkpt>
      <trkpt lat="43.97995" lon="3.71858">
        <ele>214.51</ele>
        <time>2015-02-19T13:27:13Z</time>
      </trkpt>
      <trkpt lat="43.97995" lon="3.71858">
        <ele>213.07</ele>
        <time>2015-02-19T13:27:16Z</time>
      </trkpt>
      <trkpt lat="43.97995" lon="3.71858">
        <ele>213.07</ele>
        <time>2015-02-19T13:27:23Z</time>
      </trkpt>
      <trkpt lat="43.97995" lon="3.71857">
        <ele>212.11</ele>
        <time>2015-02-19T13:27:53Z</time>
      </trkpt>
      <trkpt lat="43.97995" lon="3.71857">
        <ele>214.51</ele>
        <time>2015-02-19T13:27:55Z</time>
      </trkpt>
      <trkpt lat="43.97995" lon="3.71857">
        <ele>212.11</ele>
        <time>2015-02-19T13:27:58Z</time>
      </trkpt>
      <trkpt lat="43.97995" lon="3.71857">
        <ele>215.95</ele>
        <time>2015-02-19T13:28:04Z</time>
      </trkpt>
      <trkpt lat="43.97995" lon="3.71857">
        <ele>212.59</ele>
        <time>2015-02-19T13:28:06Z</time>
      </trkpt>
      <trkpt lat="43.97995" lon="3.71857">
        <ele>213.55</ele>
        <time>2015-02-19T13:28:07Z</time>
      </trkpt>
      <trkpt lat="43.97993" lon="3.71856">
        <ele>213.07</ele>
        <time>2015-02-19T13:28:17Z</time>
      </trkpt>
      <trkpt lat="43.97987" lon="3.71854">
        <ele>216.91</ele>
        <time>2015-02-19T13:28:21Z</time>
      </trkpt>
      <trkpt lat="43.97986" lon="3.71853">
        <ele>216.43</ele>
        <time>2015-02-19T13:28:22Z</time>
      </trkpt>
      <trkpt lat="43.97985" lon="3.71852">
        <ele>212.59</ele>
        <time>2015-02-19T13:28:23Z</time>
      </trkpt>
      <trkpt lat="43.97984" lon="3.71851">
        <ele>214.03</ele>
        <time>2015-02-19T13:28:24Z</time>
      </trkpt>
      <trkpt lat="43.97982" lon="3.7185">
        <ele>214.99</ele>
        <time>2015-02-19T13:28:26Z</time>
      </trkpt>
      <trkpt lat="43.97981" lon="3.71849">
        <ele>212.11</ele>
        <time>2015-02-19T13:28:27Z</time>
      </trkpt>
      <trkpt lat="43.9798" lon="3.71849">
        <ele>212.11</ele>
        <time>2015-02-19T13:28:28Z</time>
      </trkpt>
      <trkpt lat="43.97976" lon="3.71847">
        <ele>215.95</ele>
        <time>2015-02-19T13:28:31Z</time>
      </trkpt>
      <trkpt lat="43.97974" lon="3.71845">
        <ele>212.59</ele>
        <time>2015-02-19T13:28:34Z</time>
      </trkpt>
      <trkpt lat="43.97973" lon="3.71844">
        <ele>212.11</ele>
        <time>2015-02-19T13:28:35Z</time>
      </trkpt>
      <trkpt lat="43.97972" lon="3.71844">
        <ele>215.95</ele>
        <time>2015-02-19T13:28:36Z</time>
      </trkpt>
      <trkpt lat="43.97971" lon="3.71843">
        <ele>214.51</ele>
        <time>2015-02-19T13:28:37Z</time>
      </trkpt>
      <trkpt lat="43.97964" lon="3.71839">
        <ele>214.99</ele>
        <time>2015-02-19T13:28:42Z</time>
      </trkpt>
      <trkpt lat="43.97957" lon="3.71835">
        <ele>214.51</ele>
        <time>2015-02-19T13:28:47Z</time>
      </trkpt>
      <trkpt lat="43.9795" lon="3.71831">
        <ele>213.55</ele>
        <time>2015-02-19T13:28:55Z</time>
      </trkpt>
      <trkpt lat="43.97941" lon="3.71825">
        <ele>213.07</ele>
        <time>2015-02-19T13:29:04Z</time>
      </trkpt>
      <trkpt lat="43.97933" lon="3.71821">
        <ele>212.11</ele>
        <time>2015-02-19T13:29:11Z</time>
      </trkpt>
      <trkpt lat="43.97932" lon="3.7182">
        <ele>215.47</ele>
        <time>2015-02-19T13:29:14Z</time>
      </trkpt>
      <trkpt lat="43.97921" lon="3.71813">
        <ele>215.95</ele>
        <time>2015-02-19T13:29:24Z</time>
      </trkpt>
      <trkpt lat="43.97914" lon="3.71808">
        <ele>214.03</ele>
        <time>2015-02-19T13:29:31Z</time>
      </trkpt>
      <trkpt lat="43.97908" lon="3.71805">
        <ele>214.51</ele>
        <time>2015-02-19T13:29:37Z</time>
      </trkpt>
      <trkpt lat="43.97904" lon="3.71804">
        <ele>214.51</ele>
        <time>2015-02-19T13:29:42Z</time>
      </trkpt>
      <trkpt lat="43.9789" lon="3.71796">
        <ele>215.47</ele>
        <time>2015-02-19T13:29:54Z</time>
      </trkpt>
      <trkpt lat="43.97886" lon="3.71796">
        <ele>215.95</ele>
        <time>2015-02-19T13:29:58Z</time>
      </trkpt>
      <trkpt lat="43.97882" lon="3.71793">
        <ele>213.07</ele>
        <time>2015-02-19T13:30:03Z</time>
      </trkpt>
      <trkpt lat="43.97879" lon="3.71791">
        <ele>214.99</ele>
        <time>2015-02-19T13:30:06Z</time>
      </trkpt>
      <trkpt lat="43.97879" lon="3.7179">
        <ele>213.07</ele>
        <time>2015-02-19T13:30:07Z</time>
      </trkpt>
      <trkpt lat="43.97877" lon="3.71789">
        <ele>214.51</ele>
        <time>2015-02-19T13:30:09Z</time>
      </trkpt>
      <trkpt lat="43.97862" lon="3.71783">
        <ele>213.55</ele>
        <time>2015-02-19T13:30:23Z</time>
      </trkpt>
      <trkpt lat="43.97855" lon="3.71783">
        <ele>213.55</ele>
        <time>2015-02-19T13:30:34Z</time>
      </trkpt>
      <trkpt lat="43.97849" lon="3.71779">
        <ele>214.51</ele>
        <time>2015-02-19T13:30:38Z</time>
      </trkpt>
      <trkpt lat="43.97845" lon="3.71774">
        <ele>215.95</ele>
        <time>2015-02-19T13:30:47Z</time>
      </trkpt>
      <trkpt lat="43.97839" lon="3.71767">
        <ele>215.47</ele>
        <time>2015-02-19T13:30:55Z</time>
      </trkpt>
      <trkpt lat="43.97828" lon="3.71762">
        <ele>214.99</ele>
        <time>2015-02-19T13:31:06Z</time>
      </trkpt>
      <trkpt lat="43.97822" lon="3.71762">
        <ele>216.43</ele>
        <time>2015-02-19T13:31:12Z</time>
      </trkpt>
      <trkpt lat="43.97812" lon="3.71758">
        <ele>215.47</ele>
        <time>2015-02-19T13:31:22Z</time>
      </trkpt>
      <trkpt lat="43.97802" lon="3.71755">
        <ele>213.55</ele>
        <time>2015-02-19T13:31:32Z</time>
      </trkpt>
      <trkpt lat="43.978" lon="3.71755">
        <ele>214.03</ele>
        <time>2015-02-19T13:31:34Z</time>
      </trkpt>
      <trkpt lat="43.97797" lon="3.7175">
        <ele>214.51</ele>
        <time>2015-02-19T13:31:38Z</time>
      </trkpt>
      <trkpt lat="43.97785" lon="3.71751">
        <ele>214.03</ele>
        <time>2015-02-19T13:31:53Z</time>
      </trkpt>
      <trkpt lat="43.97773" lon="3.71749">
        <ele>212.59</ele>
        <time>2015-02-19T13:32:04Z</time>
      </trkpt>
      <trkpt lat="43.97769" lon="3.71747">
        <ele>213.55</ele>
        <time>2015-02-19T13:32:07Z</time>
      </trkpt>
      <trkpt lat="43.97758" lon="3.71747">
        <ele>213.55</ele>
        <time>2015-02-19T13:32:19Z</time>
      </trkpt>
      <trkpt lat="43.97746" lon="3.71743">
        <ele>213.07</ele>
        <time>2015-02-19T13:32:32Z</time>
      </trkpt>
      <trkpt lat="43.9774" lon="3.71741">
        <ele>210.67</ele>
        <time>2015-02-19T13:32:41Z</time>
      </trkpt>
      <trkpt lat="43.97732" lon="3.71743">
        <ele>210.67</ele>
        <time>2015-02-19T13:32:51Z</time>
      </trkpt>
      <trkpt lat="43.9773" lon="3.71743">
        <ele>212.11</ele>
        <time>2015-02-19T13:32:54Z</time>
      </trkpt>
      <trkpt lat="43.9773" lon="3.71743">
        <ele>211.63</ele>
        <time>2015-02-19T13:32:55Z</time>
      </trkpt>
      <trkpt lat="43.97725" lon="3.71743">
        <ele>213.55</ele>
        <time>2015-02-19T13:33:00Z</time>
      </trkpt>
      <trkpt lat="43.97723" lon="3.71746">
        <ele>211.63</ele>
        <time>2015-02-19T13:33:03Z</time>
      </trkpt>
      <trkpt lat="43.97715" lon="3.71746">
        <ele>209.7</ele>
        <time>2015-02-19T13:33:10Z</time>
      </trkpt>
      <trkpt lat="43.97711" lon="3.71748">
        <ele>211.63</ele>
        <time>2015-02-19T13:33:14Z</time>
      </trkpt>
      <trkpt lat="43.97698" lon="3.71751">
        <ele>209.22</ele>
        <time>2015-02-19T13:33:27Z</time>
      </trkpt>
      <trkpt lat="43.97694" lon="3.71752">
        <ele>209.22</ele>
        <time>2015-02-19T13:33:31Z</time>
      </trkpt>
      <trkpt lat="43.97678" lon="3.71756">
        <ele>209.22</ele>
        <time>2015-02-19T13:33:45Z</time>
      </trkpt>
      <trkpt lat="43.97677" lon="3.71758">
        <ele>207.78</ele>
        <time>2015-02-19T13:33:48Z</time>
      </trkpt>
      <trkpt lat="43.97677" lon="3.71758">
        <ele>211.63</ele>
        <time>2015-02-19T13:33:49Z</time>
      </trkpt>
      <trkpt lat="43.97676" lon="3.71759">
        <ele>208.26</ele>
        <time>2015-02-19T13:33:50Z</time>
      </trkpt>
      <trkpt lat="43.97676" lon="3.71759">
        <ele>211.15</ele>
        <time>2015-02-19T13:33:51Z</time>
      </trkpt>
      <trkpt lat="43.97672" lon="3.7176">
        <ele>207.78</ele>
        <time>2015-02-19T13:34:04Z</time>
      </trkpt>
      <trkpt lat="43.97672" lon="3.7176">
        <ele>210.67</ele>
        <time>2015-02-19T13:34:05Z</time>
      </trkpt>
      <trkpt lat="43.97669" lon="3.71761">
        <ele>209.7</ele>
        <time>2015-02-19T13:34:07Z</time>
      </trkpt>
      <trkpt lat="43.9766" lon="3.71763">
        <ele>207.3</ele>
        <time>2015-02-19T13:34:18Z</time>
      </trkpt>
      <trkpt lat="43.9766" lon="3.71763">
        <ele>207.3</ele>
        <time>2015-02-19T13:34:19Z</time>
      </trkpt>
      <trkpt lat="43.97658" lon="3.71764">
        <ele>206.34</ele>
        <time>2015-02-19T13:34:24Z</time>
      </trkpt>
      <trkpt lat="43.97655" lon="3.71766">
        <ele>205.86</ele>
        <time>2015-02-19T13:34:27Z</time>
      </trkpt>
      <trkpt lat="43.97651" lon="3.71767">
        <ele>206.34</ele>
        <time>2015-02-19T13:34:38Z</time>
      </trkpt>
      <trkpt lat="43.97638" lon="3.71768">
        <ele>203.46</ele>
        <time>2015-02-19T13:34:47Z</time>
      </trkpt>
      <trkpt lat="43.97633" lon="3.71771">
        <ele>202.98</ele>
        <time>2015-02-19T13:34:51Z</time>
      </trkpt>
      <trkpt lat="43.97619" lon="3.71773">
        <ele>204.42</ele>
        <time>2015-02-19T13:35:03Z</time>
      </trkpt>
      <trkpt lat="43.97615" lon="3.71774">
        <ele>202.49</ele>
        <time>2015-02-19T13:35:06Z</time>
      </trkpt>
      <trkpt lat="43.97605" lon="3.7178">
        <ele>201.53</ele>
        <time>2015-02-19T13:35:16Z</time>
      </trkpt>
      <trkpt lat="43.97602" lon="3.71781">
        <ele>204.9</ele>
        <time>2015-02-19T13:35:19Z</time>
      </trkpt>
      <trkpt lat="43.97601" lon="3.71783">
        <ele>202.01</ele>
        <time>2015-02-19T13:35:21Z</time>
      </trkpt>
      <trkpt lat="43.97594" lon="3.71787">
        <ele>203.94</ele>
        <time>2015-02-19T13:35:31Z</time>
      </trkpt>
      <trkpt lat="43.97592" lon="3.71791">
        <ele>200.57</ele>
        <time>2015-02-19T13:35:34Z</time>
      </trkpt>
      <trkpt lat="43.97583" lon="3.71795">
        <ele>202.49</ele>
        <time>2015-02-19T13:35:41Z</time>
      </trkpt>
      <trkpt lat="43.9758" lon="3.71796">
        <ele>202.01</ele>
        <time>2015-02-19T13:35:44Z</time>
      </trkpt>
      <trkpt lat="43.97577" lon="3.71797">
        <ele>203.94</ele>
        <time>2015-02-19T13:35:46Z</time>
      </trkpt>
      <trkpt lat="43.97574" lon="3.71798">
        <ele>202.98</ele>
        <time>2015-02-19T13:35:50Z</time>
      </trkpt>
      <trkpt lat="43.97568" lon="3.71801">
        <ele>204.9</ele>
        <time>2015-02-19T13:35:57Z</time>
      </trkpt>
      <trkpt lat="43.97562" lon="3.71803">
        <ele>205.38</ele>
        <time>2015-02-19T13:36:03Z</time>
      </trkpt>
      <trkpt lat="43.9756" lon="3.71805">
        <ele>202.49</ele>
        <time>2015-02-19T13:36:06Z</time>
      </trkpt>
      <trkpt lat="43.97558" lon="3.71806">
        <ele>203.46</ele>
        <time>2015-02-19T13:36:07Z</time>
      </trkpt>
      <trkpt lat="43.97555" lon="3.71808">
        <ele>203.46</ele>
        <time>2015-02-19T13:36:10Z</time>
      </trkpt>
      <trkpt lat="43.97551" lon="3.71811">
        <ele>205.38</ele>
        <time>2015-02-19T13:36:15Z</time>
      </trkpt>
      <trkpt lat="43.9755" lon="3.71811">
        <ele>201.53</ele>
        <time>2015-02-19T13:36:16Z</time>
      </trkpt>
      <trkpt lat="43.97549" lon="3.71812">
        <ele>202.98</ele>
        <time>2015-02-19T13:36:17Z</time>
      </trkpt>
      <trkpt lat="43.97547" lon="3.71813">
        <ele>206.34</ele>
        <time>2015-02-19T13:36:19Z</time>
      </trkpt>
      <trkpt lat="43.97547" lon="3.71814">
        <ele>204.42</ele>
        <time>2015-02-19T13:36:20Z</time>
      </trkpt>
      <trkpt lat="43.97545" lon="3.71817">
        <ele>207.3</ele>
        <time>2015-02-19T13:36:23Z</time>
      </trkpt>
      <trkpt lat="43.97545" lon="3.71818">
        <ele>203.94</ele>
        <time>2015-02-19T13:36:24Z</time>
      </trkpt>
      <trkpt lat="43.97545" lon="3.71818">
        <ele>203.94</ele>
        <time>2015-02-19T13:36:25Z</time>
      </trkpt>
      <trkpt lat="43.97544" lon="3.71819">
        <ele>205.38</ele>
        <time>2015-02-19T13:36:27Z</time>
      </trkpt>
      <trkpt lat="43.9754" lon="3.71821">
        <ele>206.82</ele>
        <time>2015-02-19T13:36:32Z</time>
      </trkpt>
      <trkpt lat="43.97537" lon="3.71825">
        <ele>206.82</ele>
        <time>2015-02-19T13:36:45Z</time>
      </trkpt>
      <trkpt lat="43.97536" lon="3.71826">
        <ele>210.19</ele>
        <time>2015-02-19T13:36:46Z</time>
      </trkpt>
      <trkpt lat="43.97537" lon="3.71829">
        <ele>209.22</ele>
        <time>2015-02-19T13:36:49Z</time>
      </trkpt>
      <trkpt lat="43.97535" lon="3.71837">
        <ele>208.74</ele>
        <time>2015-02-19T13:36:58Z</time>
      </trkpt>
      <trkpt lat="43.97531" lon="3.71839">
        <ele>209.7</ele>
        <time>2015-02-19T13:37:03Z</time>
      </trkpt>
      <trkpt lat="43.97523" lon="3.71844">
        <ele>212.11</ele>
        <time>2015-02-19T13:37:11Z</time>
      </trkpt>
      <trkpt lat="43.9752" lon="3.71844">
        <ele>212.59</ele>
        <time>2015-02-19T13:37:22Z</time>
      </trkpt>
      <trkpt lat="43.9752" lon="3.71845">
        <ele>214.03</ele>
        <time>2015-02-19T13:37:38Z</time>
      </trkpt>
      <trkpt lat="43.97519" lon="3.71845">
        <ele>214.03</ele>
        <time>2015-02-19T13:37:51Z</time>
      </trkpt>
      <trkpt lat="43.97514" lon="3.71852">
        <ele>214.99</ele>
        <time>2015-02-19T13:38:09Z</time>
      </trkpt>
      <trkpt lat="43.9751" lon="3.71854">
        <ele>214.99</ele>
        <time>2015-02-19T13:38:12Z</time>
      </trkpt>
      <trkpt lat="43.97503" lon="3.71863">
        <ele>216.43</ele>
        <time>2015-02-19T13:38:23Z</time>
      </trkpt>
      <trkpt lat="43.97498" lon="3.71868">
        <ele>218.36</ele>
        <time>2015-02-19T13:38:33Z</time>
      </trkpt>
      <trkpt lat="43.97497" lon="3.71867">
        <ele>216.43</ele>
        <time>2015-02-19T13:38:35Z</time>
      </trkpt>
      <trkpt lat="43.97497" lon="3.71868">
        <ele>217.88</ele>
        <time>2015-02-19T13:38:36Z</time>
      </trkpt>
      <trkpt lat="43.97493" lon="3.71868">
        <ele>218.36</ele>
        <time>2015-02-19T13:38:41Z</time>
      </trkpt>
      <trkpt lat="43.97484" lon="3.71871">
        <ele>220.28</ele>
        <time>2015-02-19T13:38:57Z</time>
      </trkpt>
      <trkpt lat="43.97475" lon="3.7187">
        <ele>221.24</ele>
        <time>2015-02-19T13:39:08Z</time>
      </trkpt>
      <trkpt lat="43.97467" lon="3.71873">
        <ele>221.72</ele>
        <time>2015-02-19T13:39:18Z</time>
      </trkpt>
      <trkpt lat="43.9746" lon="3.71873">
        <ele>222.68</ele>
        <time>2015-02-19T13:39:30Z</time>
      </trkpt>
      <trkpt lat="43.97454" lon="3.71876">
        <ele>223.64</ele>
        <time>2015-02-19T13:39:42Z</time>
      </trkpt>
      <trkpt lat="43.97449" lon="3.71877">
        <ele>226.05</ele>
        <time>2015-02-19T13:39:56Z</time>
      </trkpt>
      <trkpt lat="43.9745" lon="3.71877">
        <ele>226.05</ele>
        <time>2015-02-19T13:40:28Z</time>
      </trkpt>
      <trkpt lat="43.9745" lon="3.71877">
        <ele>224.61</ele>
        <time>2015-02-19T13:40:43Z</time>
      </trkpt>
      <trkpt lat="43.97449" lon="3.71878">
        <ele>226.05</ele>
        <time>2015-02-19T13:40:59Z</time>
      </trkpt>
      <trkpt lat="43.97449" lon="3.71878">
        <ele>227.01</ele>
        <time>2015-02-19T13:41:03Z</time>
      </trkpt>
      <trkpt lat="43.97439" lon="3.71884">
        <ele>227.97</ele>
        <time>2015-02-19T13:41:30Z</time>
      </trkpt>
      <trkpt lat="43.97437" lon="3.71887">
        <ele>228.93</ele>
        <time>2015-02-19T13:41:34Z</time>
      </trkpt>
      <trkpt lat="43.97429" lon="3.71899">
        <ele>228.93</ele>
        <time>2015-02-19T13:41:45Z</time>
      </trkpt>
      <trkpt lat="43.9742" lon="3.71911">
        <ele>229.41</ele>
        <time>2015-02-19T13:41:56Z</time>
      </trkpt>
      <trkpt lat="43.97412" lon="3.7192">
        <ele>228.93</ele>
        <time>2015-02-19T13:42:04Z</time>
      </trkpt>
      <trkpt lat="43.97407" lon="3.71926">
        <ele>228.45</ele>
        <time>2015-02-19T13:42:12Z</time>
      </trkpt>
      <trkpt lat="43.97396" lon="3.71934">
        <ele>227.01</ele>
        <time>2015-02-19T13:42:23Z</time>
      </trkpt>
      <trkpt lat="43.9739" lon="3.71934">
        <ele>230.37</ele>
        <time>2015-02-19T13:42:31Z</time>
      </trkpt>
      <trkpt lat="43.9739" lon="3.71934">
        <ele>229.89</ele>
        <time>2015-02-19T13:42:32Z</time>
      </trkpt>
      <trkpt lat="43.97387" lon="3.71935">
        <ele>231.33</ele>
        <time>2015-02-19T13:42:37Z</time>
      </trkpt>
      <trkpt lat="43.97389" lon="3.71941">
        <ele>232.3</ele>
        <time>2015-02-19T13:42:50Z</time>
      </trkpt>
      <trkpt lat="43.97381" lon="3.71941">
        <ele>232.78</ele>
        <time>2015-02-19T13:43:03Z</time>
      </trkpt>
      <trkpt lat="43.97376" lon="3.71939">
        <ele>234.7</ele>
        <time>2015-02-19T13:43:09Z</time>
      </trkpt>
      <trkpt lat="43.97374" lon="3.71939">
        <ele>233.74</ele>
        <time>2015-02-19T13:43:12Z</time>
      </trkpt>
      <trkpt lat="43.97372" lon="3.7194">
        <ele>235.18</ele>
        <time>2015-02-19T13:43:14Z</time>
      </trkpt>
      <trkpt lat="43.97366" lon="3.71942">
        <ele>236.14</ele>
        <time>2015-02-19T13:43:24Z</time>
      </trkpt>
      <trkpt lat="43.97362" lon="3.71944">
        <ele>237.58</ele>
        <time>2015-02-19T13:43:30Z</time>
      </trkpt>
      <trkpt lat="43.97354" lon="3.71949">
        <ele>237.1</ele>
        <time>2015-02-19T13:43:42Z</time>
      </trkpt>
      <trkpt lat="43.97352" lon="3.7195">
        <ele>240.47</ele>
        <time>2015-02-19T13:43:44Z</time>
      </trkpt>
      <trkpt lat="43.9735" lon="3.7195">
        <ele>236.14</ele>
        <time>2015-02-19T13:43:47Z</time>
      </trkpt>
      <trkpt lat="43.97349" lon="3.71951">
        <ele>239.99</ele>
        <time>2015-02-19T13:43:48Z</time>
      </trkpt>
      <trkpt lat="43.9734" lon="3.71951">
        <ele>239.51</ele>
        <time>2015-02-19T13:43:58Z</time>
      </trkpt>
      <trkpt lat="43.97331" lon="3.7195">
        <ele>240.47</ele>
        <time>2015-02-19T13:44:06Z</time>
      </trkpt>
      <trkpt lat="43.97322" lon="3.7195">
        <ele>239.02</ele>
        <time>2015-02-19T13:44:17Z</time>
      </trkpt>
      <trkpt lat="43.97315" lon="3.7195">
        <ele>240.95</ele>
        <time>2015-02-19T13:44:25Z</time>
      </trkpt>
      <trkpt lat="43.9731" lon="3.7195">
        <ele>240.95</ele>
        <time>2015-02-19T13:44:42Z</time>
      </trkpt>
      <trkpt lat="43.97302" lon="3.71952">
        <ele>243.35</ele>
        <time>2015-02-19T13:44:51Z</time>
      </trkpt>
      <trkpt lat="43.97301" lon="3.71951">
        <ele>242.87</ele>
        <time>2015-02-19T13:44:52Z</time>
      </trkpt>
      <trkpt lat="43.97298" lon="3.71952">
        <ele>240.47</ele>
        <time>2015-02-19T13:44:55Z</time>
      </trkpt>
      <trkpt lat="43.97296" lon="3.71955">
        <ele>242.39</ele>
        <time>2015-02-19T13:44:58Z</time>
      </trkpt>
      <trkpt lat="43.97296" lon="3.71955">
        <ele>242.87</ele>
        <time>2015-02-19T13:45:03Z</time>
      </trkpt>
      <trkpt lat="43.97295" lon="3.71958">
        <ele>241.91</ele>
        <time>2015-02-19T13:45:14Z</time>
      </trkpt>
      <trkpt lat="43.97294" lon="3.71963">
        <ele>241.91</ele>
        <time>2015-02-19T13:45:32Z</time>
      </trkpt>
      <trkpt lat="43.9729" lon="3.71965">
        <ele>243.83</ele>
        <time>2015-02-19T13:45:40Z</time>
      </trkpt>
      <trkpt lat="43.9729" lon="3.71964">
        <ele>242.87</ele>
        <time>2015-02-19T13:45:47Z</time>
      </trkpt>
      <trkpt lat="43.97292" lon="3.71961">
        <ele>244.31</ele>
        <time>2015-02-19T13:45:50Z</time>
      </trkpt>
      <trkpt lat="43.97294" lon="3.71959">
        <ele>242.39</ele>
        <time>2015-02-19T13:45:52Z</time>
      </trkpt>
      <trkpt lat="43.973" lon="3.71955">
        <ele>243.35</ele>
        <time>2015-02-19T13:46:02Z</time>
      </trkpt>
      <trkpt lat="43.973" lon="3.71954">
        <ele>242.87</ele>
        <time>2015-02-19T13:46:03Z</time>
      </trkpt>
      <trkpt lat="43.97304" lon="3.71954">
        <ele>240.95</ele>
        <time>2015-02-19T13:46:07Z</time>
      </trkpt>
      <trkpt lat="43.97312" lon="3.71953">
        <ele>240.47</ele>
        <time>2015-02-19T13:46:13Z</time>
      </trkpt>
      <trkpt lat="43.97315" lon="3.71952">
        <ele>240.47</ele>
        <time>2015-02-19T13:46:16Z</time>
      </trkpt>
      <trkpt lat="43.97323" lon="3.71953">
        <ele>240.95</ele>
        <time>2015-02-19T13:46:22Z</time>
      </trkpt>
      <trkpt lat="43.97329" lon="3.71955">
        <ele>240.47</ele>
        <time>2015-02-19T13:46:26Z</time>
      </trkpt>
      <trkpt lat="43.97339" lon="3.71955">
        <ele>239.02</ele>
        <time>2015-02-19T13:46:37Z</time>
      </trkpt>
      <trkpt lat="43.97349" lon="3.71953">
        <ele>240.47</ele>
        <time>2015-02-19T13:46:47Z</time>
      </trkpt>
      <trkpt lat="43.9735" lon="3.71951">
        <ele>240.47</ele>
        <time>2015-02-19T13:46:49Z</time>
      </trkpt>
      <trkpt lat="43.97359" lon="3.71946">
        <ele>236.62</ele>
        <time>2015-02-19T13:46:58Z</time>
      </trkpt>
      <trkpt lat="43.97361" lon="3.71945">
        <ele>236.14</ele>
        <time>2015-02-19T13:47:01Z</time>
      </trkpt>
      <trkpt lat="43.97366" lon="3.71943">
        <ele>235.66</ele>
        <time>2015-02-19T13:47:06Z</time>
      </trkpt>
      <trkpt lat="43.97371" lon="3.7194">
        <ele>235.18</ele>
        <time>2015-02-19T13:47:12Z</time>
      </trkpt>
      <trkpt lat="43.97378" lon="3.7194">
        <ele>233.26</ele>
        <time>2015-02-19T13:47:21Z</time>
      </trkpt>
      <trkpt lat="43.97381" lon="3.71942">
        <ele>232.3</ele>
        <time>2015-02-19T13:47:25Z</time>
      </trkpt>
      <trkpt lat="43.97387" lon="3.71943">
        <ele>232.3</ele>
        <time>2015-02-19T13:47:37Z</time>
      </trkpt>
      <trkpt lat="43.9739" lon="3.71942">
        <ele>233.26</ele>
        <time>2015-02-19T13:47:40Z</time>
      </trkpt>
      <trkpt lat="43.97393" lon="3.71941">
        <ele>233.26</ele>
        <time>2015-02-19T13:47:51Z</time>
      </trkpt>
      <trkpt lat="43.97395" lon="3.71942">
        <ele>231.81</ele>
        <time>2015-02-19T13:47:54Z</time>
      </trkpt>
      <trkpt lat="43.97406" lon="3.71939">
        <ele>234.22</ele>
        <time>2015-02-19T13:48:03Z</time>
      </trkpt>
      <trkpt lat="43.97415" lon="3.71936">
        <ele>237.58</ele>
        <time>2015-02-19T13:48:13Z</time>
      </trkpt>
      <trkpt lat="43.97417" lon="3.71934">
        <ele>235.66</ele>
        <time>2015-02-19T13:48:16Z</time>
      </trkpt>
      <trkpt lat="43.97421" lon="3.71929">
        <ele>234.22</ele>
        <time>2015-02-19T13:48:20Z</time>
      </trkpt>
      <trkpt lat="43.97427" lon="3.71924">
        <ele>237.58</ele>
        <time>2015-02-19T13:48:25Z</time>
      </trkpt>
      <trkpt lat="43.97428" lon="3.7192">
        <ele>234.22</ele>
        <time>2015-02-19T13:48:28Z</time>
      </trkpt>
      <trkpt lat="43.9743" lon="3.71915">
        <ele>233.26</ele>
        <time>2015-02-19T13:48:39Z</time>
      </trkpt>
      <trkpt lat="43.9743" lon="3.71915">
        <ele>234.7</ele>
        <time>2015-02-19T13:48:55Z</time>
      </trkpt>
      <trkpt lat="43.9743" lon="3.71915">
        <ele>232.78</ele>
        <time>2015-02-19T13:48:58Z</time>
      </trkpt>
      <trkpt lat="43.9743" lon="3.71915">
        <ele>234.22</ele>
        <time>2015-02-19T13:49:04Z</time>
      </trkpt>
      <trkpt lat="43.9743" lon="3.71915">
        <ele>234.7</ele>
        <time>2015-02-19T13:49:06Z</time>
      </trkpt>
      <trkpt lat="43.97436" lon="3.71917">
        <ele>237.1</ele>
        <time>2015-02-19T13:49:14Z</time>
      </trkpt>
      <trkpt lat="43.97436" lon="3.71917">
        <ele>236.14</ele>
        <time>2015-02-19T13:49:15Z</time>
      </trkpt>
      <trkpt lat="43.97435" lon="3.71917">
        <ele>235.66</ele>
        <time>2015-02-19T13:49:17Z</time>
      </trkpt>
      <trkpt lat="43.97429" lon="3.71915">
        <ele>233.26</ele>
        <time>2015-02-19T13:49:22Z</time>
      </trkpt>
      <trkpt lat="43.9743" lon="3.71913">
        <ele>234.22</ele>
        <time>2015-02-19T13:49:35Z</time>
      </trkpt>
      <trkpt lat="43.97427" lon="3.71914">
        <ele>233.26</ele>
        <time>2015-02-19T13:49:51Z</time>
      </trkpt>
      <trkpt lat="43.97426" lon="3.71914">
        <ele>233.26</ele>
        <time>2015-02-19T13:49:52Z</time>
      </trkpt>
      <trkpt lat="43.97421" lon="3.71926">
        <ele>235.18</ele>
        <time>2015-02-19T13:50:01Z</time>
      </trkpt>
      <trkpt lat="43.97408" lon="3.71937">
        <ele>233.26</ele>
        <time>2015-02-19T13:50:15Z</time>
      </trkpt>
      <trkpt lat="43.97404" lon="3.7194">
        <ele>232.78</ele>
        <time>2015-02-19T13:50:18Z</time>
      </trkpt>
      <trkpt lat="43.97395" lon="3.71948">
        <ele>229.89</ele>
        <time>2015-02-19T13:50:30Z</time>
      </trkpt>
      <trkpt lat="43.97393" lon="3.7195">
        <ele>233.26</ele>
        <time>2015-02-19T13:50:35Z</time>
      </trkpt>
      <trkpt lat="43.97393" lon="3.7195">
        <ele>232.78</ele>
        <time>2015-02-19T13:50:43Z</time>
      </trkpt>
      <trkpt lat="43.97391" lon="3.71956">
        <ele>236.62</ele>
        <time>2015-02-19T13:51:01Z</time>
      </trkpt>
      <trkpt lat="43.97391" lon="3.7196">
        <ele>239.51</ele>
        <time>2015-02-19T13:51:09Z</time>
      </trkpt>
      <trkpt lat="43.97391" lon="3.7196">
        <ele>236.14</ele>
        <time>2015-02-19T13:51:10Z</time>
      </trkpt>
      <trkpt lat="43.97391" lon="3.71962">
        <ele>239.02</ele>
        <time>2015-02-19T13:51:17Z</time>
      </trkpt>
      <trkpt lat="43.97388" lon="3.71964">
        <ele>239.99</ele>
        <time>2015-02-19T13:51:24Z</time>
      </trkpt>
      <trkpt lat="43.97387" lon="3.71963">
        <ele>241.43</ele>
        <time>2015-02-19T13:51:33Z</time>
      </trkpt>
      <trkpt lat="43.97385" lon="3.71964">
        <ele>241.43</ele>
        <time>2015-02-19T13:51:46Z</time>
      </trkpt>
      <trkpt lat="43.97386" lon="3.71966">
        <ele>244.31</ele>
        <time>2015-02-19T13:51:53Z</time>
      </trkpt>
      <trkpt lat="43.97379" lon="3.71968">
        <ele>245.27</ele>
        <time>2015-02-19T13:52:11Z</time>
      </trkpt>
      <trkpt lat="43.97375" lon="3.71972">
        <ele>247.68</ele>
        <time>2015-02-19T13:52:24Z</time>
      </trkpt>
      <trkpt lat="43.97372" lon="3.71972">
        <ele>248.64</ele>
        <time>2015-02-19T13:52:33Z</time>
      </trkpt>
      <trkpt lat="43.97371" lon="3.71972">
        <ele>247.68</ele>
        <time>2015-02-19T13:52:36Z</time>
      </trkpt>
      <trkpt lat="43.97371" lon="3.71972">
        <ele>249.6</ele>
        <time>2015-02-19T13:52:38Z</time>
      </trkpt>
      <trkpt lat="43.97363" lon="3.71975">
        <ele>249.6</ele>
        <time>2015-02-19T13:52:53Z</time>
      </trkpt>
      <trkpt lat="43.97363" lon="3.71976">
        <ele>251.52</ele>
        <time>2015-02-19T13:53:02Z</time>
      </trkpt>
      <trkpt lat="43.97357" lon="3.71976">
        <ele>251.52</ele>
        <time>2015-02-19T13:53:17Z</time>
      </trkpt>
      <trkpt lat="43.97351" lon="3.71982">
        <ele>251.04</ele>
        <time>2015-02-19T13:53:28Z</time>
      </trkpt>
      <trkpt lat="43.97344" lon="3.71986">
        <ele>254.41</ele>
        <time>2015-02-19T13:53:39Z</time>
      </trkpt>
      <trkpt lat="43.97338" lon="3.71992">
        <ele>254.89</ele>
        <time>2015-02-19T13:53:53Z</time>
      </trkpt>
      <trkpt lat="43.97335" lon="3.71996">
        <ele>259.21</ele>
        <time>2015-02-19T13:54:03Z</time>
      </trkpt>
      <trkpt lat="43.97335" lon="3.71996">
        <ele>258.73</ele>
        <time>2015-02-19T13:54:04Z</time>
      </trkpt>
      <trkpt lat="43.97336" lon="3.71997">
        <ele>256.81</ele>
        <time>2015-02-19T13:54:06Z</time>
      </trkpt>
      <trkpt lat="43.97336" lon="3.72001">
        <ele>259.21</ele>
        <time>2015-02-19T13:54:20Z</time>
      </trkpt>
      <trkpt lat="43.97333" lon="3.72004">
        <ele>260.65</ele>
        <time>2015-02-19T13:54:33Z</time>
      </trkpt>
      <trkpt lat="43.97327" lon="3.72011">
        <ele>264.5</ele>
        <time>2015-02-19T13:54:47Z</time>
      </trkpt>
      <trkpt lat="43.97327" lon="3.72012">
        <ele>261.14</ele>
        <time>2015-02-19T13:54:48Z</time>
      </trkpt>
      <trkpt lat="43.97326" lon="3.72014">
        <ele>265.94</ele>
        <time>2015-02-19T13:54:50Z</time>
      </trkpt>
      <trkpt lat="43.9732" lon="3.72017">
        <ele>264.98</ele>
        <time>2015-02-19T13:55:02Z</time>
      </trkpt>
      <trkpt lat="43.97316" lon="3.7202">
        <ele>266.9</ele>
        <time>2015-02-19T13:55:11Z</time>
      </trkpt>
      <trkpt lat="43.97311" lon="3.72027">
        <ele>266.9</ele>
        <time>2015-02-19T13:55:23Z</time>
      </trkpt>
      <trkpt lat="43.97311" lon="3.7203">
        <ele>269.31</ele>
        <time>2015-02-19T13:55:27Z</time>
      </trkpt>
      <trkpt lat="43.97313" lon="3.72034">
        <ele>271.71</ele>
        <time>2015-02-19T13:55:39Z</time>
      </trkpt>
      <trkpt lat="43.97309" lon="3.72041">
        <ele>273.15</ele>
        <time>2015-02-19T13:55:52Z</time>
      </trkpt>
      <trkpt lat="43.97308" lon="3.72042">
        <ele>274.11</ele>
        <time>2015-02-19T13:55:55Z</time>
      </trkpt>
      <trkpt lat="43.97312" lon="3.72041">
        <ele>273.63</ele>
        <time>2015-02-19T13:56:07Z</time>
      </trkpt>
      <trkpt lat="43.97314" lon="3.72041">
        <ele>277.48</ele>
        <time>2015-02-19T13:56:14Z</time>
      </trkpt>
      <trkpt lat="43.97321" lon="3.7204">
        <ele>277.48</ele>
        <time>2015-02-19T13:56:27Z</time>
      </trkpt>
      <trkpt lat="43.97322" lon="3.72041">
        <ele>278.44</ele>
        <time>2015-02-19T13:56:40Z</time>
      </trkpt>
      <trkpt lat="43.97317" lon="3.72047">
        <ele>279.88</ele>
        <time>2015-02-19T13:56:56Z</time>
      </trkpt>
      <trkpt lat="43.97314" lon="3.72053">
        <ele>281.8</ele>
        <time>2015-02-19T13:57:07Z</time>
      </trkpt>
      <trkpt lat="43.97313" lon="3.72059">
        <ele>281.8</ele>
        <time>2015-02-19T13:57:15Z</time>
      </trkpt>
      <trkpt lat="43.97312" lon="3.7206">
        <ele>283.25</ele>
        <time>2015-02-19T13:57:19Z</time>
      </trkpt>
      <trkpt lat="43.97308" lon="3.72068">
        <ele>283.25</ele>
        <time>2015-02-19T13:57:30Z</time>
      </trkpt>
      <trkpt lat="43.97305" lon="3.72079">
        <ele>282.28</ele>
        <time>2015-02-19T13:57:41Z</time>
      </trkpt>
      <trkpt lat="43.97306" lon="3.72086">
        <ele>285.17</ele>
        <time>2015-02-19T13:57:53Z</time>
      </trkpt>
      <trkpt lat="43.97305" lon="3.72092">
        <ele>285.17</ele>
        <time>2015-02-19T13:58:05Z</time>
      </trkpt>
      <trkpt lat="43.97306" lon="3.72094">
        <ele>289.01</ele>
        <time>2015-02-19T13:58:16Z</time>
      </trkpt>
      <trkpt lat="43.97307" lon="3.72095">
        <ele>288.53</ele>
        <time>2015-02-19T13:58:17Z</time>
      </trkpt>
      <trkpt lat="43.97306" lon="3.72102">
        <ele>290.94</ele>
        <time>2015-02-19T13:58:29Z</time>
      </trkpt>
      <trkpt lat="43.97303" lon="3.7211">
        <ele>290.46</ele>
        <time>2015-02-19T13:58:41Z</time>
      </trkpt>
      <trkpt lat="43.97301" lon="3.72116">
        <ele>289.49</ele>
        <time>2015-02-19T13:58:52Z</time>
      </trkpt>
      <trkpt lat="43.97301" lon="3.72118">
        <ele>292.86</ele>
        <time>2015-02-19T13:58:53Z</time>
      </trkpt>
      <trkpt lat="43.97302" lon="3.72123">
        <ele>290.94</ele>
        <time>2015-02-19T13:58:56Z</time>
      </trkpt>
      <trkpt lat="43.97301" lon="3.72123">
        <ele>293.82</ele>
        <time>2015-02-19T13:59:04Z</time>
      </trkpt>
      <trkpt lat="43.97301" lon="3.72123">
        <ele>292.38</ele>
        <time>2015-02-19T13:59:05Z</time>
      </trkpt>
      <trkpt lat="43.97295" lon="3.72131">
        <ele>292.38</ele>
        <time>2015-02-19T13:59:23Z</time>
      </trkpt>
      <trkpt lat="43.97293" lon="3.72141">
        <ele>292.38</ele>
        <time>2015-02-19T13:59:35Z</time>
      </trkpt>
      <trkpt lat="43.97291" lon="3.7215">
        <ele>291.42</ele>
        <time>2015-02-19T13:59:48Z</time>
      </trkpt>
      <trkpt lat="43.97291" lon="3.72151">
        <ele>290.94</ele>
        <time>2015-02-19T13:59:49Z</time>
      </trkpt>
      <trkpt lat="43.97287" lon="3.72162">
        <ele>290.94</ele>
        <time>2015-02-19T14:00:00Z</time>
      </trkpt>
      <trkpt lat="43.97285" lon="3.72169">
        <ele>293.82</ele>
        <time>2015-02-19T14:00:12Z</time>
      </trkpt>
      <trkpt lat="43.97285" lon="3.72169">
        <ele>293.82</ele>
        <time>2015-02-19T14:00:13Z</time>
      </trkpt>
      <trkpt lat="43.97287" lon="3.72175">
        <ele>295.26</ele>
        <time>2015-02-19T14:00:22Z</time>
      </trkpt>
      <trkpt lat="43.97287" lon="3.72186">
        <ele>297.18</ele>
        <time>2015-02-19T14:00:33Z</time>
      </trkpt>
      <trkpt lat="43.97287" lon="3.72192">
        <ele>298.15</ele>
        <time>2015-02-19T14:00:46Z</time>
      </trkpt>
      <trkpt lat="43.97287" lon="3.72194">
        <ele>299.11</ele>
        <time>2015-02-19T14:00:54Z</time>
      </trkpt>
      <trkpt lat="43.97286" lon="3.72199">
        <ele>300.07</ele>
        <time>2015-02-19T14:01:07Z</time>
      </trkpt>
      <trkpt lat="43.97286" lon="3.72204">
        <ele>301.99</ele>
        <time>2015-02-19T14:01:29Z</time>
      </trkpt>
      <trkpt lat="43.97281" lon="3.7221">
        <ele>304.39</ele>
        <time>2015-02-19T14:01:40Z</time>
      </trkpt>
      <trkpt lat="43.97282" lon="3.72211">
        <ele>305.36</ele>
        <time>2015-02-19T14:01:46Z</time>
      </trkpt>
      <trkpt lat="43.9728" lon="3.72214">
        <ele>303.43</ele>
        <time>2015-02-19T14:01:50Z</time>
      </trkpt>
      <trkpt lat="43.97277" lon="3.72221">
        <ele>305.36</ele>
        <time>2015-02-19T14:01:57Z</time>
      </trkpt>
      <trkpt lat="43.97275" lon="3.72225">
        <ele>307.76</ele>
        <time>2015-02-19T14:02:10Z</time>
      </trkpt>
      <trkpt lat="43.97281" lon="3.72232">
        <ele>308.72</ele>
        <time>2015-02-19T14:02:21Z</time>
      </trkpt>
      <trkpt lat="43.97284" lon="3.72237">
        <ele>310.16</ele>
        <time>2015-02-19T14:02:32Z</time>
      </trkpt>
      <trkpt lat="43.97279" lon="3.72239">
        <ele>310.16</ele>
        <time>2015-02-19T14:02:44Z</time>
      </trkpt>
      <trkpt lat="43.97279" lon="3.72247">
        <ele>314.01</ele>
        <time>2015-02-19T14:02:55Z</time>
      </trkpt>
      <trkpt lat="43.97281" lon="3.72249">
        <ele>313.05</ele>
        <time>2015-02-19T14:02:59Z</time>
      </trkpt>
      <trkpt lat="43.9728" lon="3.72253">
        <ele>315.93</ele>
        <time>2015-02-19T14:03:10Z</time>
      </trkpt>
      <trkpt lat="43.97278" lon="3.72258">
        <ele>317.37</ele>
        <time>2015-02-19T14:03:21Z</time>
      </trkpt>
      <trkpt lat="43.97278" lon="3.72259">
        <ele>315.45</ele>
        <time>2015-02-19T14:03:22Z</time>
      </trkpt>
      <trkpt lat="43.97277" lon="3.72265">
        <ele>315.93</ele>
        <time>2015-02-19T14:03:30Z</time>
      </trkpt>
      <trkpt lat="43.97276" lon="3.72266">
        <ele>318.33</ele>
        <time>2015-02-19T14:03:44Z</time>
      </trkpt>
      <trkpt lat="43.97275" lon="3.72268">
        <ele>321.7</ele>
        <time>2015-02-19T14:03:54Z</time>
      </trkpt>
      <trkpt lat="43.97274" lon="3.72269">
        <ele>318.33</ele>
        <time>2015-02-19T14:03:55Z</time>
      </trkpt>
      <trkpt lat="43.97274" lon="3.72269">
        <ele>318.81</ele>
        <time>2015-02-19T14:03:56Z</time>
      </trkpt>
      <trkpt lat="43.97271" lon="3.72273">
        <ele>318.33</ele>
        <time>2015-02-19T14:04:09Z</time>
      </trkpt>
      <trkpt lat="43.97269" lon="3.72273">
        <ele>321.7</ele>
        <time>2015-02-19T14:04:17Z</time>
      </trkpt>
      <trkpt lat="43.97266" lon="3.72277">
        <ele>319.78</ele>
        <time>2015-02-19T14:04:31Z</time>
      </trkpt>
      <trkpt lat="43.97264" lon="3.72277">
        <ele>319.78</ele>
        <time>2015-02-19T14:04:35Z</time>
      </trkpt>
      <trkpt lat="43.97262" lon="3.72276">
        <ele>321.7</ele>
        <time>2015-02-19T14:04:48Z</time>
      </trkpt>
      <trkpt lat="43.97261" lon="3.72275">
        <ele>321.22</ele>
        <time>2015-02-19T14:04:56Z</time>
      </trkpt>
      <trkpt lat="43.97256" lon="3.72275">
        <ele>324.1</ele>
        <time>2015-02-19T14:05:08Z</time>
      </trkpt>
      <trkpt lat="43.97255" lon="3.72269">
        <ele>324.58</ele>
        <time>2015-02-19T14:05:20Z</time>
      </trkpt>
      <trkpt lat="43.97254" lon="3.72263">
        <ele>328.43</ele>
        <time>2015-02-19T14:05:34Z</time>
      </trkpt>
      <trkpt lat="43.97251" lon="3.72258">
        <ele>328.43</ele>
        <time>2015-02-19T14:05:42Z</time>
      </trkpt>
      <trkpt lat="43.97247" lon="3.72255">
        <ele>331.31</ele>
        <time>2015-02-19T14:05:55Z</time>
      </trkpt>
      <trkpt lat="43.97243" lon="3.72258">
        <ele>331.31</ele>
        <time>2015-02-19T14:06:09Z</time>
      </trkpt>
      <trkpt lat="43.97242" lon="3.72258">
        <ele>335.16</ele>
        <time>2015-02-19T14:06:14Z</time>
      </trkpt>
      <trkpt lat="43.97242" lon="3.72258">
        <ele>331.79</ele>
        <time>2015-02-19T14:06:15Z</time>
      </trkpt>
      <trkpt lat="43.97242" lon="3.72258">
        <ele>334.68</ele>
        <time>2015-02-19T14:06:17Z</time>
      </trkpt>
      <trkpt lat="43.97237" lon="3.72254">
        <ele>334.68</ele>
        <time>2015-02-19T14:06:31Z</time>
      </trkpt>
      <trkpt lat="43.97229" lon="3.7225">
        <ele>336.6</ele>
        <time>2015-02-19T14:06:42Z</time>
      </trkpt>
      <trkpt lat="43.97225" lon="3.72249">
        <ele>338.04</ele>
        <time>2015-02-19T14:06:50Z</time>
      </trkpt>
      <trkpt lat="43.97219" lon="3.72247">
        <ele>340.44</ele>
        <time>2015-02-19T14:07:04Z</time>
      </trkpt>
      <trkpt lat="43.97216" lon="3.72249">
        <ele>341.41</ele>
        <time>2015-02-19T14:07:15Z</time>
      </trkpt>
      <trkpt lat="43.97214" lon="3.72255">
        <ele>342.85</ele>
        <time>2015-02-19T14:07:27Z</time>
      </trkpt>
      <trkpt lat="43.97215" lon="3.72263">
        <ele>344.29</ele>
        <time>2015-02-19T14:07:38Z</time>
      </trkpt>
      <trkpt lat="43.97216" lon="3.72264">
        <ele>343.33</ele>
        <time>2015-02-19T14:07:40Z</time>
      </trkpt>
      <trkpt lat="43.97216" lon="3.72265">
        <ele>345.73</ele>
        <time>2015-02-19T14:07:42Z</time>
      </trkpt>
      <trkpt lat="43.97216" lon="3.72266">
        <ele>344.77</ele>
        <time>2015-02-19T14:07:46Z</time>
      </trkpt>
      <trkpt lat="43.97217" lon="3.72273">
        <ele>348.62</ele>
        <time>2015-02-19T14:07:56Z</time>
      </trkpt>
      <trkpt lat="43.97217" lon="3.72273">
        <ele>348.13</ele>
        <time>2015-02-19T14:07:57Z</time>
      </trkpt>
      <trkpt lat="43.97217" lon="3.72274">
        <ele>347.17</ele>
        <time>2015-02-19T14:07:59Z</time>
      </trkpt>
      <trkpt lat="43.97218" lon="3.72277">
        <ele>348.13</ele>
        <time>2015-02-19T14:08:01Z</time>
      </trkpt>
      <trkpt lat="43.97217" lon="3.72278">
        <ele>349.1</ele>
        <time>2015-02-19T14:08:12Z</time>
      </trkpt>
      <trkpt lat="43.97218" lon="3.72282">
        <ele>351.5</ele>
        <time>2015-02-19T14:08:19Z</time>
      </trkpt>
      <trkpt lat="43.97215" lon="3.72285">
        <ele>354.86</ele>
        <time>2015-02-19T14:08:28Z</time>
      </trkpt>
      <trkpt lat="43.97214" lon="3.7229">
        <ele>355.34</ele>
        <time>2015-02-19T14:08:40Z</time>
      </trkpt>
      <trkpt lat="43.97214" lon="3.7229">
        <ele>355.34</ele>
        <time>2015-02-19T14:08:41Z</time>
      </trkpt>
      <trkpt lat="43.97213" lon="3.72292">
        <ele>356.79</ele>
        <time>2015-02-19T14:08:49Z</time>
      </trkpt>
      <trkpt lat="43.97213" lon="3.72297">
        <ele>358.71</ele>
        <time>2015-02-19T14:09:02Z</time>
      </trkpt>
      <trkpt lat="43.97212" lon="3.72303">
        <ele>360.63</ele>
        <time>2015-02-19T14:09:14Z</time>
      </trkpt>
      <trkpt lat="43.97211" lon="3.72303">
        <ele>359.19</ele>
        <time>2015-02-19T14:09:18Z</time>
      </trkpt>
      <trkpt lat="43.97211" lon="3.72303">
        <ele>358.71</ele>
        <time>2015-02-19T14:09:43Z</time>
      </trkpt>
      <trkpt lat="43.9721" lon="3.72304">
        <ele>362.07</ele>
        <time>2015-02-19T14:10:27Z</time>
      </trkpt>
      <trkpt lat="43.9721" lon="3.72304">
        <ele>358.71</ele>
        <time>2015-02-19T14:10:29Z</time>
      </trkpt>
      <trkpt lat="43.97208" lon="3.72304">
        <ele>363.04</ele>
        <time>2015-02-19T14:10:35Z</time>
      </trkpt>
      <trkpt lat="43.97206" lon="3.72306">
        <ele>362.55</ele>
        <time>2015-02-19T14:10:53Z</time>
      </trkpt>
      <trkpt lat="43.97206" lon="3.72306">
        <ele>363.04</ele>
        <time>2015-02-19T14:10:55Z</time>
      </trkpt>
      <trkpt lat="43.97205" lon="3.72306">
        <ele>364.48</ele>
        <time>2015-02-19T14:11:02Z</time>
      </trkpt>
      <trkpt lat="43.97204" lon="3.72307">
        <ele>362.55</ele>
        <time>2015-02-19T14:11:05Z</time>
      </trkpt>
      <trkpt lat="43.97201" lon="3.72307">
        <ele>363.04</ele>
        <time>2015-02-19T14:11:17Z</time>
      </trkpt>
      <trkpt lat="43.97201" lon="3.72307">
        <ele>363.52</ele>
        <time>2015-02-19T14:11:19Z</time>
      </trkpt>
      <trkpt lat="43.97198" lon="3.72312">
        <ele>365.44</ele>
        <time>2015-02-19T14:12:07Z</time>
      </trkpt>
      <trkpt lat="43.97195" lon="3.72315">
        <ele>366.4</ele>
        <time>2015-02-19T14:12:17Z</time>
      </trkpt>
      <trkpt lat="43.97194" lon="3.72319">
        <ele>369.76</ele>
        <time>2015-02-19T14:12:30Z</time>
      </trkpt>
      <trkpt lat="43.9719" lon="3.72321">
        <ele>369.76</ele>
        <time>2015-02-19T14:12:44Z</time>
      </trkpt>
      <trkpt lat="43.9719" lon="3.72322">
        <ele>371.69</ele>
        <time>2015-02-19T14:12:56Z</time>
      </trkpt>
      <trkpt lat="43.9719" lon="3.72324">
        <ele>374.57</ele>
        <time>2015-02-19T14:13:04Z</time>
      </trkpt>
      <trkpt lat="43.97188" lon="3.72328">
        <ele>376.97</ele>
        <time>2015-02-19T14:13:16Z</time>
      </trkpt>
      <trkpt lat="43.97188" lon="3.72328">
        <ele>374.09</ele>
        <time>2015-02-19T14:13:20Z</time>
      </trkpt>
      <trkpt lat="43.97188" lon="3.72328">
        <ele>377.94</ele>
        <time>2015-02-19T14:13:22Z</time>
      </trkpt>
      <trkpt lat="43.97186" lon="3.72332">
        <ele>378.42</ele>
        <time>2015-02-19T14:13:35Z</time>
      </trkpt>
      <trkpt lat="43.97183" lon="3.72338">
        <ele>381.3</ele>
        <time>2015-02-19T14:13:46Z</time>
      </trkpt>
      <trkpt lat="43.97183" lon="3.72338">
        <ele>377.94</ele>
        <time>2015-02-19T14:13:54Z</time>
      </trkpt>
      <trkpt lat="43.97183" lon="3.72338">
        <ele>381.3</ele>
        <time>2015-02-19T14:13:56Z</time>
      </trkpt>
      <trkpt lat="43.97183" lon="3.72338">
        <ele>380.82</ele>
        <time>2015-02-19T14:13:57Z</time>
      </trkpt>
      <trkpt lat="43.97183" lon="3.72338">
        <ele>378.42</ele>
        <time>2015-02-19T14:14:07Z</time>
      </trkpt>
      <trkpt lat="43.97183" lon="3.72338">
        <ele>380.34</ele>
        <time>2015-02-19T14:14:10Z</time>
      </trkpt>
      <trkpt lat="43.97185" lon="3.72338">
        <ele>381.3</ele>
        <time>2015-02-19T14:14:16Z</time>
      </trkpt>
      <trkpt lat="43.9719" lon="3.72342">
        <ele>381.3</ele>
        <time>2015-02-19T14:14:28Z</time>
      </trkpt>
      <trkpt lat="43.9719" lon="3.72342">
        <ele>382.74</ele>
        <time>2015-02-19T14:14:32Z</time>
      </trkpt>
      <trkpt lat="43.9719" lon="3.72342">
        <ele>383.7</ele>
        <time>2015-02-19T14:14:37Z</time>
      </trkpt>
      <trkpt lat="43.97195" lon="3.72346">
        <ele>383.7</ele>
        <time>2015-02-19T14:14:49Z</time>
      </trkpt>
      <trkpt lat="43.97197" lon="3.72346">
        <ele>385.15</ele>
        <time>2015-02-19T14:14:56Z</time>
      </trkpt>
      <trkpt lat="43.97202" lon="3.72349">
        <ele>387.07</ele>
        <time>2015-02-19T14:15:22Z</time>
      </trkpt>
      <trkpt lat="43.97205" lon="3.72352">
        <ele>389.47</ele>
        <time>2015-02-19T14:15:37Z</time>
      </trkpt>
      <trkpt lat="43.97205" lon="3.72353">
        <ele>386.59</ele>
        <time>2015-02-19T14:15:38Z</time>
      </trkpt>
      <trkpt lat="43.97206" lon="3.72354">
        <ele>389.95</ele>
        <time>2015-02-19T14:15:41Z</time>
      </trkpt>
      <trkpt lat="43.97206" lon="3.72355">
        <ele>388.51</ele>
        <time>2015-02-19T14:15:42Z</time>
      </trkpt>
      <trkpt lat="43.97205" lon="3.72355">
        <ele>390.43</ele>
        <time>2015-02-19T14:15:49Z</time>
      </trkpt>
      <trkpt lat="43.97204" lon="3.72355">
        <ele>390.91</ele>
        <time>2015-02-19T14:15:53Z</time>
      </trkpt>
      <trkpt lat="43.97201" lon="3.72357">
        <ele>391.87</ele>
        <time>2015-02-19T14:16:00Z</time>
      </trkpt>
      <trkpt lat="43.97198" lon="3.72359">
        <ele>391.87</ele>
        <time>2015-02-19T14:16:05Z</time>
      </trkpt>
      <trkpt lat="43.97196" lon="3.72363">
        <ele>392.84</ele>
        <time>2015-02-19T14:16:18Z</time>
      </trkpt>
      <trkpt lat="43.97197" lon="3.72365">
        <ele>396.68</ele>
        <time>2015-02-19T14:16:28Z</time>
      </trkpt>
      <trkpt lat="43.97191" lon="3.72372">
        <ele>399.08</ele>
        <time>2015-02-19T14:16:39Z</time>
      </trkpt>
      <trkpt lat="43.97191" lon="3.72373">
        <ele>398.12</ele>
        <time>2015-02-19T14:16:41Z</time>
      </trkpt>
      <trkpt lat="43.9719" lon="3.72374">
        <ele>400.05</ele>
        <time>2015-02-19T14:16:44Z</time>
      </trkpt>
      <trkpt lat="43.97189" lon="3.72376">
        <ele>400.53</ele>
        <time>2015-02-19T14:16:53Z</time>
      </trkpt>
      <trkpt lat="43.97188" lon="3.72376">
        <ele>403.89</ele>
        <time>2015-02-19T14:17:06Z</time>
      </trkpt>
      <trkpt lat="43.97187" lon="3.72376">
        <ele>402.93</ele>
        <time>2015-02-19T14:17:16Z</time>
      </trkpt>
      <trkpt lat="43.97184" lon="3.72381">
        <ele>406.29</ele>
        <time>2015-02-19T14:17:22Z</time>
      </trkpt>
      <trkpt lat="43.97184" lon="3.72382">
        <ele>404.85</ele>
        <time>2015-02-19T14:17:23Z</time>
      </trkpt>
      <trkpt lat="43.97183" lon="3.72385">
        <ele>403.89</ele>
        <time>2015-02-19T14:17:37Z</time>
      </trkpt>
      <trkpt lat="43.97183" lon="3.72385">
        <ele>406.29</ele>
        <time>2015-02-19T14:17:38Z</time>
      </trkpt>
      <trkpt lat="43.97174" lon="3.72394">
        <ele>405.81</ele>
        <time>2015-02-19T14:17:53Z</time>
      </trkpt>
      <trkpt lat="43.97169" lon="3.72395">
        <ele>407.26</ele>
        <time>2015-02-19T14:18:04Z</time>
      </trkpt>
      <trkpt lat="43.97166" lon="3.72402">
        <ele>407.26</ele>
        <time>2015-02-19T14:18:17Z</time>
      </trkpt>
      <trkpt lat="43.97167" lon="3.72407">
        <ele>407.26</ele>
        <time>2015-02-19T14:18:32Z</time>
      </trkpt>
      <trkpt lat="43.97167" lon="3.72407">
        <ele>410.14</ele>
        <time>2015-02-19T14:18:40Z</time>
      </trkpt>
      <trkpt lat="43.97167" lon="3.72408">
        <ele>408.7</ele>
        <time>2015-02-19T14:18:43Z</time>
      </trkpt>
      <trkpt lat="43.97169" lon="3.72409">
        <ele>412.06</ele>
        <time>2015-02-19T14:18:54Z</time>
      </trkpt>
      <trkpt lat="43.97169" lon="3.72409">
        <ele>411.58</ele>
        <time>2015-02-19T14:18:55Z</time>
      </trkpt>
      <trkpt lat="43.97169" lon="3.7241">
        <ele>414.95</ele>
        <time>2015-02-19T14:19:07Z</time>
      </trkpt>
      <trkpt lat="43.97169" lon="3.7241">
        <ele>413.02</ele>
        <time>2015-02-19T14:19:10Z</time>
      </trkpt>
      <trkpt lat="43.97168" lon="3.72409">
        <ele>416.39</ele>
        <time>2015-02-19T14:19:20Z</time>
      </trkpt>
      <trkpt lat="43.97168" lon="3.72409">
        <ele>415.43</ele>
        <time>2015-02-19T14:19:24Z</time>
      </trkpt>
      <trkpt lat="43.97167" lon="3.7241">
        <ele>417.35</ele>
        <time>2015-02-19T14:19:43Z</time>
      </trkpt>
      <trkpt lat="43.97168" lon="3.72411">
        <ele>420.71</ele>
        <time>2015-02-19T14:19:59Z</time>
      </trkpt>
      <trkpt lat="43.97171" lon="3.7241">
        <ele>423.6</ele>
        <time>2015-02-19T14:20:12Z</time>
      </trkpt>
      <trkpt lat="43.97171" lon="3.7241">
        <ele>424.08</ele>
        <time>2015-02-19T14:20:19Z</time>
      </trkpt>
      <trkpt lat="43.97171" lon="3.7241">
        <ele>420.71</ele>
        <time>2015-02-19T14:20:21Z</time>
      </trkpt>
      <trkpt lat="43.97171" lon="3.7241">
        <ele>420.71</ele>
        <time>2015-02-19T14:20:22Z</time>
      </trkpt>
      <trkpt lat="43.97171" lon="3.7241">
        <ele>422.16</ele>
        <time>2015-02-19T14:20:23Z</time>
      </trkpt>
      <trkpt lat="43.97173" lon="3.72413">
        <ele>422.64</ele>
        <time>2015-02-19T14:20:34Z</time>
      </trkpt>
      <trkpt lat="43.97174" lon="3.72414">
        <ele>426.96</ele>
        <time>2015-02-19T14:20:46Z</time>
      </trkpt>
      <trkpt lat="43.97175" lon="3.72422">
        <ele>423.6</ele>
        <time>2015-02-19T14:21:04Z</time>
      </trkpt>
      <trkpt lat="43.97178" lon="3.72424">
        <ele>426.96</ele>
        <time>2015-02-19T14:21:08Z</time>
      </trkpt>
      <trkpt lat="43.97183" lon="3.7242">
        <ele>427.92</ele>
        <time>2015-02-19T14:21:20Z</time>
      </trkpt>
      <trkpt lat="43.9719" lon="3.72414">
        <ele>428.4</ele>
        <time>2015-02-19T14:21:32Z</time>
      </trkpt>
      <trkpt lat="43.97196" lon="3.72418">
        <ele>430.81</ele>
        <time>2015-02-19T14:21:44Z</time>
      </trkpt>
      <trkpt lat="43.97199" lon="3.72416">
        <ele>430.81</ele>
        <time>2015-02-19T14:21:50Z</time>
      </trkpt>
      <trkpt lat="43.97201" lon="3.72416">
        <ele>429.37</ele>
        <time>2015-02-19T14:21:53Z</time>
      </trkpt>
      <trkpt lat="43.97203" lon="3.72417">
        <ele>429.37</ele>
        <time>2015-02-19T14:21:57Z</time>
      </trkpt>
      <trkpt lat="43.97205" lon="3.72421">
        <ele>431.77</ele>
        <time>2015-02-19T14:22:05Z</time>
      </trkpt>
      <trkpt lat="43.97203" lon="3.72425">
        <ele>434.65</ele>
        <time>2015-02-19T14:22:19Z</time>
      </trkpt>
      <trkpt lat="43.97203" lon="3.72426">
        <ele>433.69</ele>
        <time>2015-02-19T14:22:20Z</time>
      </trkpt>
      <trkpt lat="43.97203" lon="3.72426">
        <ele>432.73</ele>
        <time>2015-02-19T14:22:22Z</time>
      </trkpt>
      <trkpt lat="43.97203" lon="3.72431">
        <ele>434.17</ele>
        <time>2015-02-19T14:22:36Z</time>
      </trkpt>
      <trkpt lat="43.97203" lon="3.72435">
        <ele>437.54</ele>
        <time>2015-02-19T14:22:53Z</time>
      </trkpt>
      <trkpt lat="43.97203" lon="3.72435">
        <ele>436.1</ele>
        <time>2015-02-19T14:22:56Z</time>
      </trkpt>
      <trkpt lat="43.97201" lon="3.72437">
        <ele>439.46</ele>
        <time>2015-02-19T14:23:13Z</time>
      </trkpt>
      <trkpt lat="43.97201" lon="3.72437">
        <ele>438.02</ele>
        <time>2015-02-19T14:23:16Z</time>
      </trkpt>
      <trkpt lat="43.97201" lon="3.72442">
        <ele>440.42</ele>
        <time>2015-02-19T14:23:25Z</time>
      </trkpt>
      <trkpt lat="43.97201" lon="3.72443">
        <ele>439.46</ele>
        <time>2015-02-19T14:23:32Z</time>
      </trkpt>
      <trkpt lat="43.97201" lon="3.72448">
        <ele>440.42</ele>
        <time>2015-02-19T14:23:47Z</time>
      </trkpt>
      <trkpt lat="43.97197" lon="3.72449">
        <ele>443.31</ele>
        <time>2015-02-19T14:23:58Z</time>
      </trkpt>
      <trkpt lat="43.97194" lon="3.72451">
        <ele>445.23</ele>
        <time>2015-02-19T14:24:11Z</time>
      </trkpt>
      <trkpt lat="43.97194" lon="3.72456">
        <ele>446.19</ele>
        <time>2015-02-19T14:24:24Z</time>
      </trkpt>
      <trkpt lat="43.97194" lon="3.72458">
        <ele>445.71</ele>
        <time>2015-02-19T14:24:32Z</time>
      </trkpt>
      <trkpt lat="43.97194" lon="3.72458">
        <ele>447.63</ele>
        <time>2015-02-19T14:24:34Z</time>
      </trkpt>
      <trkpt lat="43.97193" lon="3.72458">
        <ele>450.03</ele>
        <time>2015-02-19T14:24:47Z</time>
      </trkpt>
      <trkpt lat="43.97192" lon="3.72459">
        <ele>451.96</ele>
        <time>2015-02-19T14:24:58Z</time>
      </trkpt>
      <trkpt lat="43.97192" lon="3.72459">
        <ele>452.44</ele>
        <time>2015-02-19T14:25:03Z</time>
      </trkpt>
      <trkpt lat="43.97192" lon="3.72459">
        <ele>453.88</ele>
        <time>2015-02-19T14:25:13Z</time>
      </trkpt>
      <trkpt lat="43.97192" lon="3.72459">
        <ele>456.28</ele>
        <time>2015-02-19T14:25:30Z</time>
      </trkpt>
      <trkpt lat="43.97192" lon="3.72459">
        <ele>454.36</ele>
        <time>2015-02-19T14:25:46Z</time>
      </trkpt>
      <trkpt lat="43.97192" lon="3.72459">
        <ele>458.21</ele>
        <time>2015-02-19T14:25:54Z</time>
      </trkpt>
      <trkpt lat="43.97192" lon="3.72459">
        <ele>456.28</ele>
        <time>2015-02-19T14:25:55Z</time>
      </trkpt>
      <trkpt lat="43.97184" lon="3.72464">
        <ele>457.24</ele>
        <time>2015-02-19T14:26:03Z</time>
      </trkpt>
      <trkpt lat="43.97177" lon="3.72467">
        <ele>459.17</ele>
        <time>2015-02-19T14:26:19Z</time>
      </trkpt>
      <trkpt lat="43.97177" lon="3.72467">
        <ele>459.65</ele>
        <time>2015-02-19T14:26:24Z</time>
      </trkpt>
      <trkpt lat="43.97177" lon="3.72467">
        <ele>461.57</ele>
        <time>2015-02-19T14:26:25Z</time>
      </trkpt>
      <trkpt lat="43.97177" lon="3.72467">
        <ele>459.65</ele>
        <time>2015-02-19T14:26:27Z</time>
      </trkpt>
      <trkpt lat="43.97177" lon="3.72467">
        <ele>458.69</ele>
        <time>2015-02-19T14:26:35Z</time>
      </trkpt>
      <trkpt lat="43.97177" lon="3.72467">
        <ele>460.13</ele>
        <time>2015-02-19T14:26:37Z</time>
      </trkpt>
      <trkpt lat="43.97176" lon="3.72468">
        <ele>463.97</ele>
        <time>2015-02-19T14:26:54Z</time>
      </trkpt>
      <trkpt lat="43.97177" lon="3.7247">
        <ele>462.53</ele>
        <time>2015-02-19T14:27:06Z</time>
      </trkpt>
      <trkpt lat="43.97177" lon="3.72471">
        <ele>464.93</ele>
        <time>2015-02-19T14:27:08Z</time>
      </trkpt>
      <trkpt lat="43.97175" lon="3.72473">
        <ele>463.97</ele>
        <time>2015-02-19T14:27:21Z</time>
      </trkpt>
      <trkpt lat="43.97175" lon="3.72473">
        <ele>467.34</ele>
        <time>2015-02-19T14:27:31Z</time>
      </trkpt>
      <trkpt lat="43.97175" lon="3.72473">
        <ele>467.34</ele>
        <time>2015-02-19T14:27:32Z</time>
      </trkpt>
      <trkpt lat="43.97175" lon="3.72473">
        <ele>466.38</ele>
        <time>2015-02-19T14:27:34Z</time>
      </trkpt>
      <trkpt lat="43.97175" lon="3.72478">
        <ele>468.3</ele>
        <time>2015-02-19T14:27:51Z</time>
      </trkpt>
      <trkpt lat="43.97175" lon="3.72478">
        <ele>470.22</ele>
        <time>2015-02-19T14:28:00Z</time>
      </trkpt>
      <trkpt lat="43.97176" lon="3.72486">
        <ele>472.63</ele>
        <time>2015-02-19T14:28:16Z</time>
      </trkpt>
      <trkpt lat="43.97176" lon="3.72486">
        <ele>472.14</ele>
        <time>2015-02-19T14:28:29Z</time>
      </trkpt>
      <trkpt lat="43.97173" lon="3.72493">
        <ele>475.51</ele>
        <time>2015-02-19T14:28:55Z</time>
      </trkpt>
      <trkpt lat="43.97172" lon="3.72494">
        <ele>475.03</ele>
        <time>2015-02-19T14:28:59Z</time>
      </trkpt>
      <trkpt lat="43.97172" lon="3.72494">
        <ele>475.51</ele>
        <time>2015-02-19T14:29:06Z</time>
      </trkpt>
      <trkpt lat="43.97172" lon="3.72494">
        <ele>474.07</ele>
        <time>2015-02-19T14:29:09Z</time>
      </trkpt>
      <trkpt lat="43.97172" lon="3.72495">
        <ele>473.59</ele>
        <time>2015-02-19T14:29:43Z</time>
      </trkpt>
      <trkpt lat="43.97171" lon="3.72496">
        <ele>472.63</ele>
        <time>2015-02-19T14:30:01Z</time>
      </trkpt>
      <trkpt lat="43.97169" lon="3.72501">
        <ele>473.59</ele>
        <time>2015-02-19T14:30:35Z</time>
      </trkpt>
      <trkpt lat="43.97167" lon="3.72508">
        <ele>476.95</ele>
        <time>2015-02-19T14:30:45Z</time>
      </trkpt>
      <trkpt lat="43.97167" lon="3.72508">
        <ele>473.11</ele>
        <time>2015-02-19T14:30:46Z</time>
      </trkpt>
      <trkpt lat="43.97169" lon="3.72512">
        <ele>476.47</ele>
        <time>2015-02-19T14:30:52Z</time>
      </trkpt>
      <trkpt lat="43.97169" lon="3.72512">
        <ele>473.11</ele>
        <time>2015-02-19T14:31:01Z</time>
      </trkpt>
      <trkpt lat="43.97169" lon="3.72512">
        <ele>474.07</ele>
        <time>2015-02-19T14:31:02Z</time>
      </trkpt>
      <trkpt lat="43.9717" lon="3.72516">
        <ele>477.43</ele>
        <time>2015-02-19T14:31:13Z</time>
      </trkpt>
      <trkpt lat="43.97171" lon="3.72521">
        <ele>477.43</ele>
        <time>2015-02-19T14:31:26Z</time>
      </trkpt>
      <trkpt lat="43.97173" lon="3.72525">
        <ele>480.8</ele>
        <time>2015-02-19T14:31:42Z</time>
      </trkpt>
      <trkpt lat="43.97174" lon="3.72529">
        <ele>484.16</ele>
        <time>2015-02-19T14:31:58Z</time>
      </trkpt>
      <trkpt lat="43.97177" lon="3.72538">
        <ele>484.16</ele>
        <time>2015-02-19T14:32:11Z</time>
      </trkpt>
      <trkpt lat="43.97177" lon="3.72543">
        <ele>487.53</ele>
        <time>2015-02-19T14:32:20Z</time>
      </trkpt>
      <trkpt lat="43.9718" lon="3.72554">
        <ele>487.53</ele>
        <time>2015-02-19T14:32:35Z</time>
      </trkpt>
      <trkpt lat="43.97182" lon="3.72558">
        <ele>491.37</ele>
        <time>2015-02-19T14:32:46Z</time>
      </trkpt>
      <trkpt lat="43.97182" lon="3.72558">
        <ele>489.93</ele>
        <time>2015-02-19T14:32:47Z</time>
      </trkpt>
      <trkpt lat="43.97186" lon="3.7257">
        <ele>491.37</ele>
        <time>2015-02-19T14:33:02Z</time>
      </trkpt>
      <trkpt lat="43.97188" lon="3.72572">
        <ele>493.29</ele>
        <time>2015-02-19T14:33:10Z</time>
      </trkpt>
      <trkpt lat="43.97189" lon="3.72572">
        <ele>492.33</ele>
        <time>2015-02-19T14:33:24Z</time>
      </trkpt>
      <trkpt lat="43.97189" lon="3.72573">
        <ele>489.93</ele>
        <time>2015-02-19T14:33:26Z</time>
      </trkpt>
      <trkpt lat="43.9719" lon="3.72574">
        <ele>493.77</ele>
        <time>2015-02-19T14:33:34Z</time>
      </trkpt>
      <trkpt lat="43.97192" lon="3.72579">
        <ele>495.22</ele>
        <time>2015-02-19T14:33:46Z</time>
      </trkpt>
      <trkpt lat="43.97193" lon="3.72583">
        <ele>497.62</ele>
        <time>2015-02-19T14:34:02Z</time>
      </trkpt>
      <trkpt lat="43.97194" lon="3.72588">
        <ele>501.46</ele>
        <time>2015-02-19T14:34:14Z</time>
      </trkpt>
      <trkpt lat="43.97193" lon="3.72589">
        <ele>500.98</ele>
        <time>2015-02-19T14:34:28Z</time>
      </trkpt>
      <trkpt lat="43.97189" lon="3.7259">
        <ele>500.98</ele>
        <time>2015-02-19T14:34:43Z</time>
      </trkpt>
      <trkpt lat="43.97189" lon="3.72592">
        <ele>502.91</ele>
        <time>2015-02-19T14:34:47Z</time>
      </trkpt>
      <trkpt lat="43.97189" lon="3.72593">
        <ele>503.87</ele>
        <time>2015-02-19T14:34:54Z</time>
      </trkpt>
      <trkpt lat="43.97188" lon="3.72593">
        <ele>501.46</ele>
        <time>2015-02-19T14:34:57Z</time>
      </trkpt>
      <trkpt lat="43.97188" lon="3.72595">
        <ele>504.83</ele>
        <time>2015-02-19T14:34:59Z</time>
      </trkpt>
      <trkpt lat="43.97188" lon="3.72595">
        <ele>503.39</ele>
        <time>2015-02-19T14:35:00Z</time>
      </trkpt>
      <trkpt lat="43.97188" lon="3.72595">
        <ele>504.35</ele>
        <time>2015-02-19T14:35:16Z</time>
      </trkpt>
      <trkpt lat="43.97188" lon="3.72595">
        <ele>501.95</ele>
        <time>2015-02-19T14:35:19Z</time>
      </trkpt>
      <trkpt lat="43.97188" lon="3.72595">
        <ele>504.35</ele>
        <time>2015-02-19T14:35:22Z</time>
      </trkpt>
      <trkpt lat="43.97188" lon="3.72595">
        <ele>505.31</ele>
        <time>2015-02-19T14:35:29Z</time>
      </trkpt>
      <trkpt lat="43.97184" lon="3.72596">
        <ele>505.79</ele>
        <time>2015-02-19T14:35:39Z</time>
      </trkpt>
      <trkpt lat="43.97182" lon="3.72595">
        <ele>509.16</ele>
        <time>2015-02-19T14:35:44Z</time>
      </trkpt>
      <trkpt lat="43.97181" lon="3.72595">
        <ele>505.79</ele>
        <time>2015-02-19T14:35:45Z</time>
      </trkpt>
      <trkpt lat="43.9718" lon="3.72596">
        <ele>510.12</ele>
        <time>2015-02-19T14:35:52Z</time>
      </trkpt>
      <trkpt lat="43.9718" lon="3.72596">
        <ele>509.64</ele>
        <time>2015-02-19T14:35:53Z</time>
      </trkpt>
      <trkpt lat="43.97178" lon="3.72595">
        <ele>511.08</ele>
        <time>2015-02-19T14:36:05Z</time>
      </trkpt>
      <trkpt lat="43.97174" lon="3.72594">
        <ele>511.08</ele>
        <time>2015-02-19T14:36:19Z</time>
      </trkpt>
      <trkpt lat="43.97173" lon="3.72594">
        <ele>513.48</ele>
        <time>2015-02-19T14:36:28Z</time>
      </trkpt>
      <trkpt lat="43.97173" lon="3.72601">
        <ele>513.48</ele>
        <time>2015-02-19T14:36:41Z</time>
      </trkpt>
      <trkpt lat="43.97172" lon="3.72605">
        <ele>514.44</ele>
        <time>2015-02-19T14:36:53Z</time>
      </trkpt>
      <trkpt lat="43.97172" lon="3.72608">
        <ele>517.33</ele>
        <time>2015-02-19T14:37:03Z</time>
      </trkpt>
      <trkpt lat="43.97172" lon="3.72609">
        <ele>515.88</ele>
        <time>2015-02-19T14:37:26Z</time>
      </trkpt>
      <trkpt lat="43.97171" lon="3.7261">
        <ele>517.33</ele>
        <time>2015-02-19T14:37:30Z</time>
      </trkpt>
      <trkpt lat="43.97173" lon="3.7261">
        <ele>518.77</ele>
        <time>2015-02-19T14:37:41Z</time>
      </trkpt>
      <trkpt lat="43.97172" lon="3.72611">
        <ele>516.85</ele>
        <time>2015-02-19T14:37:51Z</time>
      </trkpt>
      <trkpt lat="43.97171" lon="3.72612">
        <ele>519.25</ele>
        <time>2015-02-19T14:37:54Z</time>
      </trkpt>
      <trkpt lat="43.97172" lon="3.72613">
        <ele>520.21</ele>
        <time>2015-02-19T14:37:58Z</time>
      </trkpt>
      <trkpt lat="43.97168" lon="3.72614">
        <ele>521.65</ele>
        <time>2015-02-19T14:38:11Z</time>
      </trkpt>
      <trkpt lat="43.97167" lon="3.72615">
        <ele>522.61</ele>
        <time>2015-02-19T14:38:28Z</time>
      </trkpt>
      <trkpt lat="43.97167" lon="3.72615">
        <ele>522.61</ele>
        <time>2015-02-19T14:38:34Z</time>
      </trkpt>
      <trkpt lat="43.97167" lon="3.72615">
        <ele>523.58</ele>
        <time>2015-02-19T14:38:41Z</time>
      </trkpt>
      <trkpt lat="43.97167" lon="3.72615">
        <ele>521.17</ele>
        <time>2015-02-19T14:38:43Z</time>
      </trkpt>
      <trkpt lat="43.97167" lon="3.72615">
        <ele>520.69</ele>
        <time>2015-02-19T14:38:50Z</time>
      </trkpt>
      <trkpt lat="43.97167" lon="3.72615">
        <ele>520.69</ele>
        <time>2015-02-19T14:39:02Z</time>
      </trkpt>
      <trkpt lat="43.97167" lon="3.72615">
        <ele>522.13</ele>
        <time>2015-02-19T14:40:00Z</time>
      </trkpt>
      <trkpt lat="43.97167" lon="3.72615">
        <ele>520.69</ele>
        <time>2015-02-19T14:40:07Z</time>
      </trkpt>
      <trkpt lat="43.97168" lon="3.72615">
        <ele>524.06</ele>
        <time>2015-02-19T14:40:13Z</time>
      </trkpt>
      <trkpt lat="43.97168" lon="3.72615">
        <ele>520.69</ele>
        <time>2015-02-19T14:40:14Z</time>
      </trkpt>
      <trkpt lat="43.97168" lon="3.72615">
        <ele>524.06</ele>
        <time>2015-02-19T14:40:15Z</time>
      </trkpt>
      <trkpt lat="43.97168" lon="3.72615">
        <ele>520.21</ele>
        <time>2015-02-19T14:40:19Z</time>
      </trkpt>
      <trkpt lat="43.97168" lon="3.72615">
        <ele>523.58</ele>
        <time>2015-02-19T14:40:33Z</time>
      </trkpt>
      <trkpt lat="43.97164" lon="3.72615">
        <ele>523.58</ele>
        <time>2015-02-19T14:40:41Z</time>
      </trkpt>
      <trkpt lat="43.97163" lon="3.72613">
        <ele>523.58</ele>
        <time>2015-02-19T14:40:47Z</time>
      </trkpt>
      <trkpt lat="43.97161" lon="3.72613">
        <ele>526.94</ele>
        <time>2015-02-19T14:40:53Z</time>
      </trkpt>
      <trkpt lat="43.9716" lon="3.72614">
        <ele>526.46</ele>
        <time>2015-02-19T14:40:58Z</time>
      </trkpt>
      <trkpt lat="43.97157" lon="3.72617">
        <ele>527.9</ele>
        <time>2015-02-19T14:41:13Z</time>
      </trkpt>
      <trkpt lat="43.97156" lon="3.7262">
        <ele>528.38</ele>
        <time>2015-02-19T14:41:28Z</time>
      </trkpt>
      <trkpt lat="43.97157" lon="3.72625">
        <ele>530.3</ele>
        <time>2015-02-19T14:41:47Z</time>
      </trkpt>
      <trkpt lat="43.97158" lon="3.72629">
        <ele>529.34</ele>
        <time>2015-02-19T14:42:31Z</time>
      </trkpt>
      <trkpt lat="43.97159" lon="3.7263">
        <ele>533.19</ele>
        <time>2015-02-19T14:42:36Z</time>
      </trkpt>
      <trkpt lat="43.97159" lon="3.7263">
        <ele>532.23</ele>
        <time>2015-02-19T14:42:37Z</time>
      </trkpt>
      <trkpt lat="43.97159" lon="3.72635">
        <ele>532.23</ele>
        <time>2015-02-19T14:42:52Z</time>
      </trkpt>
      <trkpt lat="43.9716" lon="3.72636">
        <ele>532.71</ele>
        <time>2015-02-19T14:42:56Z</time>
      </trkpt>
      <trkpt lat="43.97164" lon="3.72646">
        <ele>534.63</ele>
        <time>2015-02-19T14:43:13Z</time>
      </trkpt>
      <trkpt lat="43.97167" lon="3.7265">
        <ele>535.59</ele>
        <time>2015-02-19T14:43:29Z</time>
      </trkpt>
      <trkpt lat="43.9717" lon="3.72658">
        <ele>536.55</ele>
        <time>2015-02-19T14:43:41Z</time>
      </trkpt>
      <trkpt lat="43.9717" lon="3.72659">
        <ele>537.99</ele>
        <time>2015-02-19T14:43:49Z</time>
      </trkpt>
      <trkpt lat="43.97174" lon="3.72663">
        <ele>540.88</ele>
        <time>2015-02-19T14:44:04Z</time>
      </trkpt>
      <trkpt lat="43.97174" lon="3.72663">
        <ele>537.99</ele>
        <time>2015-02-19T14:44:05Z</time>
      </trkpt>
      <trkpt lat="43.97174" lon="3.72663">
        <ele>540.88</ele>
        <time>2015-02-19T14:44:06Z</time>
      </trkpt>
      <trkpt lat="43.97177" lon="3.72666">
        <ele>539.92</ele>
        <time>2015-02-19T14:44:16Z</time>
      </trkpt>
      <trkpt lat="43.97177" lon="3.72667">
        <ele>541.36</ele>
        <time>2015-02-19T14:44:18Z</time>
      </trkpt>
      <trkpt lat="43.97182" lon="3.72669">
        <ele>541.84</ele>
        <time>2015-02-19T14:44:32Z</time>
      </trkpt>
      <trkpt lat="43.97182" lon="3.72669">
        <ele>543.28</ele>
        <time>2015-02-19T14:44:35Z</time>
      </trkpt>
      <trkpt lat="43.97182" lon="3.72669">
        <ele>544.24</ele>
        <time>2015-02-19T14:44:40Z</time>
      </trkpt>
      <trkpt lat="43.97182" lon="3.72669">
        <ele>545.2</ele>
        <time>2015-02-19T14:44:44Z</time>
      </trkpt>
      <trkpt lat="43.97185" lon="3.72673">
        <ele>545.69</ele>
        <time>2015-02-19T14:44:51Z</time>
      </trkpt>
      <trkpt lat="43.97187" lon="3.72677">
        <ele>544.72</ele>
        <time>2015-02-19T14:44:55Z</time>
      </trkpt>
      <trkpt lat="43.97187" lon="3.72679">
        <ele>545.69</ele>
        <time>2015-02-19T14:44:57Z</time>
      </trkpt>
      <trkpt lat="43.97192" lon="3.72683">
        <ele>547.13</ele>
        <time>2015-02-19T14:45:06Z</time>
      </trkpt>
      <trkpt lat="43.97192" lon="3.72684">
        <ele>545.69</ele>
        <time>2015-02-19T14:45:07Z</time>
      </trkpt>
      <trkpt lat="43.97194" lon="3.72687">
        <ele>546.65</ele>
        <time>2015-02-19T14:45:11Z</time>
      </trkpt>
      <trkpt lat="43.97195" lon="3.72691">
        <ele>548.09</ele>
        <time>2015-02-19T14:45:18Z</time>
      </trkpt>
      <trkpt lat="43.97196" lon="3.72691">
        <ele>546.65</ele>
        <time>2015-02-19T14:45:20Z</time>
      </trkpt>
      <trkpt lat="43.97199" lon="3.72693">
        <ele>547.61</ele>
        <time>2015-02-19T14:45:26Z</time>
      </trkpt>
      <trkpt lat="43.97206" lon="3.72695">
        <ele>550.49</ele>
        <time>2015-02-19T14:45:40Z</time>
      </trkpt>
      <trkpt lat="43.97209" lon="3.72695">
        <ele>550.01</ele>
        <time>2015-02-19T14:45:48Z</time>
      </trkpt>
      <trkpt lat="43.97212" lon="3.72696">
        <ele>550.49</ele>
        <time>2015-02-19T14:45:52Z</time>
      </trkpt>
      <trkpt lat="43.9722" lon="3.72699">
        <ele>552.41</ele>
        <time>2015-02-19T14:46:04Z</time>
      </trkpt>
      <trkpt lat="43.97222" lon="3.727">
        <ele>553.38</ele>
        <time>2015-02-19T14:46:08Z</time>
      </trkpt>
      <trkpt lat="43.97225" lon="3.72706">
        <ele>555.3</ele>
        <time>2015-02-19T14:46:23Z</time>
      </trkpt>
      <trkpt lat="43.97225" lon="3.72708">
        <ele>552.41</ele>
        <time>2015-02-19T14:46:27Z</time>
      </trkpt>
      <trkpt lat="43.97226" lon="3.72709">
        <ele>557.22</ele>
        <time>2015-02-19T14:46:28Z</time>
      </trkpt>
      <trkpt lat="43.97226" lon="3.72709">
        <ele>553.86</ele>
        <time>2015-02-19T14:46:29Z</time>
      </trkpt>
      <trkpt lat="43.97229" lon="3.72714">
        <ele>557.22</ele>
        <time>2015-02-19T14:46:38Z</time>
      </trkpt>
      <trkpt lat="43.97231" lon="3.72717">
        <ele>558.66</ele>
        <time>2015-02-19T14:46:50Z</time>
      </trkpt>
      <trkpt lat="43.97233" lon="3.7272">
        <ele>560.59</ele>
        <time>2015-02-19T14:46:57Z</time>
      </trkpt>
      <trkpt lat="43.97235" lon="3.72719">
        <ele>558.66</ele>
        <time>2015-02-19T14:47:00Z</time>
      </trkpt>
      <trkpt lat="43.97237" lon="3.72724">
        <ele>560.11</ele>
        <time>2015-02-19T14:47:15Z</time>
      </trkpt>
      <trkpt lat="43.97238" lon="3.72728">
        <ele>563.95</ele>
        <time>2015-02-19T14:47:26Z</time>
      </trkpt>
      <trkpt lat="43.97238" lon="3.72728">
        <ele>562.99</ele>
        <time>2015-02-19T14:47:27Z</time>
      </trkpt>
      <trkpt lat="43.97235" lon="3.72734">
        <ele>564.43</ele>
        <time>2015-02-19T14:47:41Z</time>
      </trkpt>
      <trkpt lat="43.97235" lon="3.72742">
        <ele>563.95</ele>
        <time>2015-02-19T14:47:53Z</time>
      </trkpt>
      <trkpt lat="43.97236" lon="3.72744">
        <ele>567.8</ele>
        <time>2015-02-19T14:47:58Z</time>
      </trkpt>
      <trkpt lat="43.97235" lon="3.72745">
        <ele>567.8</ele>
        <time>2015-02-19T14:48:04Z</time>
      </trkpt>
      <trkpt lat="43.97234" lon="3.7275">
        <ele>567.32</ele>
        <time>2015-02-19T14:48:12Z</time>
      </trkpt>
      <trkpt lat="43.97234" lon="3.72755">
        <ele>566.83</ele>
        <time>2015-02-19T14:48:19Z</time>
      </trkpt>
      <trkpt lat="43.97234" lon="3.72758">
        <ele>568.28</ele>
        <time>2015-02-19T14:48:23Z</time>
      </trkpt>
      <trkpt lat="43.97236" lon="3.72766">
        <ele>569.24</ele>
        <time>2015-02-19T14:48:33Z</time>
      </trkpt>
      <trkpt lat="43.97237" lon="3.72775">
        <ele>571.64</ele>
        <time>2015-02-19T14:48:44Z</time>
      </trkpt>
      <trkpt lat="43.97241" lon="3.72785">
        <ele>569.72</ele>
        <time>2015-02-19T14:48:56Z</time>
      </trkpt>
      <trkpt lat="43.97243" lon="3.72791">
        <ele>573.08</ele>
        <time>2015-02-19T14:49:06Z</time>
      </trkpt>
      <trkpt lat="43.97243" lon="3.72792">
        <ele>571.64</ele>
        <time>2015-02-19T14:49:07Z</time>
      </trkpt>
      <trkpt lat="43.97246" lon="3.72799">
        <ele>575.01</ele>
        <time>2015-02-19T14:49:17Z</time>
      </trkpt>
      <trkpt lat="43.97246" lon="3.72799">
        <ele>574.04</ele>
        <time>2015-02-19T14:49:25Z</time>
      </trkpt>
      <trkpt lat="43.97248" lon="3.72801">
        <ele>573.08</ele>
        <time>2015-02-19T14:49:39Z</time>
      </trkpt>
      <trkpt lat="43.9725" lon="3.72802">
        <ele>576.45</ele>
        <time>2015-02-19T14:49:44Z</time>
      </trkpt>
      <trkpt lat="43.97254" lon="3.72802">
        <ele>575.97</ele>
        <time>2015-02-19T14:49:51Z</time>
      </trkpt>
      <trkpt lat="43.97262" lon="3.728">
        <ele>579.33</ele>
        <time>2015-02-19T14:50:03Z</time>
      </trkpt>
      <trkpt lat="43.97265" lon="3.72802">
        <ele>578.37</ele>
        <time>2015-02-19T14:50:14Z</time>
      </trkpt>
      <trkpt lat="43.97268" lon="3.72806">
        <ele>581.25</ele>
        <time>2015-02-19T14:50:26Z</time>
      </trkpt>
      <trkpt lat="43.97268" lon="3.72806">
        <ele>580.77</ele>
        <time>2015-02-19T14:50:27Z</time>
      </trkpt>
      <trkpt lat="43.97271" lon="3.7281">
        <ele>583.66</ele>
        <time>2015-02-19T14:50:36Z</time>
      </trkpt>
      <trkpt lat="43.97271" lon="3.72811">
        <ele>579.81</ele>
        <time>2015-02-19T14:50:37Z</time>
      </trkpt>
      <trkpt lat="43.97271" lon="3.72812">
        <ele>583.18</ele>
        <time>2015-02-19T14:50:38Z</time>
      </trkpt>
      <trkpt lat="43.97274" lon="3.7282">
        <ele>585.1</ele>
        <time>2015-02-19T14:50:50Z</time>
      </trkpt>
      <trkpt lat="43.97277" lon="3.72827">
        <ele>586.06</ele>
        <time>2015-02-19T14:51:01Z</time>
      </trkpt>
      <trkpt lat="43.9728" lon="3.72834">
        <ele>586.54</ele>
        <time>2015-02-19T14:51:14Z</time>
      </trkpt>
      <trkpt lat="43.97281" lon="3.72835">
        <ele>587.98</ele>
        <time>2015-02-19T14:51:19Z</time>
      </trkpt>
      <trkpt lat="43.97281" lon="3.72835">
        <ele>587.5</ele>
        <time>2015-02-19T14:51:30Z</time>
      </trkpt>
      <trkpt lat="43.97281" lon="3.72835">
        <ele>588.46</ele>
        <time>2015-02-19T14:51:32Z</time>
      </trkpt>
      <trkpt lat="43.97281" lon="3.72834">
        <ele>591.35</ele>
        <time>2015-02-19T14:51:51Z</time>
      </trkpt>
      <trkpt lat="43.97285" lon="3.72837">
        <ele>591.83</ele>
        <time>2015-02-19T14:52:09Z</time>
      </trkpt>
      <trkpt lat="43.9729" lon="3.72842">
        <ele>591.83</ele>
        <time>2015-02-19T14:52:21Z</time>
      </trkpt>
      <trkpt lat="43.9729" lon="3.72842">
        <ele>593.75</ele>
        <time>2015-02-19T14:52:23Z</time>
      </trkpt>
      <trkpt lat="43.9729" lon="3.72842">
        <ele>597.12</ele>
        <time>2015-02-19T14:52:36Z</time>
      </trkpt>
      <trkpt lat="43.9729" lon="3.72842">
        <ele>593.75</ele>
        <time>2015-02-19T14:52:37Z</time>
      </trkpt>
      <trkpt lat="43.97292" lon="3.72847">
        <ele>597.6</ele>
        <time>2015-02-19T14:52:45Z</time>
      </trkpt>
      <trkpt lat="43.97291" lon="3.7285">
        <ele>596.64</ele>
        <time>2015-02-19T14:52:54Z</time>
      </trkpt>
      <trkpt lat="43.97291" lon="3.7285">
        <ele>598.08</ele>
        <time>2015-02-19T14:53:00Z</time>
      </trkpt>
      <trkpt lat="43.97291" lon="3.7285">
        <ele>598.56</ele>
        <time>2015-02-19T14:53:12Z</time>
      </trkpt>
      <trkpt lat="43.97291" lon="3.7285">
        <ele>601.44</ele>
        <time>2015-02-19T14:53:19Z</time>
      </trkpt>
      <trkpt lat="43.97291" lon="3.7285">
        <ele>601.92</ele>
        <time>2015-02-19T14:53:32Z</time>
      </trkpt>
      <trkpt lat="43.97292" lon="3.72851">
        <ele>604.81</ele>
        <time>2015-02-19T14:53:38Z</time>
      </trkpt>
      <trkpt lat="43.97292" lon="3.72851">
        <ele>604.81</ele>
        <time>2015-02-19T14:53:51Z</time>
      </trkpt>
      <trkpt lat="43.97302" lon="3.72847">
        <ele>607.69</ele>
        <time>2015-02-19T14:54:04Z</time>
      </trkpt>
      <trkpt lat="43.97312" lon="3.72842">
        <ele>607.69</ele>
        <time>2015-02-19T14:54:17Z</time>
      </trkpt>
      <trkpt lat="43.97316" lon="3.72839">
        <ele>611.06</ele>
        <time>2015-02-19T14:54:30Z</time>
      </trkpt>
      <trkpt lat="43.97316" lon="3.72839">
        <ele>612.02</ele>
        <time>2015-02-19T14:54:38Z</time>
      </trkpt>
      <trkpt lat="43.97316" lon="3.72839">
        <ele>612.02</ele>
        <time>2015-02-19T14:54:51Z</time>
      </trkpt>
      <trkpt lat="43.97316" lon="3.72839">
        <ele>613.46</ele>
        <time>2015-02-19T14:54:54Z</time>
      </trkpt>
      <trkpt lat="43.97317" lon="3.72839">
        <ele>614.42</ele>
        <time>2015-02-19T14:55:08Z</time>
      </trkpt>
      <trkpt lat="43.97317" lon="3.72839">
        <ele>617.3</ele>
        <time>2015-02-19T14:55:15Z</time>
      </trkpt>
      <trkpt lat="43.97317" lon="3.72839">
        <ele>613.94</ele>
        <time>2015-02-19T14:55:25Z</time>
      </trkpt>
      <trkpt lat="43.97317" lon="3.72839">
        <ele>618.26</ele>
        <time>2015-02-19T14:55:28Z</time>
      </trkpt>
      <trkpt lat="43.97317" lon="3.72839">
        <ele>618.75</ele>
        <time>2015-02-19T14:55:44Z</time>
      </trkpt>
      <trkpt lat="43.97317" lon="3.72839">
        <ele>622.11</ele>
        <time>2015-02-19T14:55:55Z</time>
      </trkpt>
      <trkpt lat="43.97317" lon="3.72839">
        <ele>620.67</ele>
        <time>2015-02-19T14:55:59Z</time>
      </trkpt>
      <trkpt lat="43.9732" lon="3.72842">
        <ele>619.23</ele>
        <time>2015-02-19T14:56:09Z</time>
      </trkpt>
      <trkpt lat="43.97321" lon="3.72843">
        <ele>622.59</ele>
        <time>2015-02-19T14:56:12Z</time>
      </trkpt>
      <trkpt lat="43.97321" lon="3.72843">
        <ele>623.07</ele>
        <time>2015-02-19T14:56:23Z</time>
      </trkpt>
      <trkpt lat="43.97325" lon="3.72842">
        <ele>624.51</ele>
        <time>2015-02-19T14:56:29Z</time>
      </trkpt>
      <trkpt lat="43.97328" lon="3.72842">
        <ele>624.51</ele>
        <time>2015-02-19T14:56:41Z</time>
      </trkpt>
      <trkpt lat="43.97336" lon="3.72845">
        <ele>626.44</ele>
        <time>2015-02-19T14:57:08Z</time>
      </trkpt>
      <trkpt lat="43.97337" lon="3.72846">
        <ele>628.36</ele>
        <time>2015-02-19T14:57:22Z</time>
      </trkpt>
      <trkpt lat="43.97337" lon="3.72846">
        <ele>624.99</ele>
        <time>2015-02-19T14:57:25Z</time>
      </trkpt>
      <trkpt lat="43.97337" lon="3.72846">
        <ele>629.32</ele>
        <time>2015-02-19T14:57:26Z</time>
      </trkpt>
      <trkpt lat="43.97337" lon="3.72846">
        <ele>629.32</ele>
        <time>2015-02-19T14:57:39Z</time>
      </trkpt>
      <trkpt lat="43.97339" lon="3.72847">
        <ele>628.36</ele>
        <time>2015-02-19T14:57:43Z</time>
      </trkpt>
      <trkpt lat="43.97339" lon="3.72847">
        <ele>630.76</ele>
        <time>2015-02-19T14:57:44Z</time>
      </trkpt>
      <trkpt lat="43.97342" lon="3.72844">
        <ele>631.24</ele>
        <time>2015-02-19T14:57:55Z</time>
      </trkpt>
      <trkpt lat="43.97342" lon="3.72844">
        <ele>634.61</ele>
        <time>2015-02-19T14:58:09Z</time>
      </trkpt>
      <trkpt lat="43.97342" lon="3.72844">
        <ele>636.05</ele>
        <time>2015-02-19T14:58:16Z</time>
      </trkpt>
      <trkpt lat="43.97343" lon="3.72844">
        <ele>638.45</ele>
        <time>2015-02-19T14:58:28Z</time>
      </trkpt>
      <trkpt lat="43.97343" lon="3.72844">
        <ele>638.45</ele>
        <time>2015-02-19T14:58:36Z</time>
      </trkpt>
      <trkpt lat="43.97349" lon="3.72847">
        <ele>637.97</ele>
        <time>2015-02-19T14:58:43Z</time>
      </trkpt>
      <trkpt lat="43.97349" lon="3.72847">
        <ele>641.34</ele>
        <time>2015-02-19T14:58:55Z</time>
      </trkpt>
      <trkpt lat="43.97349" lon="3.72847">
        <ele>639.89</ele>
        <time>2015-02-19T14:58:56Z</time>
      </trkpt>
      <trkpt lat="43.97349" lon="3.72847">
        <ele>640.38</ele>
        <time>2015-02-19T14:59:03Z</time>
      </trkpt>
      <trkpt lat="43.97349" lon="3.72847">
        <ele>637.49</ele>
        <time>2015-02-19T14:59:05Z</time>
      </trkpt>
      <trkpt lat="43.97349" lon="3.72847">
        <ele>638.93</ele>
        <time>2015-02-19T14:59:07Z</time>
      </trkpt>
      <trkpt lat="43.97355" lon="3.72849">
        <ele>637.49</ele>
        <time>2015-02-19T14:59:32Z</time>
      </trkpt>
      <trkpt lat="43.97355" lon="3.72849">
        <ele>640.86</ele>
        <time>2015-02-19T14:59:35Z</time>
      </trkpt>
      <trkpt lat="43.97356" lon="3.72849">
        <ele>638.93</ele>
        <time>2015-02-19T14:59:36Z</time>
      </trkpt>
      <trkpt lat="43.97356" lon="3.72849">
        <ele>641.34</ele>
        <time>2015-02-19T14:59:50Z</time>
      </trkpt>
      <trkpt lat="43.97356" lon="3.72849">
        <ele>641.34</ele>
        <time>2015-02-19T15:00:13Z</time>
      </trkpt>
      <trkpt lat="43.97357" lon="3.72848">
        <ele>640.38</ele>
        <time>2015-02-19T15:00:31Z</time>
      </trkpt>
      <trkpt lat="43.97357" lon="3.72848">
        <ele>641.82</ele>
        <time>2015-02-19T15:00:36Z</time>
      </trkpt>
      <trkpt lat="43.97357" lon="3.72848">
        <ele>644.22</ele>
        <time>2015-02-19T15:00:50Z</time>
      </trkpt>
      <trkpt lat="43.97358" lon="3.72849">
        <ele>647.59</ele>
        <time>2015-02-19T15:01:03Z</time>
      </trkpt>
      <trkpt lat="43.97358" lon="3.72849">
        <ele>647.1</ele>
        <time>2015-02-19T15:01:04Z</time>
      </trkpt>
      <trkpt lat="43.97358" lon="3.72849">
        <ele>643.74</ele>
        <time>2015-02-19T15:01:05Z</time>
      </trkpt>
      <trkpt lat="43.97358" lon="3.72849">
        <ele>647.1</ele>
        <time>2015-02-19T15:01:06Z</time>
      </trkpt>
      <trkpt lat="43.97359" lon="3.72848">
        <ele>643.26</ele>
        <time>2015-02-19T15:01:08Z</time>
      </trkpt>
      <trkpt lat="43.9736" lon="3.72848">
        <ele>644.7</ele>
        <time>2015-02-19T15:01:09Z</time>
      </trkpt>
      <trkpt lat="43.97362" lon="3.72848">
        <ele>645.66</ele>
        <time>2015-02-19T15:01:11Z</time>
      </trkpt>
      <trkpt lat="43.97364" lon="3.72847">
        <ele>644.7</ele>
        <time>2015-02-19T15:01:15Z</time>
      </trkpt>
      <trkpt lat="43.97365" lon="3.72847">
        <ele>647.59</ele>
        <time>2015-02-19T15:01:17Z</time>
      </trkpt>
      <trkpt lat="43.97365" lon="3.72847">
        <ele>649.03</ele>
        <time>2015-02-19T15:01:19Z</time>
      </trkpt>
      <trkpt lat="43.97371" lon="3.72848">
        <ele>648.07</ele>
        <time>2015-02-19T15:01:26Z</time>
      </trkpt>
      <trkpt lat="43.9738" lon="3.72847">
        <ele>647.59</ele>
        <time>2015-02-19T15:01:34Z</time>
      </trkpt>
      <trkpt lat="43.97385" lon="3.72847">
        <ele>650.95</ele>
        <time>2015-02-19T15:01:37Z</time>
      </trkpt>
      <trkpt lat="43.97393" lon="3.72849">
        <ele>650.47</ele>
        <time>2015-02-19T15:01:41Z</time>
      </trkpt>
      <trkpt lat="43.97397" lon="3.72854">
        <ele>651.91</ele>
        <time>2015-02-19T15:01:50Z</time>
      </trkpt>
      <trkpt lat="43.97396" lon="3.72855">
        <ele>649.99</ele>
        <time>2015-02-19T15:01:52Z</time>
      </trkpt>
      <trkpt lat="43.97416" lon="3.72864">
        <ele>652.39</ele>
        <time>2015-02-19T15:01:59Z</time>
      </trkpt>
      <trkpt lat="43.9742" lon="3.72865">
        <ele>650.47</ele>
        <time>2015-02-19T15:02:01Z</time>
      </trkpt>
      <trkpt lat="43.97421" lon="3.72866">
        <ele>649.51</ele>
        <time>2015-02-19T15:02:17Z</time>
      </trkpt>
      <trkpt lat="43.97421" lon="3.72866">
        <ele>653.35</ele>
        <time>2015-02-19T15:02:20Z</time>
      </trkpt>
      <trkpt lat="43.97421" lon="3.72866">
        <ele>649.51</ele>
        <time>2015-02-19T15:02:22Z</time>
      </trkpt>
      <trkpt lat="43.97421" lon="3.72866">
        <ele>651.91</ele>
        <time>2015-02-19T15:02:24Z</time>
      </trkpt>
      <trkpt lat="43.97421" lon="3.72866">
        <ele>650.95</ele>
        <time>2015-02-19T15:02:26Z</time>
      </trkpt>
      <trkpt lat="43.97423" lon="3.7287">
        <ele>653.83</ele>
        <time>2015-02-19T15:02:29Z</time>
      </trkpt>
      <trkpt lat="43.97424" lon="3.72875">
        <ele>650.95</ele>
        <time>2015-02-19T15:02:31Z</time>
      </trkpt>
      <trkpt lat="43.97425" lon="3.72876">
        <ele>650.47</ele>
        <time>2015-02-19T15:02:37Z</time>
      </trkpt>
      <trkpt lat="43.97425" lon="3.72876">
        <ele>652.39</ele>
        <time>2015-02-19T15:02:39Z</time>
      </trkpt>
      <trkpt lat="43.97425" lon="3.72876">
        <ele>653.35</ele>
        <time>2015-02-19T15:02:46Z</time>
      </trkpt>
      <trkpt lat="43.97425" lon="3.72876">
        <ele>650.47</ele>
        <time>2015-02-19T15:02:49Z</time>
      </trkpt>
      <trkpt lat="43.97425" lon="3.72876">
        <ele>649.51</ele>
        <time>2015-02-19T15:02:56Z</time>
      </trkpt>
      <trkpt lat="43.97425" lon="3.72876">
        <ele>653.35</ele>
        <time>2015-02-19T15:02:58Z</time>
      </trkpt>
      <trkpt lat="43.97425" lon="3.72876">
        <ele>653.35</ele>
        <time>2015-02-19T15:02:59Z</time>
      </trkpt>
      <trkpt lat="43.97425" lon="3.72876">
        <ele>649.99</ele>
        <time>2015-02-19T15:03:03Z</time>
      </trkpt>
      <trkpt lat="43.97426" lon="3.72876">
        <ele>650.47</ele>
        <time>2015-02-19T15:03:22Z</time>
      </trkpt>
      <trkpt lat="43.97426" lon="3.72876">
        <ele>651.43</ele>
        <time>2015-02-19T15:03:37Z</time>
      </trkpt>
      <trkpt lat="43.97426" lon="3.72876">
        <ele>651.43</ele>
        <time>2015-02-19T15:03:47Z</time>
      </trkpt>
      <trkpt lat="43.97426" lon="3.72877">
        <ele>650.47</ele>
        <time>2015-02-19T15:04:36Z</time>
      </trkpt>
      <trkpt lat="43.97426" lon="3.72877">
        <ele>653.35</ele>
        <time>2015-02-19T15:04:43Z</time>
      </trkpt>
      <trkpt lat="43.97426" lon="3.72877">
        <ele>650.95</ele>
        <time>2015-02-19T15:04:56Z</time>
      </trkpt>
      <trkpt lat="43.97426" lon="3.72877">
        <ele>650.47</ele>
        <time>2015-02-19T15:05:07Z</time>
      </trkpt>
      <trkpt lat="43.97426" lon="3.72877">
        <ele>652.39</ele>
        <time>2015-02-19T15:05:09Z</time>
      </trkpt>
      <trkpt lat="43.97427" lon="3.72877">
        <ele>650.95</ele>
        <time>2015-02-19T15:05:18Z</time>
      </trkpt>
      <trkpt lat="43.97427" lon="3.72877">
        <ele>652.87</ele>
        <time>2015-02-19T15:05:20Z</time>
      </trkpt>
      <trkpt lat="43.97427" lon="3.72877">
        <ele>651.43</ele>
        <time>2015-02-19T15:05:27Z</time>
      </trkpt>
      <trkpt lat="43.97427" lon="3.72877">
        <ele>654.31</ele>
        <time>2015-02-19T15:06:09Z</time>
      </trkpt>
      <trkpt lat="43.97427" lon="3.72877">
        <ele>650.95</ele>
        <time>2015-02-19T15:06:20Z</time>
      </trkpt>
      <trkpt lat="43.97427" lon="3.72877">
        <ele>654.31</ele>
        <time>2015-02-19T15:06:22Z</time>
      </trkpt>
      <trkpt lat="43.97427" lon="3.72877">
        <ele>653.83</ele>
        <time>2015-02-19T15:06:23Z</time>
      </trkpt>
      <trkpt lat="43.97427" lon="3.72877">
        <ele>651.91</ele>
        <time>2015-02-19T15:06:32Z</time>
      </trkpt>
      <trkpt lat="43.97427" lon="3.72877">
        <ele>653.35</ele>
        <time>2015-02-19T15:06:44Z</time>
      </trkpt>
      <trkpt lat="43.97427" lon="3.72877">
        <ele>651.91</ele>
        <time>2015-02-19T15:07:44Z</time>
      </trkpt>
      <trkpt lat="43.97428" lon="3.72877">
        <ele>651.43</ele>
        <time>2015-02-19T15:08:06Z</time>
      </trkpt>
      <trkpt lat="43.97428" lon="3.72877">
        <ele>652.39</ele>
        <time>2015-02-19T15:08:09Z</time>
      </trkpt>
      <trkpt lat="43.97428" lon="3.72877">
        <ele>653.35</ele>
        <time>2015-02-19T15:08:22Z</time>
      </trkpt>
      <trkpt lat="43.97428" lon="3.72877">
        <ele>652.39</ele>
        <time>2015-02-19T15:08:26Z</time>
      </trkpt>
      <trkpt lat="43.97427" lon="3.72877">
        <ele>653.83</ele>
        <time>2015-02-19T15:08:47Z</time>
      </trkpt>
      <trkpt lat="43.97427" lon="3.72877">
        <ele>653.83</ele>
        <time>2015-02-19T15:09:00Z</time>
      </trkpt>
      <trkpt lat="43.97427" lon="3.72877">
        <ele>653.35</ele>
        <time>2015-02-19T15:09:13Z</time>
      </trkpt>
      <trkpt lat="43.97428" lon="3.72877">
        <ele>653.83</ele>
        <time>2015-02-19T15:10:12Z</time>
      </trkpt>
      <trkpt lat="43.97428" lon="3.72877">
        <ele>653.35</ele>
        <time>2015-02-19T15:10:34Z</time>
      </trkpt>
      <trkpt lat="43.97427" lon="3.72877">
        <ele>656.72</ele>
        <time>2015-02-19T15:10:51Z</time>
      </trkpt>
      <trkpt lat="43.97427" lon="3.72877">
        <ele>652.39</ele>
        <time>2015-02-19T15:10:52Z</time>
      </trkpt>
      <trkpt lat="43.97427" lon="3.72876">
        <ele>655.76</ele>
        <time>2015-02-19T15:11:06Z</time>
      </trkpt>
      <trkpt lat="43.97427" lon="3.72875">
        <ele>655.76</ele>
        <time>2015-02-19T15:11:07Z</time>
      </trkpt>
      <trkpt lat="43.97427" lon="3.72875">
        <ele>652.39</ele>
        <time>2015-02-19T15:11:21Z</time>
      </trkpt>
      <trkpt lat="43.97427" lon="3.72875">
        <ele>656.24</ele>
        <time>2015-02-19T15:11:28Z</time>
      </trkpt>
      <trkpt lat="43.97427" lon="3.72875">
        <ele>653.35</ele>
        <time>2015-02-19T15:11:31Z</time>
      </trkpt>
      <trkpt lat="43.97427" lon="3.72875">
        <ele>653.35</ele>
        <time>2015-02-19T15:11:32Z</time>
      </trkpt>
      <trkpt lat="43.97426" lon="3.72873">
        <ele>653.83</ele>
        <time>2015-02-19T15:11:41Z</time>
      </trkpt>
      <trkpt lat="43.97426" lon="3.7288">
        <ele>653.83</ele>
        <time>2015-02-19T15:12:10Z</time>
      </trkpt>
      <trkpt lat="43.97427" lon="3.72883">
        <ele>655.28</ele>
        <time>2015-02-19T15:12:13Z</time>
      </trkpt>
      <trkpt lat="43.97428" lon="3.72894">
        <ele>654.8</ele>
        <time>2015-02-19T15:12:24Z</time>
      </trkpt>
      <trkpt lat="43.97425" lon="3.72905">
        <ele>654.31</ele>
        <time>2015-02-19T15:12:35Z</time>
      </trkpt>
      <trkpt lat="43.97424" lon="3.72907">
        <ele>654.8</ele>
        <time>2015-02-19T15:12:39Z</time>
      </trkpt>
      <trkpt lat="43.97421" lon="3.72916">
        <ele>655.76</ele>
        <time>2015-02-19T15:12:51Z</time>
      </trkpt>
      <trkpt lat="43.97417" lon="3.72925">
        <ele>655.76</ele>
        <time>2015-02-19T15:13:03Z</time>
      </trkpt>
      <trkpt lat="43.97415" lon="3.72934">
        <ele>658.64</ele>
        <time>2015-02-19T15:13:13Z</time>
      </trkpt>
      <trkpt lat="43.97413" lon="3.72943">
        <ele>659.12</ele>
        <time>2015-02-19T15:13:23Z</time>
      </trkpt>
      <trkpt lat="43.9741" lon="3.7295">
        <ele>660.56</ele>
        <time>2015-02-19T15:13:30Z</time>
      </trkpt>
      <trkpt lat="43.97407" lon="3.72954">
        <ele>657.68</ele>
        <time>2015-02-19T15:13:36Z</time>
      </trkpt>
      <trkpt lat="43.97405" lon="3.72964">
        <ele>659.6</ele>
        <time>2015-02-19T15:13:47Z</time>
      </trkpt>
      <trkpt lat="43.97405" lon="3.72965">
        <ele>660.08</ele>
        <time>2015-02-19T15:14:05Z</time>
      </trkpt>
      <trkpt lat="43.97403" lon="3.72973">
        <ele>659.12</ele>
        <time>2015-02-19T15:14:25Z</time>
      </trkpt>
      <trkpt lat="43.97401" lon="3.72975">
        <ele>660.56</ele>
        <time>2015-02-19T15:14:27Z</time>
      </trkpt>
      <trkpt lat="43.97399" lon="3.72978">
        <ele>659.6</ele>
        <time>2015-02-19T15:14:30Z</time>
      </trkpt>
      <trkpt lat="43.97396" lon="3.72989">
        <ele>662.01</ele>
        <time>2015-02-19T15:14:39Z</time>
      </trkpt>
      <trkpt lat="43.97393" lon="3.72995">
        <ele>662.01</ele>
        <time>2015-02-19T15:14:45Z</time>
      </trkpt>
      <trkpt lat="43.97393" lon="3.72998">
        <ele>659.12</ele>
        <time>2015-02-19T15:14:47Z</time>
      </trkpt>
      <trkpt lat="43.97392" lon="3.72999">
        <ele>660.56</ele>
        <time>2015-02-19T15:14:49Z</time>
      </trkpt>
      <trkpt lat="43.97386" lon="3.73011">
        <ele>659.6</ele>
        <time>2015-02-19T15:15:02Z</time>
      </trkpt>
      <trkpt lat="43.97377" lon="3.73025">
        <ele>656.24</ele>
        <time>2015-02-19T15:15:15Z</time>
      </trkpt>
      <trkpt lat="43.97376" lon="3.73026">
        <ele>656.24</ele>
        <time>2015-02-19T15:15:16Z</time>
      </trkpt>
      <trkpt lat="43.97375" lon="3.73034">
        <ele>659.12</ele>
        <time>2015-02-19T15:15:25Z</time>
      </trkpt>
      <trkpt lat="43.97374" lon="3.73035">
        <ele>655.76</ele>
        <time>2015-02-19T15:15:26Z</time>
      </trkpt>
      <trkpt lat="43.97368" lon="3.73042">
        <ele>654.8</ele>
        <time>2015-02-19T15:15:38Z</time>
      </trkpt>
      <trkpt lat="43.97363" lon="3.73046">
        <ele>650.95</ele>
        <time>2015-02-19T15:15:49Z</time>
      </trkpt>
      <trkpt lat="43.97359" lon="3.73051">
        <ele>649.51</ele>
        <time>2015-02-19T15:15:53Z</time>
      </trkpt>
      <trkpt lat="43.97351" lon="3.73066">
        <ele>648.55</ele>
        <time>2015-02-19T15:16:03Z</time>
      </trkpt>
      <trkpt lat="43.97347" lon="3.73077">
        <ele>648.07</ele>
        <time>2015-02-19T15:16:11Z</time>
      </trkpt>
      <trkpt lat="43.97345" lon="3.7308">
        <ele>647.59</ele>
        <time>2015-02-19T15:16:16Z</time>
      </trkpt>
      <trkpt lat="43.97344" lon="3.73085">
        <ele>648.55</ele>
        <time>2015-02-19T15:16:18Z</time>
      </trkpt>
      <trkpt lat="43.9734" lon="3.73093">
        <ele>648.07</ele>
        <time>2015-02-19T15:16:23Z</time>
      </trkpt>
      <trkpt lat="43.97337" lon="3.73111">
        <ele>649.51</ele>
        <time>2015-02-19T15:16:35Z</time>
      </trkpt>
      <trkpt lat="43.97336" lon="3.73117">
        <ele>648.55</ele>
        <time>2015-02-19T15:16:38Z</time>
      </trkpt>
      <trkpt lat="43.97335" lon="3.73129">
        <ele>647.1</ele>
        <time>2015-02-19T15:16:48Z</time>
      </trkpt>
      <trkpt lat="43.97335" lon="3.73134">
        <ele>649.03</ele>
        <time>2015-02-19T15:16:51Z</time>
      </trkpt>
      <trkpt lat="43.97333" lon="3.7314">
        <ele>648.07</ele>
        <time>2015-02-19T15:16:55Z</time>
      </trkpt>
      <trkpt lat="43.97333" lon="3.73142">
        <ele>648.07</ele>
        <time>2015-02-19T15:16:56Z</time>
      </trkpt>
      <trkpt lat="43.97329" lon="3.73154">
        <ele>645.18</ele>
        <time>2015-02-19T15:17:04Z</time>
      </trkpt>
      <trkpt lat="43.97327" lon="3.7316">
        <ele>648.55</ele>
        <time>2015-02-19T15:17:08Z</time>
      </trkpt>
      <trkpt lat="43.97327" lon="3.73161">
        <ele>645.18</ele>
        <time>2015-02-19T15:17:09Z</time>
      </trkpt>
      <trkpt lat="43.97326" lon="3.73165">
        <ele>647.1</ele>
        <time>2015-02-19T15:17:13Z</time>
      </trkpt>
      <trkpt lat="43.97324" lon="3.73177">
        <ele>644.7</ele>
        <time>2015-02-19T15:17:25Z</time>
      </trkpt>
      <trkpt lat="43.97321" lon="3.73193">
        <ele>646.14</ele>
        <time>2015-02-19T15:17:35Z</time>
      </trkpt>
      <trkpt lat="43.97321" lon="3.73193">
        <ele>642.78</ele>
        <time>2015-02-19T15:17:36Z</time>
      </trkpt>
      <trkpt lat="43.97321" lon="3.73193">
        <ele>646.14</ele>
        <time>2015-02-19T15:17:37Z</time>
      </trkpt>
      <trkpt lat="43.97322" lon="3.73195">
        <ele>642.78</ele>
        <time>2015-02-19T15:17:40Z</time>
      </trkpt>
      <trkpt lat="43.97319" lon="3.73208">
        <ele>643.74</ele>
        <time>2015-02-19T15:17:51Z</time>
      </trkpt>
      <trkpt lat="43.97318" lon="3.73219">
        <ele>641.82</ele>
        <time>2015-02-19T15:17:56Z</time>
      </trkpt>
      <trkpt lat="43.97318" lon="3.73222">
        <ele>643.74</ele>
        <time>2015-02-19T15:17:58Z</time>
      </trkpt>
      <trkpt lat="43.97313" lon="3.7323">
        <ele>639.89</ele>
        <time>2015-02-19T15:18:03Z</time>
      </trkpt>
      <trkpt lat="43.97313" lon="3.73233">
        <ele>640.38</ele>
        <time>2015-02-19T15:18:06Z</time>
      </trkpt>
      <trkpt lat="43.97311" lon="3.73234">
        <ele>639.89</ele>
        <time>2015-02-19T15:18:08Z</time>
      </trkpt>
      <trkpt lat="43.97302" lon="3.73248">
        <ele>637.97</ele>
        <time>2015-02-19T15:18:15Z</time>
      </trkpt>
      <trkpt lat="43.97298" lon="3.73253">
        <ele>637.49</ele>
        <time>2015-02-19T15:18:28Z</time>
      </trkpt>
      <trkpt lat="43.97295" lon="3.73266">
        <ele>635.09</ele>
        <time>2015-02-19T15:18:42Z</time>
      </trkpt>
      <trkpt lat="43.9729" lon="3.73269">
        <ele>633.17</ele>
        <time>2015-02-19T15:18:58Z</time>
      </trkpt>
      <trkpt lat="43.97284" lon="3.73267">
        <ele>631.24</ele>
        <time>2015-02-19T15:19:10Z</time>
      </trkpt>
      <trkpt lat="43.97282" lon="3.73269">
        <ele>630.76</ele>
        <time>2015-02-19T15:19:33Z</time>
      </trkpt>
      <trkpt lat="43.97282" lon="3.73269">
        <ele>632.2</ele>
        <time>2015-02-19T15:19:42Z</time>
      </trkpt>
      <trkpt lat="43.97282" lon="3.73269">
        <ele>630.28</ele>
        <time>2015-02-19T15:19:54Z</time>
      </trkpt>
      <trkpt lat="43.97282" lon="3.73269">
        <ele>633.17</ele>
        <time>2015-02-19T15:20:00Z</time>
      </trkpt>
      <trkpt lat="43.97282" lon="3.73269">
        <ele>630.28</ele>
        <time>2015-02-19T15:20:03Z</time>
      </trkpt>
      <trkpt lat="43.97278" lon="3.73276">
        <ele>630.28</ele>
        <time>2015-02-19T15:20:12Z</time>
      </trkpt>
      <trkpt lat="43.97276" lon="3.73284">
        <ele>628.84</ele>
        <time>2015-02-19T15:20:27Z</time>
      </trkpt>
      <trkpt lat="43.97275" lon="3.73287">
        <ele>627.88</ele>
        <time>2015-02-19T15:20:32Z</time>
      </trkpt>
      <trkpt lat="43.97262" lon="3.73297">
        <ele>626.92</ele>
        <time>2015-02-19T15:20:43Z</time>
      </trkpt>
      <trkpt lat="43.97259" lon="3.73296">
        <ele>624.03</ele>
        <time>2015-02-19T15:20:47Z</time>
      </trkpt>
      <trkpt lat="43.97248" lon="3.73298">
        <ele>624.51</ele>
        <time>2015-02-19T15:21:01Z</time>
      </trkpt>
      <trkpt lat="43.9724" lon="3.73295">
        <ele>622.11</ele>
        <time>2015-02-19T15:21:11Z</time>
      </trkpt>
      <trkpt lat="43.97237" lon="3.73293">
        <ele>621.63</ele>
        <time>2015-02-19T15:21:22Z</time>
      </trkpt>
      <trkpt lat="43.97235" lon="3.73292">
        <ele>623.07</ele>
        <time>2015-02-19T15:21:34Z</time>
      </trkpt>
      <trkpt lat="43.97235" lon="3.73293">
        <ele>622.59</ele>
        <time>2015-02-19T15:22:32Z</time>
      </trkpt>
      <trkpt lat="43.97234" lon="3.73293">
        <ele>624.03</ele>
        <time>2015-02-19T15:22:54Z</time>
      </trkpt>
      <trkpt lat="43.97234" lon="3.73293">
        <ele>620.67</ele>
        <time>2015-02-19T15:23:12Z</time>
      </trkpt>
      <trkpt lat="43.97234" lon="3.73293">
        <ele>624.03</ele>
        <time>2015-02-19T15:23:17Z</time>
      </trkpt>
      <trkpt lat="43.97233" lon="3.73291">
        <ele>624.03</ele>
        <time>2015-02-19T15:23:32Z</time>
      </trkpt>
      <trkpt lat="43.97233" lon="3.73279">
        <ele>622.59</ele>
        <time>2015-02-19T15:23:42Z</time>
      </trkpt>
      <trkpt lat="43.97231" lon="3.73276">
        <ele>624.03</ele>
        <time>2015-02-19T15:23:46Z</time>
      </trkpt>
      <trkpt lat="43.97224" lon="3.73268">
        <ele>621.15</ele>
        <time>2015-02-19T15:23:56Z</time>
      </trkpt>
      <trkpt lat="43.97221" lon="3.73261">
        <ele>620.19</ele>
        <time>2015-02-19T15:24:03Z</time>
      </trkpt>
      <trkpt lat="43.97221" lon="3.73259">
        <ele>622.11</ele>
        <time>2015-02-19T15:24:06Z</time>
      </trkpt>
      <trkpt lat="43.9722" lon="3.73249">
        <ele>620.67</ele>
        <time>2015-02-19T15:24:15Z</time>
      </trkpt>
      <trkpt lat="43.9722" lon="3.73246">
        <ele>618.75</ele>
        <time>2015-02-19T15:24:27Z</time>
      </trkpt>
      <trkpt lat="43.97219" lon="3.73244">
        <ele>619.71</ele>
        <time>2015-02-19T15:24:30Z</time>
      </trkpt>
      <trkpt lat="43.9722" lon="3.73236">
        <ele>617.3</ele>
        <time>2015-02-19T15:24:36Z</time>
      </trkpt>
      <trkpt lat="43.97221" lon="3.73233">
        <ele>616.82</ele>
        <time>2015-02-19T15:24:39Z</time>
      </trkpt>
      <trkpt lat="43.9722" lon="3.73229">
        <ele>618.26</ele>
        <time>2015-02-19T15:24:42Z</time>
      </trkpt>
      <trkpt lat="43.97219" lon="3.73226">
        <ele>613.94</ele>
        <time>2015-02-19T15:24:45Z</time>
      </trkpt>
      <trkpt lat="43.97219" lon="3.73223">
        <ele>615.86</ele>
        <time>2015-02-19T15:24:47Z</time>
      </trkpt>
      <trkpt lat="43.97217" lon="3.7322">
        <ele>613.94</ele>
        <time>2015-02-19T15:24:50Z</time>
      </trkpt>
      <trkpt lat="43.97217" lon="3.73214">
        <ele>615.38</ele>
        <time>2015-02-19T15:24:55Z</time>
      </trkpt>
      <trkpt lat="43.97216" lon="3.73209">
        <ele>615.38</ele>
        <time>2015-02-19T15:24:59Z</time>
      </trkpt>
      <trkpt lat="43.97216" lon="3.73207">
        <ele>613.94</ele>
        <time>2015-02-19T15:25:01Z</time>
      </trkpt>
      <trkpt lat="43.97215" lon="3.73206">
        <ele>611.54</ele>
        <time>2015-02-19T15:25:02Z</time>
      </trkpt>
      <trkpt lat="43.97214" lon="3.73204">
        <ele>612.5</ele>
        <time>2015-02-19T15:25:04Z</time>
      </trkpt>
      <trkpt lat="43.97213" lon="3.732">
        <ele>612.02</ele>
        <time>2015-02-19T15:25:07Z</time>
      </trkpt>
      <trkpt lat="43.97213" lon="3.7319">
        <ele>608.17</ele>
        <time>2015-02-19T15:25:15Z</time>
      </trkpt>
      <trkpt lat="43.97209" lon="3.73184">
        <ele>608.17</ele>
        <time>2015-02-19T15:25:26Z</time>
      </trkpt>
      <trkpt lat="43.97208" lon="3.73177">
        <ele>603.85</ele>
        <time>2015-02-19T15:25:32Z</time>
      </trkpt>
      <trkpt lat="43.97209" lon="3.73175">
        <ele>606.73</ele>
        <time>2015-02-19T15:25:33Z</time>
      </trkpt>
      <trkpt lat="43.97211" lon="3.73168">
        <ele>605.77</ele>
        <time>2015-02-19T15:25:39Z</time>
      </trkpt>
      <trkpt lat="43.97209" lon="3.73158">
        <ele>601.92</ele>
        <time>2015-02-19T15:25:46Z</time>
      </trkpt>
      <trkpt lat="43.97207" lon="3.73154">
        <ele>600.48</ele>
        <time>2015-02-19T15:25:55Z</time>
      </trkpt>
      <trkpt lat="43.97205" lon="3.73154">
        <ele>600.48</ele>
        <time>2015-02-19T15:26:01Z</time>
      </trkpt>
      <trkpt lat="43.97203" lon="3.73152">
        <ele>599.52</ele>
        <time>2015-02-19T15:26:06Z</time>
      </trkpt>
      <trkpt lat="43.97203" lon="3.73151">
        <ele>598.08</ele>
        <time>2015-02-19T15:26:14Z</time>
      </trkpt>
      <trkpt lat="43.97201" lon="3.7315">
        <ele>596.64</ele>
        <time>2015-02-19T15:26:20Z</time>
      </trkpt>
      <trkpt lat="43.972" lon="3.7315">
        <ele>600</ele>
        <time>2015-02-19T15:26:21Z</time>
      </trkpt>
      <trkpt lat="43.97199" lon="3.7315">
        <ele>596.15</ele>
        <time>2015-02-19T15:26:23Z</time>
      </trkpt>
      <trkpt lat="43.97197" lon="3.73152">
        <ele>598.56</ele>
        <time>2015-02-19T15:26:26Z</time>
      </trkpt>
      <trkpt lat="43.97187" lon="3.7316">
        <ele>598.56</ele>
        <time>2015-02-19T15:26:37Z</time>
      </trkpt>
      <trkpt lat="43.97184" lon="3.7316">
        <ele>596.64</ele>
        <time>2015-02-19T15:26:40Z</time>
      </trkpt>
      <trkpt lat="43.97174" lon="3.73164">
        <ele>596.64</ele>
        <time>2015-02-19T15:26:54Z</time>
      </trkpt>
      <trkpt lat="43.97172" lon="3.73164">
        <ele>600.48</ele>
        <time>2015-02-19T15:26:57Z</time>
      </trkpt>
      <trkpt lat="43.97165" lon="3.73161">
        <ele>600.48</ele>
        <time>2015-02-19T15:27:05Z</time>
      </trkpt>
      <trkpt lat="43.97161" lon="3.73157">
        <ele>600.48</ele>
        <time>2015-02-19T15:27:10Z</time>
      </trkpt>
      <trkpt lat="43.97154" lon="3.73154">
        <ele>598.08</ele>
        <time>2015-02-19T15:27:20Z</time>
      </trkpt>
      <trkpt lat="43.97153" lon="3.73153">
        <ele>600.48</ele>
        <time>2015-02-19T15:27:22Z</time>
      </trkpt>
      <trkpt lat="43.97149" lon="3.73148">
        <ele>596.15</ele>
        <time>2015-02-19T15:27:27Z</time>
      </trkpt>
      <trkpt lat="43.97146" lon="3.73145">
        <ele>599.04</ele>
        <time>2015-02-19T15:27:30Z</time>
      </trkpt>
      <trkpt lat="43.97146" lon="3.73145">
        <ele>599.04</ele>
        <time>2015-02-19T15:27:32Z</time>
      </trkpt>
      <trkpt lat="43.97139" lon="3.73143">
        <ele>596.64</ele>
        <time>2015-02-19T15:27:46Z</time>
      </trkpt>
      <trkpt lat="43.97136" lon="3.73141">
        <ele>597.12</ele>
        <time>2015-02-19T15:27:51Z</time>
      </trkpt>
      <trkpt lat="43.97135" lon="3.7314">
        <ele>595.67</ele>
        <time>2015-02-19T15:27:52Z</time>
      </trkpt>
      <trkpt lat="43.97133" lon="3.73138">
        <ele>594.71</ele>
        <time>2015-02-19T15:27:54Z</time>
      </trkpt>
      <trkpt lat="43.97132" lon="3.73137">
        <ele>595.67</ele>
        <time>2015-02-19T15:27:55Z</time>
      </trkpt>
      <trkpt lat="43.97127" lon="3.73127">
        <ele>594.23</ele>
        <time>2015-02-19T15:28:01Z</time>
      </trkpt>
      <trkpt lat="43.97124" lon="3.73124">
        <ele>595.67</ele>
        <time>2015-02-19T15:28:03Z</time>
      </trkpt>
      <trkpt lat="43.97112" lon="3.7311">
        <ele>592.31</ele>
        <time>2015-02-19T15:28:14Z</time>
      </trkpt>
      <trkpt lat="43.97109" lon="3.7311">
        <ele>591.83</ele>
        <time>2015-02-19T15:28:16Z</time>
      </trkpt>
      <trkpt lat="43.97107" lon="3.73107">
        <ele>591.35</ele>
        <time>2015-02-19T15:28:21Z</time>
      </trkpt>
      <trkpt lat="43.97098" lon="3.73093">
        <ele>592.79</ele>
        <time>2015-02-19T15:28:30Z</time>
      </trkpt>
      <trkpt lat="43.97093" lon="3.73088">
        <ele>588.95</ele>
        <time>2015-02-19T15:28:36Z</time>
      </trkpt>
      <trkpt lat="43.97089" lon="3.73077">
        <ele>589.43</ele>
        <time>2015-02-19T15:28:41Z</time>
      </trkpt>
      <trkpt lat="43.97087" lon="3.73074">
        <ele>591.35</ele>
        <time>2015-02-19T15:28:44Z</time>
      </trkpt>
      <trkpt lat="43.97086" lon="3.73074">
        <ele>587.98</ele>
        <time>2015-02-19T15:28:45Z</time>
      </trkpt>
      <trkpt lat="43.97083" lon="3.73072">
        <ele>590.87</ele>
        <time>2015-02-19T15:28:48Z</time>
      </trkpt>
      <trkpt lat="43.97081" lon="3.73071">
        <ele>587.98</ele>
        <time>2015-02-19T15:28:50Z</time>
      </trkpt>
      <trkpt lat="43.9707" lon="3.7306">
        <ele>588.95</ele>
        <time>2015-02-19T15:29:01Z</time>
      </trkpt>
      <trkpt lat="43.97068" lon="3.7306">
        <ele>586.06</ele>
        <time>2015-02-19T15:29:03Z</time>
      </trkpt>
      <trkpt lat="43.97066" lon="3.73058">
        <ele>584.62</ele>
        <time>2015-02-19T15:29:08Z</time>
      </trkpt>
      <trkpt lat="43.97066" lon="3.73055">
        <ele>584.62</ele>
        <time>2015-02-19T15:29:10Z</time>
      </trkpt>
      <trkpt lat="43.97062" lon="3.73051">
        <ele>585.58</ele>
        <time>2015-02-19T15:29:14Z</time>
      </trkpt>
      <trkpt lat="43.97058" lon="3.73046">
        <ele>586.54</ele>
        <time>2015-02-19T15:29:18Z</time>
      </trkpt>
      <trkpt lat="43.97053" lon="3.73036">
        <ele>583.66</ele>
        <time>2015-02-19T15:29:25Z</time>
      </trkpt>
      <trkpt lat="43.97048" lon="3.73032">
        <ele>584.14</ele>
        <time>2015-02-19T15:29:29Z</time>
      </trkpt>
      <trkpt lat="43.97045" lon="3.73029">
        <ele>585.1</ele>
        <time>2015-02-19T15:29:33Z</time>
      </trkpt>
      <trkpt lat="43.97042" lon="3.73025">
        <ele>582.22</ele>
        <time>2015-02-19T15:29:36Z</time>
      </trkpt>
      <trkpt lat="43.97035" lon="3.7302">
        <ele>581.25</ele>
        <time>2015-02-19T15:29:41Z</time>
      </trkpt>
      <trkpt lat="43.97025" lon="3.73005">
        <ele>578.37</ele>
        <time>2015-02-19T15:29:51Z</time>
      </trkpt>
      <trkpt lat="43.97023" lon="3.73002">
        <ele>581.73</ele>
        <time>2015-02-19T15:29:54Z</time>
      </trkpt>
      <trkpt lat="43.97016" lon="3.72998">
        <ele>580.29</ele>
        <time>2015-02-19T15:30:02Z</time>
      </trkpt>
      <trkpt lat="43.9701" lon="3.72995">
        <ele>577.89</ele>
        <time>2015-02-19T15:30:07Z</time>
      </trkpt>
      <trkpt lat="43.97002" lon="3.72987">
        <ele>581.73</ele>
        <time>2015-02-19T15:30:14Z</time>
      </trkpt>
      <trkpt lat="43.96999" lon="3.72983">
        <ele>581.73</ele>
        <time>2015-02-19T15:30:17Z</time>
      </trkpt>
      <trkpt lat="43.96994" lon="3.72979">
        <ele>578.85</ele>
        <time>2015-02-19T15:30:20Z</time>
      </trkpt>
      <trkpt lat="43.96993" lon="3.72978">
        <ele>580.77</ele>
        <time>2015-02-19T15:30:21Z</time>
      </trkpt>
      <trkpt lat="43.96992" lon="3.72978">
        <ele>579.33</ele>
        <time>2015-02-19T15:30:22Z</time>
      </trkpt>
      <trkpt lat="43.96985" lon="3.72967">
        <ele>582.7</ele>
        <time>2015-02-19T15:30:30Z</time>
      </trkpt>
      <trkpt lat="43.9698" lon="3.72962">
        <ele>578.85</ele>
        <time>2015-02-19T15:30:36Z</time>
      </trkpt>
      <trkpt lat="43.96974" lon="3.72961">
        <ele>579.81</ele>
        <time>2015-02-19T15:30:40Z</time>
      </trkpt>
      <trkpt lat="43.96961" lon="3.72951">
        <ele>579.81</ele>
        <time>2015-02-19T15:30:52Z</time>
      </trkpt>
      <trkpt lat="43.9696" lon="3.72951">
        <ele>578.85</ele>
        <time>2015-02-19T15:30:53Z</time>
      </trkpt>
      <trkpt lat="43.96955" lon="3.72946">
        <ele>577.41</ele>
        <time>2015-02-19T15:30:57Z</time>
      </trkpt>
      <trkpt lat="43.9695" lon="3.72941">
        <ele>577.41</ele>
        <time>2015-02-19T15:31:02Z</time>
      </trkpt>
      <trkpt lat="43.96945" lon="3.7294">
        <ele>577.41</ele>
        <time>2015-02-19T15:31:06Z</time>
      </trkpt>
      <trkpt lat="43.96941" lon="3.72936">
        <ele>578.85</ele>
        <time>2015-02-19T15:31:10Z</time>
      </trkpt>
      <trkpt lat="43.96936" lon="3.7293">
        <ele>575.49</ele>
        <time>2015-02-19T15:31:16Z</time>
      </trkpt>
      <trkpt lat="43.96934" lon="3.72929">
        <ele>575.97</ele>
        <time>2015-02-19T15:31:17Z</time>
      </trkpt>
      <trkpt lat="43.96931" lon="3.72926">
        <ele>574.53</ele>
        <time>2015-02-19T15:31:20Z</time>
      </trkpt>
      <trkpt lat="43.96927" lon="3.72924">
        <ele>574.04</ele>
        <time>2015-02-19T15:31:24Z</time>
      </trkpt>
      <trkpt lat="43.96922" lon="3.72922">
        <ele>575.01</ele>
        <time>2015-02-19T15:31:28Z</time>
      </trkpt>
      <trkpt lat="43.96912" lon="3.72915">
        <ele>573.08</ele>
        <time>2015-02-19T15:31:37Z</time>
      </trkpt>
      <trkpt lat="43.96909" lon="3.72915">
        <ele>574.53</ele>
        <time>2015-02-19T15:31:39Z</time>
      </trkpt>
      <trkpt lat="43.96904" lon="3.72914">
        <ele>573.08</ele>
        <time>2015-02-19T15:31:46Z</time>
      </trkpt>
      <trkpt lat="43.96898" lon="3.72913">
        <ele>571.64</ele>
        <time>2015-02-19T15:31:51Z</time>
      </trkpt>
      <trkpt lat="43.96893" lon="3.7291">
        <ele>571.64</ele>
        <time>2015-02-19T15:31:57Z</time>
      </trkpt>
      <trkpt lat="43.96889" lon="3.72908">
        <ele>571.64</ele>
        <time>2015-02-19T15:32:06Z</time>
      </trkpt>
      <trkpt lat="43.96879" lon="3.72901">
        <ele>568.28</ele>
        <time>2015-02-19T15:32:15Z</time>
      </trkpt>
      <trkpt lat="43.96864" lon="3.72898">
        <ele>568.76</ele>
        <time>2015-02-19T15:32:28Z</time>
      </trkpt>
      <trkpt lat="43.96858" lon="3.72896">
        <ele>567.32</ele>
        <time>2015-02-19T15:32:32Z</time>
      </trkpt>
      <trkpt lat="43.96854" lon="3.72894">
        <ele>567.8</ele>
        <time>2015-02-19T15:32:35Z</time>
      </trkpt>
      <trkpt lat="43.96846" lon="3.72885">
        <ele>565.39</ele>
        <time>2015-02-19T15:32:42Z</time>
      </trkpt>
      <trkpt lat="43.96842" lon="3.72884">
        <ele>567.32</ele>
        <time>2015-02-19T15:32:45Z</time>
      </trkpt>
      <trkpt lat="43.96839" lon="3.72882">
        <ele>567.32</ele>
        <time>2015-02-19T15:32:49Z</time>
      </trkpt>
      <trkpt lat="43.96828" lon="3.72874">
        <ele>566.35</ele>
        <time>2015-02-19T15:33:01Z</time>
      </trkpt>
      <trkpt lat="43.9682" lon="3.72866">
        <ele>564.91</ele>
        <time>2015-02-19T15:33:11Z</time>
      </trkpt>
      <trkpt lat="43.96808" lon="3.72859">
        <ele>562.99</ele>
        <time>2015-02-19T15:33:24Z</time>
      </trkpt>
      <trkpt lat="43.96801" lon="3.72858">
        <ele>562.51</ele>
        <time>2015-02-19T15:33:35Z</time>
      </trkpt>
      <trkpt lat="43.96799" lon="3.72854">
        <ele>564.91</ele>
        <time>2015-02-19T15:33:40Z</time>
      </trkpt>
      <trkpt lat="43.96795" lon="3.72848">
        <ele>564.43</ele>
        <time>2015-02-19T15:33:46Z</time>
      </trkpt>
      <trkpt lat="43.96795" lon="3.72847">
        <ele>562.51</ele>
        <time>2015-02-19T15:33:47Z</time>
      </trkpt>
      <trkpt lat="43.96793" lon="3.72844">
        <ele>562.99</ele>
        <time>2015-02-19T15:33:50Z</time>
      </trkpt>
      <trkpt lat="43.9679" lon="3.72842">
        <ele>561.55</ele>
        <time>2015-02-19T15:33:53Z</time>
      </trkpt>
      <trkpt lat="43.96777" lon="3.72834">
        <ele>560.59</ele>
        <time>2015-02-19T15:34:07Z</time>
      </trkpt>
      <trkpt lat="43.96765" lon="3.72825">
        <ele>558.18</ele>
        <time>2015-02-19T15:34:18Z</time>
      </trkpt>
      <trkpt lat="43.96763" lon="3.72824">
        <ele>559.62</ele>
        <time>2015-02-19T15:34:21Z</time>
      </trkpt>
      <trkpt lat="43.96761" lon="3.72823">
        <ele>559.62</ele>
        <time>2015-02-19T15:34:23Z</time>
      </trkpt>
      <trkpt lat="43.96754" lon="3.7282">
        <ele>559.14</ele>
        <time>2015-02-19T15:34:30Z</time>
      </trkpt>
      <trkpt lat="43.96752" lon="3.7282">
        <ele>556.74</ele>
        <time>2015-02-19T15:34:32Z</time>
      </trkpt>
      <trkpt lat="43.96741" lon="3.72816">
        <ele>554.34</ele>
        <time>2015-02-19T15:34:45Z</time>
      </trkpt>
      <trkpt lat="43.96734" lon="3.72814">
        <ele>553.38</ele>
        <time>2015-02-19T15:34:52Z</time>
      </trkpt>
      <trkpt lat="43.96733" lon="3.72814">
        <ele>554.82</ele>
        <time>2015-02-19T15:34:53Z</time>
      </trkpt>
      <trkpt lat="43.96732" lon="3.72813">
        <ele>551.93</ele>
        <time>2015-02-19T15:34:55Z</time>
      </trkpt>
      <trkpt lat="43.96724" lon="3.72807">
        <ele>552.9</ele>
        <time>2015-02-19T15:35:06Z</time>
      </trkpt>
      <trkpt lat="43.96711" lon="3.72796">
        <ele>550.01</ele>
        <time>2015-02-19T15:35:18Z</time>
      </trkpt>
      <trkpt lat="43.96696" lon="3.72777">
        <ele>551.93</ele>
        <time>2015-02-19T15:35:26Z</time>
      </trkpt>
      <trkpt lat="43.96692" lon="3.7277">
        <ele>550.01</ele>
        <time>2015-02-19T15:35:28Z</time>
      </trkpt>
      <trkpt lat="43.96673" lon="3.72748">
        <ele>547.13</ele>
        <time>2015-02-19T15:35:41Z</time>
      </trkpt>
      <trkpt lat="43.96672" lon="3.72746">
        <ele>550.49</ele>
        <time>2015-02-19T15:35:42Z</time>
      </trkpt>
      <trkpt lat="43.9667" lon="3.72744">
        <ele>547.61</ele>
        <time>2015-02-19T15:35:44Z</time>
      </trkpt>
      <trkpt lat="43.96668" lon="3.72743">
        <ele>549.05</ele>
        <time>2015-02-19T15:35:46Z</time>
      </trkpt>
      <trkpt lat="43.96665" lon="3.72739">
        <ele>545.69</ele>
        <time>2015-02-19T15:35:50Z</time>
      </trkpt>
      <trkpt lat="43.96663" lon="3.72738">
        <ele>549.05</ele>
        <time>2015-02-19T15:35:52Z</time>
      </trkpt>
      <trkpt lat="43.96662" lon="3.72737">
        <ele>549.05</ele>
        <time>2015-02-19T15:35:53Z</time>
      </trkpt>
      <trkpt lat="43.96658" lon="3.72735">
        <ele>546.17</ele>
        <time>2015-02-19T15:35:58Z</time>
      </trkpt>
      <trkpt lat="43.96657" lon="3.72734">
        <ele>548.09</ele>
        <time>2015-02-19T15:35:59Z</time>
      </trkpt>
      <trkpt lat="43.96653" lon="3.72719">
        <ele>546.65</ele>
        <time>2015-02-19T15:36:11Z</time>
      </trkpt>
      <trkpt lat="43.96651" lon="3.72708">
        <ele>546.17</ele>
        <time>2015-02-19T15:36:18Z</time>
      </trkpt>
      <trkpt lat="43.96651" lon="3.72702">
        <ele>545.69</ele>
        <time>2015-02-19T15:36:21Z</time>
      </trkpt>
      <trkpt lat="43.96652" lon="3.72693">
        <ele>544.72</ele>
        <time>2015-02-19T15:36:33Z</time>
      </trkpt>
      <trkpt lat="43.96652" lon="3.72688">
        <ele>545.69</ele>
        <time>2015-02-19T15:36:37Z</time>
      </trkpt>
      <trkpt lat="43.96655" lon="3.72679">
        <ele>543.28</ele>
        <time>2015-02-19T15:36:48Z</time>
      </trkpt>
      <trkpt lat="43.96656" lon="3.72674">
        <ele>543.28</ele>
        <time>2015-02-19T15:36:57Z</time>
      </trkpt>
      <trkpt lat="43.96659" lon="3.72666">
        <ele>543.76</ele>
        <time>2015-02-19T15:37:02Z</time>
      </trkpt>
      <trkpt lat="43.96664" lon="3.72648">
        <ele>540.4</ele>
        <time>2015-02-19T15:37:12Z</time>
      </trkpt>
      <trkpt lat="43.96666" lon="3.72633">
        <ele>539.92</ele>
        <time>2015-02-19T15:37:23Z</time>
      </trkpt>
      <trkpt lat="43.96666" lon="3.72632">
        <ele>540.88</ele>
        <time>2015-02-19T15:37:24Z</time>
      </trkpt>
      <trkpt lat="43.96665" lon="3.72629">
        <ele>539.92</ele>
        <time>2015-02-19T15:37:26Z</time>
      </trkpt>
      <trkpt lat="43.96671" lon="3.72621">
        <ele>540.88</ele>
        <time>2015-02-19T15:37:30Z</time>
      </trkpt>
      <trkpt lat="43.96674" lon="3.72609">
        <ele>539.92</ele>
        <time>2015-02-19T15:37:38Z</time>
      </trkpt>
      <trkpt lat="43.96674" lon="3.72608">
        <ele>541.36</ele>
        <time>2015-02-19T15:37:39Z</time>
      </trkpt>
      <trkpt lat="43.96677" lon="3.72597">
        <ele>540.4</ele>
        <time>2015-02-19T15:37:46Z</time>
      </trkpt>
      <trkpt lat="43.96675" lon="3.72586">
        <ele>538.96</ele>
        <time>2015-02-19T15:37:50Z</time>
      </trkpt>
      <trkpt lat="43.96669" lon="3.72575">
        <ele>541.84</ele>
        <time>2015-02-19T15:37:58Z</time>
      </trkpt>
      <trkpt lat="43.96665" lon="3.72571">
        <ele>537.99</ele>
        <time>2015-02-19T15:38:03Z</time>
      </trkpt>
      <trkpt lat="43.96664" lon="3.7257">
        <ele>537.99</ele>
        <time>2015-02-19T15:38:04Z</time>
      </trkpt>
      <trkpt lat="43.96663" lon="3.72569">
        <ele>541.84</ele>
        <time>2015-02-19T15:38:06Z</time>
      </trkpt>
      <trkpt lat="43.96663" lon="3.72569">
        <ele>537.51</ele>
        <time>2015-02-19T15:38:07Z</time>
      </trkpt>
      <trkpt lat="43.96663" lon="3.72569">
        <ele>539.92</ele>
        <time>2015-02-19T15:38:08Z</time>
      </trkpt>
      <trkpt lat="43.96658" lon="3.72566">
        <ele>540.88</ele>
        <time>2015-02-19T15:38:12Z</time>
      </trkpt>
      <trkpt lat="43.96652" lon="3.72557">
        <ele>537.99</ele>
        <time>2015-02-19T15:38:22Z</time>
      </trkpt>
      <trkpt lat="43.96652" lon="3.72557">
        <ele>538.48</ele>
        <time>2015-02-19T15:38:23Z</time>
      </trkpt>
      <trkpt lat="43.9665" lon="3.72551">
        <ele>537.51</ele>
        <time>2015-02-19T15:38:36Z</time>
      </trkpt>
      <trkpt lat="43.96649" lon="3.72549">
        <ele>537.03</ele>
        <time>2015-02-19T15:38:37Z</time>
      </trkpt>
      <trkpt lat="43.96645" lon="3.72542">
        <ele>537.03</ele>
        <time>2015-02-19T15:38:41Z</time>
      </trkpt>
      <trkpt lat="43.96641" lon="3.72538">
        <ele>536.07</ele>
        <time>2015-02-19T15:38:44Z</time>
      </trkpt>
      <trkpt lat="43.96635" lon="3.72533">
        <ele>537.99</ele>
        <time>2015-02-19T15:38:49Z</time>
      </trkpt>
      <trkpt lat="43.96633" lon="3.72531">
        <ele>536.55</ele>
        <time>2015-02-19T15:38:51Z</time>
      </trkpt>
      <trkpt lat="43.96613" lon="3.72515">
        <ele>537.03</ele>
        <time>2015-02-19T15:39:06Z</time>
      </trkpt>
      <trkpt lat="43.96608" lon="3.72509">
        <ele>537.51</ele>
        <time>2015-02-19T15:39:10Z</time>
      </trkpt>
      <trkpt lat="43.96597" lon="3.72488">
        <ele>534.63</ele>
        <time>2015-02-19T15:39:22Z</time>
      </trkpt>
      <trkpt lat="43.96596" lon="3.72485">
        <ele>535.59</ele>
        <time>2015-02-19T15:39:24Z</time>
      </trkpt>
      <trkpt lat="43.96591" lon="3.72478">
        <ele>533.19</ele>
        <time>2015-02-19T15:39:30Z</time>
      </trkpt>
      <trkpt lat="43.96591" lon="3.72478">
        <ele>536.55</ele>
        <time>2015-02-19T15:39:32Z</time>
      </trkpt>
      <trkpt lat="43.96591" lon="3.72478">
        <ele>533.67</ele>
        <time>2015-02-19T15:39:34Z</time>
      </trkpt>
      <trkpt lat="43.96591" lon="3.72478">
        <ele>533.67</ele>
        <time>2015-02-19T15:39:35Z</time>
      </trkpt>
      <trkpt lat="43.96589" lon="3.72475">
        <ele>537.03</ele>
        <time>2015-02-19T15:39:42Z</time>
      </trkpt>
      <trkpt lat="43.96587" lon="3.72473">
        <ele>533.19</ele>
        <time>2015-02-19T15:39:44Z</time>
      </trkpt>
      <trkpt lat="43.96586" lon="3.72472">
        <ele>534.15</ele>
        <time>2015-02-19T15:39:45Z</time>
      </trkpt>
      <trkpt lat="43.96577" lon="3.72459">
        <ele>535.11</ele>
        <time>2015-02-19T15:39:57Z</time>
      </trkpt>
      <trkpt lat="43.96577" lon="3.72457">
        <ele>535.59</ele>
        <time>2015-02-19T15:39:58Z</time>
      </trkpt>
      <trkpt lat="43.96567" lon="3.72441">
        <ele>532.23</ele>
        <time>2015-02-19T15:40:09Z</time>
      </trkpt>
      <trkpt lat="43.96564" lon="3.72438">
        <ele>536.07</ele>
        <time>2015-02-19T15:40:12Z</time>
      </trkpt>
      <trkpt lat="43.96561" lon="3.72432">
        <ele>531.75</ele>
        <time>2015-02-19T15:40:16Z</time>
      </trkpt>
      <trkpt lat="43.9656" lon="3.72431">
        <ele>531.75</ele>
        <time>2015-02-19T15:40:17Z</time>
      </trkpt>
      <trkpt lat="43.96558" lon="3.72428">
        <ele>534.15</ele>
        <time>2015-02-19T15:40:19Z</time>
      </trkpt>
      <trkpt lat="43.96555" lon="3.72426">
        <ele>532.23</ele>
        <time>2015-02-19T15:40:21Z</time>
      </trkpt>
      <trkpt lat="43.96551" lon="3.72417">
        <ele>533.19</ele>
        <time>2015-02-19T15:40:26Z</time>
      </trkpt>
      <trkpt lat="43.96549" lon="3.72415">
        <ele>534.63</ele>
        <time>2015-02-19T15:40:28Z</time>
      </trkpt>
      <trkpt lat="43.96548" lon="3.72413">
        <ele>533.67</ele>
        <time>2015-02-19T15:40:30Z</time>
      </trkpt>
      <trkpt lat="43.96544" lon="3.72404">
        <ele>534.15</ele>
        <time>2015-02-19T15:40:36Z</time>
      </trkpt>
      <trkpt lat="43.96536" lon="3.72392">
        <ele>533.67</ele>
        <time>2015-02-19T15:40:47Z</time>
      </trkpt>
      <trkpt lat="43.96535" lon="3.72389">
        <ele>533.67</ele>
        <time>2015-02-19T15:40:50Z</time>
      </trkpt>
      <trkpt lat="43.96531" lon="3.72383">
        <ele>536.55</ele>
        <time>2015-02-19T15:40:56Z</time>
      </trkpt>
      <trkpt lat="43.9653" lon="3.7238">
        <ele>534.15</ele>
        <time>2015-02-19T15:40:58Z</time>
      </trkpt>
      <trkpt lat="43.96528" lon="3.72378">
        <ele>533.67</ele>
        <time>2015-02-19T15:41:00Z</time>
      </trkpt>
      <trkpt lat="43.96519" lon="3.72367">
        <ele>533.19</ele>
        <time>2015-02-19T15:41:10Z</time>
      </trkpt>
      <trkpt lat="43.96512" lon="3.72357">
        <ele>533.19</ele>
        <time>2015-02-19T15:41:21Z</time>
      </trkpt>
      <trkpt lat="43.96507" lon="3.72351">
        <ele>534.63</ele>
        <time>2015-02-19T15:41:26Z</time>
      </trkpt>
      <trkpt lat="43.96505" lon="3.72349">
        <ele>531.75</ele>
        <time>2015-02-19T15:41:28Z</time>
      </trkpt>
      <trkpt lat="43.96502" lon="3.72347">
        <ele>533.67</ele>
        <time>2015-02-19T15:41:30Z</time>
      </trkpt>
      <trkpt lat="43.96497" lon="3.72339">
        <ele>532.71</ele>
        <time>2015-02-19T15:41:36Z</time>
      </trkpt>
      <trkpt lat="43.96493" lon="3.72333">
        <ele>534.63</ele>
        <time>2015-02-19T15:41:40Z</time>
      </trkpt>
      <trkpt lat="43.96491" lon="3.7233">
        <ele>534.63</ele>
        <time>2015-02-19T15:41:42Z</time>
      </trkpt>
      <trkpt lat="43.96481" lon="3.72317">
        <ele>534.15</ele>
        <time>2015-02-19T15:41:54Z</time>
      </trkpt>
      <trkpt lat="43.96479" lon="3.72314">
        <ele>534.63</ele>
        <time>2015-02-19T15:41:56Z</time>
      </trkpt>
      <trkpt lat="43.9647" lon="3.72303">
        <ele>533.19</ele>
        <time>2015-02-19T15:42:06Z</time>
      </trkpt>
      <trkpt lat="43.96467" lon="3.72298">
        <ele>536.55</ele>
        <time>2015-02-19T15:42:11Z</time>
      </trkpt>
      <trkpt lat="43.96461" lon="3.72292">
        <ele>532.23</ele>
        <time>2015-02-19T15:42:17Z</time>
      </trkpt>
      <trkpt lat="43.9646" lon="3.72291">
        <ele>535.11</ele>
        <time>2015-02-19T15:42:18Z</time>
      </trkpt>
      <trkpt lat="43.96456" lon="3.72286">
        <ele>535.11</ele>
        <time>2015-02-19T15:42:23Z</time>
      </trkpt>
      <trkpt lat="43.96446" lon="3.72279">
        <ele>536.07</ele>
        <time>2015-02-19T15:42:33Z</time>
      </trkpt>
      <trkpt lat="43.96443" lon="3.72277">
        <ele>538.48</ele>
        <time>2015-02-19T15:42:36Z</time>
      </trkpt>
      <trkpt lat="43.96441" lon="3.72274">
        <ele>534.15</ele>
        <time>2015-02-19T15:42:39Z</time>
      </trkpt>
      <trkpt lat="43.96437" lon="3.72274">
        <ele>537.51</ele>
        <time>2015-02-19T15:42:42Z</time>
      </trkpt>
      <trkpt lat="43.96427" lon="3.72274">
        <ele>537.51</ele>
        <time>2015-02-19T15:42:51Z</time>
      </trkpt>
      <trkpt lat="43.9641" lon="3.72279">
        <ele>534.63</ele>
        <time>2015-02-19T15:43:06Z</time>
      </trkpt>
      <trkpt lat="43.96401" lon="3.72281">
        <ele>533.19</ele>
        <time>2015-02-19T15:43:14Z</time>
      </trkpt>
      <trkpt lat="43.964" lon="3.72281">
        <ele>535.59</ele>
        <time>2015-02-19T15:43:16Z</time>
      </trkpt>
      <trkpt lat="43.96395" lon="3.72281">
        <ele>534.63</ele>
        <time>2015-02-19T15:43:20Z</time>
      </trkpt>
      <trkpt lat="43.9639" lon="3.72281">
        <ele>534.63</ele>
        <time>2015-02-19T15:43:24Z</time>
      </trkpt>
      <trkpt lat="43.96381" lon="3.72281">
        <ele>534.63</ele>
        <time>2015-02-19T15:43:34Z</time>
      </trkpt>
      <trkpt lat="43.96377" lon="3.72282">
        <ele>532.71</ele>
        <time>2015-02-19T15:43:37Z</time>
      </trkpt>
      <trkpt lat="43.96372" lon="3.72282">
        <ele>533.67</ele>
        <time>2015-02-19T15:43:41Z</time>
      </trkpt>
      <trkpt lat="43.96365" lon="3.72284">
        <ele>533.19</ele>
        <time>2015-02-19T15:43:49Z</time>
      </trkpt>
      <trkpt lat="43.96348" lon="3.72284">
        <ele>531.27</ele>
        <time>2015-02-19T15:44:04Z</time>
      </trkpt>
      <trkpt lat="43.96342" lon="3.72285">
        <ele>529.82</ele>
        <time>2015-02-19T15:44:10Z</time>
      </trkpt>
      <trkpt lat="43.9634" lon="3.72285">
        <ele>529.82</ele>
        <time>2015-02-19T15:44:12Z</time>
      </trkpt>
      <trkpt lat="43.96337" lon="3.72285">
        <ele>531.75</ele>
        <time>2015-02-19T15:44:14Z</time>
      </trkpt>
      <trkpt lat="43.96336" lon="3.72284">
        <ele>529.82</ele>
        <time>2015-02-19T15:44:15Z</time>
      </trkpt>
      <trkpt lat="43.96334" lon="3.72285">
        <ele>528.86</ele>
        <time>2015-02-19T15:44:17Z</time>
      </trkpt>
      <trkpt lat="43.96332" lon="3.72284">
        <ele>531.75</ele>
        <time>2015-02-19T15:44:22Z</time>
      </trkpt>
      <trkpt lat="43.9633" lon="3.72285">
        <ele>528.38</ele>
        <time>2015-02-19T15:44:26Z</time>
      </trkpt>
      <trkpt lat="43.96326" lon="3.72288">
        <ele>533.19</ele>
        <time>2015-02-19T15:44:30Z</time>
      </trkpt>
      <trkpt lat="43.96323" lon="3.72289">
        <ele>529.34</ele>
        <time>2015-02-19T15:44:32Z</time>
      </trkpt>
      <trkpt lat="43.96315" lon="3.72295">
        <ele>526.46</ele>
        <time>2015-02-19T15:44:42Z</time>
      </trkpt>
      <trkpt lat="43.96305" lon="3.723">
        <ele>527.9</ele>
        <time>2015-02-19T15:44:53Z</time>
      </trkpt>
      <trkpt lat="43.96298" lon="3.72302">
        <ele>529.82</ele>
        <time>2015-02-19T15:45:00Z</time>
      </trkpt>
      <trkpt lat="43.96296" lon="3.72303">
        <ele>525.02</ele>
        <time>2015-02-19T15:45:01Z</time>
      </trkpt>
      <trkpt lat="43.96295" lon="3.72303">
        <ele>525.98</ele>
        <time>2015-02-19T15:45:02Z</time>
      </trkpt>
      <trkpt lat="43.96292" lon="3.72302">
        <ele>524.06</ele>
        <time>2015-02-19T15:45:04Z</time>
      </trkpt>
      <trkpt lat="43.96291" lon="3.72302">
        <ele>524.06</ele>
        <time>2015-02-19T15:45:05Z</time>
      </trkpt>
      <trkpt lat="43.96284" lon="3.723">
        <ele>525.98</ele>
        <time>2015-02-19T15:45:11Z</time>
      </trkpt>
      <trkpt lat="43.96282" lon="3.72299">
        <ele>525.5</ele>
        <time>2015-02-19T15:45:13Z</time>
      </trkpt>
      <trkpt lat="43.96271" lon="3.72299">
        <ele>521.17</ele>
        <time>2015-02-19T15:45:22Z</time>
      </trkpt>
      <trkpt lat="43.9627" lon="3.72299">
        <ele>522.61</ele>
        <time>2015-02-19T15:45:23Z</time>
      </trkpt>
      <trkpt lat="43.96267" lon="3.72299">
        <ele>525.02</ele>
        <time>2015-02-19T15:45:26Z</time>
      </trkpt>
      <trkpt lat="43.96265" lon="3.723">
        <ele>521.65</ele>
        <time>2015-02-19T15:45:28Z</time>
      </trkpt>
      <trkpt lat="43.96263" lon="3.723">
        <ele>523.09</ele>
        <time>2015-02-19T15:45:30Z</time>
      </trkpt>
      <trkpt lat="43.96256" lon="3.723">
        <ele>522.61</ele>
        <time>2015-02-19T15:45:37Z</time>
      </trkpt>
      <trkpt lat="43.96254" lon="3.72299">
        <ele>520.21</ele>
        <time>2015-02-19T15:45:39Z</time>
      </trkpt>
      <trkpt lat="43.9625" lon="3.72298">
        <ele>523.09</ele>
        <time>2015-02-19T15:45:42Z</time>
      </trkpt>
      <trkpt lat="43.96248" lon="3.72299">
        <ele>519.25</ele>
        <time>2015-02-19T15:45:44Z</time>
      </trkpt>
      <trkpt lat="43.96244" lon="3.72299">
        <ele>520.21</ele>
        <time>2015-02-19T15:45:48Z</time>
      </trkpt>
      <trkpt lat="43.96235" lon="3.723">
        <ele>518.29</ele>
        <time>2015-02-19T15:45:58Z</time>
      </trkpt>
      <trkpt lat="43.9623" lon="3.723">
        <ele>516.85</ele>
        <time>2015-02-19T15:46:03Z</time>
      </trkpt>
      <trkpt lat="43.96228" lon="3.72301">
        <ele>518.29</ele>
        <time>2015-02-19T15:46:06Z</time>
      </trkpt>
      <trkpt lat="43.96221" lon="3.72303">
        <ele>514.92</ele>
        <time>2015-02-19T15:46:13Z</time>
      </trkpt>
      <trkpt lat="43.96218" lon="3.72303">
        <ele>515.88</ele>
        <time>2015-02-19T15:46:16Z</time>
      </trkpt>
      <trkpt lat="43.96212" lon="3.72308">
        <ele>515.4</ele>
        <time>2015-02-19T15:46:24Z</time>
      </trkpt>
      <trkpt lat="43.96208" lon="3.72312">
        <ele>513</ele>
        <time>2015-02-19T15:46:30Z</time>
      </trkpt>
      <trkpt lat="43.96203" lon="3.72313">
        <ele>515.4</ele>
        <time>2015-02-19T15:46:35Z</time>
      </trkpt>
      <trkpt lat="43.96202" lon="3.72315">
        <ele>511.08</ele>
        <time>2015-02-19T15:46:37Z</time>
      </trkpt>
      <trkpt lat="43.96198" lon="3.72315">
        <ele>514.44</ele>
        <time>2015-02-19T15:46:41Z</time>
      </trkpt>
      <trkpt lat="43.96196" lon="3.72316">
        <ele>511.08</ele>
        <time>2015-02-19T15:46:43Z</time>
      </trkpt>
      <trkpt lat="43.96195" lon="3.72317">
        <ele>514.92</ele>
        <time>2015-02-19T15:46:45Z</time>
      </trkpt>
      <trkpt lat="43.96194" lon="3.72317">
        <ele>512.04</ele>
        <time>2015-02-19T15:46:46Z</time>
      </trkpt>
      <trkpt lat="43.9619" lon="3.72318">
        <ele>510.12</ele>
        <time>2015-02-19T15:46:51Z</time>
      </trkpt>
      <trkpt lat="43.96182" lon="3.72319">
        <ele>508.67</ele>
        <time>2015-02-19T15:46:59Z</time>
      </trkpt>
      <trkpt lat="43.96181" lon="3.72319">
        <ele>513</ele>
        <time>2015-02-19T15:47:00Z</time>
      </trkpt>
      <trkpt lat="43.9618" lon="3.7232">
        <ele>513</ele>
        <time>2015-02-19T15:47:01Z</time>
      </trkpt>
      <trkpt lat="43.96178" lon="3.7232">
        <ele>511.56</ele>
        <time>2015-02-19T15:47:03Z</time>
      </trkpt>
      <trkpt lat="43.96176" lon="3.72322">
        <ele>508.19</ele>
        <time>2015-02-19T15:47:05Z</time>
      </trkpt>
      <trkpt lat="43.96175" lon="3.72322">
        <ele>508.19</ele>
        <time>2015-02-19T15:47:06Z</time>
      </trkpt>
      <trkpt lat="43.96172" lon="3.72322">
        <ele>507.23</ele>
        <time>2015-02-19T15:47:14Z</time>
      </trkpt>
      <trkpt lat="43.96172" lon="3.72322">
        <ele>508.67</ele>
        <time>2015-02-19T15:47:17Z</time>
      </trkpt>
      <trkpt lat="43.96172" lon="3.72322">
        <ele>510.12</ele>
        <time>2015-02-19T15:47:31Z</time>
      </trkpt>
      <trkpt lat="43.96172" lon="3.72321">
        <ele>511.08</ele>
        <time>2015-02-19T15:47:43Z</time>
      </trkpt>
      <trkpt lat="43.96172" lon="3.72321">
        <ele>507.71</ele>
        <time>2015-02-19T15:47:46Z</time>
      </trkpt>
      <trkpt lat="43.96172" lon="3.72321">
        <ele>507.71</ele>
        <time>2015-02-19T15:47:47Z</time>
      </trkpt>
      <trkpt lat="43.96172" lon="3.72321">
        <ele>512.04</ele>
        <time>2015-02-19T15:47:52Z</time>
      </trkpt>
      <trkpt lat="43.96172" lon="3.72321">
        <ele>510.6</ele>
        <time>2015-02-19T15:47:53Z</time>
      </trkpt>
      <trkpt lat="43.96172" lon="3.72321">
        <ele>508.19</ele>
        <time>2015-02-19T15:47:55Z</time>
      </trkpt>
      <trkpt lat="43.96171" lon="3.72322">
        <ele>511.08</ele>
        <time>2015-02-19T15:48:05Z</time>
      </trkpt>
      <trkpt lat="43.96164" lon="3.72322">
        <ele>509.16</ele>
        <time>2015-02-19T15:48:10Z</time>
      </trkpt>
      <trkpt lat="43.96159" lon="3.72324">
        <ele>508.19</ele>
        <time>2015-02-19T15:48:14Z</time>
      </trkpt>
      <trkpt lat="43.96154" lon="3.72325">
        <ele>508.19</ele>
        <time>2015-02-19T15:48:19Z</time>
      </trkpt>
      <trkpt lat="43.96151" lon="3.72324">
        <ele>508.19</ele>
        <time>2015-02-19T15:48:22Z</time>
      </trkpt>
      <trkpt lat="43.9615" lon="3.72324">
        <ele>504.35</ele>
        <time>2015-02-19T15:48:24Z</time>
      </trkpt>
      <trkpt lat="43.96143" lon="3.7232">
        <ele>504.83</ele>
        <time>2015-02-19T15:48:30Z</time>
      </trkpt>
      <trkpt lat="43.96132" lon="3.72314">
        <ele>503.87</ele>
        <time>2015-02-19T15:48:40Z</time>
      </trkpt>
      <trkpt lat="43.96131" lon="3.72312">
        <ele>508.19</ele>
        <time>2015-02-19T15:48:43Z</time>
      </trkpt>
      <trkpt lat="43.96128" lon="3.72308">
        <ele>506.27</ele>
        <time>2015-02-19T15:48:46Z</time>
      </trkpt>
      <trkpt lat="43.96126" lon="3.72303">
        <ele>504.35</ele>
        <time>2015-02-19T15:48:49Z</time>
      </trkpt>
      <trkpt lat="43.96124" lon="3.72296">
        <ele>502.43</ele>
        <time>2015-02-19T15:48:54Z</time>
      </trkpt>
      <trkpt lat="43.96121" lon="3.72289">
        <ele>503.87</ele>
        <time>2015-02-19T15:48:59Z</time>
      </trkpt>
      <trkpt lat="43.9612" lon="3.72286">
        <ele>506.75</ele>
        <time>2015-02-19T15:49:01Z</time>
      </trkpt>
      <trkpt lat="43.96119" lon="3.72283">
        <ele>501.95</ele>
        <time>2015-02-19T15:49:03Z</time>
      </trkpt>
      <trkpt lat="43.96119" lon="3.72281">
        <ele>504.83</ele>
        <time>2015-02-19T15:49:04Z</time>
      </trkpt>
      <trkpt lat="43.96117" lon="3.72277">
        <ele>504.83</ele>
        <time>2015-02-19T15:49:07Z</time>
      </trkpt>
      <trkpt lat="43.96112" lon="3.72273">
        <ele>503.87</ele>
        <time>2015-02-19T15:49:11Z</time>
      </trkpt>
      <trkpt lat="43.96112" lon="3.72272">
        <ele>504.83</ele>
        <time>2015-02-19T15:49:12Z</time>
      </trkpt>
      <trkpt lat="43.96109" lon="3.72266">
        <ele>502.91</ele>
        <time>2015-02-19T15:49:16Z</time>
      </trkpt>
      <trkpt lat="43.96099" lon="3.72252">
        <ele>503.87</ele>
        <time>2015-02-19T15:49:28Z</time>
      </trkpt>
      <trkpt lat="43.96092" lon="3.72248">
        <ele>503.87</ele>
        <time>2015-02-19T15:49:34Z</time>
      </trkpt>
      <trkpt lat="43.9609" lon="3.72249">
        <ele>505.79</ele>
        <time>2015-02-19T15:49:36Z</time>
      </trkpt>
      <trkpt lat="43.96088" lon="3.72249">
        <ele>502.91</ele>
        <time>2015-02-19T15:49:37Z</time>
      </trkpt>
      <trkpt lat="43.96084" lon="3.72249">
        <ele>502.91</ele>
        <time>2015-02-19T15:49:41Z</time>
      </trkpt>
      <trkpt lat="43.96084" lon="3.72246">
        <ele>500.98</ele>
        <time>2015-02-19T15:49:43Z</time>
      </trkpt>
      <trkpt lat="43.96076" lon="3.72232">
        <ele>500.98</ele>
        <time>2015-02-19T15:49:55Z</time>
      </trkpt>
      <trkpt lat="43.96075" lon="3.72229">
        <ele>504.35</ele>
        <time>2015-02-19T15:49:58Z</time>
      </trkpt>
      <trkpt lat="43.96073" lon="3.72224">
        <ele>502.91</ele>
        <time>2015-02-19T15:50:01Z</time>
      </trkpt>
      <trkpt lat="43.96072" lon="3.7222">
        <ele>499.54</ele>
        <time>2015-02-19T15:50:04Z</time>
      </trkpt>
      <trkpt lat="43.96071" lon="3.72217">
        <ele>501.46</ele>
        <time>2015-02-19T15:50:07Z</time>
      </trkpt>
      <trkpt lat="43.9607" lon="3.72213">
        <ele>500.5</ele>
        <time>2015-02-19T15:50:10Z</time>
      </trkpt>
      <trkpt lat="43.96069" lon="3.7221">
        <ele>499.06</ele>
        <time>2015-02-19T15:50:12Z</time>
      </trkpt>
      <trkpt lat="43.96068" lon="3.72209">
        <ele>502.43</ele>
        <time>2015-02-19T15:50:13Z</time>
      </trkpt>
      <trkpt lat="43.96067" lon="3.72206">
        <ele>498.58</ele>
        <time>2015-02-19T15:50:18Z</time>
      </trkpt>
      <trkpt lat="43.96067" lon="3.72205">
        <ele>499.54</ele>
        <time>2015-02-19T15:50:19Z</time>
      </trkpt>
      <trkpt lat="43.96066" lon="3.72193">
        <ele>500.5</ele>
        <time>2015-02-19T15:50:30Z</time>
      </trkpt>
      <trkpt lat="43.96065" lon="3.7219">
        <ele>499.06</ele>
        <time>2015-02-19T15:50:34Z</time>
      </trkpt>
      <trkpt lat="43.96065" lon="3.72184">
        <ele>500.98</ele>
        <time>2015-02-19T15:50:39Z</time>
      </trkpt>
      <trkpt lat="43.96065" lon="3.72184">
        <ele>497.14</ele>
        <time>2015-02-19T15:50:43Z</time>
      </trkpt>
      <trkpt lat="43.96065" lon="3.72184">
        <ele>500.5</ele>
        <time>2015-02-19T15:50:44Z</time>
      </trkpt>
      <trkpt lat="43.96065" lon="3.72184">
        <ele>497.14</ele>
        <time>2015-02-19T15:50:46Z</time>
      </trkpt>
      <trkpt lat="43.96065" lon="3.72184">
        <ele>500.02</ele>
        <time>2015-02-19T15:50:50Z</time>
      </trkpt>
      <trkpt lat="43.96067" lon="3.72173">
        <ele>498.1</ele>
        <time>2015-02-19T15:51:09Z</time>
      </trkpt>
      <trkpt lat="43.96065" lon="3.72161">
        <ele>496.66</ele>
        <time>2015-02-19T15:51:18Z</time>
      </trkpt>
      <trkpt lat="43.96063" lon="3.72151">
        <ele>496.66</ele>
        <time>2015-02-19T15:51:28Z</time>
      </trkpt>
      <trkpt lat="43.96062" lon="3.72148">
        <ele>494.74</ele>
        <time>2015-02-19T15:51:30Z</time>
      </trkpt>
      <trkpt lat="43.96058" lon="3.72144">
        <ele>495.22</ele>
        <time>2015-02-19T15:51:37Z</time>
      </trkpt>
      <trkpt lat="43.96053" lon="3.72136">
        <ele>493.29</ele>
        <time>2015-02-19T15:51:48Z</time>
      </trkpt>
      <trkpt lat="43.96049" lon="3.72128">
        <ele>493.77</ele>
        <time>2015-02-19T15:52:13Z</time>
      </trkpt>
      <trkpt lat="43.96049" lon="3.72125">
        <ele>494.26</ele>
        <time>2015-02-19T15:52:16Z</time>
      </trkpt>
      <trkpt lat="43.96045" lon="3.72119">
        <ele>493.77</ele>
        <time>2015-02-19T15:52:22Z</time>
      </trkpt>
      <trkpt lat="43.9604" lon="3.72115">
        <ele>490.41</ele>
        <time>2015-02-19T15:52:27Z</time>
      </trkpt>
      <trkpt lat="43.9603" lon="3.72107">
        <ele>488.97</ele>
        <time>2015-02-19T15:52:39Z</time>
      </trkpt>
      <trkpt lat="43.9603" lon="3.72104">
        <ele>490.41</ele>
        <time>2015-02-19T15:52:42Z</time>
      </trkpt>
      <trkpt lat="43.96029" lon="3.72102">
        <ele>488.97</ele>
        <time>2015-02-19T15:52:44Z</time>
      </trkpt>
      <trkpt lat="43.96027" lon="3.72101">
        <ele>489.45</ele>
        <time>2015-02-19T15:52:48Z</time>
      </trkpt>
      <trkpt lat="43.96021" lon="3.72095">
        <ele>487.53</ele>
        <time>2015-02-19T15:52:55Z</time>
      </trkpt>
      <trkpt lat="43.96016" lon="3.72091">
        <ele>486.56</ele>
        <time>2015-02-19T15:53:05Z</time>
      </trkpt>
      <trkpt lat="43.96018" lon="3.72088">
        <ele>482.72</ele>
        <time>2015-02-19T15:53:08Z</time>
      </trkpt>
      <trkpt lat="43.96018" lon="3.72088">
        <ele>483.2</ele>
        <time>2015-02-19T15:53:09Z</time>
      </trkpt>
      <trkpt lat="43.96016" lon="3.72088">
        <ele>484.64</ele>
        <time>2015-02-19T15:53:11Z</time>
      </trkpt>
      <trkpt lat="43.96015" lon="3.72082">
        <ele>483.2</ele>
        <time>2015-02-19T15:53:15Z</time>
      </trkpt>
      <trkpt lat="43.96014" lon="3.72075">
        <ele>484.16</ele>
        <time>2015-02-19T15:53:19Z</time>
      </trkpt>
      <trkpt lat="43.96014" lon="3.72073">
        <ele>485.6</ele>
        <time>2015-02-19T15:53:20Z</time>
      </trkpt>
      <trkpt lat="43.96014" lon="3.72068">
        <ele>482.72</ele>
        <time>2015-02-19T15:53:24Z</time>
      </trkpt>
      <trkpt lat="43.96013" lon="3.72067">
        <ele>484.16</ele>
        <time>2015-02-19T15:53:26Z</time>
      </trkpt>
      <trkpt lat="43.96015" lon="3.7206">
        <ele>483.2</ele>
        <time>2015-02-19T15:53:31Z</time>
      </trkpt>
      <trkpt lat="43.96011" lon="3.72047">
        <ele>484.64</ele>
        <time>2015-02-19T15:53:38Z</time>
      </trkpt>
      <trkpt lat="43.9601" lon="3.72046">
        <ele>481.28</ele>
        <time>2015-02-19T15:53:39Z</time>
      </trkpt>
      <trkpt lat="43.96005" lon="3.72042">
        <ele>481.28</ele>
        <time>2015-02-19T15:53:52Z</time>
      </trkpt>
      <trkpt lat="43.95997" lon="3.72037">
        <ele>481.28</ele>
        <time>2015-02-19T15:54:05Z</time>
      </trkpt>
      <trkpt lat="43.95994" lon="3.72037">
        <ele>479.35</ele>
        <time>2015-02-19T15:54:08Z</time>
      </trkpt>
      <trkpt lat="43.9599" lon="3.72037">
        <ele>475.99</ele>
        <time>2015-02-19T15:54:13Z</time>
      </trkpt>
      <trkpt lat="43.95989" lon="3.72037">
        <ele>476.95</ele>
        <time>2015-02-19T15:54:14Z</time>
      </trkpt>
      <trkpt lat="43.95984" lon="3.72021">
        <ele>477.91</ele>
        <time>2015-02-19T15:54:27Z</time>
      </trkpt>
      <trkpt lat="43.95981" lon="3.72017">
        <ele>476.95</ele>
        <time>2015-02-19T15:54:34Z</time>
      </trkpt>
      <trkpt lat="43.9598" lon="3.72016">
        <ele>475.03</ele>
        <time>2015-02-19T15:54:38Z</time>
      </trkpt>
      <trkpt lat="43.95975" lon="3.72001">
        <ele>473.11</ele>
        <time>2015-02-19T15:54:49Z</time>
      </trkpt>
      <trkpt lat="43.95973" lon="3.71999">
        <ele>476.47</ele>
        <time>2015-02-19T15:54:51Z</time>
      </trkpt>
      <trkpt lat="43.95972" lon="3.71997">
        <ele>472.63</ele>
        <time>2015-02-19T15:54:52Z</time>
      </trkpt>
      <trkpt lat="43.95966" lon="3.71995">
        <ele>472.14</ele>
        <time>2015-02-19T15:55:00Z</time>
      </trkpt>
      <trkpt lat="43.95964" lon="3.71993">
        <ele>473.59</ele>
        <time>2015-02-19T15:55:02Z</time>
      </trkpt>
      <trkpt lat="43.95957" lon="3.71986">
        <ele>472.14</ele>
        <time>2015-02-19T15:55:15Z</time>
      </trkpt>
      <trkpt lat="43.95949" lon="3.7198">
        <ele>469.74</ele>
        <time>2015-02-19T15:55:30Z</time>
      </trkpt>
      <trkpt lat="43.95933" lon="3.71969">
        <ele>467.82</ele>
        <time>2015-02-19T15:55:44Z</time>
      </trkpt>
      <trkpt lat="43.95932" lon="3.71968">
        <ele>470.7</ele>
        <time>2015-02-19T15:55:45Z</time>
      </trkpt>
      <trkpt lat="43.95924" lon="3.71965">
        <ele>466.86</ele>
        <time>2015-02-19T15:55:53Z</time>
      </trkpt>
      <trkpt lat="43.95923" lon="3.71965">
        <ele>470.22</ele>
        <time>2015-02-19T15:55:55Z</time>
      </trkpt>
      <trkpt lat="43.95918" lon="3.71964">
        <ele>466.86</ele>
        <time>2015-02-19T15:55:57Z</time>
      </trkpt>
      <trkpt lat="43.95916" lon="3.71961">
        <ele>467.82</ele>
        <time>2015-02-19T15:55:59Z</time>
      </trkpt>
      <trkpt lat="43.95903" lon="3.7196">
        <ele>464.45</ele>
        <time>2015-02-19T15:56:09Z</time>
      </trkpt>
      <trkpt lat="43.95902" lon="3.71959">
        <ele>465.42</ele>
        <time>2015-02-19T15:56:10Z</time>
      </trkpt>
      <trkpt lat="43.95901" lon="3.71958">
        <ele>465.9</ele>
        <time>2015-02-19T15:56:11Z</time>
      </trkpt>
      <trkpt lat="43.95898" lon="3.71957">
        <ele>464.45</ele>
        <time>2015-02-19T15:56:13Z</time>
      </trkpt>
      <trkpt lat="43.95897" lon="3.71957">
        <ele>467.82</ele>
        <time>2015-02-19T15:56:14Z</time>
      </trkpt>
      <trkpt lat="43.95895" lon="3.71956">
        <ele>465.42</ele>
        <time>2015-02-19T15:56:16Z</time>
      </trkpt>
      <trkpt lat="43.95886" lon="3.71953">
        <ele>464.93</ele>
        <time>2015-02-19T15:56:23Z</time>
      </trkpt>
      <trkpt lat="43.95878" lon="3.71952">
        <ele>465.9</ele>
        <time>2015-02-19T15:56:29Z</time>
      </trkpt>
      <trkpt lat="43.95866" lon="3.71958">
        <ele>464.45</ele>
        <time>2015-02-19T15:56:43Z</time>
      </trkpt>
      <trkpt lat="43.95862" lon="3.71955">
        <ele>463.01</ele>
        <time>2015-02-19T15:56:47Z</time>
      </trkpt>
      <trkpt lat="43.95862" lon="3.71954">
        <ele>463.01</ele>
        <time>2015-02-19T15:56:48Z</time>
      </trkpt>
      <trkpt lat="43.95859" lon="3.71952">
        <ele>463.97</ele>
        <time>2015-02-19T15:56:52Z</time>
      </trkpt>
      <trkpt lat="43.95846" lon="3.71951">
        <ele>461.57</ele>
        <time>2015-02-19T15:57:02Z</time>
      </trkpt>
      <trkpt lat="43.95842" lon="3.71952">
        <ele>461.09</ele>
        <time>2015-02-19T15:57:06Z</time>
      </trkpt>
      <trkpt lat="43.95839" lon="3.7195">
        <ele>460.61</ele>
        <time>2015-02-19T15:57:08Z</time>
      </trkpt>
      <trkpt lat="43.95836" lon="3.71949">
        <ele>460.13</ele>
        <time>2015-02-19T15:57:10Z</time>
      </trkpt>
      <trkpt lat="43.95831" lon="3.7195">
        <ele>462.05</ele>
        <time>2015-02-19T15:57:16Z</time>
      </trkpt>
      <trkpt lat="43.95826" lon="3.71948">
        <ele>459.65</ele>
        <time>2015-02-19T15:57:22Z</time>
      </trkpt>
      <trkpt lat="43.95817" lon="3.71951">
        <ele>457.72</ele>
        <time>2015-02-19T15:57:29Z</time>
      </trkpt>
      <trkpt lat="43.95815" lon="3.71951">
        <ele>460.61</ele>
        <time>2015-02-19T15:57:30Z</time>
      </trkpt>
      <trkpt lat="43.9581" lon="3.71951">
        <ele>460.61</ele>
        <time>2015-02-19T15:57:35Z</time>
      </trkpt>
      <trkpt lat="43.95807" lon="3.71952">
        <ele>455.8</ele>
        <time>2015-02-19T15:57:37Z</time>
      </trkpt>
      <trkpt lat="43.95806" lon="3.71952">
        <ele>460.13</ele>
        <time>2015-02-19T15:57:38Z</time>
      </trkpt>
      <trkpt lat="43.95804" lon="3.71951">
        <ele>461.09</ele>
        <time>2015-02-19T15:57:40Z</time>
      </trkpt>
      <trkpt lat="43.958" lon="3.7195">
        <ele>462.05</ele>
        <time>2015-02-19T15:57:43Z</time>
      </trkpt>
      <trkpt lat="43.95796" lon="3.71952">
        <ele>458.21</ele>
        <time>2015-02-19T15:57:46Z</time>
      </trkpt>
      <trkpt lat="43.95792" lon="3.71948">
        <ele>459.65</ele>
        <time>2015-02-19T15:57:51Z</time>
      </trkpt>
      <trkpt lat="43.9579" lon="3.71947">
        <ele>455.32</ele>
        <time>2015-02-19T15:57:53Z</time>
      </trkpt>
      <trkpt lat="43.95788" lon="3.71947">
        <ele>456.76</ele>
        <time>2015-02-19T15:57:54Z</time>
      </trkpt>
      <trkpt lat="43.95779" lon="3.7195">
        <ele>455.32</ele>
        <time>2015-02-19T15:58:01Z</time>
      </trkpt>
      <trkpt lat="43.95775" lon="3.71952">
        <ele>454.84</ele>
        <time>2015-02-19T15:58:07Z</time>
      </trkpt>
      <trkpt lat="43.9577" lon="3.71954">
        <ele>454.84</ele>
        <time>2015-02-19T15:58:11Z</time>
      </trkpt>
      <trkpt lat="43.95768" lon="3.71953">
        <ele>455.8</ele>
        <time>2015-02-19T15:58:13Z</time>
      </trkpt>
      <trkpt lat="43.95765" lon="3.71951">
        <ele>455.8</ele>
        <time>2015-02-19T15:58:16Z</time>
      </trkpt>
      <trkpt lat="43.95762" lon="3.71949">
        <ele>454.36</ele>
        <time>2015-02-19T15:58:19Z</time>
      </trkpt>
      <trkpt lat="43.95761" lon="3.71948">
        <ele>452.44</ele>
        <time>2015-02-19T15:58:21Z</time>
      </trkpt>
      <trkpt lat="43.95748" lon="3.71941">
        <ele>452.44</ele>
        <time>2015-02-19T15:58:35Z</time>
      </trkpt>
      <trkpt lat="43.95736" lon="3.71939">
        <ele>448.59</ele>
        <time>2015-02-19T15:58:46Z</time>
      </trkpt>
      <trkpt lat="43.95734" lon="3.71938">
        <ele>447.63</ele>
        <time>2015-02-19T15:58:48Z</time>
      </trkpt>
      <trkpt lat="43.95733" lon="3.71935">
        <ele>451.48</ele>
        <time>2015-02-19T15:58:50Z</time>
      </trkpt>
      <trkpt lat="43.95732" lon="3.71934">
        <ele>449.55</ele>
        <time>2015-02-19T15:58:51Z</time>
      </trkpt>
      <trkpt lat="43.95729" lon="3.71932">
        <ele>449.55</ele>
        <time>2015-02-19T15:58:55Z</time>
      </trkpt>
      <trkpt lat="43.95727" lon="3.71931">
        <ele>446.67</ele>
        <time>2015-02-19T15:58:57Z</time>
      </trkpt>
      <trkpt lat="43.95727" lon="3.7193">
        <ele>449.07</ele>
        <time>2015-02-19T15:58:58Z</time>
      </trkpt>
      <trkpt lat="43.95725" lon="3.71929">
        <ele>450.52</ele>
        <time>2015-02-19T15:59:00Z</time>
      </trkpt>
      <trkpt lat="43.95724" lon="3.71928">
        <ele>451</ele>
        <time>2015-02-19T15:59:01Z</time>
      </trkpt>
      <trkpt lat="43.95721" lon="3.71925">
        <ele>448.59</ele>
        <time>2015-02-19T15:59:04Z</time>
      </trkpt>
      <trkpt lat="43.95717" lon="3.71923">
        <ele>447.63</ele>
        <time>2015-02-19T15:59:08Z</time>
      </trkpt>
      <trkpt lat="43.95713" lon="3.7192">
        <ele>449.07</ele>
        <time>2015-02-19T15:59:12Z</time>
      </trkpt>
      <trkpt lat="43.95709" lon="3.71919">
        <ele>446.67</ele>
        <time>2015-02-19T15:59:15Z</time>
      </trkpt>
      <trkpt lat="43.95709" lon="3.71918">
        <ele>446.67</ele>
        <time>2015-02-19T15:59:16Z</time>
      </trkpt>
      <trkpt lat="43.95699" lon="3.71917">
        <ele>446.19</ele>
        <time>2015-02-19T15:59:24Z</time>
      </trkpt>
      <trkpt lat="43.95696" lon="3.71916">
        <ele>443.31</ele>
        <time>2015-02-19T15:59:27Z</time>
      </trkpt>
      <trkpt lat="43.95692" lon="3.71917">
        <ele>447.15</ele>
        <time>2015-02-19T15:59:30Z</time>
      </trkpt>
      <trkpt lat="43.95691" lon="3.71918">
        <ele>445.71</ele>
        <time>2015-02-19T15:59:31Z</time>
      </trkpt>
      <trkpt lat="43.95676" lon="3.71923">
        <ele>443.31</ele>
        <time>2015-02-19T15:59:45Z</time>
      </trkpt>
      <trkpt lat="43.95674" lon="3.71923">
        <ele>443.31</ele>
        <time>2015-02-19T15:59:47Z</time>
      </trkpt>
      <trkpt lat="43.95665" lon="3.71924">
        <ele>439.46</ele>
        <time>2015-02-19T15:59:56Z</time>
      </trkpt>
      <trkpt lat="43.95664" lon="3.71924">
        <ele>442.82</ele>
        <time>2015-02-19T15:59:57Z</time>
      </trkpt>
      <trkpt lat="43.95663" lon="3.71927">
        <ele>440.9</ele>
        <time>2015-02-19T15:59:59Z</time>
      </trkpt>
      <trkpt lat="43.95657" lon="3.71925">
        <ele>438.5</ele>
        <time>2015-02-19T16:00:03Z</time>
      </trkpt>
      <trkpt lat="43.95654" lon="3.7192">
        <ele>438.5</ele>
        <time>2015-02-19T16:00:07Z</time>
      </trkpt>
      <trkpt lat="43.95652" lon="3.71919">
        <ele>441.38</ele>
        <time>2015-02-19T16:00:09Z</time>
      </trkpt>
      <trkpt lat="43.95652" lon="3.71918">
        <ele>437.54</ele>
        <time>2015-02-19T16:00:10Z</time>
      </trkpt>
      <trkpt lat="43.95651" lon="3.71917">
        <ele>437.54</ele>
        <time>2015-02-19T16:00:11Z</time>
      </trkpt>
      <trkpt lat="43.95645" lon="3.71912">
        <ele>439.46</ele>
        <time>2015-02-19T16:00:17Z</time>
      </trkpt>
      <trkpt lat="43.95643" lon="3.7191">
        <ele>443.31</ele>
        <time>2015-02-19T16:00:19Z</time>
      </trkpt>
      <trkpt lat="43.95643" lon="3.7191">
        <ele>438.5</ele>
        <time>2015-02-19T16:00:20Z</time>
      </trkpt>
      <trkpt lat="43.95641" lon="3.71908">
        <ele>438.02</ele>
        <time>2015-02-19T16:00:22Z</time>
      </trkpt>
      <trkpt lat="43.95639" lon="3.71906">
        <ele>438.98</ele>
        <time>2015-02-19T16:00:25Z</time>
      </trkpt>
      <trkpt lat="43.95637" lon="3.71905">
        <ele>435.13</ele>
        <time>2015-02-19T16:00:27Z</time>
      </trkpt>
      <trkpt lat="43.95636" lon="3.71904">
        <ele>439.94</ele>
        <time>2015-02-19T16:00:28Z</time>
      </trkpt>
      <trkpt lat="43.95635" lon="3.71903">
        <ele>440.42</ele>
        <time>2015-02-19T16:00:29Z</time>
      </trkpt>
      <trkpt lat="43.95633" lon="3.719">
        <ele>438.98</ele>
        <time>2015-02-19T16:00:31Z</time>
      </trkpt>
      <trkpt lat="43.95628" lon="3.71896">
        <ele>436.58</ele>
        <time>2015-02-19T16:00:36Z</time>
      </trkpt>
      <trkpt lat="43.95627" lon="3.71893">
        <ele>436.58</ele>
        <time>2015-02-19T16:00:39Z</time>
      </trkpt>
      <trkpt lat="43.95626" lon="3.71891">
        <ele>438.02</ele>
        <time>2015-02-19T16:00:41Z</time>
      </trkpt>
      <trkpt lat="43.95625" lon="3.71889">
        <ele>438.02</ele>
        <time>2015-02-19T16:00:42Z</time>
      </trkpt>
      <trkpt lat="43.95621" lon="3.71884">
        <ele>438.98</ele>
        <time>2015-02-19T16:00:46Z</time>
      </trkpt>
      <trkpt lat="43.9562" lon="3.71882">
        <ele>437.54</ele>
        <time>2015-02-19T16:00:48Z</time>
      </trkpt>
      <trkpt lat="43.95611" lon="3.71877">
        <ele>440.9</ele>
        <time>2015-02-19T16:00:55Z</time>
      </trkpt>
      <trkpt lat="43.9561" lon="3.71876">
        <ele>436.58</ele>
        <time>2015-02-19T16:00:56Z</time>
      </trkpt>
      <trkpt lat="43.95605" lon="3.71873">
        <ele>437.54</ele>
        <time>2015-02-19T16:01:03Z</time>
      </trkpt>
      <trkpt lat="43.95598" lon="3.71865">
        <ele>437.06</ele>
        <time>2015-02-19T16:01:10Z</time>
      </trkpt>
      <trkpt lat="43.95591" lon="3.71859">
        <ele>436.58</ele>
        <time>2015-02-19T16:01:19Z</time>
      </trkpt>
      <trkpt lat="43.95585" lon="3.71854">
        <ele>435.13</ele>
        <time>2015-02-19T16:01:25Z</time>
      </trkpt>
      <trkpt lat="43.9558" lon="3.71849">
        <ele>435.13</ele>
        <time>2015-02-19T16:01:32Z</time>
      </trkpt>
      <trkpt lat="43.9558" lon="3.71849">
        <ele>438.98</ele>
        <time>2015-02-19T16:01:34Z</time>
      </trkpt>
      <trkpt lat="43.9558" lon="3.71849">
        <ele>435.61</ele>
        <time>2015-02-19T16:01:39Z</time>
      </trkpt>
      <trkpt lat="43.9558" lon="3.71849">
        <ele>438.98</ele>
        <time>2015-02-19T16:01:40Z</time>
      </trkpt>
      <trkpt lat="43.9558" lon="3.71849">
        <ele>438.02</ele>
        <time>2015-02-19T16:01:41Z</time>
      </trkpt>
      <trkpt lat="43.95575" lon="3.71842">
        <ele>438.5</ele>
        <time>2015-02-19T16:01:49Z</time>
      </trkpt>
      <trkpt lat="43.9557" lon="3.71841">
        <ele>437.06</ele>
        <time>2015-02-19T16:01:57Z</time>
      </trkpt>
      <trkpt lat="43.95569" lon="3.71842">
        <ele>438.98</ele>
        <time>2015-02-19T16:02:01Z</time>
      </trkpt>
      <trkpt lat="43.95568" lon="3.71843">
        <ele>435.61</ele>
        <time>2015-02-19T16:02:03Z</time>
      </trkpt>
      <trkpt lat="43.95567" lon="3.71844">
        <ele>436.58</ele>
        <time>2015-02-19T16:02:04Z</time>
      </trkpt>
      <trkpt lat="43.95563" lon="3.71849">
        <ele>436.58</ele>
        <time>2015-02-19T16:02:12Z</time>
      </trkpt>
      <trkpt lat="43.95559" lon="3.71852">
        <ele>434.17</ele>
        <time>2015-02-19T16:02:18Z</time>
      </trkpt>
      <trkpt lat="43.95556" lon="3.71858">
        <ele>435.13</ele>
        <time>2015-02-19T16:02:23Z</time>
      </trkpt>
      <trkpt lat="43.95554" lon="3.71862">
        <ele>433.21</ele>
        <time>2015-02-19T16:02:26Z</time>
      </trkpt>
      <trkpt lat="43.95552" lon="3.71866">
        <ele>431.29</ele>
        <time>2015-02-19T16:02:31Z</time>
      </trkpt>
      <trkpt lat="43.95545" lon="3.71875">
        <ele>431.77</ele>
        <time>2015-02-19T16:02:41Z</time>
      </trkpt>
      <trkpt lat="43.95537" lon="3.71882">
        <ele>428.4</ele>
        <time>2015-02-19T16:02:52Z</time>
      </trkpt>
      <trkpt lat="43.95534" lon="3.71883">
        <ele>425.52</ele>
        <time>2015-02-19T16:02:54Z</time>
      </trkpt>
      <trkpt lat="43.95526" lon="3.71883">
        <ele>424.08</ele>
        <time>2015-02-19T16:03:01Z</time>
      </trkpt>
      <trkpt lat="43.95526" lon="3.71887">
        <ele>423.12</ele>
        <time>2015-02-19T16:03:03Z</time>
      </trkpt>
      <trkpt lat="43.95522" lon="3.71897">
        <ele>420.71</ele>
        <time>2015-02-19T16:03:13Z</time>
      </trkpt>
      <trkpt lat="43.9552" lon="3.71899">
        <ele>422.64</ele>
        <time>2015-02-19T16:03:16Z</time>
      </trkpt>
      <trkpt lat="43.95518" lon="3.71901">
        <ele>420.23</ele>
        <time>2015-02-19T16:03:19Z</time>
      </trkpt>
      <trkpt lat="43.95515" lon="3.71903">
        <ele>421.68</ele>
        <time>2015-02-19T16:03:22Z</time>
      </trkpt>
      <trkpt lat="43.95512" lon="3.71905">
        <ele>420.23</ele>
        <time>2015-02-19T16:03:25Z</time>
      </trkpt>
      <trkpt lat="43.95505" lon="3.71911">
        <ele>417.83</ele>
        <time>2015-02-19T16:03:36Z</time>
      </trkpt>
      <trkpt lat="43.95499" lon="3.71919">
        <ele>413.02</ele>
        <time>2015-02-19T16:03:47Z</time>
      </trkpt>
      <trkpt lat="43.95497" lon="3.71918">
        <ele>414.47</ele>
        <time>2015-02-19T16:03:49Z</time>
      </trkpt>
      <trkpt lat="43.9549" lon="3.71915">
        <ele>412.54</ele>
        <time>2015-02-19T16:03:59Z</time>
      </trkpt>
      <trkpt lat="43.95491" lon="3.71923">
        <ele>413.5</ele>
        <time>2015-02-19T16:04:09Z</time>
      </trkpt>
      <trkpt lat="43.95491" lon="3.71928">
        <ele>410.14</ele>
        <time>2015-02-19T16:04:14Z</time>
      </trkpt>
      <trkpt lat="43.95489" lon="3.71932">
        <ele>408.7</ele>
        <time>2015-02-19T16:04:21Z</time>
      </trkpt>
      <trkpt lat="43.95488" lon="3.71937">
        <ele>407.26</ele>
        <time>2015-02-19T16:04:29Z</time>
      </trkpt>
      <trkpt lat="43.95488" lon="3.71937">
        <ele>409.18</ele>
        <time>2015-02-19T16:04:31Z</time>
      </trkpt>
      <trkpt lat="43.95488" lon="3.71939">
        <ele>405.81</ele>
        <time>2015-02-19T16:04:33Z</time>
      </trkpt>
      <trkpt lat="43.95488" lon="3.71939">
        <ele>406.29</ele>
        <time>2015-02-19T16:04:34Z</time>
      </trkpt>
      <trkpt lat="43.95488" lon="3.7194">
        <ele>410.62</ele>
        <time>2015-02-19T16:04:35Z</time>
      </trkpt>
      <trkpt lat="43.95487" lon="3.71941">
        <ele>407.74</ele>
        <time>2015-02-19T16:04:36Z</time>
      </trkpt>
      <trkpt lat="43.95483" lon="3.71947">
        <ele>404.37</ele>
        <time>2015-02-19T16:04:47Z</time>
      </trkpt>
      <trkpt lat="43.95482" lon="3.7195">
        <ele>407.74</ele>
        <time>2015-02-19T16:04:52Z</time>
      </trkpt>
      <trkpt lat="43.95481" lon="3.71951">
        <ele>407.74</ele>
        <time>2015-02-19T16:04:53Z</time>
      </trkpt>
      <trkpt lat="43.95481" lon="3.71952">
        <ele>404.37</ele>
        <time>2015-02-19T16:04:54Z</time>
      </trkpt>
      <trkpt lat="43.95481" lon="3.71954">
        <ele>402.93</ele>
        <time>2015-02-19T16:04:56Z</time>
      </trkpt>
      <trkpt lat="43.9548" lon="3.71956">
        <ele>404.37</ele>
        <time>2015-02-19T16:04:58Z</time>
      </trkpt>
      <trkpt lat="43.9548" lon="3.71957">
        <ele>401.01</ele>
        <time>2015-02-19T16:04:59Z</time>
      </trkpt>
      <trkpt lat="43.9548" lon="3.71958">
        <ele>401.97</ele>
        <time>2015-02-19T16:05:00Z</time>
      </trkpt>
      <trkpt lat="43.95479" lon="3.71959">
        <ele>403.89</ele>
        <time>2015-02-19T16:05:01Z</time>
      </trkpt>
      <trkpt lat="43.95477" lon="3.71961">
        <ele>401.01</ele>
        <time>2015-02-19T16:05:03Z</time>
      </trkpt>
      <trkpt lat="43.95476" lon="3.71961">
        <ele>402.45</ele>
        <time>2015-02-19T16:05:04Z</time>
      </trkpt>
      <trkpt lat="43.95474" lon="3.71962">
        <ele>402.93</ele>
        <time>2015-02-19T16:05:06Z</time>
      </trkpt>
      <trkpt lat="43.95474" lon="3.71964">
        <ele>401.01</ele>
        <time>2015-02-19T16:05:07Z</time>
      </trkpt>
      <trkpt lat="43.95471" lon="3.7197">
        <ele>401.01</ele>
        <time>2015-02-19T16:05:11Z</time>
      </trkpt>
      <trkpt lat="43.95465" lon="3.71979">
        <ele>401.01</ele>
        <time>2015-02-19T16:05:22Z</time>
      </trkpt>
      <trkpt lat="43.95465" lon="3.71979">
        <ele>402.45</ele>
        <time>2015-02-19T16:05:24Z</time>
      </trkpt>
      <trkpt lat="43.95465" lon="3.71979">
        <ele>401.01</ele>
        <time>2015-02-19T16:05:26Z</time>
      </trkpt>
      <trkpt lat="43.95461" lon="3.71985">
        <ele>398.6</ele>
        <time>2015-02-19T16:05:33Z</time>
      </trkpt>
      <trkpt lat="43.95457" lon="3.71991">
        <ele>401.49</ele>
        <time>2015-02-19T16:05:37Z</time>
      </trkpt>
      <trkpt lat="43.95454" lon="3.71995">
        <ele>398.6</ele>
        <time>2015-02-19T16:05:40Z</time>
      </trkpt>
      <trkpt lat="43.95451" lon="3.71999">
        <ele>402.45</ele>
        <time>2015-02-19T16:05:44Z</time>
      </trkpt>
      <trkpt lat="43.9545" lon="3.72">
        <ele>401.97</ele>
        <time>2015-02-19T16:05:45Z</time>
      </trkpt>
      <trkpt lat="43.95443" lon="3.72008">
        <ele>399.08</ele>
        <time>2015-02-19T16:05:58Z</time>
      </trkpt>
      <trkpt lat="43.95437" lon="3.72013">
        <ele>399.57</ele>
        <time>2015-02-19T16:06:06Z</time>
      </trkpt>
      <trkpt lat="43.95425" lon="3.72021">
        <ele>398.6</ele>
        <time>2015-02-19T16:06:17Z</time>
      </trkpt>
      <trkpt lat="43.9542" lon="3.72025">
        <ele>395.24</ele>
        <time>2015-02-19T16:06:23Z</time>
      </trkpt>
      <trkpt lat="43.9542" lon="3.72025">
        <ele>394.76</ele>
        <time>2015-02-19T16:06:24Z</time>
      </trkpt>
      <trkpt lat="43.95415" lon="3.72032">
        <ele>394.28</ele>
        <time>2015-02-19T16:06:31Z</time>
      </trkpt>
      <trkpt lat="43.95412" lon="3.72037">
        <ele>394.28</ele>
        <time>2015-02-19T16:06:36Z</time>
      </trkpt>
      <trkpt lat="43.95404" lon="3.72048">
        <ele>395.24</ele>
        <time>2015-02-19T16:06:47Z</time>
      </trkpt>
      <trkpt lat="43.95401" lon="3.72052">
        <ele>395.24</ele>
        <time>2015-02-19T16:06:53Z</time>
      </trkpt>
      <trkpt lat="43.95397" lon="3.72054">
        <ele>396.2</ele>
        <time>2015-02-19T16:06:57Z</time>
      </trkpt>
      <trkpt lat="43.95394" lon="3.72059">
        <ele>392.84</ele>
        <time>2015-02-19T16:07:02Z</time>
      </trkpt>
      <trkpt lat="43.95388" lon="3.72065">
        <ele>389.47</ele>
        <time>2015-02-19T16:07:09Z</time>
      </trkpt>
      <trkpt lat="43.95387" lon="3.72067">
        <ele>390.43</ele>
        <time>2015-02-19T16:07:11Z</time>
      </trkpt>
      <trkpt lat="43.95386" lon="3.72069">
        <ele>387.55</ele>
        <time>2015-02-19T16:07:14Z</time>
      </trkpt>
      <trkpt lat="43.95386" lon="3.72069">
        <ele>388.99</ele>
        <time>2015-02-19T16:07:15Z</time>
      </trkpt>
      <trkpt lat="43.95385" lon="3.72074">
        <ele>388.03</ele>
        <time>2015-02-19T16:07:19Z</time>
      </trkpt>
      <trkpt lat="43.9538" lon="3.72085">
        <ele>388.03</ele>
        <time>2015-02-19T16:07:31Z</time>
      </trkpt>
      <trkpt lat="43.95378" lon="3.72086">
        <ele>387.55</ele>
        <time>2015-02-19T16:07:35Z</time>
      </trkpt>
      <trkpt lat="43.95377" lon="3.72088">
        <ele>388.03</ele>
        <time>2015-02-19T16:07:39Z</time>
      </trkpt>
      <trkpt lat="43.95372" lon="3.72096">
        <ele>387.55</ele>
        <time>2015-02-19T16:07:49Z</time>
      </trkpt>
      <trkpt lat="43.9537" lon="3.72107">
        <ele>381.78</ele>
        <time>2015-02-19T16:07:59Z</time>
      </trkpt>
      <trkpt lat="43.9537" lon="3.72108">
        <ele>382.26</ele>
        <time>2015-02-19T16:08:00Z</time>
      </trkpt>
      <trkpt lat="43.95368" lon="3.72112">
        <ele>383.7</ele>
        <time>2015-02-19T16:08:04Z</time>
      </trkpt>
      <trkpt lat="43.95366" lon="3.72115">
        <ele>385.15</ele>
        <time>2015-02-19T16:08:07Z</time>
      </trkpt>
      <trkpt lat="43.95365" lon="3.72118">
        <ele>381.3</ele>
        <time>2015-02-19T16:08:12Z</time>
      </trkpt>
      <trkpt lat="43.95365" lon="3.72118">
        <ele>381.78</ele>
        <time>2015-02-19T16:08:13Z</time>
      </trkpt>
      <trkpt lat="43.95362" lon="3.72116">
        <ele>379.86</ele>
        <time>2015-02-19T16:08:18Z</time>
      </trkpt>
      <trkpt lat="43.9536" lon="3.72115">
        <ele>381.78</ele>
        <time>2015-02-19T16:08:21Z</time>
      </trkpt>
      <trkpt lat="43.95359" lon="3.72114">
        <ele>377.94</ele>
        <time>2015-02-19T16:08:23Z</time>
      </trkpt>
      <trkpt lat="43.95358" lon="3.72114">
        <ele>377.94</ele>
        <time>2015-02-19T16:08:24Z</time>
      </trkpt>
      <trkpt lat="43.95358" lon="3.72114">
        <ele>381.3</ele>
        <time>2015-02-19T16:08:25Z</time>
      </trkpt>
      <trkpt lat="43.95357" lon="3.72115">
        <ele>380.34</ele>
        <time>2015-02-19T16:08:26Z</time>
      </trkpt>
      <trkpt lat="43.95356" lon="3.72115">
        <ele>379.38</ele>
        <time>2015-02-19T16:08:28Z</time>
      </trkpt>
      <trkpt lat="43.95353" lon="3.72118">
        <ele>377.45</ele>
        <time>2015-02-19T16:08:37Z</time>
      </trkpt>
      <trkpt lat="43.95352" lon="3.72119">
        <ele>376.01</ele>
        <time>2015-02-19T16:08:40Z</time>
      </trkpt>
      <trkpt lat="43.95351" lon="3.72122">
        <ele>379.38</ele>
        <time>2015-02-19T16:08:42Z</time>
      </trkpt>
      <trkpt lat="43.9535" lon="3.72125">
        <ele>376.01</ele>
        <time>2015-02-19T16:08:46Z</time>
      </trkpt>
      <trkpt lat="43.95346" lon="3.72131">
        <ele>375.05</ele>
        <time>2015-02-19T16:08:54Z</time>
      </trkpt>
      <trkpt lat="43.95345" lon="3.72134">
        <ele>376.97</ele>
        <time>2015-02-19T16:08:56Z</time>
      </trkpt>
      <trkpt lat="43.95345" lon="3.72135">
        <ele>373.61</ele>
        <time>2015-02-19T16:08:57Z</time>
      </trkpt>
      <trkpt lat="43.95343" lon="3.72138">
        <ele>376.49</ele>
        <time>2015-02-19T16:09:01Z</time>
      </trkpt>
      <trkpt lat="43.95343" lon="3.72139">
        <ele>376.97</ele>
        <time>2015-02-19T16:09:02Z</time>
      </trkpt>
      <trkpt lat="43.95343" lon="3.72139">
        <ele>373.13</ele>
        <time>2015-02-19T16:09:03Z</time>
      </trkpt>
      <trkpt lat="43.95343" lon="3.72139">
        <ele>373.61</ele>
        <time>2015-02-19T16:09:04Z</time>
      </trkpt>
      <trkpt lat="43.95341" lon="3.72142">
        <ele>371.21</ele>
        <time>2015-02-19T16:09:10Z</time>
      </trkpt>
      <trkpt lat="43.95337" lon="3.72151">
        <ele>370.24</ele>
        <time>2015-02-19T16:09:25Z</time>
      </trkpt>
      <trkpt lat="43.95337" lon="3.72152">
        <ele>369.28</ele>
        <time>2015-02-19T16:09:26Z</time>
      </trkpt>
      <trkpt lat="43.95334" lon="3.72159">
        <ele>370.73</ele>
        <time>2015-02-19T16:09:32Z</time>
      </trkpt>
      <trkpt lat="43.95334" lon="3.72163">
        <ele>365.92</ele>
        <time>2015-02-19T16:09:37Z</time>
      </trkpt>
      <trkpt lat="43.95334" lon="3.72164">
        <ele>364.48</ele>
        <time>2015-02-19T16:09:40Z</time>
      </trkpt>
      <trkpt lat="43.95331" lon="3.72169">
        <ele>364</ele>
        <time>2015-02-19T16:09:48Z</time>
      </trkpt>
      <trkpt lat="43.95328" lon="3.72174">
        <ele>363.52</ele>
        <time>2015-02-19T16:09:56Z</time>
      </trkpt>
      <trkpt lat="43.95327" lon="3.72174">
        <ele>360.15</ele>
        <time>2015-02-19T16:09:57Z</time>
      </trkpt>
      <trkpt lat="43.95325" lon="3.72174">
        <ele>363.04</ele>
        <time>2015-02-19T16:10:02Z</time>
      </trkpt>
      <trkpt lat="43.95325" lon="3.72174">
        <ele>360.15</ele>
        <time>2015-02-19T16:10:03Z</time>
      </trkpt>
      <trkpt lat="43.95321" lon="3.72183">
        <ele>358.71</ele>
        <time>2015-02-19T16:10:14Z</time>
      </trkpt>
      <trkpt lat="43.95319" lon="3.72183">
        <ele>360.63</ele>
        <time>2015-02-19T16:10:16Z</time>
      </trkpt>
      <trkpt lat="43.95315" lon="3.72181">
        <ele>356.79</ele>
        <time>2015-02-19T16:10:21Z</time>
      </trkpt>
      <trkpt lat="43.95315" lon="3.7218">
        <ele>356.79</ele>
        <time>2015-02-19T16:10:22Z</time>
      </trkpt>
      <trkpt lat="43.95312" lon="3.72178">
        <ele>357.75</ele>
        <time>2015-02-19T16:10:26Z</time>
      </trkpt>
      <trkpt lat="43.95304" lon="3.72169">
        <ele>352.94</ele>
        <time>2015-02-19T16:10:36Z</time>
      </trkpt>
      <trkpt lat="43.95303" lon="3.72168">
        <ele>352.94</ele>
        <time>2015-02-19T16:10:37Z</time>
      </trkpt>
      <trkpt lat="43.95302" lon="3.72166">
        <ele>356.31</ele>
        <time>2015-02-19T16:10:39Z</time>
      </trkpt>
      <trkpt lat="43.95302" lon="3.72165">
        <ele>355.34</ele>
        <time>2015-02-19T16:10:40Z</time>
      </trkpt>
      <trkpt lat="43.953" lon="3.72163">
        <ele>354.38</ele>
        <time>2015-02-19T16:10:42Z</time>
      </trkpt>
      <trkpt lat="43.95295" lon="3.72158">
        <ele>352.94</ele>
        <time>2015-02-19T16:10:46Z</time>
      </trkpt>
      <trkpt lat="43.95291" lon="3.72149">
        <ele>354.38</ele>
        <time>2015-02-19T16:10:53Z</time>
      </trkpt>
      <trkpt lat="43.95285" lon="3.72141">
        <ele>354.86</ele>
        <time>2015-02-19T16:11:00Z</time>
      </trkpt>
      <trkpt lat="43.95282" lon="3.72138">
        <ele>349.58</ele>
        <time>2015-02-19T16:11:04Z</time>
      </trkpt>
      <trkpt lat="43.95279" lon="3.72135">
        <ele>351.5</ele>
        <time>2015-02-19T16:11:07Z</time>
      </trkpt>
      <trkpt lat="43.95271" lon="3.72126">
        <ele>350.06</ele>
        <time>2015-02-19T16:11:18Z</time>
      </trkpt>
      <trkpt lat="43.95269" lon="3.72119">
        <ele>350.06</ele>
        <time>2015-02-19T16:11:23Z</time>
      </trkpt>
      <trkpt lat="43.95267" lon="3.72115">
        <ele>352.94</ele>
        <time>2015-02-19T16:11:25Z</time>
      </trkpt>
      <trkpt lat="43.95262" lon="3.72112">
        <ele>348.62</ele>
        <time>2015-02-19T16:11:30Z</time>
      </trkpt>
      <trkpt lat="43.95255" lon="3.7211">
        <ele>352.46</ele>
        <time>2015-02-19T16:11:35Z</time>
      </trkpt>
      <trkpt lat="43.95253" lon="3.72109">
        <ele>349.1</ele>
        <time>2015-02-19T16:11:37Z</time>
      </trkpt>
      <trkpt lat="43.95251" lon="3.72108">
        <ele>348.62</ele>
        <time>2015-02-19T16:11:39Z</time>
      </trkpt>
      <trkpt lat="43.95248" lon="3.72107">
        <ele>346.21</ele>
        <time>2015-02-19T16:11:42Z</time>
      </trkpt>
      <trkpt lat="43.9524" lon="3.72099">
        <ele>348.62</ele>
        <time>2015-02-19T16:11:53Z</time>
      </trkpt>
      <trkpt lat="43.95238" lon="3.72091">
        <ele>345.25</ele>
        <time>2015-02-19T16:12:02Z</time>
      </trkpt>
      <trkpt lat="43.95237" lon="3.7209">
        <ele>345.25</ele>
        <time>2015-02-19T16:12:03Z</time>
      </trkpt>
      <trkpt lat="43.95236" lon="3.72084">
        <ele>344.29</ele>
        <time>2015-02-19T16:12:07Z</time>
      </trkpt>
      <trkpt lat="43.95233" lon="3.72077">
        <ele>349.1</ele>
        <time>2015-02-19T16:12:11Z</time>
      </trkpt>
      <trkpt lat="43.95231" lon="3.72075">
        <ele>345.73</ele>
        <time>2015-02-19T16:12:12Z</time>
      </trkpt>
      <trkpt lat="43.95229" lon="3.72073">
        <ele>349.1</ele>
        <time>2015-02-19T16:12:15Z</time>
      </trkpt>
      <trkpt lat="43.95226" lon="3.72073">
        <ele>347.65</ele>
        <time>2015-02-19T16:12:18Z</time>
      </trkpt>
      <trkpt lat="43.95224" lon="3.72072">
        <ele>348.13</ele>
        <time>2015-02-19T16:12:19Z</time>
      </trkpt>
      <trkpt lat="43.9522" lon="3.72069">
        <ele>343.81</ele>
        <time>2015-02-19T16:12:22Z</time>
      </trkpt>
      <trkpt lat="43.95218" lon="3.72068">
        <ele>345.73</ele>
        <time>2015-02-19T16:12:24Z</time>
      </trkpt>
      <trkpt lat="43.95215" lon="3.72066">
        <ele>347.17</ele>
        <time>2015-02-19T16:12:27Z</time>
      </trkpt>
      <trkpt lat="43.95206" lon="3.72062">
        <ele>340.92</ele>
        <time>2015-02-19T16:12:35Z</time>
      </trkpt>
      <trkpt lat="43.95206" lon="3.72061">
        <ele>341.89</ele>
        <time>2015-02-19T16:12:36Z</time>
      </trkpt>
      <trkpt lat="43.95203" lon="3.72057">
        <ele>341.41</ele>
        <time>2015-02-19T16:12:41Z</time>
      </trkpt>
      <trkpt lat="43.95199" lon="3.7205">
        <ele>344.77</ele>
        <time>2015-02-19T16:12:47Z</time>
      </trkpt>
      <trkpt lat="43.95198" lon="3.72049">
        <ele>343.33</ele>
        <time>2015-02-19T16:12:48Z</time>
      </trkpt>
      <trkpt lat="43.95196" lon="3.72046">
        <ele>339.48</ele>
        <time>2015-02-19T16:12:55Z</time>
      </trkpt>
      <trkpt lat="43.95196" lon="3.72046">
        <ele>339.96</ele>
        <time>2015-02-19T16:12:56Z</time>
      </trkpt>
      <trkpt lat="43.95193" lon="3.72044">
        <ele>341.89</ele>
        <time>2015-02-19T16:12:59Z</time>
      </trkpt>
      <trkpt lat="43.95187" lon="3.72035">
        <ele>338.52</ele>
        <time>2015-02-19T16:13:11Z</time>
      </trkpt>
      <trkpt lat="43.95187" lon="3.72035">
        <ele>339</ele>
        <time>2015-02-19T16:13:12Z</time>
      </trkpt>
      <trkpt lat="43.95181" lon="3.72025">
        <ele>333.71</ele>
        <time>2015-02-19T16:13:23Z</time>
      </trkpt>
      <trkpt lat="43.95181" lon="3.72024">
        <ele>338.04</ele>
        <time>2015-02-19T16:13:24Z</time>
      </trkpt>
      <trkpt lat="43.95179" lon="3.72017">
        <ele>337.56</ele>
        <time>2015-02-19T16:13:29Z</time>
      </trkpt>
      <trkpt lat="43.95177" lon="3.72015">
        <ele>334.2</ele>
        <time>2015-02-19T16:13:32Z</time>
      </trkpt>
      <trkpt lat="43.95175" lon="3.72012">
        <ele>334.68</ele>
        <time>2015-02-19T16:13:36Z</time>
      </trkpt>
      <trkpt lat="43.95172" lon="3.72006">
        <ele>338.04</ele>
        <time>2015-02-19T16:13:41Z</time>
      </trkpt>
      <trkpt lat="43.95171" lon="3.72002">
        <ele>334.68</ele>
        <time>2015-02-19T16:13:43Z</time>
      </trkpt>
      <trkpt lat="43.95165" lon="3.71993">
        <ele>336.6</ele>
        <time>2015-02-19T16:13:50Z</time>
      </trkpt>
      <trkpt lat="43.95165" lon="3.71993">
        <ele>332.75</ele>
        <time>2015-02-19T16:13:51Z</time>
      </trkpt>
      <trkpt lat="43.95164" lon="3.71992">
        <ele>332.27</ele>
        <time>2015-02-19T16:13:52Z</time>
      </trkpt>
      <trkpt lat="43.95161" lon="3.71987">
        <ele>334.2</ele>
        <time>2015-02-19T16:13:57Z</time>
      </trkpt>
      <trkpt lat="43.95156" lon="3.71985">
        <ele>334.68</ele>
        <time>2015-02-19T16:14:02Z</time>
      </trkpt>
      <trkpt lat="43.95151" lon="3.71982">
        <ele>332.75</ele>
        <time>2015-02-19T16:14:09Z</time>
      </trkpt>
      <trkpt lat="43.9515" lon="3.71981">
        <ele>331.31</ele>
        <time>2015-02-19T16:14:11Z</time>
      </trkpt>
      <trkpt lat="43.95144" lon="3.71974">
        <ele>331.79</ele>
        <time>2015-02-19T16:14:21Z</time>
      </trkpt>
      <trkpt lat="43.95144" lon="3.71974">
        <ele>328.91</ele>
        <time>2015-02-19T16:14:22Z</time>
      </trkpt>
      <trkpt lat="43.95143" lon="3.71974">
        <ele>328.43</ele>
        <time>2015-02-19T16:14:23Z</time>
      </trkpt>
      <trkpt lat="43.95142" lon="3.71973">
        <ele>332.27</ele>
        <time>2015-02-19T16:14:25Z</time>
      </trkpt>
      <trkpt lat="43.95142" lon="3.71972">
        <ele>331.79</ele>
        <time>2015-02-19T16:14:26Z</time>
      </trkpt>
      <trkpt lat="43.95141" lon="3.7197">
        <ele>330.83</ele>
        <time>2015-02-19T16:14:28Z</time>
      </trkpt>
      <trkpt lat="43.95138" lon="3.71965">
        <ele>326.99</ele>
        <time>2015-02-19T16:14:40Z</time>
      </trkpt>
      <trkpt lat="43.9513" lon="3.71961">
        <ele>328.43</ele>
        <time>2015-02-19T16:14:52Z</time>
      </trkpt>
      <trkpt lat="43.95124" lon="3.71954">
        <ele>326.5</ele>
        <time>2015-02-19T16:15:01Z</time>
      </trkpt>
      <trkpt lat="43.95122" lon="3.71951">
        <ele>324.58</ele>
        <time>2015-02-19T16:15:04Z</time>
      </trkpt>
      <trkpt lat="43.95122" lon="3.71951">
        <ele>327.95</ele>
        <time>2015-02-19T16:15:05Z</time>
      </trkpt>
      <trkpt lat="43.95121" lon="3.7195">
        <ele>324.58</ele>
        <time>2015-02-19T16:15:06Z</time>
      </trkpt>
      <trkpt lat="43.95117" lon="3.71945">
        <ele>324.58</ele>
        <time>2015-02-19T16:15:13Z</time>
      </trkpt>
      <trkpt lat="43.95115" lon="3.71942">
        <ele>323.14</ele>
        <time>2015-02-19T16:15:18Z</time>
      </trkpt>
      <trkpt lat="43.95114" lon="3.71941">
        <ele>325.06</ele>
        <time>2015-02-19T16:15:20Z</time>
      </trkpt>
      <trkpt lat="43.95114" lon="3.71941">
        <ele>323.62</ele>
        <time>2015-02-19T16:15:22Z</time>
      </trkpt>
      <trkpt lat="43.95114" lon="3.71941">
        <ele>325.06</ele>
        <time>2015-02-19T16:15:24Z</time>
      </trkpt>
      <trkpt lat="43.95114" lon="3.7194">
        <ele>322.18</ele>
        <time>2015-02-19T16:15:26Z</time>
      </trkpt>
      <trkpt lat="43.95113" lon="3.71939">
        <ele>319.78</ele>
        <time>2015-02-19T16:15:29Z</time>
      </trkpt>
      <trkpt lat="43.95114" lon="3.71938">
        <ele>321.7</ele>
        <time>2015-02-19T16:15:31Z</time>
      </trkpt>
      <trkpt lat="43.95113" lon="3.71936">
        <ele>320.26</ele>
        <time>2015-02-19T16:15:33Z</time>
      </trkpt>
      <trkpt lat="43.95112" lon="3.71933">
        <ele>322.66</ele>
        <time>2015-02-19T16:15:36Z</time>
      </trkpt>
      <trkpt lat="43.95111" lon="3.71932">
        <ele>320.74</ele>
        <time>2015-02-19T16:15:38Z</time>
      </trkpt>
      <trkpt lat="43.9511" lon="3.71929">
        <ele>317.85</ele>
        <time>2015-02-19T16:15:46Z</time>
      </trkpt>
      <trkpt lat="43.95108" lon="3.71925">
        <ele>321.22</ele>
        <time>2015-02-19T16:15:49Z</time>
      </trkpt>
      <trkpt lat="43.95107" lon="3.71923">
        <ele>319.3</ele>
        <time>2015-02-19T16:15:52Z</time>
      </trkpt>
      <trkpt lat="43.95106" lon="3.7192">
        <ele>320.26</ele>
        <time>2015-02-19T16:16:00Z</time>
      </trkpt>
      <trkpt lat="43.95105" lon="3.71918">
        <ele>319.78</ele>
        <time>2015-02-19T16:16:06Z</time>
      </trkpt>
      <trkpt lat="43.95104" lon="3.71914">
        <ele>323.62</ele>
        <time>2015-02-19T16:16:09Z</time>
      </trkpt>
      <trkpt lat="43.95103" lon="3.71913">
        <ele>318.81</ele>
        <time>2015-02-19T16:16:10Z</time>
      </trkpt>
      <trkpt lat="43.95102" lon="3.71912">
        <ele>319.3</ele>
        <time>2015-02-19T16:16:11Z</time>
      </trkpt>
      <trkpt lat="43.95101" lon="3.71911">
        <ele>318.33</ele>
        <time>2015-02-19T16:16:12Z</time>
      </trkpt>
      <trkpt lat="43.95098" lon="3.71907">
        <ele>321.22</ele>
        <time>2015-02-19T16:16:15Z</time>
      </trkpt>
      <trkpt lat="43.95097" lon="3.71906">
        <ele>318.81</ele>
        <time>2015-02-19T16:16:17Z</time>
      </trkpt>
      <trkpt lat="43.95095" lon="3.71902">
        <ele>321.22</ele>
        <time>2015-02-19T16:16:19Z</time>
      </trkpt>
      <trkpt lat="43.95084" lon="3.71889">
        <ele>318.33</ele>
        <time>2015-02-19T16:16:26Z</time>
      </trkpt>
      <trkpt lat="43.9508" lon="3.71885">
        <ele>321.7</ele>
        <time>2015-02-19T16:16:32Z</time>
      </trkpt>
      <trkpt lat="43.9508" lon="3.71885">
        <ele>321.22</ele>
        <time>2015-02-19T16:16:33Z</time>
      </trkpt>
      <trkpt lat="43.95078" lon="3.71883">
        <ele>320.26</ele>
        <time>2015-02-19T16:16:35Z</time>
      </trkpt>
      <trkpt lat="43.95078" lon="3.71883">
        <ele>317.37</ele>
        <time>2015-02-19T16:16:37Z</time>
      </trkpt>
      <trkpt lat="43.95076" lon="3.7188">
        <ele>316.89</ele>
        <time>2015-02-19T16:16:41Z</time>
      </trkpt>
      <trkpt lat="43.95074" lon="3.71878">
        <ele>320.74</ele>
        <time>2015-02-19T16:16:44Z</time>
      </trkpt>
      <trkpt lat="43.95072" lon="3.71876">
        <ele>317.37</ele>
        <time>2015-02-19T16:16:46Z</time>
      </trkpt>
      <trkpt lat="43.95069" lon="3.71871">
        <ele>318.81</ele>
        <time>2015-02-19T16:16:50Z</time>
      </trkpt>
      <trkpt lat="43.95065" lon="3.71867">
        <ele>315.93</ele>
        <time>2015-02-19T16:16:54Z</time>
      </trkpt>
      <trkpt lat="43.95065" lon="3.71867">
        <ele>315.93</ele>
        <time>2015-02-19T16:16:55Z</time>
      </trkpt>
      <trkpt lat="43.95055" lon="3.71853">
        <ele>314.01</ele>
        <time>2015-02-19T16:17:04Z</time>
      </trkpt>
      <trkpt lat="43.95051" lon="3.71848">
        <ele>312.57</ele>
        <time>2015-02-19T16:17:10Z</time>
      </trkpt>
      <trkpt lat="43.95047" lon="3.71845">
        <ele>312.57</ele>
        <time>2015-02-19T16:17:16Z</time>
      </trkpt>
      <trkpt lat="43.95046" lon="3.7184">
        <ele>313.53</ele>
        <time>2015-02-19T16:17:19Z</time>
      </trkpt>
      <trkpt lat="43.95041" lon="3.71835">
        <ele>314.49</ele>
        <time>2015-02-19T16:17:24Z</time>
      </trkpt>
      <trkpt lat="43.9504" lon="3.71834">
        <ele>311.6</ele>
        <time>2015-02-19T16:17:25Z</time>
      </trkpt>
      <trkpt lat="43.95033" lon="3.71826">
        <ele>309.2</ele>
        <time>2015-02-19T16:17:34Z</time>
      </trkpt>
      <trkpt lat="43.9503" lon="3.71824">
        <ele>313.05</ele>
        <time>2015-02-19T16:17:37Z</time>
      </trkpt>
      <trkpt lat="43.95028" lon="3.7182">
        <ele>309.2</ele>
        <time>2015-02-19T16:17:42Z</time>
      </trkpt>
      <trkpt lat="43.95026" lon="3.71819">
        <ele>312.57</ele>
        <time>2015-02-19T16:17:44Z</time>
      </trkpt>
      <trkpt lat="43.95026" lon="3.71819">
        <ele>312.57</ele>
        <time>2015-02-19T16:17:45Z</time>
      </trkpt>
      <trkpt lat="43.95024" lon="3.71819">
        <ele>308.24</ele>
        <time>2015-02-19T16:17:48Z</time>
      </trkpt>
      <trkpt lat="43.9502" lon="3.71815">
        <ele>311.6</ele>
        <time>2015-02-19T16:17:52Z</time>
      </trkpt>
      <trkpt lat="43.95018" lon="3.71811">
        <ele>308.24</ele>
        <time>2015-02-19T16:17:55Z</time>
      </trkpt>
      <trkpt lat="43.95015" lon="3.71807">
        <ele>306.32</ele>
        <time>2015-02-19T16:17:58Z</time>
      </trkpt>
      <trkpt lat="43.95013" lon="3.71805">
        <ele>306.8</ele>
        <time>2015-02-19T16:18:00Z</time>
      </trkpt>
      <trkpt lat="43.95011" lon="3.71802">
        <ele>309.2</ele>
        <time>2015-02-19T16:18:03Z</time>
      </trkpt>
      <trkpt lat="43.95003" lon="3.71793">
        <ele>306.32</ele>
        <time>2015-02-19T16:18:12Z</time>
      </trkpt>
      <trkpt lat="43.95002" lon="3.71792">
        <ele>306.32</ele>
        <time>2015-02-19T16:18:13Z</time>
      </trkpt>
      <trkpt lat="43.94998" lon="3.71788">
        <ele>307.76</ele>
        <time>2015-02-19T16:18:18Z</time>
      </trkpt>
      <trkpt lat="43.94995" lon="3.71784">
        <ele>306.32</ele>
        <time>2015-02-19T16:18:21Z</time>
      </trkpt>
      <trkpt lat="43.94993" lon="3.71782">
        <ele>308.72</ele>
        <time>2015-02-19T16:18:23Z</time>
      </trkpt>
      <trkpt lat="43.94992" lon="3.71782">
        <ele>305.36</ele>
        <time>2015-02-19T16:18:24Z</time>
      </trkpt>
      <trkpt lat="43.94991" lon="3.71782">
        <ele>309.68</ele>
        <time>2015-02-19T16:18:25Z</time>
      </trkpt>
      <trkpt lat="43.94991" lon="3.71781">
        <ele>309.2</ele>
        <time>2015-02-19T16:18:26Z</time>
      </trkpt>
      <trkpt lat="43.94989" lon="3.71778">
        <ele>307.76</ele>
        <time>2015-02-19T16:18:28Z</time>
      </trkpt>
      <trkpt lat="43.94982" lon="3.71767">
        <ele>309.2</ele>
        <time>2015-02-19T16:18:39Z</time>
      </trkpt>
      <trkpt lat="43.9498" lon="3.71765">
        <ele>304.39</ele>
        <time>2015-02-19T16:18:42Z</time>
      </trkpt>
      <trkpt lat="43.94979" lon="3.71764">
        <ele>305.84</ele>
        <time>2015-02-19T16:18:43Z</time>
      </trkpt>
      <trkpt lat="43.94979" lon="3.71764">
        <ele>310.16</ele>
        <time>2015-02-19T16:18:45Z</time>
      </trkpt>
      <trkpt lat="43.94979" lon="3.71764">
        <ele>306.8</ele>
        <time>2015-02-19T16:18:46Z</time>
      </trkpt>
      <trkpt lat="43.94975" lon="3.71762">
        <ele>308.24</ele>
        <time>2015-02-19T16:18:49Z</time>
      </trkpt>
      <trkpt lat="43.94973" lon="3.71759">
        <ele>301.99</ele>
        <time>2015-02-19T16:18:53Z</time>
      </trkpt>
      <trkpt lat="43.94971" lon="3.71759">
        <ele>307.28</ele>
        <time>2015-02-19T16:18:55Z</time>
      </trkpt>
      <trkpt lat="43.94968" lon="3.71758">
        <ele>303.91</ele>
        <time>2015-02-19T16:18:58Z</time>
      </trkpt>
      <trkpt lat="43.94966" lon="3.71756">
        <ele>303.43</ele>
        <time>2015-02-19T16:19:02Z</time>
      </trkpt>
      <trkpt lat="43.94963" lon="3.71755">
        <ele>300.07</ele>
        <time>2015-02-19T16:19:06Z</time>
      </trkpt>
      <trkpt lat="43.94963" lon="3.71754">
        <ele>303.91</ele>
        <time>2015-02-19T16:19:07Z</time>
      </trkpt>
      <trkpt lat="43.94962" lon="3.71754">
        <ele>300.07</ele>
        <time>2015-02-19T16:19:08Z</time>
      </trkpt>
      <trkpt lat="43.94959" lon="3.71751">
        <ele>303.91</ele>
        <time>2015-02-19T16:19:13Z</time>
      </trkpt>
      <trkpt lat="43.94957" lon="3.7175">
        <ele>299.59</ele>
        <time>2015-02-19T16:19:17Z</time>
      </trkpt>
      <trkpt lat="43.94952" lon="3.71746">
        <ele>296.7</ele>
        <time>2015-02-19T16:19:25Z</time>
      </trkpt>
      <trkpt lat="43.94952" lon="3.71745">
        <ele>297.18</ele>
        <time>2015-02-19T16:19:26Z</time>
      </trkpt>
      <trkpt lat="43.94947" lon="3.71741">
        <ele>296.7</ele>
        <time>2015-02-19T16:19:33Z</time>
      </trkpt>
      <trkpt lat="43.94945" lon="3.71739">
        <ele>297.18</ele>
        <time>2015-02-19T16:19:35Z</time>
      </trkpt>
      <trkpt lat="43.94943" lon="3.71737">
        <ele>298.15</ele>
        <time>2015-02-19T16:19:37Z</time>
      </trkpt>
      <trkpt lat="43.94943" lon="3.71736">
        <ele>294.78</ele>
        <time>2015-02-19T16:19:38Z</time>
      </trkpt>
      <trkpt lat="43.9494" lon="3.71734">
        <ele>293.82</ele>
        <time>2015-02-19T16:19:43Z</time>
      </trkpt>
      <trkpt lat="43.94939" lon="3.71736">
        <ele>295.26</ele>
        <time>2015-02-19T16:19:51Z</time>
      </trkpt>
      <trkpt lat="43.94939" lon="3.71736">
        <ele>293.82</ele>
        <time>2015-02-19T16:19:53Z</time>
      </trkpt>
      <trkpt lat="43.94936" lon="3.71735">
        <ele>293.34</ele>
        <time>2015-02-19T16:20:01Z</time>
      </trkpt>
      <trkpt lat="43.9493" lon="3.71731">
        <ele>290.46</ele>
        <time>2015-02-19T16:20:12Z</time>
      </trkpt>
      <trkpt lat="43.94929" lon="3.71732">
        <ele>287.57</ele>
        <time>2015-02-19T16:20:17Z</time>
      </trkpt>
      <trkpt lat="43.94922" lon="3.71735">
        <ele>285.17</ele>
        <time>2015-02-19T16:20:28Z</time>
      </trkpt>
      <trkpt lat="43.94922" lon="3.71735">
        <ele>289.01</ele>
        <time>2015-02-19T16:20:30Z</time>
      </trkpt>
      <trkpt lat="43.94922" lon="3.71735">
        <ele>285.65</ele>
        <time>2015-02-19T16:20:31Z</time>
      </trkpt>
      <trkpt lat="43.94922" lon="3.71735">
        <ele>285.65</ele>
        <time>2015-02-19T16:20:32Z</time>
      </trkpt>
      <trkpt lat="43.94916" lon="3.71739">
        <ele>287.09</ele>
        <time>2015-02-19T16:20:37Z</time>
      </trkpt>
      <trkpt lat="43.94911" lon="3.71743">
        <ele>284.21</ele>
        <time>2015-02-19T16:20:43Z</time>
      </trkpt>
      <trkpt lat="43.94909" lon="3.71745">
        <ele>286.13</ele>
        <time>2015-02-19T16:20:48Z</time>
      </trkpt>
      <trkpt lat="43.94909" lon="3.71745">
        <ele>282.77</ele>
        <time>2015-02-19T16:20:49Z</time>
      </trkpt>
      <trkpt lat="43.94909" lon="3.71745">
        <ele>281.32</ele>
        <time>2015-02-19T16:20:51Z</time>
      </trkpt>
      <trkpt lat="43.94909" lon="3.71745">
        <ele>285.65</ele>
        <time>2015-02-19T16:20:53Z</time>
      </trkpt>
      <trkpt lat="43.94908" lon="3.71746">
        <ele>286.13</ele>
        <time>2015-02-19T16:20:55Z</time>
      </trkpt>
      <trkpt lat="43.94906" lon="3.71748">
        <ele>282.28</ele>
        <time>2015-02-19T16:20:58Z</time>
      </trkpt>
      <trkpt lat="43.94905" lon="3.71748">
        <ele>282.77</ele>
        <time>2015-02-19T16:20:59Z</time>
      </trkpt>
      <trkpt lat="43.94904" lon="3.71749">
        <ele>284.69</ele>
        <time>2015-02-19T16:21:01Z</time>
      </trkpt>
      <trkpt lat="43.94903" lon="3.7175">
        <ele>281.32</ele>
        <time>2015-02-19T16:21:03Z</time>
      </trkpt>
      <trkpt lat="43.94903" lon="3.7175">
        <ele>281.8</ele>
        <time>2015-02-19T16:21:04Z</time>
      </trkpt>
      <trkpt lat="43.94902" lon="3.71751">
        <ele>283.73</ele>
        <time>2015-02-19T16:21:07Z</time>
      </trkpt>
      <trkpt lat="43.94901" lon="3.71754">
        <ele>282.77</ele>
        <time>2015-02-19T16:21:09Z</time>
      </trkpt>
      <trkpt lat="43.94901" lon="3.71754">
        <ele>283.73</ele>
        <time>2015-02-19T16:21:11Z</time>
      </trkpt>
      <trkpt lat="43.949" lon="3.71755">
        <ele>280.36</ele>
        <time>2015-02-19T16:21:14Z</time>
      </trkpt>
      <trkpt lat="43.94897" lon="3.71761">
        <ele>281.32</ele>
        <time>2015-02-19T16:21:26Z</time>
      </trkpt>
      <trkpt lat="43.94896" lon="3.71761">
        <ele>277.48</ele>
        <time>2015-02-19T16:21:28Z</time>
      </trkpt>
      <trkpt lat="43.94895" lon="3.71762">
        <ele>277.48</ele>
        <time>2015-02-19T16:21:29Z</time>
      </trkpt>
      <trkpt lat="43.94894" lon="3.71763">
        <ele>280.84</ele>
        <time>2015-02-19T16:21:30Z</time>
      </trkpt>
      <trkpt lat="43.94893" lon="3.71763">
        <ele>280.36</ele>
        <time>2015-02-19T16:21:31Z</time>
      </trkpt>
      <trkpt lat="43.94886" lon="3.71763">
        <ele>274.11</ele>
        <time>2015-02-19T16:21:39Z</time>
      </trkpt>
      <trkpt lat="43.94886" lon="3.71763">
        <ele>278.92</ele>
        <time>2015-02-19T16:21:40Z</time>
      </trkpt>
      <trkpt lat="43.94882" lon="3.71767">
        <ele>275.56</ele>
        <time>2015-02-19T16:21:46Z</time>
      </trkpt>
      <trkpt lat="43.94882" lon="3.71769">
        <ele>274.11</ele>
        <time>2015-02-19T16:21:48Z</time>
      </trkpt>
      <trkpt lat="43.94882" lon="3.71771">
        <ele>275.56</ele>
        <time>2015-02-19T16:21:51Z</time>
      </trkpt>
      <trkpt lat="43.9488" lon="3.71777">
        <ele>272.67</ele>
        <time>2015-02-19T16:21:58Z</time>
      </trkpt>
      <trkpt lat="43.94877" lon="3.71782">
        <ele>272.19</ele>
        <time>2015-02-19T16:22:03Z</time>
      </trkpt>
      <trkpt lat="43.94875" lon="3.71782">
        <ele>271.23</ele>
        <time>2015-02-19T16:22:08Z</time>
      </trkpt>
      <trkpt lat="43.94869" lon="3.71781">
        <ele>273.15</ele>
        <time>2015-02-19T16:22:16Z</time>
      </trkpt>
      <trkpt lat="43.94869" lon="3.7178">
        <ele>269.79</ele>
        <time>2015-02-19T16:22:18Z</time>
      </trkpt>
      <trkpt lat="43.94864" lon="3.71779">
        <ele>270.75</ele>
        <time>2015-02-19T16:22:23Z</time>
      </trkpt>
      <trkpt lat="43.94863" lon="3.71779">
        <ele>268.83</ele>
        <time>2015-02-19T16:22:25Z</time>
      </trkpt>
      <trkpt lat="43.94861" lon="3.71779">
        <ele>271.71</ele>
        <time>2015-02-19T16:22:28Z</time>
      </trkpt>
      <trkpt lat="43.9486" lon="3.7178">
        <ele>266.9</ele>
        <time>2015-02-19T16:22:29Z</time>
      </trkpt>
      <trkpt lat="43.94859" lon="3.7178">
        <ele>269.31</ele>
        <time>2015-02-19T16:22:30Z</time>
      </trkpt>
      <trkpt lat="43.94848" lon="3.71781">
        <ele>266.42</ele>
        <time>2015-02-19T16:22:43Z</time>
      </trkpt>
      <trkpt lat="43.94841" lon="3.71785">
        <ele>263.06</ele>
        <time>2015-02-19T16:22:52Z</time>
      </trkpt>
      <trkpt lat="43.94841" lon="3.71785">
        <ele>266.42</ele>
        <time>2015-02-19T16:22:53Z</time>
      </trkpt>
      <trkpt lat="43.94838" lon="3.71786">
        <ele>262.58</ele>
        <time>2015-02-19T16:22:57Z</time>
      </trkpt>
      <trkpt lat="43.94837" lon="3.71786">
        <ele>263.06</ele>
        <time>2015-02-19T16:22:58Z</time>
      </trkpt>
      <trkpt lat="43.94832" lon="3.71787">
        <ele>260.65</ele>
        <time>2015-02-19T16:23:05Z</time>
      </trkpt>
      <trkpt lat="43.94826" lon="3.71788">
        <ele>262.1</ele>
        <time>2015-02-19T16:23:13Z</time>
      </trkpt>
      <trkpt lat="43.94825" lon="3.71787">
        <ele>260.65</ele>
        <time>2015-02-19T16:23:15Z</time>
      </trkpt>
      <trkpt lat="43.9482" lon="3.7179">
        <ele>260.65</ele>
        <time>2015-02-19T16:23:22Z</time>
      </trkpt>
      <trkpt lat="43.94819" lon="3.71791">
        <ele>259.21</ele>
        <time>2015-02-19T16:23:24Z</time>
      </trkpt>
      <trkpt lat="43.94815" lon="3.71794">
        <ele>259.21</ele>
        <time>2015-02-19T16:23:29Z</time>
      </trkpt>
      <trkpt lat="43.9481" lon="3.71795">
        <ele>258.73</ele>
        <time>2015-02-19T16:23:42Z</time>
      </trkpt>
      <trkpt lat="43.9481" lon="3.71798">
        <ele>256.81</ele>
        <time>2015-02-19T16:23:44Z</time>
      </trkpt>
      <trkpt lat="43.94807" lon="3.71803">
        <ele>253.44</ele>
        <time>2015-02-19T16:23:50Z</time>
      </trkpt>
      <trkpt lat="43.94805" lon="3.71805">
        <ele>257.77</ele>
        <time>2015-02-19T16:23:55Z</time>
      </trkpt>
      <trkpt lat="43.94804" lon="3.71806">
        <ele>253.93</ele>
        <time>2015-02-19T16:23:58Z</time>
      </trkpt>
      <trkpt lat="43.94803" lon="3.71806">
        <ele>253.93</ele>
        <time>2015-02-19T16:23:59Z</time>
      </trkpt>
      <trkpt lat="43.948" lon="3.71807">
        <ele>252.48</ele>
        <time>2015-02-19T16:24:03Z</time>
      </trkpt>
      <trkpt lat="43.94795" lon="3.71812">
        <ele>253.93</ele>
        <time>2015-02-19T16:24:13Z</time>
      </trkpt>
      <trkpt lat="43.94785" lon="3.71816">
        <ele>252</ele>
        <time>2015-02-19T16:24:23Z</time>
      </trkpt>
      <trkpt lat="43.94785" lon="3.71816">
        <ele>252</ele>
        <time>2015-02-19T16:24:24Z</time>
      </trkpt>
      <trkpt lat="43.94781" lon="3.7182">
        <ele>247.2</ele>
        <time>2015-02-19T16:24:31Z</time>
      </trkpt>
      <trkpt lat="43.94781" lon="3.7182">
        <ele>247.68</ele>
        <time>2015-02-19T16:24:32Z</time>
      </trkpt>
      <trkpt lat="43.94781" lon="3.7182">
        <ele>253.44</ele>
        <time>2015-02-19T16:24:36Z</time>
      </trkpt>
      <trkpt lat="43.94781" lon="3.7182">
        <ele>252</ele>
        <time>2015-02-19T16:24:37Z</time>
      </trkpt>
      <trkpt lat="43.9478" lon="3.71821">
        <ele>249.6</ele>
        <time>2015-02-19T16:24:40Z</time>
      </trkpt>
      <trkpt lat="43.94779" lon="3.71822">
        <ele>248.64</ele>
        <time>2015-02-19T16:24:44Z</time>
      </trkpt>
      <trkpt lat="43.94771" lon="3.71825">
        <ele>250.08</ele>
        <time>2015-02-19T16:24:54Z</time>
      </trkpt>
      <trkpt lat="43.94769" lon="3.71826">
        <ele>245.75</ele>
        <time>2015-02-19T16:24:56Z</time>
      </trkpt>
      <trkpt lat="43.94769" lon="3.71826">
        <ele>248.64</ele>
        <time>2015-02-19T16:24:57Z</time>
      </trkpt>
      <trkpt lat="43.94763" lon="3.71828">
        <ele>245.75</ele>
        <time>2015-02-19T16:25:04Z</time>
      </trkpt>
      <trkpt lat="43.94762" lon="3.71828">
        <ele>249.6</ele>
        <time>2015-02-19T16:25:06Z</time>
      </trkpt>
      <trkpt lat="43.94761" lon="3.71828">
        <ele>248.16</ele>
        <time>2015-02-19T16:25:07Z</time>
      </trkpt>
      <trkpt lat="43.94759" lon="3.71828">
        <ele>246.23</ele>
        <time>2015-02-19T16:25:09Z</time>
      </trkpt>
      <trkpt lat="43.94752" lon="3.71839">
        <ele>242.87</ele>
        <time>2015-02-19T16:25:22Z</time>
      </trkpt>
      <trkpt lat="43.94753" lon="3.71839">
        <ele>242.87</ele>
        <time>2015-02-19T16:25:23Z</time>
      </trkpt>
      <trkpt lat="43.94752" lon="3.7184">
        <ele>246.23</ele>
        <time>2015-02-19T16:25:24Z</time>
      </trkpt>
      <trkpt lat="43.94753" lon="3.71842">
        <ele>244.79</ele>
        <time>2015-02-19T16:25:25Z</time>
      </trkpt>
      <trkpt lat="43.94753" lon="3.71844">
        <ele>242.39</ele>
        <time>2015-02-19T16:25:27Z</time>
      </trkpt>
      <trkpt lat="43.94756" lon="3.71847">
        <ele>244.31</ele>
        <time>2015-02-19T16:25:30Z</time>
      </trkpt>
      <trkpt lat="43.94759" lon="3.71851">
        <ele>241.91</ele>
        <time>2015-02-19T16:25:36Z</time>
      </trkpt>
      <trkpt lat="43.94757" lon="3.71858">
        <ele>239.02</ele>
        <time>2015-02-19T16:25:42Z</time>
      </trkpt>
      <trkpt lat="43.94756" lon="3.7186">
        <ele>241.91</ele>
        <time>2015-02-19T16:25:44Z</time>
      </trkpt>
      <trkpt lat="43.94748" lon="3.71867">
        <ele>240.95</ele>
        <time>2015-02-19T16:25:56Z</time>
      </trkpt>
      <trkpt lat="43.94745" lon="3.71868">
        <ele>238.06</ele>
        <time>2015-02-19T16:26:00Z</time>
      </trkpt>
      <trkpt lat="43.94744" lon="3.71869">
        <ele>237.58</ele>
        <time>2015-02-19T16:26:01Z</time>
      </trkpt>
      <trkpt lat="43.9474" lon="3.71873">
        <ele>235.66</ele>
        <time>2015-02-19T16:26:06Z</time>
      </trkpt>
      <trkpt lat="43.94734" lon="3.71878">
        <ele>235.18</ele>
        <time>2015-02-19T16:26:14Z</time>
      </trkpt>
      <trkpt lat="43.94733" lon="3.71878">
        <ele>233.74</ele>
        <time>2015-02-19T16:26:16Z</time>
      </trkpt>
      <trkpt lat="43.94731" lon="3.71879">
        <ele>235.66</ele>
        <time>2015-02-19T16:26:18Z</time>
      </trkpt>
      <trkpt lat="43.9473" lon="3.71879">
        <ele>235.66</ele>
        <time>2015-02-19T16:26:19Z</time>
      </trkpt>
      <trkpt lat="43.94727" lon="3.71878">
        <ele>230.85</ele>
        <time>2015-02-19T16:26:22Z</time>
      </trkpt>
      <trkpt lat="43.94723" lon="3.71877">
        <ele>234.7</ele>
        <time>2015-02-19T16:26:27Z</time>
      </trkpt>
      <trkpt lat="43.94723" lon="3.71877">
        <ele>234.7</ele>
        <time>2015-02-19T16:26:28Z</time>
      </trkpt>
      <trkpt lat="43.9472" lon="3.71875">
        <ele>234.22</ele>
        <time>2015-02-19T16:26:34Z</time>
      </trkpt>
      <trkpt lat="43.94706" lon="3.7187">
        <ele>231.33</ele>
        <time>2015-02-19T16:26:48Z</time>
      </trkpt>
      <trkpt lat="43.94698" lon="3.71867">
        <ele>227.97</ele>
        <time>2015-02-19T16:26:55Z</time>
      </trkpt>
      <trkpt lat="43.94693" lon="3.71862">
        <ele>227.49</ele>
        <time>2015-02-19T16:27:06Z</time>
      </trkpt>
      <trkpt lat="43.94691" lon="3.71861">
        <ele>229.89</ele>
        <time>2015-02-19T16:27:09Z</time>
      </trkpt>
      <trkpt lat="43.94689" lon="3.7186">
        <ele>226.05</ele>
        <time>2015-02-19T16:27:13Z</time>
      </trkpt>
      <trkpt lat="43.94688" lon="3.71859">
        <ele>226.05</ele>
        <time>2015-02-19T16:27:14Z</time>
      </trkpt>
      <trkpt lat="43.94686" lon="3.71857">
        <ele>228.93</ele>
        <time>2015-02-19T16:27:21Z</time>
      </trkpt>
      <trkpt lat="43.94685" lon="3.71856">
        <ele>228.93</ele>
        <time>2015-02-19T16:27:22Z</time>
      </trkpt>
      <trkpt lat="43.94684" lon="3.71854">
        <ele>225.57</ele>
        <time>2015-02-19T16:27:24Z</time>
      </trkpt>
      <trkpt lat="43.94683" lon="3.71853">
        <ele>222.68</ele>
        <time>2015-02-19T16:27:26Z</time>
      </trkpt>
      <trkpt lat="43.94682" lon="3.71852">
        <ele>227.01</ele>
        <time>2015-02-19T16:27:27Z</time>
      </trkpt>
      <trkpt lat="43.94682" lon="3.71851">
        <ele>227.01</ele>
        <time>2015-02-19T16:27:28Z</time>
      </trkpt>
      <trkpt lat="43.94681" lon="3.71851">
        <ele>224.12</ele>
        <time>2015-02-19T16:27:30Z</time>
      </trkpt>
      <trkpt lat="43.94681" lon="3.7185">
        <ele>224.12</ele>
        <time>2015-02-19T16:27:31Z</time>
      </trkpt>
      <trkpt lat="43.9468" lon="3.71848">
        <ele>227.01</ele>
        <time>2015-02-19T16:27:32Z</time>
      </trkpt>
      <trkpt lat="43.94677" lon="3.71843">
        <ele>223.64</ele>
        <time>2015-02-19T16:27:37Z</time>
      </trkpt>
      <trkpt lat="43.94676" lon="3.71842">
        <ele>223.16</ele>
        <time>2015-02-19T16:27:38Z</time>
      </trkpt>
      <trkpt lat="43.94671" lon="3.71833">
        <ele>223.64</ele>
        <time>2015-02-19T16:27:49Z</time>
      </trkpt>
      <trkpt lat="43.9467" lon="3.71831">
        <ele>220.76</ele>
        <time>2015-02-19T16:27:51Z</time>
      </trkpt>
      <trkpt lat="43.94669" lon="3.7183">
        <ele>221.24</ele>
        <time>2015-02-19T16:27:52Z</time>
      </trkpt>
      <trkpt lat="43.94663" lon="3.71819">
        <ele>220.28</ele>
        <time>2015-02-19T16:28:04Z</time>
      </trkpt>
      <trkpt lat="43.94662" lon="3.71818">
        <ele>222.68</ele>
        <time>2015-02-19T16:28:06Z</time>
      </trkpt>
      <trkpt lat="43.94662" lon="3.71818">
        <ele>218.84</ele>
        <time>2015-02-19T16:28:08Z</time>
      </trkpt>
      <trkpt lat="43.94661" lon="3.71817">
        <ele>221.72</ele>
        <time>2015-02-19T16:28:10Z</time>
      </trkpt>
      <trkpt lat="43.94658" lon="3.71814">
        <ele>218.36</ele>
        <time>2015-02-19T16:28:13Z</time>
      </trkpt>
      <trkpt lat="43.9465" lon="3.71804">
        <ele>215.47</ele>
        <time>2015-02-19T16:28:24Z</time>
      </trkpt>
      <trkpt lat="43.9465" lon="3.71803">
        <ele>215.47</ele>
        <time>2015-02-19T16:28:25Z</time>
      </trkpt>
      <trkpt lat="43.94649" lon="3.718">
        <ele>217.4</ele>
        <time>2015-02-19T16:28:27Z</time>
      </trkpt>
      <trkpt lat="43.94648" lon="3.71798">
        <ele>217.88</ele>
        <time>2015-02-19T16:28:31Z</time>
      </trkpt>
      <trkpt lat="43.94647" lon="3.71796">
        <ele>215.95</ele>
        <time>2015-02-19T16:28:35Z</time>
      </trkpt>
      <trkpt lat="43.94638" lon="3.71783">
        <ele>212.11</ele>
        <time>2015-02-19T16:28:48Z</time>
      </trkpt>
      <trkpt lat="43.94637" lon="3.71782">
        <ele>214.99</ele>
        <time>2015-02-19T16:28:49Z</time>
      </trkpt>
      <trkpt lat="43.94637" lon="3.71782">
        <ele>212.11</ele>
        <time>2015-02-19T16:28:50Z</time>
      </trkpt>
      <trkpt lat="43.94637" lon="3.71781">
        <ele>216.43</ele>
        <time>2015-02-19T16:28:51Z</time>
      </trkpt>
      <trkpt lat="43.94635" lon="3.7178">
        <ele>212.11</ele>
        <time>2015-02-19T16:28:54Z</time>
      </trkpt>
      <trkpt lat="43.94635" lon="3.71779">
        <ele>215.47</ele>
        <time>2015-02-19T16:28:55Z</time>
      </trkpt>
      <trkpt lat="43.94632" lon="3.71778">
        <ele>212.11</ele>
        <time>2015-02-19T16:28:59Z</time>
      </trkpt>
      <trkpt lat="43.94631" lon="3.71776">
        <ele>212.11</ele>
        <time>2015-02-19T16:29:00Z</time>
      </trkpt>
      <trkpt lat="43.9463" lon="3.71775">
        <ele>213.07</ele>
        <time>2015-02-19T16:29:02Z</time>
      </trkpt>
      <trkpt lat="43.94626" lon="3.71771">
        <ele>209.7</ele>
        <time>2015-02-19T16:29:06Z</time>
      </trkpt>
      <trkpt lat="43.94624" lon="3.7177">
        <ele>212.11</ele>
        <time>2015-02-19T16:29:10Z</time>
      </trkpt>
      <trkpt lat="43.94623" lon="3.71769">
        <ele>210.67</ele>
        <time>2015-02-19T16:29:12Z</time>
      </trkpt>
      <trkpt lat="43.94619" lon="3.71768">
        <ele>210.67</ele>
        <time>2015-02-19T16:29:18Z</time>
      </trkpt>
      <trkpt lat="43.94617" lon="3.71766">
        <ele>212.11</ele>
        <time>2015-02-19T16:29:20Z</time>
      </trkpt>
      <trkpt lat="43.94614" lon="3.71765">
        <ele>209.7</ele>
        <time>2015-02-19T16:29:22Z</time>
      </trkpt>
      <trkpt lat="43.94614" lon="3.71765">
        <ele>210.19</ele>
        <time>2015-02-19T16:29:23Z</time>
      </trkpt>
      <trkpt lat="43.94613" lon="3.71764">
        <ele>211.63</ele>
        <time>2015-02-19T16:29:25Z</time>
      </trkpt>
      <trkpt lat="43.9461" lon="3.71759">
        <ele>206.82</ele>
        <time>2015-02-19T16:29:30Z</time>
      </trkpt>
      <trkpt lat="43.9461" lon="3.71759">
        <ele>207.3</ele>
        <time>2015-02-19T16:29:31Z</time>
      </trkpt>
      <trkpt lat="43.94608" lon="3.71758">
        <ele>208.26</ele>
        <time>2015-02-19T16:29:33Z</time>
      </trkpt>
      <trkpt lat="43.94599" lon="3.71751">
        <ele>205.38</ele>
        <time>2015-02-19T16:29:45Z</time>
      </trkpt>
      <trkpt lat="43.9459" lon="3.71743">
        <ele>205.86</ele>
        <time>2015-02-19T16:29:57Z</time>
      </trkpt>
      <trkpt lat="43.94588" lon="3.71741">
        <ele>203.46</ele>
        <time>2015-02-19T16:30:01Z</time>
      </trkpt>
      <trkpt lat="43.94583" lon="3.71738">
        <ele>203.94</ele>
        <time>2015-02-19T16:30:13Z</time>
      </trkpt>
      <trkpt lat="43.94583" lon="3.71738">
        <ele>206.34</ele>
        <time>2015-02-19T16:30:16Z</time>
      </trkpt>
      <trkpt lat="43.94583" lon="3.71738">
        <ele>202.98</ele>
        <time>2015-02-19T16:30:17Z</time>
      </trkpt>
      <trkpt lat="43.94583" lon="3.71737">
        <ele>203.46</ele>
        <time>2015-02-19T16:30:18Z</time>
      </trkpt>
      <trkpt lat="43.94581" lon="3.71735">
        <ele>204.9</ele>
        <time>2015-02-19T16:30:21Z</time>
      </trkpt>
      <trkpt lat="43.94579" lon="3.71733">
        <ele>201.53</ele>
        <time>2015-02-19T16:30:26Z</time>
      </trkpt>
      <trkpt lat="43.94577" lon="3.71732">
        <ele>204.9</ele>
        <time>2015-02-19T16:30:30Z</time>
      </trkpt>
      <trkpt lat="43.94574" lon="3.71731">
        <ele>200.09</ele>
        <time>2015-02-19T16:30:34Z</time>
      </trkpt>
      <trkpt lat="43.94565" lon="3.71722">
        <ele>199.13</ele>
        <time>2015-02-19T16:30:48Z</time>
      </trkpt>
      <trkpt lat="43.94565" lon="3.71722">
        <ele>198.65</ele>
        <time>2015-02-19T16:30:50Z</time>
      </trkpt>
      <trkpt lat="43.94563" lon="3.71721">
        <ele>201.53</ele>
        <time>2015-02-19T16:30:52Z</time>
      </trkpt>
      <trkpt lat="43.94563" lon="3.7172">
        <ele>198.17</ele>
        <time>2015-02-19T16:30:57Z</time>
      </trkpt>
      <trkpt lat="43.94563" lon="3.7172">
        <ele>202.49</ele>
        <time>2015-02-19T16:30:59Z</time>
      </trkpt>
      <trkpt lat="43.94563" lon="3.7172">
        <ele>198.65</ele>
        <time>2015-02-19T16:31:00Z</time>
      </trkpt>
      <trkpt lat="43.94563" lon="3.7172">
        <ele>199.13</ele>
        <time>2015-02-19T16:31:01Z</time>
      </trkpt>
      <trkpt lat="43.94563" lon="3.7172">
        <ele>202.01</ele>
        <time>2015-02-19T16:31:08Z</time>
      </trkpt>
      <trkpt lat="43.94563" lon="3.7172">
        <ele>198.17</ele>
        <time>2015-02-19T16:31:09Z</time>
      </trkpt>
      <trkpt lat="43.94563" lon="3.7172">
        <ele>198.17</ele>
        <time>2015-02-19T16:31:10Z</time>
      </trkpt>
      <trkpt lat="43.94563" lon="3.7172">
        <ele>201.05</ele>
        <time>2015-02-19T16:31:11Z</time>
      </trkpt>
      <trkpt lat="43.94563" lon="3.7172">
        <ele>200.09</ele>
        <time>2015-02-19T16:31:12Z</time>
      </trkpt>
      <trkpt lat="43.94563" lon="3.7172">
        <ele>197.21</ele>
        <time>2015-02-19T16:31:13Z</time>
      </trkpt>
      <trkpt lat="43.94563" lon="3.7172">
        <ele>199.13</ele>
        <time>2015-02-19T16:31:14Z</time>
      </trkpt>
      <trkpt lat="43.94563" lon="3.7172">
        <ele>202.98</ele>
        <time>2015-02-19T16:31:16Z</time>
      </trkpt>
      <trkpt lat="43.94562" lon="3.7172">
        <ele>196.25</ele>
        <time>2015-02-19T16:31:18Z</time>
      </trkpt>
      <trkpt lat="43.94561" lon="3.7172">
        <ele>198.65</ele>
        <time>2015-02-19T16:31:19Z</time>
      </trkpt>
      <trkpt lat="43.94561" lon="3.71719">
        <ele>201.53</ele>
        <time>2015-02-19T16:31:20Z</time>
      </trkpt>
      <trkpt lat="43.94558" lon="3.71715">
        <ele>199.13</ele>
        <time>2015-02-19T16:31:24Z</time>
      </trkpt>
      <trkpt lat="43.94556" lon="3.71712">
        <ele>196.25</ele>
        <time>2015-02-19T16:31:28Z</time>
      </trkpt>
      <trkpt lat="43.94554" lon="3.71711">
        <ele>200.57</ele>
        <time>2015-02-19T16:31:30Z</time>
      </trkpt>
      <trkpt lat="43.94553" lon="3.7171">
        <ele>196.25</ele>
        <time>2015-02-19T16:31:31Z</time>
      </trkpt>
      <trkpt lat="43.94551" lon="3.71708">
        <ele>199.13</ele>
        <time>2015-02-19T16:31:34Z</time>
      </trkpt>
      <trkpt lat="43.9455" lon="3.71708">
        <ele>195.77</ele>
        <time>2015-02-19T16:31:35Z</time>
      </trkpt>
      <trkpt lat="43.94549" lon="3.71706">
        <ele>198.65</ele>
        <time>2015-02-19T16:31:37Z</time>
      </trkpt>
      <trkpt lat="43.94548" lon="3.71705">
        <ele>195.28</ele>
        <time>2015-02-19T16:31:40Z</time>
      </trkpt>
      <trkpt lat="43.94548" lon="3.71705">
        <ele>195.77</ele>
        <time>2015-02-19T16:31:41Z</time>
      </trkpt>
      <trkpt lat="43.94542" lon="3.717">
        <ele>197.21</ele>
        <time>2015-02-19T16:31:53Z</time>
      </trkpt>
      <trkpt lat="43.9454" lon="3.717">
        <ele>194.8</ele>
        <time>2015-02-19T16:31:56Z</time>
      </trkpt>
      <trkpt lat="43.94535" lon="3.71695">
        <ele>195.77</ele>
        <time>2015-02-19T16:32:04Z</time>
      </trkpt>
      <trkpt lat="43.94532" lon="3.71692">
        <ele>194.8</ele>
        <time>2015-02-19T16:32:10Z</time>
      </trkpt>
      <trkpt lat="43.94531" lon="3.71691">
        <ele>191.44</ele>
        <time>2015-02-19T16:32:11Z</time>
      </trkpt>
      <trkpt lat="43.9453" lon="3.7169">
        <ele>191.44</ele>
        <time>2015-02-19T16:32:12Z</time>
      </trkpt>
      <trkpt lat="43.94529" lon="3.71689">
        <ele>195.28</ele>
        <time>2015-02-19T16:32:13Z</time>
      </trkpt>
      <trkpt lat="43.94528" lon="3.71688">
        <ele>195.28</ele>
        <time>2015-02-19T16:32:14Z</time>
      </trkpt>
      <trkpt lat="43.94525" lon="3.71687">
        <ele>190.48</ele>
        <time>2015-02-19T16:32:19Z</time>
      </trkpt>
      <trkpt lat="43.94525" lon="3.71687">
        <ele>193.84</ele>
        <time>2015-02-19T16:32:22Z</time>
      </trkpt>
      <trkpt lat="43.94525" lon="3.71687">
        <ele>193.84</ele>
        <time>2015-02-19T16:32:29Z</time>
      </trkpt>
      <trkpt lat="43.9452" lon="3.71684">
        <ele>190.48</ele>
        <time>2015-02-19T16:32:37Z</time>
      </trkpt>
      <trkpt lat="43.94518" lon="3.71682">
        <ele>190.48</ele>
        <time>2015-02-19T16:32:41Z</time>
      </trkpt>
      <trkpt lat="43.94517" lon="3.71681">
        <ele>190.48</ele>
        <time>2015-02-19T16:32:57Z</time>
      </trkpt>
      <trkpt lat="43.94516" lon="3.71682">
        <ele>192.88</ele>
        <time>2015-02-19T16:33:08Z</time>
      </trkpt>
      <trkpt lat="43.94513" lon="3.71682">
        <ele>189.52</ele>
        <time>2015-02-19T16:33:10Z</time>
      </trkpt>
      <trkpt lat="43.94512" lon="3.71682">
        <ele>188.56</ele>
        <time>2015-02-19T16:33:12Z</time>
      </trkpt>
      <trkpt lat="43.94511" lon="3.71682">
        <ele>191.92</ele>
        <time>2015-02-19T16:33:17Z</time>
      </trkpt>
      <trkpt lat="43.94511" lon="3.71682">
        <ele>188.08</ele>
        <time>2015-02-19T16:33:18Z</time>
      </trkpt>
      <trkpt lat="43.94511" lon="3.71682">
        <ele>188.56</ele>
        <time>2015-02-19T16:33:19Z</time>
      </trkpt>
      <trkpt lat="43.94511" lon="3.71682">
        <ele>191.44</ele>
        <time>2015-02-19T16:33:20Z</time>
      </trkpt>
      <trkpt lat="43.94511" lon="3.71682">
        <ele>188.56</ele>
        <time>2015-02-19T16:33:21Z</time>
      </trkpt>
      <trkpt lat="43.94511" lon="3.71682">
        <ele>188.08</ele>
        <time>2015-02-19T16:33:23Z</time>
      </trkpt>
      <trkpt lat="43.94511" lon="3.71683">
        <ele>191.44</ele>
        <time>2015-02-19T16:33:28Z</time>
      </trkpt>
      <trkpt lat="43.94512" lon="3.71683">
        <ele>189.52</ele>
        <time>2015-02-19T16:33:29Z</time>
      </trkpt>
      <trkpt lat="43.94509" lon="3.71683">
        <ele>190.48</ele>
        <time>2015-02-19T16:33:42Z</time>
      </trkpt>
      <trkpt lat="43.94509" lon="3.71683">
        <ele>188.56</ele>
        <time>2015-02-19T16:33:45Z</time>
      </trkpt>
      <trkpt lat="43.94509" lon="3.71683">
        <ele>191.92</ele>
        <time>2015-02-19T16:33:47Z</time>
      </trkpt>
      <trkpt lat="43.94509" lon="3.71683">
        <ele>189.52</ele>
        <time>2015-02-19T16:33:50Z</time>
      </trkpt>
      <trkpt lat="43.94509" lon="3.71683">
        <ele>188.08</ele>
        <time>2015-02-19T16:33:54Z</time>
      </trkpt>
      <trkpt lat="43.94509" lon="3.71683">
        <ele>190.96</ele>
        <time>2015-02-19T16:33:56Z</time>
      </trkpt>
      <trkpt lat="43.94509" lon="3.71683">
        <ele>187.59</ele>
        <time>2015-02-19T16:34:03Z</time>
      </trkpt>
      <trkpt lat="43.94509" lon="3.71683">
        <ele>190.96</ele>
        <time>2015-02-19T16:34:05Z</time>
      </trkpt>
      <trkpt lat="43.94509" lon="3.71683">
        <ele>190</ele>
        <time>2015-02-19T16:34:06Z</time>
      </trkpt>
      <trkpt lat="43.94509" lon="3.71683">
        <ele>190.48</ele>
        <time>2015-02-19T16:34:18Z</time>
      </trkpt>
      <trkpt lat="43.94509" lon="3.71683">
        <ele>187.59</ele>
        <time>2015-02-19T16:34:20Z</time>
      </trkpt>
      <trkpt lat="43.94509" lon="3.71683">
        <ele>190.96</ele>
        <time>2015-02-19T16:34:22Z</time>
      </trkpt>
      <trkpt lat="43.94509" lon="3.71683">
        <ele>190</ele>
        <time>2015-02-19T16:34:23Z</time>
      </trkpt>
      <trkpt lat="43.94508" lon="3.71684">
        <ele>187.11</ele>
        <time>2015-02-19T16:34:33Z</time>
      </trkpt>
      <trkpt lat="43.94508" lon="3.71684">
        <ele>189.04</ele>
        <time>2015-02-19T16:34:34Z</time>
      </trkpt>
      <trkpt lat="43.94508" lon="3.71684">
        <ele>190</ele>
        <time>2015-02-19T16:34:39Z</time>
      </trkpt>
      <trkpt lat="43.94508" lon="3.71684">
        <ele>192.88</ele>
        <time>2015-02-19T16:34:43Z</time>
      </trkpt>
      <trkpt lat="43.94508" lon="3.71684">
        <ele>187.59</ele>
        <time>2015-02-19T16:34:45Z</time>
      </trkpt>
      <trkpt lat="43.94508" lon="3.71684">
        <ele>189.04</ele>
        <time>2015-02-19T16:34:46Z</time>
      </trkpt>
      <trkpt lat="43.94506" lon="3.71684">
        <ele>190.48</ele>
        <time>2015-02-19T16:35:10Z</time>
      </trkpt>
      <trkpt lat="43.94506" lon="3.71684">
        <ele>190.48</ele>
        <time>2015-02-19T16:35:11Z</time>
      </trkpt>
      <trkpt lat="43.94506" lon="3.71684">
        <ele>188.08</ele>
        <time>2015-02-19T16:35:15Z</time>
      </trkpt>
      <trkpt lat="43.94506" lon="3.71684">
        <ele>191.44</ele>
        <time>2015-02-19T16:35:16Z</time>
      </trkpt>
      <trkpt lat="43.94506" lon="3.71684">
        <ele>191.92</ele>
        <time>2015-02-19T16:35:17Z</time>
      </trkpt>
      <trkpt lat="43.94506" lon="3.71684">
        <ele>189.52</ele>
        <time>2015-02-19T16:35:19Z</time>
      </trkpt>
      <trkpt lat="43.94506" lon="3.71684">
        <ele>190.96</ele>
        <time>2015-02-19T16:35:26Z</time>
      </trkpt>
      <trkpt lat="43.94506" lon="3.71684">
        <ele>189.04</ele>
        <time>2015-02-19T16:35:28Z</time>
      </trkpt>
      <trkpt lat="43.94506" lon="3.71684">
        <ele>191.44</ele>
        <time>2015-02-19T16:35:34Z</time>
      </trkpt>
      <trkpt lat="43.94506" lon="3.71684">
        <ele>187.59</ele>
        <time>2015-02-19T16:35:35Z</time>
      </trkpt>
      <trkpt lat="43.94506" lon="3.71684">
        <ele>191.44</ele>
        <time>2015-02-19T16:35:36Z</time>
      </trkpt>
      <trkpt lat="43.94506" lon="3.71684">
        <ele>188.08</ele>
        <time>2015-02-19T16:35:40Z</time>
      </trkpt>
      <trkpt lat="43.94506" lon="3.71684">
        <ele>192.4</ele>
        <time>2015-02-19T16:35:42Z</time>
      </trkpt>
      <trkpt lat="43.94506" lon="3.71684">
        <ele>188.56</ele>
        <time>2015-02-19T16:35:44Z</time>
      </trkpt>
      <trkpt lat="43.94506" lon="3.71684">
        <ele>190</ele>
        <time>2015-02-19T16:35:54Z</time>
      </trkpt>
      <trkpt lat="43.94504" lon="3.71683">
        <ele>190.96</ele>
        <time>2015-02-19T16:35:56Z</time>
      </trkpt>
      <trkpt lat="43.94502" lon="3.71682">
        <ele>191.44</ele>
        <time>2015-02-19T16:35:57Z</time>
      </trkpt>
      <trkpt lat="43.94498" lon="3.71682">
        <ele>186.15</ele>
        <time>2015-02-19T16:36:01Z</time>
      </trkpt>
      <trkpt lat="43.94496" lon="3.71682">
        <ele>190</ele>
        <time>2015-02-19T16:36:02Z</time>
      </trkpt>
      <trkpt lat="43.94493" lon="3.71682">
        <ele>187.59</ele>
        <time>2015-02-19T16:36:05Z</time>
      </trkpt>
      <trkpt lat="43.94491" lon="3.71682">
        <ele>188.08</ele>
        <time>2015-02-19T16:36:07Z</time>
      </trkpt>
      <trkpt lat="43.94488" lon="3.71683">
        <ele>186.15</ele>
        <time>2015-02-19T16:36:18Z</time>
      </trkpt>
      <trkpt lat="43.94488" lon="3.71683">
        <ele>190.48</ele>
        <time>2015-02-19T16:36:19Z</time>
      </trkpt>
      <trkpt lat="43.94488" lon="3.71683">
        <ele>188.08</ele>
        <time>2015-02-19T16:36:23Z</time>
      </trkpt>
      <trkpt lat="43.94488" lon="3.71683">
        <ele>186.63</ele>
        <time>2015-02-19T16:36:37Z</time>
      </trkpt>
      <trkpt lat="43.94488" lon="3.71683">
        <ele>189.52</ele>
        <time>2015-02-19T16:36:39Z</time>
      </trkpt>
      <trkpt lat="43.94488" lon="3.71683">
        <ele>187.59</ele>
        <time>2015-02-19T16:36:47Z</time>
      </trkpt>
    </trkseg>
  </trk>
</gpx>